<?xml version="1.0" encoding="UTF-8" standalone="no" ?>
<gpx xmlns="http://www.topografix.com/GPX/1/1" xmlns:xsi="http://www.w3.org/2001/XMLSchema-instance" xsi:schemaLocation="http://www.topografix.com/GPX/1/1 http://www.topografix.com/GPX/1/1/gpx.xsd" version="1.1" creator="VisuGPX - https://www.visugpx.com">
  <metadata>
    <name>Saint Victor la Coste Est 30 km 14-11-21</name>
  </metadata>
  <trk>
    <name><![CDATA[Saint Victor la Coste Est 30 km 14-11-21]]></name>
    <extensions>
      <line xmlns="http://www.topografix.com/GPX/gpx_style/0/2">
        <color>0000FF</color>
        <width>4</width>
      </line>
    </extensions>
    <trkseg>
      <trkpt lat="44.06223" lon="4.64825">
        <ele>145.33</ele>
        <time>2021-11-14T09:25:06Z</time>
      </trkpt>
      <trkpt lat="44.06221" lon="4.64824">
        <ele>145.53</ele>
        <time>2021-11-14T09:25:26Z</time>
      </trkpt>
      <trkpt lat="44.06218" lon="4.64825">
        <ele>145.56</ele>
        <time>2021-11-14T09:25:29Z</time>
      </trkpt>
      <trkpt lat="44.06212" lon="4.64823">
        <ele>146.02</ele>
        <time>2021-11-14T09:25:33Z</time>
      </trkpt>
      <trkpt lat="44.06181" lon="4.6481">
        <ele>148.01</ele>
        <time>2021-11-14T09:25:53Z</time>
      </trkpt>
      <trkpt lat="44.06149" lon="4.64794">
        <ele>148.81</ele>
        <time>2021-11-14T09:26:13Z</time>
      </trkpt>
      <trkpt lat="44.06118" lon="4.64801">
        <ele>149.54</ele>
        <time>2021-11-14T09:26:30Z</time>
      </trkpt>
      <trkpt lat="44.06091" lon="4.64797">
        <ele>150.32</ele>
        <time>2021-11-14T09:26:44Z</time>
      </trkpt>
      <trkpt lat="44.06089" lon="4.64797">
        <ele>150.09</ele>
        <time>2021-11-14T09:26:45Z</time>
      </trkpt>
      <trkpt lat="44.06081" lon="4.64816">
        <ele>150.89</ele>
        <time>2021-11-14T09:26:54Z</time>
      </trkpt>
      <trkpt lat="44.06079" lon="4.64847">
        <ele>150.37</ele>
        <time>2021-11-14T09:27:04Z</time>
      </trkpt>
      <trkpt lat="44.06079" lon="4.64896">
        <ele>150.2</ele>
        <time>2021-11-14T09:27:21Z</time>
      </trkpt>
      <trkpt lat="44.06065" lon="4.64949">
        <ele>149.7</ele>
        <time>2021-11-14T09:27:41Z</time>
      </trkpt>
      <trkpt lat="44.06029" lon="4.64968">
        <ele>149.75</ele>
        <time>2021-11-14T09:28:00Z</time>
      </trkpt>
      <trkpt lat="44.05994" lon="4.64967">
        <ele>150.98</ele>
        <time>2021-11-14T09:28:20Z</time>
      </trkpt>
      <trkpt lat="44.05952" lon="4.64974">
        <ele>153.09</ele>
        <time>2021-11-14T09:28:44Z</time>
      </trkpt>
      <trkpt lat="44.0593" lon="4.64981">
        <ele>154.55</ele>
        <time>2021-11-14T09:28:59Z</time>
      </trkpt>
      <trkpt lat="44.05928" lon="4.65009">
        <ele>155.96</ele>
        <time>2021-11-14T09:29:13Z</time>
      </trkpt>
      <trkpt lat="44.05927" lon="4.65011">
        <ele>156</ele>
        <time>2021-11-14T09:29:14Z</time>
      </trkpt>
      <trkpt lat="44.05925" lon="4.65011">
        <ele>156.12</ele>
        <time>2021-11-14T09:29:15Z</time>
      </trkpt>
      <trkpt lat="44.05924" lon="4.65011">
        <ele>156.23</ele>
        <time>2021-11-14T09:29:16Z</time>
      </trkpt>
      <trkpt lat="44.05922" lon="4.65011">
        <ele>156.18</ele>
        <time>2021-11-14T09:29:17Z</time>
      </trkpt>
      <trkpt lat="44.05896" lon="4.65008">
        <ele>157.04</ele>
        <time>2021-11-14T09:29:34Z</time>
      </trkpt>
      <trkpt lat="44.05863" lon="4.65002">
        <ele>158.63</ele>
        <time>2021-11-14T09:29:56Z</time>
      </trkpt>
      <trkpt lat="44.05845" lon="4.65006">
        <ele>159.23</ele>
        <time>2021-11-14T09:30:09Z</time>
      </trkpt>
      <trkpt lat="44.05845" lon="4.65008">
        <ele>158.97</ele>
        <time>2021-11-14T09:30:10Z</time>
      </trkpt>
      <trkpt lat="44.05845" lon="4.6501">
        <ele>159.26</ele>
        <time>2021-11-14T09:30:11Z</time>
      </trkpt>
      <trkpt lat="44.05845" lon="4.65013">
        <ele>159.35</ele>
        <time>2021-11-14T09:30:12Z</time>
      </trkpt>
      <trkpt lat="44.05845" lon="4.65015">
        <ele>159.28</ele>
        <time>2021-11-14T09:30:13Z</time>
      </trkpt>
      <trkpt lat="44.05845" lon="4.65017">
        <ele>158.79</ele>
        <time>2021-11-14T09:30:14Z</time>
      </trkpt>
      <trkpt lat="44.05845" lon="4.6502">
        <ele>159.35</ele>
        <time>2021-11-14T09:30:15Z</time>
      </trkpt>
      <trkpt lat="44.05845" lon="4.65022">
        <ele>159.58</ele>
        <time>2021-11-14T09:30:16Z</time>
      </trkpt>
      <trkpt lat="44.05845" lon="4.65025">
        <ele>159.66</ele>
        <time>2021-11-14T09:30:17Z</time>
      </trkpt>
      <trkpt lat="44.05845" lon="4.65027">
        <ele>159.57</ele>
        <time>2021-11-14T09:30:18Z</time>
      </trkpt>
      <trkpt lat="44.05848" lon="4.65069">
        <ele>162.87</ele>
        <time>2021-11-14T09:30:37Z</time>
      </trkpt>
      <trkpt lat="44.05849" lon="4.65113">
        <ele>164.1</ele>
        <time>2021-11-14T09:30:57Z</time>
      </trkpt>
      <trkpt lat="44.05851" lon="4.65161">
        <ele>165.15</ele>
        <time>2021-11-14T09:31:16Z</time>
      </trkpt>
      <trkpt lat="44.05861" lon="4.65217">
        <ele>164.89</ele>
        <time>2021-11-14T09:31:34Z</time>
      </trkpt>
      <trkpt lat="44.05871" lon="4.65308">
        <ele>163.36</ele>
        <time>2021-11-14T09:31:56Z</time>
      </trkpt>
      <trkpt lat="44.05861" lon="4.65351">
        <ele>163.6</ele>
        <time>2021-11-14T09:32:09Z</time>
      </trkpt>
      <trkpt lat="44.05857" lon="4.65384">
        <ele>163.72</ele>
        <time>2021-11-14T09:32:20Z</time>
      </trkpt>
      <trkpt lat="44.05851" lon="4.65405">
        <ele>163.89</ele>
        <time>2021-11-14T09:32:27Z</time>
      </trkpt>
      <trkpt lat="44.05852" lon="4.65411">
        <ele>162.64</ele>
        <time>2021-11-14T09:33:23Z</time>
      </trkpt>
      <trkpt lat="44.05852" lon="4.65413">
        <ele>163.12</ele>
        <time>2021-11-14T09:33:24Z</time>
      </trkpt>
      <trkpt lat="44.05852" lon="4.65415">
        <ele>163.05</ele>
        <time>2021-11-14T09:33:25Z</time>
      </trkpt>
      <trkpt lat="44.05848" lon="4.65455">
        <ele>162.09</ele>
        <time>2021-11-14T09:33:37Z</time>
      </trkpt>
      <trkpt lat="44.05837" lon="4.65474">
        <ele>160.89</ele>
        <time>2021-11-14T09:33:42Z</time>
      </trkpt>
      <trkpt lat="44.05834" lon="4.65477">
        <ele>160.66</ele>
        <time>2021-11-14T09:33:43Z</time>
      </trkpt>
      <trkpt lat="44.0583" lon="4.65481">
        <ele>160.2</ele>
        <time>2021-11-14T09:33:44Z</time>
      </trkpt>
      <trkpt lat="44.05827" lon="4.65483">
        <ele>159.87</ele>
        <time>2021-11-14T09:33:45Z</time>
      </trkpt>
      <trkpt lat="44.05825" lon="4.65486">
        <ele>159.58</ele>
        <time>2021-11-14T09:33:46Z</time>
      </trkpt>
      <trkpt lat="44.05825" lon="4.65488">
        <ele>158.71</ele>
        <time>2021-11-14T09:33:55Z</time>
      </trkpt>
      <trkpt lat="44.05823" lon="4.65491">
        <ele>159.66</ele>
        <time>2021-11-14T09:34:38Z</time>
      </trkpt>
      <trkpt lat="44.0582" lon="4.65495">
        <ele>159.42</ele>
        <time>2021-11-14T09:34:41Z</time>
      </trkpt>
      <trkpt lat="44.05819" lon="4.65497">
        <ele>159.36</ele>
        <time>2021-11-14T09:34:42Z</time>
      </trkpt>
      <trkpt lat="44.05818" lon="4.65499">
        <ele>159.19</ele>
        <time>2021-11-14T09:34:43Z</time>
      </trkpt>
      <trkpt lat="44.05816" lon="4.65502">
        <ele>159.25</ele>
        <time>2021-11-14T09:34:44Z</time>
      </trkpt>
      <trkpt lat="44.05815" lon="4.65505">
        <ele>159.05</ele>
        <time>2021-11-14T09:34:45Z</time>
      </trkpt>
      <trkpt lat="44.05814" lon="4.65509">
        <ele>158.77</ele>
        <time>2021-11-14T09:34:46Z</time>
      </trkpt>
      <trkpt lat="44.05815" lon="4.65514">
        <ele>158.56</ele>
        <time>2021-11-14T09:34:47Z</time>
      </trkpt>
      <trkpt lat="44.05815" lon="4.65519">
        <ele>158.07</ele>
        <time>2021-11-14T09:34:48Z</time>
      </trkpt>
      <trkpt lat="44.05817" lon="4.65524">
        <ele>158</ele>
        <time>2021-11-14T09:34:49Z</time>
      </trkpt>
      <trkpt lat="44.05818" lon="4.6553">
        <ele>157.75</ele>
        <time>2021-11-14T09:34:50Z</time>
      </trkpt>
      <trkpt lat="44.0582" lon="4.65535">
        <ele>157.04</ele>
        <time>2021-11-14T09:34:51Z</time>
      </trkpt>
      <trkpt lat="44.05821" lon="4.65547">
        <ele>156.09</ele>
        <time>2021-11-14T09:34:53Z</time>
      </trkpt>
      <trkpt lat="44.05821" lon="4.6556">
        <ele>155.33</ele>
        <time>2021-11-14T09:34:55Z</time>
      </trkpt>
      <trkpt lat="44.05821" lon="4.65565">
        <ele>155.31</ele>
        <time>2021-11-14T09:34:56Z</time>
      </trkpt>
      <trkpt lat="44.0582" lon="4.65571">
        <ele>155.08</ele>
        <time>2021-11-14T09:34:57Z</time>
      </trkpt>
      <trkpt lat="44.05819" lon="4.65577">
        <ele>154.93</ele>
        <time>2021-11-14T09:34:58Z</time>
      </trkpt>
      <trkpt lat="44.05819" lon="4.65582">
        <ele>154.93</ele>
        <time>2021-11-14T09:34:59Z</time>
      </trkpt>
      <trkpt lat="44.05807" lon="4.65622">
        <ele>155.6</ele>
        <time>2021-11-14T09:35:10Z</time>
      </trkpt>
      <trkpt lat="44.05803" lon="4.65641">
        <ele>157.08</ele>
        <time>2021-11-14T09:35:17Z</time>
      </trkpt>
      <trkpt lat="44.05804" lon="4.65644">
        <ele>157.3</ele>
        <time>2021-11-14T09:35:18Z</time>
      </trkpt>
      <trkpt lat="44.05804" lon="4.65646">
        <ele>157.7</ele>
        <time>2021-11-14T09:35:19Z</time>
      </trkpt>
      <trkpt lat="44.05805" lon="4.65649">
        <ele>157.79</ele>
        <time>2021-11-14T09:35:20Z</time>
      </trkpt>
      <trkpt lat="44.05805" lon="4.65652">
        <ele>157.85</ele>
        <time>2021-11-14T09:35:21Z</time>
      </trkpt>
      <trkpt lat="44.05805" lon="4.65654">
        <ele>158.06</ele>
        <time>2021-11-14T09:35:22Z</time>
      </trkpt>
      <trkpt lat="44.05804" lon="4.65656">
        <ele>158.23</ele>
        <time>2021-11-14T09:35:23Z</time>
      </trkpt>
      <trkpt lat="44.05802" lon="4.65667">
        <ele>158.54</ele>
        <time>2021-11-14T09:35:29Z</time>
      </trkpt>
      <trkpt lat="44.05797" lon="4.65684">
        <ele>157.67</ele>
        <time>2021-11-14T09:35:34Z</time>
      </trkpt>
      <trkpt lat="44.05797" lon="4.65689">
        <ele>157.42</ele>
        <time>2021-11-14T09:35:35Z</time>
      </trkpt>
      <trkpt lat="44.05796" lon="4.65695">
        <ele>157.29</ele>
        <time>2021-11-14T09:35:36Z</time>
      </trkpt>
      <trkpt lat="44.05788" lon="4.65724">
        <ele>156.95</ele>
        <time>2021-11-14T09:35:45Z</time>
      </trkpt>
      <trkpt lat="44.05786" lon="4.65735">
        <ele>156.96</ele>
        <time>2021-11-14T09:35:48Z</time>
      </trkpt>
      <trkpt lat="44.05785" lon="4.65737">
        <ele>157.13</ele>
        <time>2021-11-14T09:35:49Z</time>
      </trkpt>
      <trkpt lat="44.05785" lon="4.6574">
        <ele>157.28</ele>
        <time>2021-11-14T09:35:50Z</time>
      </trkpt>
      <trkpt lat="44.05784" lon="4.65742">
        <ele>157.29</ele>
        <time>2021-11-14T09:35:51Z</time>
      </trkpt>
      <trkpt lat="44.05783" lon="4.65743">
        <ele>157.18</ele>
        <time>2021-11-14T09:35:52Z</time>
      </trkpt>
      <trkpt lat="44.05782" lon="4.65746">
        <ele>157.34</ele>
        <time>2021-11-14T09:35:53Z</time>
      </trkpt>
      <trkpt lat="44.05781" lon="4.65748">
        <ele>157.37</ele>
        <time>2021-11-14T09:35:54Z</time>
      </trkpt>
      <trkpt lat="44.0578" lon="4.65751">
        <ele>157.68</ele>
        <time>2021-11-14T09:35:55Z</time>
      </trkpt>
      <trkpt lat="44.05779" lon="4.65752">
        <ele>157.68</ele>
        <time>2021-11-14T09:35:56Z</time>
      </trkpt>
      <trkpt lat="44.05778" lon="4.65754">
        <ele>157.82</ele>
        <time>2021-11-14T09:35:57Z</time>
      </trkpt>
      <trkpt lat="44.05776" lon="4.65759">
        <ele>157.89</ele>
        <time>2021-11-14T09:35:58Z</time>
      </trkpt>
      <trkpt lat="44.05769" lon="4.65774">
        <ele>158.33</ele>
        <time>2021-11-14T09:36:03Z</time>
      </trkpt>
      <trkpt lat="44.05743" lon="4.65794">
        <ele>160.89</ele>
        <time>2021-11-14T09:36:17Z</time>
      </trkpt>
      <trkpt lat="44.05719" lon="4.65802">
        <ele>161.63</ele>
        <time>2021-11-14T09:36:30Z</time>
      </trkpt>
      <trkpt lat="44.05707" lon="4.65801">
        <ele>159.9</ele>
        <time>2021-11-14T09:36:35Z</time>
      </trkpt>
      <trkpt lat="44.05705" lon="4.65801">
        <ele>159.59</ele>
        <time>2021-11-14T09:36:36Z</time>
      </trkpt>
      <trkpt lat="44.05704" lon="4.65802">
        <ele>159.14</ele>
        <time>2021-11-14T09:36:37Z</time>
      </trkpt>
      <trkpt lat="44.05702" lon="4.65803">
        <ele>158.35</ele>
        <time>2021-11-14T09:36:38Z</time>
      </trkpt>
      <trkpt lat="44.05699" lon="4.65804">
        <ele>157.6</ele>
        <time>2021-11-14T09:36:39Z</time>
      </trkpt>
      <trkpt lat="44.05696" lon="4.65804">
        <ele>157.31</ele>
        <time>2021-11-14T09:36:40Z</time>
      </trkpt>
      <trkpt lat="44.05687" lon="4.65804">
        <ele>155.17</ele>
        <time>2021-11-14T09:36:43Z</time>
      </trkpt>
      <trkpt lat="44.05685" lon="4.65804">
        <ele>154.65</ele>
        <time>2021-11-14T09:36:44Z</time>
      </trkpt>
      <trkpt lat="44.05682" lon="4.65806">
        <ele>154.3</ele>
        <time>2021-11-14T09:36:45Z</time>
      </trkpt>
      <trkpt lat="44.0567" lon="4.6581">
        <ele>151.14</ele>
        <time>2021-11-14T09:36:49Z</time>
      </trkpt>
      <trkpt lat="44.05656" lon="4.65811">
        <ele>148.52</ele>
        <time>2021-11-14T09:36:53Z</time>
      </trkpt>
      <trkpt lat="44.05652" lon="4.65813">
        <ele>148.19</ele>
        <time>2021-11-14T09:36:54Z</time>
      </trkpt>
      <trkpt lat="44.05621" lon="4.65829">
        <ele>146.05</ele>
        <time>2021-11-14T09:37:04Z</time>
      </trkpt>
      <trkpt lat="44.05605" lon="4.65834">
        <ele>146.94</ele>
        <time>2021-11-14T09:37:11Z</time>
      </trkpt>
      <trkpt lat="44.05603" lon="4.65835">
        <ele>146.97</ele>
        <time>2021-11-14T09:37:12Z</time>
      </trkpt>
      <trkpt lat="44.05601" lon="4.65835">
        <ele>146.78</ele>
        <time>2021-11-14T09:37:13Z</time>
      </trkpt>
      <trkpt lat="44.05598" lon="4.65836">
        <ele>146.82</ele>
        <time>2021-11-14T09:37:14Z</time>
      </trkpt>
      <trkpt lat="44.05596" lon="4.65837">
        <ele>146.59</ele>
        <time>2021-11-14T09:37:15Z</time>
      </trkpt>
      <trkpt lat="44.05593" lon="4.65839">
        <ele>146.5</ele>
        <time>2021-11-14T09:37:16Z</time>
      </trkpt>
      <trkpt lat="44.0559" lon="4.6584">
        <ele>146.36</ele>
        <time>2021-11-14T09:37:17Z</time>
      </trkpt>
      <trkpt lat="44.05565" lon="4.6585">
        <ele>145.49</ele>
        <time>2021-11-14T09:37:28Z</time>
      </trkpt>
      <trkpt lat="44.05541" lon="4.6586">
        <ele>144.6</ele>
        <time>2021-11-14T09:37:38Z</time>
      </trkpt>
      <trkpt lat="44.0554" lon="4.65859">
        <ele>144.46</ele>
        <time>2021-11-14T09:37:39Z</time>
      </trkpt>
      <trkpt lat="44.05537" lon="4.65858">
        <ele>144.55</ele>
        <time>2021-11-14T09:37:55Z</time>
      </trkpt>
      <trkpt lat="44.05533" lon="4.65858">
        <ele>143.94</ele>
        <time>2021-11-14T09:38:19Z</time>
      </trkpt>
      <trkpt lat="44.05532" lon="4.65858">
        <ele>143.95</ele>
        <time>2021-11-14T09:38:20Z</time>
      </trkpt>
      <trkpt lat="44.0553" lon="4.65858">
        <ele>143.92</ele>
        <time>2021-11-14T09:38:21Z</time>
      </trkpt>
      <trkpt lat="44.05529" lon="4.65857">
        <ele>144.07</ele>
        <time>2021-11-14T09:38:22Z</time>
      </trkpt>
      <trkpt lat="44.05527" lon="4.65856">
        <ele>143.91</ele>
        <time>2021-11-14T09:38:23Z</time>
      </trkpt>
      <trkpt lat="44.05525" lon="4.65855">
        <ele>143.92</ele>
        <time>2021-11-14T09:38:24Z</time>
      </trkpt>
      <trkpt lat="44.055" lon="4.65829">
        <ele>145.77</ele>
        <time>2021-11-14T09:38:39Z</time>
      </trkpt>
      <trkpt lat="44.05473" lon="4.65792">
        <ele>145.64</ele>
        <time>2021-11-14T09:38:56Z</time>
      </trkpt>
      <trkpt lat="44.05442" lon="4.65751">
        <ele>147.35</ele>
        <time>2021-11-14T09:39:15Z</time>
      </trkpt>
      <trkpt lat="44.05399" lon="4.65724">
        <ele>148.32</ele>
        <time>2021-11-14T09:39:35Z</time>
      </trkpt>
      <trkpt lat="44.0535" lon="4.65722">
        <ele>150.06</ele>
        <time>2021-11-14T09:39:56Z</time>
      </trkpt>
      <trkpt lat="44.05301" lon="4.65725">
        <ele>152.17</ele>
        <time>2021-11-14T09:40:18Z</time>
      </trkpt>
      <trkpt lat="44.05263" lon="4.65734">
        <ele>152.48</ele>
        <time>2021-11-14T09:40:37Z</time>
      </trkpt>
      <trkpt lat="44.0525" lon="4.65761">
        <ele>151.91</ele>
        <time>2021-11-14T09:40:48Z</time>
      </trkpt>
      <trkpt lat="44.0525" lon="4.65764">
        <ele>152.3</ele>
        <time>2021-11-14T09:40:49Z</time>
      </trkpt>
      <trkpt lat="44.05249" lon="4.65767">
        <ele>152.47</ele>
        <time>2021-11-14T09:40:50Z</time>
      </trkpt>
      <trkpt lat="44.05248" lon="4.65769">
        <ele>152.49</ele>
        <time>2021-11-14T09:40:51Z</time>
      </trkpt>
      <trkpt lat="44.05248" lon="4.65772">
        <ele>151.85</ele>
        <time>2021-11-14T09:41:03Z</time>
      </trkpt>
      <trkpt lat="44.05244" lon="4.65775">
        <ele>152.58</ele>
        <time>2021-11-14T09:42:13Z</time>
      </trkpt>
      <trkpt lat="44.05229" lon="4.65816">
        <ele>153.97</ele>
        <time>2021-11-14T09:42:29Z</time>
      </trkpt>
      <trkpt lat="44.05224" lon="4.65844">
        <ele>157.2</ele>
        <time>2021-11-14T09:42:40Z</time>
      </trkpt>
      <trkpt lat="44.05218" lon="4.65889">
        <ele>159.98</ele>
        <time>2021-11-14T09:42:59Z</time>
      </trkpt>
      <trkpt lat="44.05215" lon="4.65906">
        <ele>162.13</ele>
        <time>2021-11-14T09:43:07Z</time>
      </trkpt>
      <trkpt lat="44.05202" lon="4.65941">
        <ele>165.28</ele>
        <time>2021-11-14T09:43:25Z</time>
      </trkpt>
      <trkpt lat="44.05186" lon="4.65976">
        <ele>167.69</ele>
        <time>2021-11-14T09:43:44Z</time>
      </trkpt>
      <trkpt lat="44.05178" lon="4.66015">
        <ele>168.84</ele>
        <time>2021-11-14T09:44:03Z</time>
      </trkpt>
      <trkpt lat="44.05173" lon="4.66063">
        <ele>171.9</ele>
        <time>2021-11-14T09:44:26Z</time>
      </trkpt>
      <trkpt lat="44.05168" lon="4.6612">
        <ele>173.5</ele>
        <time>2021-11-14T09:44:50Z</time>
      </trkpt>
      <trkpt lat="44.05163" lon="4.66174">
        <ele>175.34</ele>
        <time>2021-11-14T09:45:14Z</time>
      </trkpt>
      <trkpt lat="44.0516" lon="4.6621">
        <ele>178.38</ele>
        <time>2021-11-14T09:45:31Z</time>
      </trkpt>
      <trkpt lat="44.05154" lon="4.6626">
        <ele>178.51</ele>
        <time>2021-11-14T09:45:53Z</time>
      </trkpt>
      <trkpt lat="44.05147" lon="4.66312">
        <ele>181.19</ele>
        <time>2021-11-14T09:46:15Z</time>
      </trkpt>
      <trkpt lat="44.05138" lon="4.66368">
        <ele>182.23</ele>
        <time>2021-11-14T09:46:38Z</time>
      </trkpt>
      <trkpt lat="44.0513" lon="4.66417">
        <ele>184.25</ele>
        <time>2021-11-14T09:47:00Z</time>
      </trkpt>
      <trkpt lat="44.05128" lon="4.66455">
        <ele>186.35</ele>
        <time>2021-11-14T09:47:19Z</time>
      </trkpt>
      <trkpt lat="44.05131" lon="4.66491">
        <ele>189.39</ele>
        <time>2021-11-14T09:47:38Z</time>
      </trkpt>
      <trkpt lat="44.05133" lon="4.66521">
        <ele>190.73</ele>
        <time>2021-11-14T09:47:55Z</time>
      </trkpt>
      <trkpt lat="44.05132" lon="4.66557">
        <ele>193.92</ele>
        <time>2021-11-14T09:48:14Z</time>
      </trkpt>
      <trkpt lat="44.05132" lon="4.66579">
        <ele>196.36</ele>
        <time>2021-11-14T09:48:26Z</time>
      </trkpt>
      <trkpt lat="44.05126" lon="4.66615">
        <ele>196.87</ele>
        <time>2021-11-14T09:48:40Z</time>
      </trkpt>
      <trkpt lat="44.05123" lon="4.6662">
        <ele>196.34</ele>
        <time>2021-11-14T09:48:41Z</time>
      </trkpt>
      <trkpt lat="44.0512" lon="4.66624">
        <ele>196.61</ele>
        <time>2021-11-14T09:48:42Z</time>
      </trkpt>
      <trkpt lat="44.05116" lon="4.66628">
        <ele>196.49</ele>
        <time>2021-11-14T09:48:43Z</time>
      </trkpt>
      <trkpt lat="44.05112" lon="4.66631">
        <ele>196.48</ele>
        <time>2021-11-14T09:48:44Z</time>
      </trkpt>
      <trkpt lat="44.05108" lon="4.66635">
        <ele>195.53</ele>
        <time>2021-11-14T09:48:45Z</time>
      </trkpt>
      <trkpt lat="44.05104" lon="4.66637">
        <ele>195.21</ele>
        <time>2021-11-14T09:48:46Z</time>
      </trkpt>
      <trkpt lat="44.051" lon="4.66639">
        <ele>195.29</ele>
        <time>2021-11-14T09:48:47Z</time>
      </trkpt>
      <trkpt lat="44.0508" lon="4.66644">
        <ele>192.58</ele>
        <time>2021-11-14T09:48:56Z</time>
      </trkpt>
      <trkpt lat="44.0508" lon="4.66641">
        <ele>193.23</ele>
        <time>2021-11-14T09:48:57Z</time>
      </trkpt>
      <trkpt lat="44.05079" lon="4.66639">
        <ele>193.62</ele>
        <time>2021-11-14T09:48:58Z</time>
      </trkpt>
      <trkpt lat="44.05079" lon="4.66636">
        <ele>194.19</ele>
        <time>2021-11-14T09:48:59Z</time>
      </trkpt>
      <trkpt lat="44.05079" lon="4.66634">
        <ele>195.04</ele>
        <time>2021-11-14T09:49:00Z</time>
      </trkpt>
      <trkpt lat="44.0508" lon="4.66631">
        <ele>195.9</ele>
        <time>2021-11-14T09:49:01Z</time>
      </trkpt>
      <trkpt lat="44.05079" lon="4.66629">
        <ele>196.09</ele>
        <time>2021-11-14T09:49:02Z</time>
      </trkpt>
      <trkpt lat="44.05079" lon="4.66627">
        <ele>195.93</ele>
        <time>2021-11-14T09:49:03Z</time>
      </trkpt>
      <trkpt lat="44.05077" lon="4.66621">
        <ele>197.3</ele>
        <time>2021-11-14T09:49:06Z</time>
      </trkpt>
      <trkpt lat="44.05077" lon="4.66619">
        <ele>197.55</ele>
        <time>2021-11-14T09:49:07Z</time>
      </trkpt>
      <trkpt lat="44.05077" lon="4.66617">
        <ele>197.64</ele>
        <time>2021-11-14T09:49:08Z</time>
      </trkpt>
      <trkpt lat="44.05078" lon="4.66615">
        <ele>197.74</ele>
        <time>2021-11-14T09:49:09Z</time>
      </trkpt>
      <trkpt lat="44.05078" lon="4.66613">
        <ele>197.98</ele>
        <time>2021-11-14T09:49:10Z</time>
      </trkpt>
      <trkpt lat="44.05078" lon="4.66611">
        <ele>198.1</ele>
        <time>2021-11-14T09:49:11Z</time>
      </trkpt>
      <trkpt lat="44.05078" lon="4.66609">
        <ele>198.65</ele>
        <time>2021-11-14T09:49:12Z</time>
      </trkpt>
      <trkpt lat="44.05079" lon="4.6659">
        <ele>201.88</ele>
        <time>2021-11-14T09:49:21Z</time>
      </trkpt>
      <trkpt lat="44.05079" lon="4.66576">
        <ele>203.27</ele>
        <time>2021-11-14T09:49:29Z</time>
      </trkpt>
      <trkpt lat="44.05078" lon="4.66575">
        <ele>203.61</ele>
        <time>2021-11-14T09:49:30Z</time>
      </trkpt>
      <trkpt lat="44.05078" lon="4.66573">
        <ele>203.86</ele>
        <time>2021-11-14T09:49:31Z</time>
      </trkpt>
      <trkpt lat="44.05078" lon="4.66572">
        <ele>203.97</ele>
        <time>2021-11-14T09:49:32Z</time>
      </trkpt>
      <trkpt lat="44.05078" lon="4.6657">
        <ele>204.19</ele>
        <time>2021-11-14T09:49:33Z</time>
      </trkpt>
      <trkpt lat="44.05079" lon="4.66568">
        <ele>204.15</ele>
        <time>2021-11-14T09:49:34Z</time>
      </trkpt>
      <trkpt lat="44.05079" lon="4.66567">
        <ele>204.03</ele>
        <time>2021-11-14T09:49:35Z</time>
      </trkpt>
      <trkpt lat="44.05079" lon="4.66565">
        <ele>204.17</ele>
        <time>2021-11-14T09:49:36Z</time>
      </trkpt>
      <trkpt lat="44.05079" lon="4.66551">
        <ele>203.08</ele>
        <time>2021-11-14T09:49:42Z</time>
      </trkpt>
      <trkpt lat="44.05078" lon="4.6655">
        <ele>202.88</ele>
        <time>2021-11-14T09:49:43Z</time>
      </trkpt>
      <trkpt lat="44.05076" lon="4.66549">
        <ele>203.42</ele>
        <time>2021-11-14T09:49:44Z</time>
      </trkpt>
      <trkpt lat="44.05075" lon="4.66548">
        <ele>203.66</ele>
        <time>2021-11-14T09:49:45Z</time>
      </trkpt>
      <trkpt lat="44.05074" lon="4.66547">
        <ele>204.24</ele>
        <time>2021-11-14T09:49:46Z</time>
      </trkpt>
      <trkpt lat="44.05073" lon="4.66546">
        <ele>204.76</ele>
        <time>2021-11-14T09:49:47Z</time>
      </trkpt>
      <trkpt lat="44.05072" lon="4.66545">
        <ele>205.17</ele>
        <time>2021-11-14T09:49:48Z</time>
      </trkpt>
      <trkpt lat="44.05071" lon="4.66543">
        <ele>205.51</ele>
        <time>2021-11-14T09:49:49Z</time>
      </trkpt>
      <trkpt lat="44.05054" lon="4.66525">
        <ele>207.97</ele>
        <time>2021-11-14T09:50:05Z</time>
      </trkpt>
      <trkpt lat="44.05037" lon="4.66508">
        <ele>209.99</ele>
        <time>2021-11-14T09:50:21Z</time>
      </trkpt>
      <trkpt lat="44.0502" lon="4.66491">
        <ele>212.3</ele>
        <time>2021-11-14T09:50:37Z</time>
      </trkpt>
      <trkpt lat="44.05012" lon="4.66486">
        <ele>211.52</ele>
        <time>2021-11-14T09:50:45Z</time>
      </trkpt>
      <trkpt lat="44.05011" lon="4.66486">
        <ele>211.6</ele>
        <time>2021-11-14T09:50:46Z</time>
      </trkpt>
      <trkpt lat="44.05009" lon="4.66486">
        <ele>211.55</ele>
        <time>2021-11-14T09:50:47Z</time>
      </trkpt>
      <trkpt lat="44.05007" lon="4.66487">
        <ele>211.38</ele>
        <time>2021-11-14T09:50:48Z</time>
      </trkpt>
      <trkpt lat="44.05005" lon="4.66486">
        <ele>211.39</ele>
        <time>2021-11-14T09:50:49Z</time>
      </trkpt>
      <trkpt lat="44.04988" lon="4.66487">
        <ele>212</ele>
        <time>2021-11-14T09:51:00Z</time>
      </trkpt>
      <trkpt lat="44.04967" lon="4.66495">
        <ele>214.41</ele>
        <time>2021-11-14T09:51:15Z</time>
      </trkpt>
      <trkpt lat="44.04931" lon="4.66535">
        <ele>213.96</ele>
        <time>2021-11-14T09:51:39Z</time>
      </trkpt>
      <trkpt lat="44.04905" lon="4.66561">
        <ele>213.86</ele>
        <time>2021-11-14T09:51:53Z</time>
      </trkpt>
      <trkpt lat="44.04886" lon="4.66578">
        <ele>215.22</ele>
        <time>2021-11-14T09:52:05Z</time>
      </trkpt>
      <trkpt lat="44.04866" lon="4.66594">
        <ele>216.1</ele>
        <time>2021-11-14T09:52:18Z</time>
      </trkpt>
      <trkpt lat="44.04859" lon="4.66602">
        <ele>216.22</ele>
        <time>2021-11-14T09:52:23Z</time>
      </trkpt>
      <trkpt lat="44.04857" lon="4.66603">
        <ele>216.37</ele>
        <time>2021-11-14T09:52:24Z</time>
      </trkpt>
      <trkpt lat="44.04856" lon="4.66604">
        <ele>216.37</ele>
        <time>2021-11-14T09:52:25Z</time>
      </trkpt>
      <trkpt lat="44.04831" lon="4.66609">
        <ele>215.47</ele>
        <time>2021-11-14T09:52:38Z</time>
      </trkpt>
      <trkpt lat="44.04817" lon="4.66617">
        <ele>216.7</ele>
        <time>2021-11-14T09:52:52Z</time>
      </trkpt>
      <trkpt lat="44.04812" lon="4.66617">
        <ele>216.87</ele>
        <time>2021-11-14T09:53:28Z</time>
      </trkpt>
      <trkpt lat="44.04812" lon="4.66615">
        <ele>216.44</ele>
        <time>2021-11-14T09:53:31Z</time>
      </trkpt>
      <trkpt lat="44.04811" lon="4.66613">
        <ele>216.66</ele>
        <time>2021-11-14T09:53:32Z</time>
      </trkpt>
      <trkpt lat="44.0481" lon="4.66611">
        <ele>216.76</ele>
        <time>2021-11-14T09:53:33Z</time>
      </trkpt>
      <trkpt lat="44.04802" lon="4.66604">
        <ele>215.85</ele>
        <time>2021-11-14T09:53:36Z</time>
      </trkpt>
      <trkpt lat="44.04776" lon="4.66596">
        <ele>213.79</ele>
        <time>2021-11-14T09:53:48Z</time>
      </trkpt>
      <trkpt lat="44.04769" lon="4.66592">
        <ele>211.47</ele>
        <time>2021-11-14T09:54:02Z</time>
      </trkpt>
      <trkpt lat="44.04764" lon="4.66592">
        <ele>208.37</ele>
        <time>2021-11-14T09:54:14Z</time>
      </trkpt>
      <trkpt lat="44.04762" lon="4.66589">
        <ele>208.09</ele>
        <time>2021-11-14T09:54:22Z</time>
      </trkpt>
      <trkpt lat="44.04761" lon="4.66588">
        <ele>207.69</ele>
        <time>2021-11-14T09:54:23Z</time>
      </trkpt>
      <trkpt lat="44.0476" lon="4.66585">
        <ele>207.17</ele>
        <time>2021-11-14T09:54:24Z</time>
      </trkpt>
      <trkpt lat="44.0476" lon="4.66582">
        <ele>206.34</ele>
        <time>2021-11-14T09:54:25Z</time>
      </trkpt>
      <trkpt lat="44.0476" lon="4.66578">
        <ele>206.08</ele>
        <time>2021-11-14T09:54:26Z</time>
      </trkpt>
      <trkpt lat="44.0476" lon="4.66573">
        <ele>205.47</ele>
        <time>2021-11-14T09:54:27Z</time>
      </trkpt>
      <trkpt lat="44.04761" lon="4.6657">
        <ele>205.08</ele>
        <time>2021-11-14T09:54:28Z</time>
      </trkpt>
      <trkpt lat="44.0476" lon="4.66568">
        <ele>204.6</ele>
        <time>2021-11-14T09:54:29Z</time>
      </trkpt>
      <trkpt lat="44.04759" lon="4.66566">
        <ele>203.78</ele>
        <time>2021-11-14T09:54:30Z</time>
      </trkpt>
      <trkpt lat="44.04754" lon="4.66559">
        <ele>200.62</ele>
        <time>2021-11-14T09:54:34Z</time>
      </trkpt>
      <trkpt lat="44.04751" lon="4.66554">
        <ele>199.19</ele>
        <time>2021-11-14T09:54:36Z</time>
      </trkpt>
      <trkpt lat="44.04749" lon="4.66553">
        <ele>198.32</ele>
        <time>2021-11-14T09:54:37Z</time>
      </trkpt>
      <trkpt lat="44.04748" lon="4.6655">
        <ele>197.58</ele>
        <time>2021-11-14T09:54:38Z</time>
      </trkpt>
      <trkpt lat="44.04747" lon="4.66546">
        <ele>196.61</ele>
        <time>2021-11-14T09:54:39Z</time>
      </trkpt>
      <trkpt lat="44.04746" lon="4.66542">
        <ele>195.98</ele>
        <time>2021-11-14T09:54:40Z</time>
      </trkpt>
      <trkpt lat="44.04745" lon="4.66539">
        <ele>195.61</ele>
        <time>2021-11-14T09:54:41Z</time>
      </trkpt>
      <trkpt lat="44.04743" lon="4.66537">
        <ele>195</ele>
        <time>2021-11-14T09:54:42Z</time>
      </trkpt>
      <trkpt lat="44.04741" lon="4.66535">
        <ele>194.1</ele>
        <time>2021-11-14T09:54:43Z</time>
      </trkpt>
      <trkpt lat="44.04738" lon="4.66534">
        <ele>193.25</ele>
        <time>2021-11-14T09:54:44Z</time>
      </trkpt>
      <trkpt lat="44.04729" lon="4.66529">
        <ele>189.58</ele>
        <time>2021-11-14T09:54:48Z</time>
      </trkpt>
      <trkpt lat="44.04727" lon="4.66529">
        <ele>189.11</ele>
        <time>2021-11-14T09:54:49Z</time>
      </trkpt>
      <trkpt lat="44.04726" lon="4.66531">
        <ele>188.82</ele>
        <time>2021-11-14T09:54:50Z</time>
      </trkpt>
      <trkpt lat="44.04725" lon="4.66533">
        <ele>188.71</ele>
        <time>2021-11-14T09:54:51Z</time>
      </trkpt>
      <trkpt lat="44.04724" lon="4.66534">
        <ele>188.73</ele>
        <time>2021-11-14T09:55:05Z</time>
      </trkpt>
      <trkpt lat="44.04722" lon="4.66545">
        <ele>189.11</ele>
        <time>2021-11-14T09:55:24Z</time>
      </trkpt>
      <trkpt lat="44.04721" lon="4.66546">
        <ele>189.24</ele>
        <time>2021-11-14T09:55:25Z</time>
      </trkpt>
      <trkpt lat="44.04709" lon="4.66566">
        <ele>188.54</ele>
        <time>2021-11-14T09:55:35Z</time>
      </trkpt>
      <trkpt lat="44.04708" lon="4.66566">
        <ele>188.46</ele>
        <time>2021-11-14T09:55:36Z</time>
      </trkpt>
      <trkpt lat="44.04706" lon="4.66565">
        <ele>188.38</ele>
        <time>2021-11-14T09:55:37Z</time>
      </trkpt>
      <trkpt lat="44.04704" lon="4.66565">
        <ele>188.37</ele>
        <time>2021-11-14T09:55:38Z</time>
      </trkpt>
      <trkpt lat="44.04703" lon="4.66565">
        <ele>188.4</ele>
        <time>2021-11-14T09:55:39Z</time>
      </trkpt>
      <trkpt lat="44.04701" lon="4.66565">
        <ele>188.41</ele>
        <time>2021-11-14T09:55:40Z</time>
      </trkpt>
      <trkpt lat="44.04692" lon="4.66571">
        <ele>188.89</ele>
        <time>2021-11-14T09:55:45Z</time>
      </trkpt>
      <trkpt lat="44.04691" lon="4.66574">
        <ele>189.33</ele>
        <time>2021-11-14T09:55:46Z</time>
      </trkpt>
      <trkpt lat="44.04691" lon="4.66577">
        <ele>189.66</ele>
        <time>2021-11-14T09:55:47Z</time>
      </trkpt>
      <trkpt lat="44.04691" lon="4.66579">
        <ele>190.02</ele>
        <time>2021-11-14T09:55:48Z</time>
      </trkpt>
      <trkpt lat="44.0469" lon="4.66581">
        <ele>190.16</ele>
        <time>2021-11-14T09:55:49Z</time>
      </trkpt>
      <trkpt lat="44.0469" lon="4.66583">
        <ele>190.47</ele>
        <time>2021-11-14T09:55:50Z</time>
      </trkpt>
      <trkpt lat="44.0468" lon="4.66612">
        <ele>192.9</ele>
        <time>2021-11-14T09:56:06Z</time>
      </trkpt>
      <trkpt lat="44.04676" lon="4.66641">
        <ele>195.32</ele>
        <time>2021-11-14T09:56:20Z</time>
      </trkpt>
      <trkpt lat="44.04679" lon="4.66662">
        <ele>198.43</ele>
        <time>2021-11-14T09:56:31Z</time>
      </trkpt>
      <trkpt lat="44.04676" lon="4.66688">
        <ele>201.63</ele>
        <time>2021-11-14T09:56:45Z</time>
      </trkpt>
      <trkpt lat="44.04659" lon="4.66702">
        <ele>204.98</ele>
        <time>2021-11-14T09:57:00Z</time>
      </trkpt>
      <trkpt lat="44.04647" lon="4.66714">
        <ele>208.33</ele>
        <time>2021-11-14T09:57:13Z</time>
      </trkpt>
      <trkpt lat="44.0464" lon="4.66724">
        <ele>209.81</ele>
        <time>2021-11-14T09:57:21Z</time>
      </trkpt>
      <trkpt lat="44.04639" lon="4.66725">
        <ele>209.97</ele>
        <time>2021-11-14T09:57:22Z</time>
      </trkpt>
      <trkpt lat="44.04637" lon="4.66726">
        <ele>210.06</ele>
        <time>2021-11-14T09:57:24Z</time>
      </trkpt>
      <trkpt lat="44.04635" lon="4.66725">
        <ele>207.91</ele>
        <time>2021-11-14T09:57:41Z</time>
      </trkpt>
      <trkpt lat="44.04622" lon="4.6672">
        <ele>210.04</ele>
        <time>2021-11-14T09:57:59Z</time>
      </trkpt>
      <trkpt lat="44.0462" lon="4.66719">
        <ele>210.18</ele>
        <time>2021-11-14T09:58:02Z</time>
      </trkpt>
      <trkpt lat="44.04618" lon="4.66717">
        <ele>210.04</ele>
        <time>2021-11-14T09:58:04Z</time>
      </trkpt>
      <trkpt lat="44.04617" lon="4.66716">
        <ele>210.11</ele>
        <time>2021-11-14T09:58:05Z</time>
      </trkpt>
      <trkpt lat="44.04613" lon="4.66709">
        <ele>210.44</ele>
        <time>2021-11-14T09:58:10Z</time>
      </trkpt>
      <trkpt lat="44.0461" lon="4.66699">
        <ele>212.21</ele>
        <time>2021-11-14T09:58:16Z</time>
      </trkpt>
      <trkpt lat="44.0461" lon="4.66698">
        <ele>212.18</ele>
        <time>2021-11-14T09:58:17Z</time>
      </trkpt>
      <trkpt lat="44.0461" lon="4.66696">
        <ele>211.87</ele>
        <time>2021-11-14T09:58:18Z</time>
      </trkpt>
      <trkpt lat="44.0461" lon="4.66694">
        <ele>211.66</ele>
        <time>2021-11-14T09:58:19Z</time>
      </trkpt>
      <trkpt lat="44.04609" lon="4.66692">
        <ele>211.47</ele>
        <time>2021-11-14T09:58:20Z</time>
      </trkpt>
      <trkpt lat="44.04608" lon="4.6669">
        <ele>211.48</ele>
        <time>2021-11-14T09:58:21Z</time>
      </trkpt>
      <trkpt lat="44.04607" lon="4.66688">
        <ele>211.42</ele>
        <time>2021-11-14T09:58:22Z</time>
      </trkpt>
      <trkpt lat="44.04607" lon="4.66687">
        <ele>211.77</ele>
        <time>2021-11-14T09:58:23Z</time>
      </trkpt>
      <trkpt lat="44.04606" lon="4.66685">
        <ele>211.76</ele>
        <time>2021-11-14T09:58:24Z</time>
      </trkpt>
      <trkpt lat="44.04594" lon="4.66665">
        <ele>212.71</ele>
        <time>2021-11-14T09:58:37Z</time>
      </trkpt>
      <trkpt lat="44.04593" lon="4.66665">
        <ele>212.68</ele>
        <time>2021-11-14T09:58:38Z</time>
      </trkpt>
      <trkpt lat="44.04591" lon="4.66664">
        <ele>212.92</ele>
        <time>2021-11-14T09:58:39Z</time>
      </trkpt>
      <trkpt lat="44.04569" lon="4.66682">
        <ele>213.62</ele>
        <time>2021-11-14T09:58:57Z</time>
      </trkpt>
      <trkpt lat="44.04551" lon="4.6671">
        <ele>215.52</ele>
        <time>2021-11-14T09:59:15Z</time>
      </trkpt>
      <trkpt lat="44.0455" lon="4.6671">
        <ele>215.44</ele>
        <time>2021-11-14T09:59:16Z</time>
      </trkpt>
      <trkpt lat="44.04549" lon="4.66709">
        <ele>215.23</ele>
        <time>2021-11-14T09:59:17Z</time>
      </trkpt>
      <trkpt lat="44.04542" lon="4.66693">
        <ele>211.64</ele>
        <time>2021-11-14T09:59:25Z</time>
      </trkpt>
      <trkpt lat="44.04542" lon="4.66689">
        <ele>209.72</ele>
        <time>2021-11-14T09:59:27Z</time>
      </trkpt>
      <trkpt lat="44.04543" lon="4.66687">
        <ele>209.38</ele>
        <time>2021-11-14T09:59:28Z</time>
      </trkpt>
      <trkpt lat="44.04544" lon="4.66683">
        <ele>208.85</ele>
        <time>2021-11-14T09:59:29Z</time>
      </trkpt>
      <trkpt lat="44.04547" lon="4.66677">
        <ele>208.03</ele>
        <time>2021-11-14T09:59:31Z</time>
      </trkpt>
      <trkpt lat="44.04547" lon="4.66674">
        <ele>208.13</ele>
        <time>2021-11-14T09:59:32Z</time>
      </trkpt>
      <trkpt lat="44.04545" lon="4.66673">
        <ele>207.96</ele>
        <time>2021-11-14T09:59:33Z</time>
      </trkpt>
      <trkpt lat="44.04543" lon="4.66672">
        <ele>207.7</ele>
        <time>2021-11-14T09:59:34Z</time>
      </trkpt>
      <trkpt lat="44.04542" lon="4.66669">
        <ele>207.04</ele>
        <time>2021-11-14T09:59:35Z</time>
      </trkpt>
      <trkpt lat="44.0454" lon="4.66667">
        <ele>206.42</ele>
        <time>2021-11-14T09:59:36Z</time>
      </trkpt>
      <trkpt lat="44.04538" lon="4.66666">
        <ele>206.05</ele>
        <time>2021-11-14T09:59:37Z</time>
      </trkpt>
      <trkpt lat="44.04536" lon="4.66666">
        <ele>205.27</ele>
        <time>2021-11-14T09:59:38Z</time>
      </trkpt>
      <trkpt lat="44.04535" lon="4.66665">
        <ele>204.42</ele>
        <time>2021-11-14T09:59:39Z</time>
      </trkpt>
      <trkpt lat="44.04534" lon="4.66663">
        <ele>203.5</ele>
        <time>2021-11-14T09:59:40Z</time>
      </trkpt>
      <trkpt lat="44.04533" lon="4.6666">
        <ele>202.75</ele>
        <time>2021-11-14T09:59:41Z</time>
      </trkpt>
      <trkpt lat="44.04531" lon="4.66659">
        <ele>201.71</ele>
        <time>2021-11-14T09:59:42Z</time>
      </trkpt>
      <trkpt lat="44.04529" lon="4.66659">
        <ele>200.71</ele>
        <time>2021-11-14T09:59:43Z</time>
      </trkpt>
      <trkpt lat="44.04527" lon="4.66658">
        <ele>199.89</ele>
        <time>2021-11-14T09:59:44Z</time>
      </trkpt>
      <trkpt lat="44.04525" lon="4.66658">
        <ele>199.08</ele>
        <time>2021-11-14T09:59:45Z</time>
      </trkpt>
      <trkpt lat="44.04524" lon="4.66659">
        <ele>198.19</ele>
        <time>2021-11-14T09:59:46Z</time>
      </trkpt>
      <trkpt lat="44.04521" lon="4.66657">
        <ele>195.41</ele>
        <time>2021-11-14T09:59:50Z</time>
      </trkpt>
      <trkpt lat="44.0452" lon="4.66655">
        <ele>195.38</ele>
        <time>2021-11-14T09:59:51Z</time>
      </trkpt>
      <trkpt lat="44.04519" lon="4.66652">
        <ele>194.72</ele>
        <time>2021-11-14T09:59:52Z</time>
      </trkpt>
      <trkpt lat="44.04518" lon="4.6665">
        <ele>193.69</ele>
        <time>2021-11-14T09:59:53Z</time>
      </trkpt>
      <trkpt lat="44.04516" lon="4.66648">
        <ele>193.21</ele>
        <time>2021-11-14T09:59:54Z</time>
      </trkpt>
      <trkpt lat="44.04516" lon="4.66646">
        <ele>193.08</ele>
        <time>2021-11-14T09:59:55Z</time>
      </trkpt>
      <trkpt lat="44.04516" lon="4.66644">
        <ele>193.33</ele>
        <time>2021-11-14T09:59:56Z</time>
      </trkpt>
      <trkpt lat="44.04515" lon="4.66643">
        <ele>193.46</ele>
        <time>2021-11-14T09:59:57Z</time>
      </trkpt>
      <trkpt lat="44.04515" lon="4.6664">
        <ele>193.27</ele>
        <time>2021-11-14T09:59:58Z</time>
      </trkpt>
      <trkpt lat="44.04516" lon="4.66637">
        <ele>193.68</ele>
        <time>2021-11-14T10:00:00Z</time>
      </trkpt>
      <trkpt lat="44.04516" lon="4.66635">
        <ele>194.05</ele>
        <time>2021-11-14T10:00:01Z</time>
      </trkpt>
      <trkpt lat="44.04517" lon="4.66633">
        <ele>194.26</ele>
        <time>2021-11-14T10:00:02Z</time>
      </trkpt>
      <trkpt lat="44.04519" lon="4.66628">
        <ele>193.95</ele>
        <time>2021-11-14T10:00:06Z</time>
      </trkpt>
      <trkpt lat="44.0452" lon="4.66626">
        <ele>193.56</ele>
        <time>2021-11-14T10:00:07Z</time>
      </trkpt>
      <trkpt lat="44.0452" lon="4.66623">
        <ele>193.13</ele>
        <time>2021-11-14T10:00:08Z</time>
      </trkpt>
      <trkpt lat="44.04521" lon="4.66621">
        <ele>192.71</ele>
        <time>2021-11-14T10:00:09Z</time>
      </trkpt>
      <trkpt lat="44.04521" lon="4.66619">
        <ele>192.48</ele>
        <time>2021-11-14T10:00:10Z</time>
      </trkpt>
      <trkpt lat="44.04521" lon="4.66616">
        <ele>192.24</ele>
        <time>2021-11-14T10:00:11Z</time>
      </trkpt>
      <trkpt lat="44.04521" lon="4.66614">
        <ele>192.02</ele>
        <time>2021-11-14T10:00:12Z</time>
      </trkpt>
      <trkpt lat="44.04522" lon="4.66611">
        <ele>191.95</ele>
        <time>2021-11-14T10:00:13Z</time>
      </trkpt>
      <trkpt lat="44.04526" lon="4.66571">
        <ele>189.8</ele>
        <time>2021-11-14T10:00:22Z</time>
      </trkpt>
      <trkpt lat="44.04526" lon="4.66548">
        <ele>187.86</ele>
        <time>2021-11-14T10:00:28Z</time>
      </trkpt>
      <trkpt lat="44.04526" lon="4.66545">
        <ele>187.67</ele>
        <time>2021-11-14T10:00:29Z</time>
      </trkpt>
      <trkpt lat="44.04527" lon="4.66542">
        <ele>187.47</ele>
        <time>2021-11-14T10:00:30Z</time>
      </trkpt>
      <trkpt lat="44.04541" lon="4.66502">
        <ele>185.33</ele>
        <time>2021-11-14T10:00:41Z</time>
      </trkpt>
      <trkpt lat="44.04543" lon="4.66496">
        <ele>185.2</ele>
        <time>2021-11-14T10:00:42Z</time>
      </trkpt>
      <trkpt lat="44.04545" lon="4.66491">
        <ele>184.69</ele>
        <time>2021-11-14T10:00:43Z</time>
      </trkpt>
      <trkpt lat="44.04547" lon="4.66485">
        <ele>184.54</ele>
        <time>2021-11-14T10:00:44Z</time>
      </trkpt>
      <trkpt lat="44.04551" lon="4.66475">
        <ele>183.89</ele>
        <time>2021-11-14T10:00:46Z</time>
      </trkpt>
      <trkpt lat="44.04554" lon="4.6647">
        <ele>183.82</ele>
        <time>2021-11-14T10:00:47Z</time>
      </trkpt>
      <trkpt lat="44.04558" lon="4.66464">
        <ele>183.35</ele>
        <time>2021-11-14T10:00:48Z</time>
      </trkpt>
      <trkpt lat="44.04561" lon="4.66461">
        <ele>182.76</ele>
        <time>2021-11-14T10:00:49Z</time>
      </trkpt>
      <trkpt lat="44.04562" lon="4.66458">
        <ele>182.48</ele>
        <time>2021-11-14T10:00:50Z</time>
      </trkpt>
      <trkpt lat="44.04563" lon="4.66455">
        <ele>182.35</ele>
        <time>2021-11-14T10:00:51Z</time>
      </trkpt>
      <trkpt lat="44.04565" lon="4.66451">
        <ele>181.89</ele>
        <time>2021-11-14T10:00:52Z</time>
      </trkpt>
      <trkpt lat="44.04574" lon="4.66423">
        <ele>180.43</ele>
        <time>2021-11-14T10:00:58Z</time>
      </trkpt>
      <trkpt lat="44.04576" lon="4.66417">
        <ele>180.32</ele>
        <time>2021-11-14T10:00:59Z</time>
      </trkpt>
      <trkpt lat="44.04577" lon="4.66411">
        <ele>180.07</ele>
        <time>2021-11-14T10:01:00Z</time>
      </trkpt>
      <trkpt lat="44.04591" lon="4.6636">
        <ele>177.22</ele>
        <time>2021-11-14T10:01:09Z</time>
      </trkpt>
      <trkpt lat="44.04595" lon="4.66347">
        <ele>176.97</ele>
        <time>2021-11-14T10:01:11Z</time>
      </trkpt>
      <trkpt lat="44.04598" lon="4.66341">
        <ele>176.74</ele>
        <time>2021-11-14T10:01:12Z</time>
      </trkpt>
      <trkpt lat="44.04612" lon="4.66304">
        <ele>175.5</ele>
        <time>2021-11-14T10:01:21Z</time>
      </trkpt>
      <trkpt lat="44.0462" lon="4.66296">
        <ele>175.09</ele>
        <time>2021-11-14T10:01:24Z</time>
      </trkpt>
      <trkpt lat="44.04622" lon="4.66295">
        <ele>175.17</ele>
        <time>2021-11-14T10:01:25Z</time>
      </trkpt>
      <trkpt lat="44.04624" lon="4.66295">
        <ele>175.05</ele>
        <time>2021-11-14T10:01:26Z</time>
      </trkpt>
      <trkpt lat="44.04626" lon="4.66294">
        <ele>174.78</ele>
        <time>2021-11-14T10:01:27Z</time>
      </trkpt>
      <trkpt lat="44.04627" lon="4.66294">
        <ele>174.74</ele>
        <time>2021-11-14T10:01:28Z</time>
      </trkpt>
      <trkpt lat="44.04629" lon="4.66293">
        <ele>174.67</ele>
        <time>2021-11-14T10:01:29Z</time>
      </trkpt>
      <trkpt lat="44.04631" lon="4.66292">
        <ele>174.4</ele>
        <time>2021-11-14T10:01:30Z</time>
      </trkpt>
      <trkpt lat="44.04634" lon="4.66292">
        <ele>174.36</ele>
        <time>2021-11-14T10:01:31Z</time>
      </trkpt>
      <trkpt lat="44.04636" lon="4.66291">
        <ele>174.21</ele>
        <time>2021-11-14T10:01:32Z</time>
      </trkpt>
      <trkpt lat="44.04639" lon="4.66292">
        <ele>173.82</ele>
        <time>2021-11-14T10:01:33Z</time>
      </trkpt>
      <trkpt lat="44.04642" lon="4.66292">
        <ele>173.74</ele>
        <time>2021-11-14T10:01:34Z</time>
      </trkpt>
      <trkpt lat="44.04645" lon="4.66292">
        <ele>173.13</ele>
        <time>2021-11-14T10:01:35Z</time>
      </trkpt>
      <trkpt lat="44.04649" lon="4.66291">
        <ele>172.98</ele>
        <time>2021-11-14T10:01:36Z</time>
      </trkpt>
      <trkpt lat="44.04653" lon="4.6629">
        <ele>172.79</ele>
        <time>2021-11-14T10:01:37Z</time>
      </trkpt>
      <trkpt lat="44.04656" lon="4.6629">
        <ele>172.68</ele>
        <time>2021-11-14T10:01:38Z</time>
      </trkpt>
      <trkpt lat="44.0466" lon="4.66291">
        <ele>172.47</ele>
        <time>2021-11-14T10:01:39Z</time>
      </trkpt>
      <trkpt lat="44.04664" lon="4.66291">
        <ele>172.2</ele>
        <time>2021-11-14T10:01:40Z</time>
      </trkpt>
      <trkpt lat="44.04693" lon="4.66298">
        <ele>170.79</ele>
        <time>2021-11-14T10:01:49Z</time>
      </trkpt>
      <trkpt lat="44.04694" lon="4.66298">
        <ele>170.97</ele>
        <time>2021-11-14T10:01:50Z</time>
      </trkpt>
      <trkpt lat="44.04697" lon="4.66298">
        <ele>170.62</ele>
        <time>2021-11-14T10:01:51Z</time>
      </trkpt>
      <trkpt lat="44.04698" lon="4.66298">
        <ele>170.22</ele>
        <time>2021-11-14T10:01:52Z</time>
      </trkpt>
      <trkpt lat="44.04701" lon="4.66298">
        <ele>170.15</ele>
        <time>2021-11-14T10:01:53Z</time>
      </trkpt>
      <trkpt lat="44.04713" lon="4.66296">
        <ele>169.46</ele>
        <time>2021-11-14T10:02:09Z</time>
      </trkpt>
      <trkpt lat="44.04716" lon="4.66292">
        <ele>168.88</ele>
        <time>2021-11-14T10:02:13Z</time>
      </trkpt>
      <trkpt lat="44.04716" lon="4.66289">
        <ele>168.78</ele>
        <time>2021-11-14T10:02:14Z</time>
      </trkpt>
      <trkpt lat="44.04717" lon="4.66286">
        <ele>168.41</ele>
        <time>2021-11-14T10:02:15Z</time>
      </trkpt>
      <trkpt lat="44.04718" lon="4.66282">
        <ele>168.22</ele>
        <time>2021-11-14T10:02:16Z</time>
      </trkpt>
      <trkpt lat="44.04718" lon="4.66279">
        <ele>168.02</ele>
        <time>2021-11-14T10:02:17Z</time>
      </trkpt>
      <trkpt lat="44.04734" lon="4.6626">
        <ele>167.5</ele>
        <time>2021-11-14T10:02:25Z</time>
      </trkpt>
      <trkpt lat="44.04744" lon="4.66268">
        <ele>168.1</ele>
        <time>2021-11-14T10:02:32Z</time>
      </trkpt>
      <trkpt lat="44.04744" lon="4.66269">
        <ele>168.19</ele>
        <time>2021-11-14T10:02:33Z</time>
      </trkpt>
      <trkpt lat="44.04743" lon="4.6627">
        <ele>168.38</ele>
        <time>2021-11-14T10:02:34Z</time>
      </trkpt>
      <trkpt lat="44.04743" lon="4.66272">
        <ele>168.67</ele>
        <time>2021-11-14T10:02:35Z</time>
      </trkpt>
      <trkpt lat="44.04743" lon="4.66274">
        <ele>168.78</ele>
        <time>2021-11-14T10:02:36Z</time>
      </trkpt>
      <trkpt lat="44.04742" lon="4.66276">
        <ele>169.06</ele>
        <time>2021-11-14T10:02:37Z</time>
      </trkpt>
      <trkpt lat="44.04742" lon="4.66279">
        <ele>169.3</ele>
        <time>2021-11-14T10:02:39Z</time>
      </trkpt>
      <trkpt lat="44.04742" lon="4.66281">
        <ele>169.5</ele>
        <time>2021-11-14T10:02:40Z</time>
      </trkpt>
      <trkpt lat="44.04743" lon="4.6629">
        <ele>170.78</ele>
        <time>2021-11-14T10:02:44Z</time>
      </trkpt>
      <trkpt lat="44.04743" lon="4.66292">
        <ele>170.85</ele>
        <time>2021-11-14T10:02:45Z</time>
      </trkpt>
      <trkpt lat="44.04744" lon="4.66294">
        <ele>171.45</ele>
        <time>2021-11-14T10:02:46Z</time>
      </trkpt>
      <trkpt lat="44.04744" lon="4.66296">
        <ele>171.67</ele>
        <time>2021-11-14T10:02:47Z</time>
      </trkpt>
      <trkpt lat="44.04744" lon="4.66298">
        <ele>171.79</ele>
        <time>2021-11-14T10:02:48Z</time>
      </trkpt>
      <trkpt lat="44.04745" lon="4.66301">
        <ele>172.16</ele>
        <time>2021-11-14T10:02:49Z</time>
      </trkpt>
      <trkpt lat="44.04743" lon="4.66339">
        <ele>173.16</ele>
        <time>2021-11-14T10:03:05Z</time>
      </trkpt>
      <trkpt lat="44.04732" lon="4.66369">
        <ele>175.58</ele>
        <time>2021-11-14T10:03:20Z</time>
      </trkpt>
      <trkpt lat="44.0473" lon="4.66375">
        <ele>176.17</ele>
        <time>2021-11-14T10:03:23Z</time>
      </trkpt>
      <trkpt lat="44.04729" lon="4.66376">
        <ele>176.42</ele>
        <time>2021-11-14T10:03:24Z</time>
      </trkpt>
      <trkpt lat="44.04728" lon="4.66378">
        <ele>176.53</ele>
        <time>2021-11-14T10:03:25Z</time>
      </trkpt>
      <trkpt lat="44.04727" lon="4.6638">
        <ele>176.39</ele>
        <time>2021-11-14T10:03:26Z</time>
      </trkpt>
      <trkpt lat="44.04726" lon="4.66382">
        <ele>176.53</ele>
        <time>2021-11-14T10:03:27Z</time>
      </trkpt>
      <trkpt lat="44.04726" lon="4.66384">
        <ele>176.55</ele>
        <time>2021-11-14T10:03:28Z</time>
      </trkpt>
      <trkpt lat="44.04726" lon="4.66387">
        <ele>176.71</ele>
        <time>2021-11-14T10:03:29Z</time>
      </trkpt>
      <trkpt lat="44.04726" lon="4.66389">
        <ele>176.77</ele>
        <time>2021-11-14T10:03:30Z</time>
      </trkpt>
      <trkpt lat="44.04726" lon="4.66391">
        <ele>176.88</ele>
        <time>2021-11-14T10:03:31Z</time>
      </trkpt>
      <trkpt lat="44.04727" lon="4.66393">
        <ele>177.13</ele>
        <time>2021-11-14T10:03:32Z</time>
      </trkpt>
      <trkpt lat="44.04727" lon="4.66395">
        <ele>177.27</ele>
        <time>2021-11-14T10:03:33Z</time>
      </trkpt>
      <trkpt lat="44.04728" lon="4.66396">
        <ele>177.49</ele>
        <time>2021-11-14T10:03:34Z</time>
      </trkpt>
      <trkpt lat="44.04729" lon="4.66398">
        <ele>177.82</ele>
        <time>2021-11-14T10:03:35Z</time>
      </trkpt>
      <trkpt lat="44.0473" lon="4.66399">
        <ele>178.15</ele>
        <time>2021-11-14T10:03:36Z</time>
      </trkpt>
      <trkpt lat="44.04731" lon="4.66401">
        <ele>178.37</ele>
        <time>2021-11-14T10:03:37Z</time>
      </trkpt>
      <trkpt lat="44.04731" lon="4.66408">
        <ele>179.14</ele>
        <time>2021-11-14T10:03:41Z</time>
      </trkpt>
      <trkpt lat="44.04728" lon="4.66416">
        <ele>179.42</ele>
        <time>2021-11-14T10:03:46Z</time>
      </trkpt>
      <trkpt lat="44.04729" lon="4.66418">
        <ele>179.45</ele>
        <time>2021-11-14T10:03:47Z</time>
      </trkpt>
      <trkpt lat="44.0473" lon="4.66419">
        <ele>179.28</ele>
        <time>2021-11-14T10:03:48Z</time>
      </trkpt>
      <trkpt lat="44.04731" lon="4.66419">
        <ele>179.47</ele>
        <time>2021-11-14T10:03:49Z</time>
      </trkpt>
      <trkpt lat="44.04732" lon="4.66419">
        <ele>179.57</ele>
        <time>2021-11-14T10:03:50Z</time>
      </trkpt>
      <trkpt lat="44.04735" lon="4.66419">
        <ele>180.08</ele>
        <time>2021-11-14T10:03:53Z</time>
      </trkpt>
      <trkpt lat="44.04736" lon="4.6642">
        <ele>180.11</ele>
        <time>2021-11-14T10:03:54Z</time>
      </trkpt>
      <trkpt lat="44.04737" lon="4.66422">
        <ele>180.03</ele>
        <time>2021-11-14T10:03:55Z</time>
      </trkpt>
      <trkpt lat="44.04742" lon="4.66432">
        <ele>180.72</ele>
        <time>2021-11-14T10:04:02Z</time>
      </trkpt>
      <trkpt lat="44.04744" lon="4.66432">
        <ele>180.89</ele>
        <time>2021-11-14T10:04:03Z</time>
      </trkpt>
      <trkpt lat="44.04745" lon="4.66431">
        <ele>181.09</ele>
        <time>2021-11-14T10:04:04Z</time>
      </trkpt>
      <trkpt lat="44.04745" lon="4.66429">
        <ele>181.34</ele>
        <time>2021-11-14T10:04:05Z</time>
      </trkpt>
      <trkpt lat="44.04746" lon="4.66428">
        <ele>181.56</ele>
        <time>2021-11-14T10:04:06Z</time>
      </trkpt>
      <trkpt lat="44.04746" lon="4.66426">
        <ele>181.76</ele>
        <time>2021-11-14T10:04:07Z</time>
      </trkpt>
      <trkpt lat="44.04747" lon="4.66422">
        <ele>181.31</ele>
        <time>2021-11-14T10:04:22Z</time>
      </trkpt>
      <trkpt lat="44.04748" lon="4.66419">
        <ele>181.96</ele>
        <time>2021-11-14T10:04:34Z</time>
      </trkpt>
      <trkpt lat="44.04748" lon="4.66417">
        <ele>181.8</ele>
        <time>2021-11-14T10:04:35Z</time>
      </trkpt>
      <trkpt lat="44.04748" lon="4.66414">
        <ele>181.62</ele>
        <time>2021-11-14T10:04:36Z</time>
      </trkpt>
      <trkpt lat="44.04759" lon="4.66388">
        <ele>179.56</ele>
        <time>2021-11-14T10:04:43Z</time>
      </trkpt>
      <trkpt lat="44.04764" lon="4.66373">
        <ele>178.1</ele>
        <time>2021-11-14T10:04:46Z</time>
      </trkpt>
      <trkpt lat="44.04766" lon="4.66368">
        <ele>177.39</ele>
        <time>2021-11-14T10:04:47Z</time>
      </trkpt>
      <trkpt lat="44.04768" lon="4.66364">
        <ele>176.77</ele>
        <time>2021-11-14T10:04:48Z</time>
      </trkpt>
      <trkpt lat="44.04771" lon="4.6636">
        <ele>176.64</ele>
        <time>2021-11-14T10:04:49Z</time>
      </trkpt>
      <trkpt lat="44.04773" lon="4.66357">
        <ele>176.36</ele>
        <time>2021-11-14T10:04:50Z</time>
      </trkpt>
      <trkpt lat="44.04774" lon="4.66353">
        <ele>176.12</ele>
        <time>2021-11-14T10:04:51Z</time>
      </trkpt>
      <trkpt lat="44.04774" lon="4.66349">
        <ele>176.15</ele>
        <time>2021-11-14T10:04:52Z</time>
      </trkpt>
      <trkpt lat="44.04776" lon="4.66345">
        <ele>175.9</ele>
        <time>2021-11-14T10:04:53Z</time>
      </trkpt>
      <trkpt lat="44.04777" lon="4.66342">
        <ele>175.69</ele>
        <time>2021-11-14T10:04:54Z</time>
      </trkpt>
      <trkpt lat="44.0478" lon="4.66301">
        <ele>174.81</ele>
        <time>2021-11-14T10:05:04Z</time>
      </trkpt>
      <trkpt lat="44.04775" lon="4.66285">
        <ele>171.98</ele>
        <time>2021-11-14T10:05:07Z</time>
      </trkpt>
      <trkpt lat="44.04775" lon="4.66279">
        <ele>171.56</ele>
        <time>2021-11-14T10:05:08Z</time>
      </trkpt>
      <trkpt lat="44.04777" lon="4.66273">
        <ele>171.41</ele>
        <time>2021-11-14T10:05:09Z</time>
      </trkpt>
      <trkpt lat="44.04779" lon="4.66262">
        <ele>170.58</ele>
        <time>2021-11-14T10:05:11Z</time>
      </trkpt>
      <trkpt lat="44.04781" lon="4.66256">
        <ele>170.36</ele>
        <time>2021-11-14T10:05:12Z</time>
      </trkpt>
      <trkpt lat="44.04787" lon="4.66232">
        <ele>168.53</ele>
        <time>2021-11-14T10:05:17Z</time>
      </trkpt>
      <trkpt lat="44.0479" lon="4.66229">
        <ele>167.98</ele>
        <time>2021-11-14T10:05:18Z</time>
      </trkpt>
      <trkpt lat="44.04792" lon="4.66228">
        <ele>167.95</ele>
        <time>2021-11-14T10:05:19Z</time>
      </trkpt>
      <trkpt lat="44.04794" lon="4.66228">
        <ele>168.24</ele>
        <time>2021-11-14T10:05:20Z</time>
      </trkpt>
      <trkpt lat="44.04796" lon="4.66227">
        <ele>168.53</ele>
        <time>2021-11-14T10:05:21Z</time>
      </trkpt>
      <trkpt lat="44.04797" lon="4.66225">
        <ele>168.86</ele>
        <time>2021-11-14T10:05:22Z</time>
      </trkpt>
      <trkpt lat="44.04798" lon="4.66221">
        <ele>168.87</ele>
        <time>2021-11-14T10:05:23Z</time>
      </trkpt>
      <trkpt lat="44.04799" lon="4.66217">
        <ele>168.88</ele>
        <time>2021-11-14T10:05:24Z</time>
      </trkpt>
      <trkpt lat="44.04801" lon="4.66205">
        <ele>167.98</ele>
        <time>2021-11-14T10:05:26Z</time>
      </trkpt>
      <trkpt lat="44.04802" lon="4.66199">
        <ele>167.41</ele>
        <time>2021-11-14T10:05:27Z</time>
      </trkpt>
      <trkpt lat="44.04803" lon="4.66194">
        <ele>166.58</ele>
        <time>2021-11-14T10:05:28Z</time>
      </trkpt>
      <trkpt lat="44.04805" lon="4.66191">
        <ele>166.53</ele>
        <time>2021-11-14T10:05:29Z</time>
      </trkpt>
      <trkpt lat="44.04807" lon="4.66189">
        <ele>166.47</ele>
        <time>2021-11-14T10:05:30Z</time>
      </trkpt>
      <trkpt lat="44.04809" lon="4.66186">
        <ele>166.47</ele>
        <time>2021-11-14T10:05:31Z</time>
      </trkpt>
      <trkpt lat="44.04824" lon="4.66153">
        <ele>167.16</ele>
        <time>2021-11-14T10:05:42Z</time>
      </trkpt>
      <trkpt lat="44.04824" lon="4.66129">
        <ele>165.29</ele>
        <time>2021-11-14T10:05:47Z</time>
      </trkpt>
      <trkpt lat="44.04833" lon="4.66097">
        <ele>163.32</ele>
        <time>2021-11-14T10:05:55Z</time>
      </trkpt>
      <trkpt lat="44.04833" lon="4.66091">
        <ele>162.87</ele>
        <time>2021-11-14T10:05:56Z</time>
      </trkpt>
      <trkpt lat="44.04832" lon="4.66085">
        <ele>162.21</ele>
        <time>2021-11-14T10:05:57Z</time>
      </trkpt>
      <trkpt lat="44.04831" lon="4.66079">
        <ele>161.54</ele>
        <time>2021-11-14T10:05:58Z</time>
      </trkpt>
      <trkpt lat="44.04832" lon="4.66073">
        <ele>161.29</ele>
        <time>2021-11-14T10:05:59Z</time>
      </trkpt>
      <trkpt lat="44.04833" lon="4.66067">
        <ele>160.59</ele>
        <time>2021-11-14T10:06:00Z</time>
      </trkpt>
      <trkpt lat="44.04835" lon="4.66061">
        <ele>160.46</ele>
        <time>2021-11-14T10:06:01Z</time>
      </trkpt>
      <trkpt lat="44.04837" lon="4.66055">
        <ele>160.91</ele>
        <time>2021-11-14T10:06:02Z</time>
      </trkpt>
      <trkpt lat="44.04838" lon="4.66043">
        <ele>159.96</ele>
        <time>2021-11-14T10:06:04Z</time>
      </trkpt>
      <trkpt lat="44.04841" lon="4.66031">
        <ele>158.96</ele>
        <time>2021-11-14T10:06:06Z</time>
      </trkpt>
      <trkpt lat="44.04846" lon="4.6602">
        <ele>157.19</ele>
        <time>2021-11-14T10:06:08Z</time>
      </trkpt>
      <trkpt lat="44.04849" lon="4.66016">
        <ele>156.73</ele>
        <time>2021-11-14T10:06:09Z</time>
      </trkpt>
      <trkpt lat="44.04852" lon="4.66012">
        <ele>156.89</ele>
        <time>2021-11-14T10:06:10Z</time>
      </trkpt>
      <trkpt lat="44.04856" lon="4.66008">
        <ele>156.71</ele>
        <time>2021-11-14T10:06:11Z</time>
      </trkpt>
      <trkpt lat="44.04859" lon="4.66004">
        <ele>156.69</ele>
        <time>2021-11-14T10:06:12Z</time>
      </trkpt>
      <trkpt lat="44.04862" lon="4.65999">
        <ele>156.84</ele>
        <time>2021-11-14T10:06:13Z</time>
      </trkpt>
      <trkpt lat="44.04864" lon="4.65994">
        <ele>156.34</ele>
        <time>2021-11-14T10:06:14Z</time>
      </trkpt>
      <trkpt lat="44.04864" lon="4.6599">
        <ele>155.56</ele>
        <time>2021-11-14T10:06:15Z</time>
      </trkpt>
      <trkpt lat="44.04864" lon="4.65988">
        <ele>154.8</ele>
        <time>2021-11-14T10:06:16Z</time>
      </trkpt>
      <trkpt lat="44.04862" lon="4.65985">
        <ele>154.85</ele>
        <time>2021-11-14T10:06:17Z</time>
      </trkpt>
      <trkpt lat="44.04861" lon="4.65985">
        <ele>154.97</ele>
        <time>2021-11-14T10:06:18Z</time>
      </trkpt>
      <trkpt lat="44.04859" lon="4.65985">
        <ele>154.81</ele>
        <time>2021-11-14T10:06:19Z</time>
      </trkpt>
      <trkpt lat="44.04858" lon="4.65985">
        <ele>154.08</ele>
        <time>2021-11-14T10:06:31Z</time>
      </trkpt>
      <trkpt lat="44.04849" lon="4.65988">
        <ele>153.43</ele>
        <time>2021-11-14T10:06:46Z</time>
      </trkpt>
      <trkpt lat="44.04848" lon="4.6599">
        <ele>153.91</ele>
        <time>2021-11-14T10:06:47Z</time>
      </trkpt>
      <trkpt lat="44.04846" lon="4.65992">
        <ele>154.41</ele>
        <time>2021-11-14T10:06:49Z</time>
      </trkpt>
      <trkpt lat="44.04844" lon="4.65994">
        <ele>154.2</ele>
        <time>2021-11-14T10:06:50Z</time>
      </trkpt>
      <trkpt lat="44.04842" lon="4.65995">
        <ele>154.38</ele>
        <time>2021-11-14T10:06:51Z</time>
      </trkpt>
      <trkpt lat="44.0484" lon="4.65995">
        <ele>154.45</ele>
        <time>2021-11-14T10:06:52Z</time>
      </trkpt>
      <trkpt lat="44.04839" lon="4.65995">
        <ele>154.45</ele>
        <time>2021-11-14T10:06:53Z</time>
      </trkpt>
      <trkpt lat="44.04837" lon="4.65995">
        <ele>154.55</ele>
        <time>2021-11-14T10:06:54Z</time>
      </trkpt>
      <trkpt lat="44.04834" lon="4.65996">
        <ele>154.87</ele>
        <time>2021-11-14T10:06:55Z</time>
      </trkpt>
      <trkpt lat="44.04832" lon="4.65997">
        <ele>154.91</ele>
        <time>2021-11-14T10:06:56Z</time>
      </trkpt>
      <trkpt lat="44.0483" lon="4.65998">
        <ele>154.93</ele>
        <time>2021-11-14T10:06:57Z</time>
      </trkpt>
      <trkpt lat="44.04828" lon="4.66">
        <ele>154.97</ele>
        <time>2021-11-14T10:06:58Z</time>
      </trkpt>
      <trkpt lat="44.04827" lon="4.66002">
        <ele>155.17</ele>
        <time>2021-11-14T10:06:59Z</time>
      </trkpt>
      <trkpt lat="44.04825" lon="4.66004">
        <ele>155.11</ele>
        <time>2021-11-14T10:07:00Z</time>
      </trkpt>
      <trkpt lat="44.04823" lon="4.66004">
        <ele>155.13</ele>
        <time>2021-11-14T10:07:01Z</time>
      </trkpt>
      <trkpt lat="44.04821" lon="4.66004">
        <ele>155.36</ele>
        <time>2021-11-14T10:07:02Z</time>
      </trkpt>
      <trkpt lat="44.04819" lon="4.66005">
        <ele>155.23</ele>
        <time>2021-11-14T10:07:03Z</time>
      </trkpt>
      <trkpt lat="44.04818" lon="4.66006">
        <ele>155.21</ele>
        <time>2021-11-14T10:07:04Z</time>
      </trkpt>
      <trkpt lat="44.04816" lon="4.66007">
        <ele>155.54</ele>
        <time>2021-11-14T10:07:05Z</time>
      </trkpt>
      <trkpt lat="44.04814" lon="4.66008">
        <ele>155.79</ele>
        <time>2021-11-14T10:07:06Z</time>
      </trkpt>
      <trkpt lat="44.04812" lon="4.6601">
        <ele>156.57</ele>
        <time>2021-11-14T10:07:07Z</time>
      </trkpt>
      <trkpt lat="44.04811" lon="4.66011">
        <ele>156.92</ele>
        <time>2021-11-14T10:07:08Z</time>
      </trkpt>
      <trkpt lat="44.0481" lon="4.66012">
        <ele>157.23</ele>
        <time>2021-11-14T10:07:09Z</time>
      </trkpt>
      <trkpt lat="44.04809" lon="4.66013">
        <ele>157.15</ele>
        <time>2021-11-14T10:07:10Z</time>
      </trkpt>
      <trkpt lat="44.04807" lon="4.66014">
        <ele>156.92</ele>
        <time>2021-11-14T10:07:11Z</time>
      </trkpt>
      <trkpt lat="44.04806" lon="4.66015">
        <ele>156.32</ele>
        <time>2021-11-14T10:07:12Z</time>
      </trkpt>
      <trkpt lat="44.04805" lon="4.66017">
        <ele>156.1</ele>
        <time>2021-11-14T10:07:13Z</time>
      </trkpt>
      <trkpt lat="44.04804" lon="4.66019">
        <ele>155.7</ele>
        <time>2021-11-14T10:07:14Z</time>
      </trkpt>
      <trkpt lat="44.04803" lon="4.66021">
        <ele>155.27</ele>
        <time>2021-11-14T10:07:15Z</time>
      </trkpt>
      <trkpt lat="44.04802" lon="4.66023">
        <ele>154.85</ele>
        <time>2021-11-14T10:07:16Z</time>
      </trkpt>
      <trkpt lat="44.04801" lon="4.66024">
        <ele>154.65</ele>
        <time>2021-11-14T10:07:17Z</time>
      </trkpt>
      <trkpt lat="44.048" lon="4.66024">
        <ele>155.04</ele>
        <time>2021-11-14T10:07:18Z</time>
      </trkpt>
      <trkpt lat="44.04798" lon="4.66023">
        <ele>155.9</ele>
        <time>2021-11-14T10:07:19Z</time>
      </trkpt>
      <trkpt lat="44.04798" lon="4.66022">
        <ele>156.43</ele>
        <time>2021-11-14T10:07:20Z</time>
      </trkpt>
      <trkpt lat="44.04798" lon="4.6602">
        <ele>156.89</ele>
        <time>2021-11-14T10:07:21Z</time>
      </trkpt>
      <trkpt lat="44.04798" lon="4.66019">
        <ele>157.07</ele>
        <time>2021-11-14T10:07:22Z</time>
      </trkpt>
      <trkpt lat="44.04797" lon="4.66017">
        <ele>156.95</ele>
        <time>2021-11-14T10:07:23Z</time>
      </trkpt>
      <trkpt lat="44.04795" lon="4.66015">
        <ele>156.67</ele>
        <time>2021-11-14T10:07:24Z</time>
      </trkpt>
      <trkpt lat="44.04795" lon="4.66013">
        <ele>156.51</ele>
        <time>2021-11-14T10:07:25Z</time>
      </trkpt>
      <trkpt lat="44.04795" lon="4.6601">
        <ele>156.47</ele>
        <time>2021-11-14T10:07:26Z</time>
      </trkpt>
      <trkpt lat="44.04794" lon="4.66007">
        <ele>156.57</ele>
        <time>2021-11-14T10:07:27Z</time>
      </trkpt>
      <trkpt lat="44.04795" lon="4.66005">
        <ele>156.6</ele>
        <time>2021-11-14T10:07:28Z</time>
      </trkpt>
      <trkpt lat="44.04795" lon="4.66002">
        <ele>156.83</ele>
        <time>2021-11-14T10:07:29Z</time>
      </trkpt>
      <trkpt lat="44.04796" lon="4.65999">
        <ele>157.08</ele>
        <time>2021-11-14T10:07:30Z</time>
      </trkpt>
      <trkpt lat="44.04796" lon="4.65996">
        <ele>156.99</ele>
        <time>2021-11-14T10:07:31Z</time>
      </trkpt>
      <trkpt lat="44.04796" lon="4.65993">
        <ele>157.01</ele>
        <time>2021-11-14T10:07:32Z</time>
      </trkpt>
      <trkpt lat="44.04796" lon="4.6599">
        <ele>156.99</ele>
        <time>2021-11-14T10:07:33Z</time>
      </trkpt>
      <trkpt lat="44.04796" lon="4.65987">
        <ele>156.76</ele>
        <time>2021-11-14T10:07:34Z</time>
      </trkpt>
      <trkpt lat="44.04815" lon="4.65954">
        <ele>156.71</ele>
        <time>2021-11-14T10:07:47Z</time>
      </trkpt>
      <trkpt lat="44.04828" lon="4.65923">
        <ele>156.51</ele>
        <time>2021-11-14T10:08:00Z</time>
      </trkpt>
      <trkpt lat="44.04834" lon="4.65888">
        <ele>157.8</ele>
        <time>2021-11-14T10:08:15Z</time>
      </trkpt>
      <trkpt lat="44.04835" lon="4.65851">
        <ele>158.2</ele>
        <time>2021-11-14T10:08:31Z</time>
      </trkpt>
      <trkpt lat="44.04834" lon="4.65841">
        <ele>157.83</ele>
        <time>2021-11-14T10:08:35Z</time>
      </trkpt>
      <trkpt lat="44.04835" lon="4.65839">
        <ele>157.69</ele>
        <time>2021-11-14T10:08:36Z</time>
      </trkpt>
      <trkpt lat="44.04836" lon="4.65838">
        <ele>157.48</ele>
        <time>2021-11-14T10:08:37Z</time>
      </trkpt>
      <trkpt lat="44.04838" lon="4.65837">
        <ele>157.43</ele>
        <time>2021-11-14T10:08:38Z</time>
      </trkpt>
      <trkpt lat="44.0484" lon="4.65834">
        <ele>157.29</ele>
        <time>2021-11-14T10:08:39Z</time>
      </trkpt>
      <trkpt lat="44.04842" lon="4.6583">
        <ele>157.08</ele>
        <time>2021-11-14T10:08:40Z</time>
      </trkpt>
      <trkpt lat="44.04842" lon="4.65826">
        <ele>156.93</ele>
        <time>2021-11-14T10:08:41Z</time>
      </trkpt>
      <trkpt lat="44.04842" lon="4.65823">
        <ele>157.17</ele>
        <time>2021-11-14T10:08:42Z</time>
      </trkpt>
      <trkpt lat="44.04842" lon="4.6582">
        <ele>157.16</ele>
        <time>2021-11-14T10:08:43Z</time>
      </trkpt>
      <trkpt lat="44.04838" lon="4.65785">
        <ele>158.08</ele>
        <time>2021-11-14T10:08:57Z</time>
      </trkpt>
      <trkpt lat="44.04831" lon="4.65753">
        <ele>161.02</ele>
        <time>2021-11-14T10:09:10Z</time>
      </trkpt>
      <trkpt lat="44.04823" lon="4.65714">
        <ele>161.99</ele>
        <time>2021-11-14T10:09:25Z</time>
      </trkpt>
      <trkpt lat="44.04823" lon="4.65675">
        <ele>162.35</ele>
        <time>2021-11-14T10:09:41Z</time>
      </trkpt>
      <trkpt lat="44.0482" lon="4.65644">
        <ele>163.27</ele>
        <time>2021-11-14T10:09:54Z</time>
      </trkpt>
      <trkpt lat="44.04818" lon="4.65638">
        <ele>163.94</ele>
        <time>2021-11-14T10:09:57Z</time>
      </trkpt>
      <trkpt lat="44.04819" lon="4.65636">
        <ele>163.94</ele>
        <time>2021-11-14T10:09:58Z</time>
      </trkpt>
      <trkpt lat="44.04819" lon="4.65633">
        <ele>163.87</ele>
        <time>2021-11-14T10:09:59Z</time>
      </trkpt>
      <trkpt lat="44.0482" lon="4.65631">
        <ele>164.05</ele>
        <time>2021-11-14T10:10:00Z</time>
      </trkpt>
      <trkpt lat="44.0482" lon="4.65629">
        <ele>164.15</ele>
        <time>2021-11-14T10:10:01Z</time>
      </trkpt>
      <trkpt lat="44.04819" lon="4.65626">
        <ele>164.18</ele>
        <time>2021-11-14T10:10:02Z</time>
      </trkpt>
      <trkpt lat="44.04819" lon="4.65624">
        <ele>164.33</ele>
        <time>2021-11-14T10:10:03Z</time>
      </trkpt>
      <trkpt lat="44.04816" lon="4.65593">
        <ele>166.58</ele>
        <time>2021-11-14T10:10:17Z</time>
      </trkpt>
      <trkpt lat="44.04815" lon="4.65585">
        <ele>166.74</ele>
        <time>2021-11-14T10:10:21Z</time>
      </trkpt>
      <trkpt lat="44.04812" lon="4.6558">
        <ele>166.85</ele>
        <time>2021-11-14T10:10:24Z</time>
      </trkpt>
      <trkpt lat="44.04812" lon="4.65577">
        <ele>166.98</ele>
        <time>2021-11-14T10:10:25Z</time>
      </trkpt>
      <trkpt lat="44.04816" lon="4.65545">
        <ele>169.25</ele>
        <time>2021-11-14T10:10:40Z</time>
      </trkpt>
      <trkpt lat="44.04817" lon="4.65543">
        <ele>169.18</ele>
        <time>2021-11-14T10:10:41Z</time>
      </trkpt>
      <trkpt lat="44.04817" lon="4.65541">
        <ele>169.19</ele>
        <time>2021-11-14T10:10:42Z</time>
      </trkpt>
      <trkpt lat="44.04817" lon="4.65539">
        <ele>169.19</ele>
        <time>2021-11-14T10:10:43Z</time>
      </trkpt>
      <trkpt lat="44.04817" lon="4.65537">
        <ele>169.05</ele>
        <time>2021-11-14T10:10:44Z</time>
      </trkpt>
      <trkpt lat="44.04816" lon="4.65535">
        <ele>169.16</ele>
        <time>2021-11-14T10:10:45Z</time>
      </trkpt>
      <trkpt lat="44.04816" lon="4.65533">
        <ele>169.38</ele>
        <time>2021-11-14T10:10:46Z</time>
      </trkpt>
      <trkpt lat="44.04816" lon="4.65531">
        <ele>169.47</ele>
        <time>2021-11-14T10:10:47Z</time>
      </trkpt>
      <trkpt lat="44.04816" lon="4.65525">
        <ele>170.32</ele>
        <time>2021-11-14T10:10:50Z</time>
      </trkpt>
      <trkpt lat="44.04817" lon="4.65523">
        <ele>170.81</ele>
        <time>2021-11-14T10:10:51Z</time>
      </trkpt>
      <trkpt lat="44.04817" lon="4.65522">
        <ele>170.92</ele>
        <time>2021-11-14T10:10:52Z</time>
      </trkpt>
      <trkpt lat="44.04818" lon="4.6552">
        <ele>170.96</ele>
        <time>2021-11-14T10:10:53Z</time>
      </trkpt>
      <trkpt lat="44.04821" lon="4.65505">
        <ele>171.96</ele>
        <time>2021-11-14T10:11:02Z</time>
      </trkpt>
      <trkpt lat="44.04821" lon="4.65503">
        <ele>171.95</ele>
        <time>2021-11-14T10:11:03Z</time>
      </trkpt>
      <trkpt lat="44.04822" lon="4.65501">
        <ele>172.1</ele>
        <time>2021-11-14T10:11:04Z</time>
      </trkpt>
      <trkpt lat="44.04822" lon="4.65499">
        <ele>172.14</ele>
        <time>2021-11-14T10:11:05Z</time>
      </trkpt>
      <trkpt lat="44.04823" lon="4.65498">
        <ele>172.12</ele>
        <time>2021-11-14T10:11:06Z</time>
      </trkpt>
      <trkpt lat="44.04834" lon="4.65466">
        <ele>173.67</ele>
        <time>2021-11-14T10:11:22Z</time>
      </trkpt>
      <trkpt lat="44.04838" lon="4.65463">
        <ele>173.43</ele>
        <time>2021-11-14T10:11:25Z</time>
      </trkpt>
      <trkpt lat="44.04839" lon="4.65461">
        <ele>173.03</ele>
        <time>2021-11-14T10:11:26Z</time>
      </trkpt>
      <trkpt lat="44.04839" lon="4.65458">
        <ele>172.86</ele>
        <time>2021-11-14T10:11:27Z</time>
      </trkpt>
      <trkpt lat="44.0484" lon="4.65456">
        <ele>172.75</ele>
        <time>2021-11-14T10:11:28Z</time>
      </trkpt>
      <trkpt lat="44.04841" lon="4.65454">
        <ele>172.51</ele>
        <time>2021-11-14T10:11:29Z</time>
      </trkpt>
      <trkpt lat="44.04842" lon="4.65453">
        <ele>172.27</ele>
        <time>2021-11-14T10:11:30Z</time>
      </trkpt>
      <trkpt lat="44.04843" lon="4.65451">
        <ele>172.21</ele>
        <time>2021-11-14T10:11:31Z</time>
      </trkpt>
      <trkpt lat="44.04845" lon="4.6545">
        <ele>172.05</ele>
        <time>2021-11-14T10:11:32Z</time>
      </trkpt>
      <trkpt lat="44.0486" lon="4.65426">
        <ele>175.17</ele>
        <time>2021-11-14T10:11:46Z</time>
      </trkpt>
      <trkpt lat="44.04866" lon="4.65421">
        <ele>176.98</ele>
        <time>2021-11-14T10:11:50Z</time>
      </trkpt>
      <trkpt lat="44.04869" lon="4.65421">
        <ele>177.9</ele>
        <time>2021-11-14T10:11:52Z</time>
      </trkpt>
      <trkpt lat="44.04879" lon="4.65415">
        <ele>176.64</ele>
        <time>2021-11-14T10:12:07Z</time>
      </trkpt>
      <trkpt lat="44.04881" lon="4.65414">
        <ele>176.75</ele>
        <time>2021-11-14T10:12:14Z</time>
      </trkpt>
      <trkpt lat="44.04882" lon="4.65413">
        <ele>176.74</ele>
        <time>2021-11-14T10:12:15Z</time>
      </trkpt>
      <trkpt lat="44.04883" lon="4.65412">
        <ele>176.72</ele>
        <time>2021-11-14T10:12:16Z</time>
      </trkpt>
      <trkpt lat="44.04884" lon="4.6541">
        <ele>176.82</ele>
        <time>2021-11-14T10:12:17Z</time>
      </trkpt>
      <trkpt lat="44.04885" lon="4.6541">
        <ele>177.04</ele>
        <time>2021-11-14T10:12:18Z</time>
      </trkpt>
      <trkpt lat="44.04886" lon="4.65408">
        <ele>177.2</ele>
        <time>2021-11-14T10:12:19Z</time>
      </trkpt>
      <trkpt lat="44.04887" lon="4.65407">
        <ele>177.35</ele>
        <time>2021-11-14T10:12:20Z</time>
      </trkpt>
      <trkpt lat="44.04896" lon="4.65385">
        <ele>177.86</ele>
        <time>2021-11-14T10:12:31Z</time>
      </trkpt>
      <trkpt lat="44.04896" lon="4.65382">
        <ele>178.07</ele>
        <time>2021-11-14T10:12:32Z</time>
      </trkpt>
      <trkpt lat="44.049" lon="4.65368">
        <ele>179.57</ele>
        <time>2021-11-14T10:12:40Z</time>
      </trkpt>
      <trkpt lat="44.04901" lon="4.65366">
        <ele>179.51</ele>
        <time>2021-11-14T10:12:41Z</time>
      </trkpt>
      <trkpt lat="44.04901" lon="4.65365">
        <ele>179.62</ele>
        <time>2021-11-14T10:12:42Z</time>
      </trkpt>
      <trkpt lat="44.04902" lon="4.65363">
        <ele>179.95</ele>
        <time>2021-11-14T10:12:43Z</time>
      </trkpt>
      <trkpt lat="44.04902" lon="4.65361">
        <ele>179.97</ele>
        <time>2021-11-14T10:12:44Z</time>
      </trkpt>
      <trkpt lat="44.04902" lon="4.6536">
        <ele>180.18</ele>
        <time>2021-11-14T10:12:45Z</time>
      </trkpt>
      <trkpt lat="44.04904" lon="4.65353">
        <ele>180.43</ele>
        <time>2021-11-14T10:12:49Z</time>
      </trkpt>
      <trkpt lat="44.04904" lon="4.65351">
        <ele>180.17</ele>
        <time>2021-11-14T10:12:50Z</time>
      </trkpt>
      <trkpt lat="44.04908" lon="4.65315">
        <ele>182.77</ele>
        <time>2021-11-14T10:13:05Z</time>
      </trkpt>
      <trkpt lat="44.04907" lon="4.65301">
        <ele>183.28</ele>
        <time>2021-11-14T10:13:12Z</time>
      </trkpt>
      <trkpt lat="44.04907" lon="4.65299">
        <ele>183.31</ele>
        <time>2021-11-14T10:13:13Z</time>
      </trkpt>
      <trkpt lat="44.04907" lon="4.65296">
        <ele>183.33</ele>
        <time>2021-11-14T10:13:14Z</time>
      </trkpt>
      <trkpt lat="44.04907" lon="4.65294">
        <ele>183.34</ele>
        <time>2021-11-14T10:13:15Z</time>
      </trkpt>
      <trkpt lat="44.04907" lon="4.65292">
        <ele>183.64</ele>
        <time>2021-11-14T10:13:16Z</time>
      </trkpt>
      <trkpt lat="44.04905" lon="4.65282">
        <ele>184.04</ele>
        <time>2021-11-14T10:13:22Z</time>
      </trkpt>
      <trkpt lat="44.04905" lon="4.6528">
        <ele>184.1</ele>
        <time>2021-11-14T10:13:23Z</time>
      </trkpt>
      <trkpt lat="44.04906" lon="4.65279">
        <ele>184.21</ele>
        <time>2021-11-14T10:13:24Z</time>
      </trkpt>
      <trkpt lat="44.04906" lon="4.65277">
        <ele>184.35</ele>
        <time>2021-11-14T10:13:25Z</time>
      </trkpt>
      <trkpt lat="44.04907" lon="4.65275">
        <ele>184.33</ele>
        <time>2021-11-14T10:13:26Z</time>
      </trkpt>
      <trkpt lat="44.04907" lon="4.65273">
        <ele>184.4</ele>
        <time>2021-11-14T10:13:27Z</time>
      </trkpt>
      <trkpt lat="44.04906" lon="4.65237">
        <ele>185.79</ele>
        <time>2021-11-14T10:13:44Z</time>
      </trkpt>
      <trkpt lat="44.04908" lon="4.65217">
        <ele>188.67</ele>
        <time>2021-11-14T10:13:54Z</time>
      </trkpt>
      <trkpt lat="44.04908" lon="4.65215">
        <ele>188.79</ele>
        <time>2021-11-14T10:13:55Z</time>
      </trkpt>
      <trkpt lat="44.04909" lon="4.65214">
        <ele>188.99</ele>
        <time>2021-11-14T10:13:56Z</time>
      </trkpt>
      <trkpt lat="44.0491" lon="4.65212">
        <ele>189.39</ele>
        <time>2021-11-14T10:13:57Z</time>
      </trkpt>
      <trkpt lat="44.0491" lon="4.6521">
        <ele>189.37</ele>
        <time>2021-11-14T10:13:58Z</time>
      </trkpt>
      <trkpt lat="44.0491" lon="4.65207">
        <ele>189.46</ele>
        <time>2021-11-14T10:13:59Z</time>
      </trkpt>
      <trkpt lat="44.0491" lon="4.65205">
        <ele>189.41</ele>
        <time>2021-11-14T10:14:00Z</time>
      </trkpt>
      <trkpt lat="44.0491" lon="4.65203">
        <ele>189.58</ele>
        <time>2021-11-14T10:14:01Z</time>
      </trkpt>
      <trkpt lat="44.04909" lon="4.65201">
        <ele>189.47</ele>
        <time>2021-11-14T10:14:02Z</time>
      </trkpt>
      <trkpt lat="44.04913" lon="4.65181">
        <ele>189.44</ele>
        <time>2021-11-14T10:14:13Z</time>
      </trkpt>
      <trkpt lat="44.04914" lon="4.65175">
        <ele>189.93</ele>
        <time>2021-11-14T10:14:16Z</time>
      </trkpt>
      <trkpt lat="44.04915" lon="4.65167">
        <ele>191.61</ele>
        <time>2021-11-14T10:14:20Z</time>
      </trkpt>
      <trkpt lat="44.04916" lon="4.65166">
        <ele>191.71</ele>
        <time>2021-11-14T10:14:21Z</time>
      </trkpt>
      <trkpt lat="44.04916" lon="4.65164">
        <ele>191.88</ele>
        <time>2021-11-14T10:14:22Z</time>
      </trkpt>
      <trkpt lat="44.04916" lon="4.65162">
        <ele>192.37</ele>
        <time>2021-11-14T10:14:23Z</time>
      </trkpt>
      <trkpt lat="44.04916" lon="4.6516">
        <ele>193.01</ele>
        <time>2021-11-14T10:14:24Z</time>
      </trkpt>
      <trkpt lat="44.04915" lon="4.65158">
        <ele>193.19</ele>
        <time>2021-11-14T10:14:25Z</time>
      </trkpt>
      <trkpt lat="44.04915" lon="4.65156">
        <ele>191.81</ele>
        <time>2021-11-14T10:14:26Z</time>
      </trkpt>
      <trkpt lat="44.04915" lon="4.65154">
        <ele>191.64</ele>
        <time>2021-11-14T10:14:27Z</time>
      </trkpt>
      <trkpt lat="44.04915" lon="4.65151">
        <ele>191.64</ele>
        <time>2021-11-14T10:14:28Z</time>
      </trkpt>
      <trkpt lat="44.04916" lon="4.65149">
        <ele>191.37</ele>
        <time>2021-11-14T10:14:29Z</time>
      </trkpt>
      <trkpt lat="44.04917" lon="4.65145">
        <ele>191.3</ele>
        <time>2021-11-14T10:14:30Z</time>
      </trkpt>
      <trkpt lat="44.0492" lon="4.65131">
        <ele>190.51</ele>
        <time>2021-11-14T10:14:33Z</time>
      </trkpt>
      <trkpt lat="44.04923" lon="4.65101">
        <ele>187.98</ele>
        <time>2021-11-14T10:14:38Z</time>
      </trkpt>
      <trkpt lat="44.04926" lon="4.65096">
        <ele>187.42</ele>
        <time>2021-11-14T10:14:40Z</time>
      </trkpt>
      <trkpt lat="44.04928" lon="4.65095">
        <ele>187.03</ele>
        <time>2021-11-14T10:14:41Z</time>
      </trkpt>
      <trkpt lat="44.04931" lon="4.65094">
        <ele>187.05</ele>
        <time>2021-11-14T10:14:42Z</time>
      </trkpt>
      <trkpt lat="44.04934" lon="4.65093">
        <ele>186.72</ele>
        <time>2021-11-14T10:14:43Z</time>
      </trkpt>
      <trkpt lat="44.04936" lon="4.6509">
        <ele>186.14</ele>
        <time>2021-11-14T10:14:44Z</time>
      </trkpt>
      <trkpt lat="44.04938" lon="4.65086">
        <ele>185.86</ele>
        <time>2021-11-14T10:14:45Z</time>
      </trkpt>
      <trkpt lat="44.04939" lon="4.65081">
        <ele>185.19</ele>
        <time>2021-11-14T10:14:46Z</time>
      </trkpt>
      <trkpt lat="44.0494" lon="4.65076">
        <ele>184.93</ele>
        <time>2021-11-14T10:14:47Z</time>
      </trkpt>
      <trkpt lat="44.04946" lon="4.65054">
        <ele>182.49</ele>
        <time>2021-11-14T10:14:52Z</time>
      </trkpt>
      <trkpt lat="44.04955" lon="4.6504">
        <ele>181.33</ele>
        <time>2021-11-14T10:14:56Z</time>
      </trkpt>
      <trkpt lat="44.04955" lon="4.65035">
        <ele>181.06</ele>
        <time>2021-11-14T10:14:57Z</time>
      </trkpt>
      <trkpt lat="44.04955" lon="4.65031">
        <ele>180.74</ele>
        <time>2021-11-14T10:14:58Z</time>
      </trkpt>
      <trkpt lat="44.04956" lon="4.65028">
        <ele>180.37</ele>
        <time>2021-11-14T10:14:59Z</time>
      </trkpt>
      <trkpt lat="44.04957" lon="4.65026">
        <ele>179.97</ele>
        <time>2021-11-14T10:15:00Z</time>
      </trkpt>
      <trkpt lat="44.04958" lon="4.65024">
        <ele>179.54</ele>
        <time>2021-11-14T10:15:01Z</time>
      </trkpt>
      <trkpt lat="44.04961" lon="4.65022">
        <ele>179.28</ele>
        <time>2021-11-14T10:15:12Z</time>
      </trkpt>
      <trkpt lat="44.04962" lon="4.65022">
        <ele>179.41</ele>
        <time>2021-11-14T10:15:19Z</time>
      </trkpt>
      <trkpt lat="44.04964" lon="4.65021">
        <ele>178.62</ele>
        <time>2021-11-14T10:15:21Z</time>
      </trkpt>
      <trkpt lat="44.04968" lon="4.65005">
        <ele>177.92</ele>
        <time>2021-11-14T10:15:28Z</time>
      </trkpt>
      <trkpt lat="44.04968" lon="4.65002">
        <ele>177.73</ele>
        <time>2021-11-14T10:15:29Z</time>
      </trkpt>
      <trkpt lat="44.04969" lon="4.65">
        <ele>177.68</ele>
        <time>2021-11-14T10:15:30Z</time>
      </trkpt>
      <trkpt lat="44.04969" lon="4.64998">
        <ele>177.53</ele>
        <time>2021-11-14T10:15:31Z</time>
      </trkpt>
      <trkpt lat="44.0497" lon="4.64997">
        <ele>177.7</ele>
        <time>2021-11-14T10:15:32Z</time>
      </trkpt>
      <trkpt lat="44.04971" lon="4.6499">
        <ele>176.5</ele>
        <time>2021-11-14T10:15:47Z</time>
      </trkpt>
      <trkpt lat="44.04977" lon="4.64966">
        <ele>176.85</ele>
        <time>2021-11-14T10:15:58Z</time>
      </trkpt>
      <trkpt lat="44.04982" lon="4.64956">
        <ele>176.78</ele>
        <time>2021-11-14T10:16:09Z</time>
      </trkpt>
      <trkpt lat="44.04993" lon="4.64915">
        <ele>178.18</ele>
        <time>2021-11-14T10:16:25Z</time>
      </trkpt>
      <trkpt lat="44.04995" lon="4.64875">
        <ele>179.18</ele>
        <time>2021-11-14T10:16:41Z</time>
      </trkpt>
      <trkpt lat="44.04995" lon="4.64845">
        <ele>179.25</ele>
        <time>2021-11-14T10:16:54Z</time>
      </trkpt>
      <trkpt lat="44.04993" lon="4.64844">
        <ele>179.27</ele>
        <time>2021-11-14T10:16:55Z</time>
      </trkpt>
      <trkpt lat="44.04991" lon="4.64844">
        <ele>179.28</ele>
        <time>2021-11-14T10:16:56Z</time>
      </trkpt>
      <trkpt lat="44.04966" lon="4.64851">
        <ele>181.62</ele>
        <time>2021-11-14T10:17:13Z</time>
      </trkpt>
      <trkpt lat="44.04943" lon="4.64846">
        <ele>183.74</ele>
        <time>2021-11-14T10:17:28Z</time>
      </trkpt>
      <trkpt lat="44.04919" lon="4.64832">
        <ele>184.65</ele>
        <time>2021-11-14T10:17:45Z</time>
      </trkpt>
      <trkpt lat="44.04897" lon="4.64827">
        <ele>186.92</ele>
        <time>2021-11-14T10:18:01Z</time>
      </trkpt>
      <trkpt lat="44.04896" lon="4.64826">
        <ele>187.14</ele>
        <time>2021-11-14T10:18:02Z</time>
      </trkpt>
      <trkpt lat="44.04895" lon="4.64826">
        <ele>187.38</ele>
        <time>2021-11-14T10:18:03Z</time>
      </trkpt>
      <trkpt lat="44.04894" lon="4.64826">
        <ele>187.69</ele>
        <time>2021-11-14T10:18:04Z</time>
      </trkpt>
      <trkpt lat="44.04892" lon="4.64825">
        <ele>187.88</ele>
        <time>2021-11-14T10:18:05Z</time>
      </trkpt>
      <trkpt lat="44.04891" lon="4.64825">
        <ele>188.06</ele>
        <time>2021-11-14T10:18:06Z</time>
      </trkpt>
      <trkpt lat="44.0489" lon="4.64825">
        <ele>188.25</ele>
        <time>2021-11-14T10:18:07Z</time>
      </trkpt>
      <trkpt lat="44.0487" lon="4.64819">
        <ele>188.61</ele>
        <time>2021-11-14T10:18:23Z</time>
      </trkpt>
      <trkpt lat="44.04856" lon="4.64826">
        <ele>191.71</ele>
        <time>2021-11-14T10:18:34Z</time>
      </trkpt>
      <trkpt lat="44.04847" lon="4.64826">
        <ele>192.35</ele>
        <time>2021-11-14T10:18:42Z</time>
      </trkpt>
      <trkpt lat="44.04846" lon="4.64825">
        <ele>192.49</ele>
        <time>2021-11-14T10:18:43Z</time>
      </trkpt>
      <trkpt lat="44.04839" lon="4.64821">
        <ele>193.42</ele>
        <time>2021-11-14T10:18:49Z</time>
      </trkpt>
      <trkpt lat="44.04838" lon="4.64821">
        <ele>193.58</ele>
        <time>2021-11-14T10:18:50Z</time>
      </trkpt>
      <trkpt lat="44.04833" lon="4.64819">
        <ele>193.35</ele>
        <time>2021-11-14T10:18:55Z</time>
      </trkpt>
      <trkpt lat="44.04831" lon="4.64818">
        <ele>193.12</ele>
        <time>2021-11-14T10:18:56Z</time>
      </trkpt>
      <trkpt lat="44.04827" lon="4.64815">
        <ele>194.08</ele>
        <time>2021-11-14T10:19:00Z</time>
      </trkpt>
      <trkpt lat="44.04822" lon="4.64802">
        <ele>194.04</ele>
        <time>2021-11-14T10:19:10Z</time>
      </trkpt>
      <trkpt lat="44.0482" lon="4.64799">
        <ele>195.05</ele>
        <time>2021-11-14T10:19:12Z</time>
      </trkpt>
      <trkpt lat="44.04818" lon="4.64798">
        <ele>195.24</ele>
        <time>2021-11-14T10:19:13Z</time>
      </trkpt>
      <trkpt lat="44.04817" lon="4.64797">
        <ele>194.78</ele>
        <time>2021-11-14T10:19:14Z</time>
      </trkpt>
      <trkpt lat="44.04813" lon="4.64794">
        <ele>195.43</ele>
        <time>2021-11-14T10:19:17Z</time>
      </trkpt>
      <trkpt lat="44.04812" lon="4.64793">
        <ele>194.92</ele>
        <time>2021-11-14T10:19:18Z</time>
      </trkpt>
      <trkpt lat="44.0481" lon="4.64793">
        <ele>194.94</ele>
        <time>2021-11-14T10:19:19Z</time>
      </trkpt>
      <trkpt lat="44.04808" lon="4.64792">
        <ele>195.95</ele>
        <time>2021-11-14T10:19:21Z</time>
      </trkpt>
      <trkpt lat="44.04805" lon="4.64791">
        <ele>196.12</ele>
        <time>2021-11-14T10:19:23Z</time>
      </trkpt>
      <trkpt lat="44.04804" lon="4.64791">
        <ele>196.04</ele>
        <time>2021-11-14T10:19:24Z</time>
      </trkpt>
      <trkpt lat="44.04802" lon="4.64792">
        <ele>196.74</ele>
        <time>2021-11-14T10:19:26Z</time>
      </trkpt>
      <trkpt lat="44.048" lon="4.64791">
        <ele>197.21</ele>
        <time>2021-11-14T10:19:27Z</time>
      </trkpt>
      <trkpt lat="44.04799" lon="4.6479">
        <ele>197.14</ele>
        <time>2021-11-14T10:19:28Z</time>
      </trkpt>
      <trkpt lat="44.04797" lon="4.64789">
        <ele>197.25</ele>
        <time>2021-11-14T10:19:29Z</time>
      </trkpt>
      <trkpt lat="44.04796" lon="4.64788">
        <ele>197.34</ele>
        <time>2021-11-14T10:19:30Z</time>
      </trkpt>
      <trkpt lat="44.04794" lon="4.64787">
        <ele>197.51</ele>
        <time>2021-11-14T10:19:31Z</time>
      </trkpt>
      <trkpt lat="44.04793" lon="4.64787">
        <ele>197.55</ele>
        <time>2021-11-14T10:19:32Z</time>
      </trkpt>
      <trkpt lat="44.04792" lon="4.64786">
        <ele>197.74</ele>
        <time>2021-11-14T10:19:33Z</time>
      </trkpt>
      <trkpt lat="44.0479" lon="4.64785">
        <ele>198.05</ele>
        <time>2021-11-14T10:19:34Z</time>
      </trkpt>
      <trkpt lat="44.04776" lon="4.64778">
        <ele>199.43</ele>
        <time>2021-11-14T10:19:46Z</time>
      </trkpt>
      <trkpt lat="44.04775" lon="4.64777">
        <ele>199.92</ele>
        <time>2021-11-14T10:19:47Z</time>
      </trkpt>
      <trkpt lat="44.04775" lon="4.64774">
        <ele>200.3</ele>
        <time>2021-11-14T10:19:49Z</time>
      </trkpt>
      <trkpt lat="44.04775" lon="4.64772">
        <ele>200.46</ele>
        <time>2021-11-14T10:19:50Z</time>
      </trkpt>
      <trkpt lat="44.04776" lon="4.6477">
        <ele>200.48</ele>
        <time>2021-11-14T10:19:51Z</time>
      </trkpt>
      <trkpt lat="44.04781" lon="4.64753">
        <ele>203.6</ele>
        <time>2021-11-14T10:20:01Z</time>
      </trkpt>
      <trkpt lat="44.04781" lon="4.64752">
        <ele>203.79</ele>
        <time>2021-11-14T10:20:02Z</time>
      </trkpt>
      <trkpt lat="44.0478" lon="4.6475">
        <ele>203.9</ele>
        <time>2021-11-14T10:20:03Z</time>
      </trkpt>
      <trkpt lat="44.0478" lon="4.64749">
        <ele>204.12</ele>
        <time>2021-11-14T10:20:04Z</time>
      </trkpt>
      <trkpt lat="44.04779" lon="4.64747">
        <ele>204.3</ele>
        <time>2021-11-14T10:20:05Z</time>
      </trkpt>
      <trkpt lat="44.04779" lon="4.64745">
        <ele>204.56</ele>
        <time>2021-11-14T10:20:06Z</time>
      </trkpt>
      <trkpt lat="44.0478" lon="4.64743">
        <ele>204.86</ele>
        <time>2021-11-14T10:20:07Z</time>
      </trkpt>
      <trkpt lat="44.0478" lon="4.64739">
        <ele>204.49</ele>
        <time>2021-11-14T10:20:10Z</time>
      </trkpt>
      <trkpt lat="44.04779" lon="4.64738">
        <ele>204.6</ele>
        <time>2021-11-14T10:20:11Z</time>
      </trkpt>
      <trkpt lat="44.04778" lon="4.64737">
        <ele>204.7</ele>
        <time>2021-11-14T10:20:12Z</time>
      </trkpt>
      <trkpt lat="44.04777" lon="4.64736">
        <ele>204.82</ele>
        <time>2021-11-14T10:20:13Z</time>
      </trkpt>
      <trkpt lat="44.04776" lon="4.64735">
        <ele>204.84</ele>
        <time>2021-11-14T10:20:15Z</time>
      </trkpt>
      <trkpt lat="44.04775" lon="4.64734">
        <ele>204.75</ele>
        <time>2021-11-14T10:20:16Z</time>
      </trkpt>
      <trkpt lat="44.04774" lon="4.64732">
        <ele>204.77</ele>
        <time>2021-11-14T10:20:17Z</time>
      </trkpt>
      <trkpt lat="44.04773" lon="4.64728">
        <ele>206.7</ele>
        <time>2021-11-14T10:20:30Z</time>
      </trkpt>
      <trkpt lat="44.04773" lon="4.64716">
        <ele>207.83</ele>
        <time>2021-11-14T10:20:44Z</time>
      </trkpt>
      <trkpt lat="44.04774" lon="4.64701">
        <ele>210.21</ele>
        <time>2021-11-14T10:21:00Z</time>
      </trkpt>
      <trkpt lat="44.0478" lon="4.64684">
        <ele>212.58</ele>
        <time>2021-11-14T10:21:18Z</time>
      </trkpt>
      <trkpt lat="44.04773" lon="4.64679">
        <ele>215.18</ele>
        <time>2021-11-14T10:21:33Z</time>
      </trkpt>
      <trkpt lat="44.04765" lon="4.64674">
        <ele>216.77</ele>
        <time>2021-11-14T10:21:49Z</time>
      </trkpt>
      <trkpt lat="44.04758" lon="4.64658">
        <ele>219.89</ele>
        <time>2021-11-14T10:22:08Z</time>
      </trkpt>
      <trkpt lat="44.04759" lon="4.64644">
        <ele>221.6</ele>
        <time>2021-11-14T10:22:27Z</time>
      </trkpt>
      <trkpt lat="44.04759" lon="4.6464">
        <ele>222.13</ele>
        <time>2021-11-14T10:22:34Z</time>
      </trkpt>
      <trkpt lat="44.04759" lon="4.64638">
        <ele>222.43</ele>
        <time>2021-11-14T10:22:35Z</time>
      </trkpt>
      <trkpt lat="44.04753" lon="4.64623">
        <ele>223.88</ele>
        <time>2021-11-14T10:22:51Z</time>
      </trkpt>
      <trkpt lat="44.04754" lon="4.64623">
        <ele>224.33</ele>
        <time>2021-11-14T10:23:17Z</time>
      </trkpt>
      <trkpt lat="44.04753" lon="4.64623">
        <ele>224.33</ele>
        <time>2021-11-14T10:23:25Z</time>
      </trkpt>
      <trkpt lat="44.04752" lon="4.64623">
        <ele>224.59</ele>
        <time>2021-11-14T10:23:26Z</time>
      </trkpt>
      <trkpt lat="44.04751" lon="4.64623">
        <ele>224.67</ele>
        <time>2021-11-14T10:23:27Z</time>
      </trkpt>
      <trkpt lat="44.04749" lon="4.64623">
        <ele>224.68</ele>
        <time>2021-11-14T10:23:28Z</time>
      </trkpt>
      <trkpt lat="44.04748" lon="4.64623">
        <ele>224.57</ele>
        <time>2021-11-14T10:23:29Z</time>
      </trkpt>
      <trkpt lat="44.04746" lon="4.64623">
        <ele>224.55</ele>
        <time>2021-11-14T10:23:30Z</time>
      </trkpt>
      <trkpt lat="44.04745" lon="4.64623">
        <ele>224.54</ele>
        <time>2021-11-14T10:23:31Z</time>
      </trkpt>
      <trkpt lat="44.04743" lon="4.64623">
        <ele>224.47</ele>
        <time>2021-11-14T10:23:32Z</time>
      </trkpt>
      <trkpt lat="44.04741" lon="4.64623">
        <ele>224.42</ele>
        <time>2021-11-14T10:23:33Z</time>
      </trkpt>
      <trkpt lat="44.0474" lon="4.64623">
        <ele>224.5</ele>
        <time>2021-11-14T10:23:34Z</time>
      </trkpt>
      <trkpt lat="44.04738" lon="4.64624">
        <ele>224.51</ele>
        <time>2021-11-14T10:23:35Z</time>
      </trkpt>
      <trkpt lat="44.04737" lon="4.64626">
        <ele>224.44</ele>
        <time>2021-11-14T10:23:36Z</time>
      </trkpt>
      <trkpt lat="44.04736" lon="4.64628">
        <ele>224.6</ele>
        <time>2021-11-14T10:23:37Z</time>
      </trkpt>
      <trkpt lat="44.04726" lon="4.6464">
        <ele>225.13</ele>
        <time>2021-11-14T10:23:46Z</time>
      </trkpt>
      <trkpt lat="44.04724" lon="4.6464">
        <ele>225.14</ele>
        <time>2021-11-14T10:23:47Z</time>
      </trkpt>
      <trkpt lat="44.04722" lon="4.6464">
        <ele>225.28</ele>
        <time>2021-11-14T10:23:48Z</time>
      </trkpt>
      <trkpt lat="44.0472" lon="4.6464">
        <ele>225.28</ele>
        <time>2021-11-14T10:23:49Z</time>
      </trkpt>
      <trkpt lat="44.04718" lon="4.64641">
        <ele>225.26</ele>
        <time>2021-11-14T10:23:50Z</time>
      </trkpt>
      <trkpt lat="44.04717" lon="4.64642">
        <ele>225.34</ele>
        <time>2021-11-14T10:23:51Z</time>
      </trkpt>
      <trkpt lat="44.04715" lon="4.64644">
        <ele>225.06</ele>
        <time>2021-11-14T10:23:52Z</time>
      </trkpt>
      <trkpt lat="44.04714" lon="4.64646">
        <ele>225.03</ele>
        <time>2021-11-14T10:23:53Z</time>
      </trkpt>
      <trkpt lat="44.04712" lon="4.64648">
        <ele>224.97</ele>
        <time>2021-11-14T10:23:54Z</time>
      </trkpt>
      <trkpt lat="44.04711" lon="4.6465">
        <ele>224.93</ele>
        <time>2021-11-14T10:23:55Z</time>
      </trkpt>
      <trkpt lat="44.04709" lon="4.64653">
        <ele>224.86</ele>
        <time>2021-11-14T10:23:56Z</time>
      </trkpt>
      <trkpt lat="44.04708" lon="4.64655">
        <ele>224.83</ele>
        <time>2021-11-14T10:23:57Z</time>
      </trkpt>
      <trkpt lat="44.04707" lon="4.64658">
        <ele>224.92</ele>
        <time>2021-11-14T10:23:58Z</time>
      </trkpt>
      <trkpt lat="44.04707" lon="4.64661">
        <ele>224.95</ele>
        <time>2021-11-14T10:23:59Z</time>
      </trkpt>
      <trkpt lat="44.04706" lon="4.64663">
        <ele>224.79</ele>
        <time>2021-11-14T10:24:00Z</time>
      </trkpt>
      <trkpt lat="44.04705" lon="4.64664">
        <ele>224.61</ele>
        <time>2021-11-14T10:24:01Z</time>
      </trkpt>
      <trkpt lat="44.04703" lon="4.64663">
        <ele>224.55</ele>
        <time>2021-11-14T10:24:02Z</time>
      </trkpt>
      <trkpt lat="44.04702" lon="4.64664">
        <ele>224.64</ele>
        <time>2021-11-14T10:24:03Z</time>
      </trkpt>
      <trkpt lat="44.047" lon="4.64665">
        <ele>224.42</ele>
        <time>2021-11-14T10:24:04Z</time>
      </trkpt>
      <trkpt lat="44.04699" lon="4.64666">
        <ele>224.22</ele>
        <time>2021-11-14T10:24:05Z</time>
      </trkpt>
      <trkpt lat="44.047" lon="4.64669">
        <ele>224.09</ele>
        <time>2021-11-14T10:24:06Z</time>
      </trkpt>
      <trkpt lat="44.047" lon="4.64671">
        <ele>223.95</ele>
        <time>2021-11-14T10:24:07Z</time>
      </trkpt>
      <trkpt lat="44.04699" lon="4.64674">
        <ele>223.34</ele>
        <time>2021-11-14T10:24:09Z</time>
      </trkpt>
      <trkpt lat="44.04698" lon="4.64676">
        <ele>223.11</ele>
        <time>2021-11-14T10:24:10Z</time>
      </trkpt>
      <trkpt lat="44.04697" lon="4.64679">
        <ele>222.89</ele>
        <time>2021-11-14T10:24:11Z</time>
      </trkpt>
      <trkpt lat="44.04696" lon="4.6468">
        <ele>222.69</ele>
        <time>2021-11-14T10:24:12Z</time>
      </trkpt>
      <trkpt lat="44.04696" lon="4.64682">
        <ele>222.53</ele>
        <time>2021-11-14T10:24:13Z</time>
      </trkpt>
      <trkpt lat="44.04695" lon="4.64683">
        <ele>222.56</ele>
        <time>2021-11-14T10:24:14Z</time>
      </trkpt>
      <trkpt lat="44.04694" lon="4.64685">
        <ele>222.21</ele>
        <time>2021-11-14T10:24:15Z</time>
      </trkpt>
      <trkpt lat="44.04692" lon="4.64685">
        <ele>221.94</ele>
        <time>2021-11-14T10:24:16Z</time>
      </trkpt>
      <trkpt lat="44.04691" lon="4.64686">
        <ele>221.81</ele>
        <time>2021-11-14T10:24:17Z</time>
      </trkpt>
      <trkpt lat="44.04689" lon="4.64685">
        <ele>221.82</ele>
        <time>2021-11-14T10:24:18Z</time>
      </trkpt>
      <trkpt lat="44.04688" lon="4.64686">
        <ele>221.96</ele>
        <time>2021-11-14T10:24:19Z</time>
      </trkpt>
      <trkpt lat="44.04685" lon="4.6469">
        <ele>222.21</ele>
        <time>2021-11-14T10:24:22Z</time>
      </trkpt>
      <trkpt lat="44.04685" lon="4.64692">
        <ele>222.44</ele>
        <time>2021-11-14T10:24:23Z</time>
      </trkpt>
      <trkpt lat="44.04685" lon="4.64694">
        <ele>222.09</ele>
        <time>2021-11-14T10:24:24Z</time>
      </trkpt>
      <trkpt lat="44.04684" lon="4.64695">
        <ele>222.29</ele>
        <time>2021-11-14T10:24:25Z</time>
      </trkpt>
      <trkpt lat="44.04683" lon="4.64697">
        <ele>222.38</ele>
        <time>2021-11-14T10:24:26Z</time>
      </trkpt>
      <trkpt lat="44.04682" lon="4.64699">
        <ele>222.53</ele>
        <time>2021-11-14T10:24:27Z</time>
      </trkpt>
      <trkpt lat="44.04681" lon="4.64699">
        <ele>222.4</ele>
        <time>2021-11-14T10:24:28Z</time>
      </trkpt>
      <trkpt lat="44.04679" lon="4.647">
        <ele>222.51</ele>
        <time>2021-11-14T10:24:29Z</time>
      </trkpt>
      <trkpt lat="44.04678" lon="4.64702">
        <ele>222.71</ele>
        <time>2021-11-14T10:24:30Z</time>
      </trkpt>
      <trkpt lat="44.04666" lon="4.6471">
        <ele>223.31</ele>
        <time>2021-11-14T10:24:37Z</time>
      </trkpt>
      <trkpt lat="44.04665" lon="4.64712">
        <ele>223.43</ele>
        <time>2021-11-14T10:24:38Z</time>
      </trkpt>
      <trkpt lat="44.04663" lon="4.64713">
        <ele>223.62</ele>
        <time>2021-11-14T10:24:39Z</time>
      </trkpt>
      <trkpt lat="44.04662" lon="4.64715">
        <ele>223.89</ele>
        <time>2021-11-14T10:24:40Z</time>
      </trkpt>
      <trkpt lat="44.0466" lon="4.64716">
        <ele>224.03</ele>
        <time>2021-11-14T10:24:41Z</time>
      </trkpt>
      <trkpt lat="44.04659" lon="4.64717">
        <ele>224.32</ele>
        <time>2021-11-14T10:24:42Z</time>
      </trkpt>
      <trkpt lat="44.04658" lon="4.64719">
        <ele>224.56</ele>
        <time>2021-11-14T10:24:43Z</time>
      </trkpt>
      <trkpt lat="44.04657" lon="4.6472">
        <ele>224.89</ele>
        <time>2021-11-14T10:24:44Z</time>
      </trkpt>
      <trkpt lat="44.04656" lon="4.64722">
        <ele>224.77</ele>
        <time>2021-11-14T10:24:45Z</time>
      </trkpt>
      <trkpt lat="44.04655" lon="4.64723">
        <ele>224.9</ele>
        <time>2021-11-14T10:24:46Z</time>
      </trkpt>
      <trkpt lat="44.04654" lon="4.64725">
        <ele>224.81</ele>
        <time>2021-11-14T10:24:47Z</time>
      </trkpt>
      <trkpt lat="44.04653" lon="4.64726">
        <ele>224.65</ele>
        <time>2021-11-14T10:24:48Z</time>
      </trkpt>
      <trkpt lat="44.04652" lon="4.64728">
        <ele>224.63</ele>
        <time>2021-11-14T10:24:49Z</time>
      </trkpt>
      <trkpt lat="44.04652" lon="4.64731">
        <ele>224.98</ele>
        <time>2021-11-14T10:24:50Z</time>
      </trkpt>
      <trkpt lat="44.04653" lon="4.64733">
        <ele>225.46</ele>
        <time>2021-11-14T10:24:51Z</time>
      </trkpt>
      <trkpt lat="44.04654" lon="4.6474">
        <ele>225.42</ele>
        <time>2021-11-14T10:24:54Z</time>
      </trkpt>
      <trkpt lat="44.04654" lon="4.64742">
        <ele>225.48</ele>
        <time>2021-11-14T10:24:55Z</time>
      </trkpt>
      <trkpt lat="44.04653" lon="4.64744">
        <ele>225.5</ele>
        <time>2021-11-14T10:24:56Z</time>
      </trkpt>
      <trkpt lat="44.04652" lon="4.64746">
        <ele>225.57</ele>
        <time>2021-11-14T10:24:57Z</time>
      </trkpt>
      <trkpt lat="44.04652" lon="4.64749">
        <ele>225.57</ele>
        <time>2021-11-14T10:24:58Z</time>
      </trkpt>
      <trkpt lat="44.04652" lon="4.64751">
        <ele>225.46</ele>
        <time>2021-11-14T10:24:59Z</time>
      </trkpt>
      <trkpt lat="44.04653" lon="4.64753">
        <ele>225.54</ele>
        <time>2021-11-14T10:25:00Z</time>
      </trkpt>
      <trkpt lat="44.04652" lon="4.64756">
        <ele>225.88</ele>
        <time>2021-11-14T10:25:01Z</time>
      </trkpt>
      <trkpt lat="44.04653" lon="4.64758">
        <ele>226.06</ele>
        <time>2021-11-14T10:25:02Z</time>
      </trkpt>
      <trkpt lat="44.04653" lon="4.6476">
        <ele>226.33</ele>
        <time>2021-11-14T10:25:03Z</time>
      </trkpt>
      <trkpt lat="44.04654" lon="4.64762">
        <ele>226.34</ele>
        <time>2021-11-14T10:25:04Z</time>
      </trkpt>
      <trkpt lat="44.04654" lon="4.64765">
        <ele>226.18</ele>
        <time>2021-11-14T10:25:05Z</time>
      </trkpt>
      <trkpt lat="44.04654" lon="4.64768">
        <ele>225.99</ele>
        <time>2021-11-14T10:25:06Z</time>
      </trkpt>
      <trkpt lat="44.04655" lon="4.6477">
        <ele>225.87</ele>
        <time>2021-11-14T10:25:07Z</time>
      </trkpt>
      <trkpt lat="44.04655" lon="4.64773">
        <ele>225.85</ele>
        <time>2021-11-14T10:25:08Z</time>
      </trkpt>
      <trkpt lat="44.04656" lon="4.64775">
        <ele>225.73</ele>
        <time>2021-11-14T10:25:09Z</time>
      </trkpt>
      <trkpt lat="44.04656" lon="4.6478">
        <ele>225.77</ele>
        <time>2021-11-14T10:25:11Z</time>
      </trkpt>
      <trkpt lat="44.04657" lon="4.64795">
        <ele>224.99</ele>
        <time>2021-11-14T10:25:17Z</time>
      </trkpt>
      <trkpt lat="44.04656" lon="4.64796">
        <ele>224.85</ele>
        <time>2021-11-14T10:25:18Z</time>
      </trkpt>
      <trkpt lat="44.04646" lon="4.64816">
        <ele>226.42</ele>
        <time>2021-11-14T10:25:28Z</time>
      </trkpt>
      <trkpt lat="44.04639" lon="4.64832">
        <ele>225.41</ele>
        <time>2021-11-14T10:25:37Z</time>
      </trkpt>
      <trkpt lat="44.04639" lon="4.64841">
        <ele>225.12</ele>
        <time>2021-11-14T10:25:41Z</time>
      </trkpt>
      <trkpt lat="44.0464" lon="4.64845">
        <ele>225.6</ele>
        <time>2021-11-14T10:25:43Z</time>
      </trkpt>
      <trkpt lat="44.04629" lon="4.64857">
        <ele>225.91</ele>
        <time>2021-11-14T10:25:52Z</time>
      </trkpt>
      <trkpt lat="44.04629" lon="4.64865">
        <ele>224.51</ele>
        <time>2021-11-14T10:25:55Z</time>
      </trkpt>
      <trkpt lat="44.04628" lon="4.64869">
        <ele>225</ele>
        <time>2021-11-14T10:25:57Z</time>
      </trkpt>
      <trkpt lat="44.04624" lon="4.6488">
        <ele>225.12</ele>
        <time>2021-11-14T10:26:02Z</time>
      </trkpt>
      <trkpt lat="44.04622" lon="4.64882">
        <ele>224.78</ele>
        <time>2021-11-14T10:26:03Z</time>
      </trkpt>
      <trkpt lat="44.0462" lon="4.64884">
        <ele>224.58</ele>
        <time>2021-11-14T10:26:04Z</time>
      </trkpt>
      <trkpt lat="44.04618" lon="4.64887">
        <ele>224.57</ele>
        <time>2021-11-14T10:26:05Z</time>
      </trkpt>
      <trkpt lat="44.04616" lon="4.6489">
        <ele>224.55</ele>
        <time>2021-11-14T10:26:06Z</time>
      </trkpt>
      <trkpt lat="44.04596" lon="4.6492">
        <ele>223.62</ele>
        <time>2021-11-14T10:26:16Z</time>
      </trkpt>
      <trkpt lat="44.04594" lon="4.64922">
        <ele>223.23</ele>
        <time>2021-11-14T10:26:17Z</time>
      </trkpt>
      <trkpt lat="44.04593" lon="4.64924">
        <ele>223.3</ele>
        <time>2021-11-14T10:26:18Z</time>
      </trkpt>
      <trkpt lat="44.04592" lon="4.64927">
        <ele>223.16</ele>
        <time>2021-11-14T10:26:19Z</time>
      </trkpt>
      <trkpt lat="44.04591" lon="4.64929">
        <ele>222.99</ele>
        <time>2021-11-14T10:26:20Z</time>
      </trkpt>
      <trkpt lat="44.04591" lon="4.64932">
        <ele>222.92</ele>
        <time>2021-11-14T10:26:21Z</time>
      </trkpt>
      <trkpt lat="44.0459" lon="4.64934">
        <ele>222.66</ele>
        <time>2021-11-14T10:26:22Z</time>
      </trkpt>
      <trkpt lat="44.04588" lon="4.64937">
        <ele>222.45</ele>
        <time>2021-11-14T10:26:23Z</time>
      </trkpt>
      <trkpt lat="44.04587" lon="4.6494">
        <ele>222.27</ele>
        <time>2021-11-14T10:26:24Z</time>
      </trkpt>
      <trkpt lat="44.04586" lon="4.64943">
        <ele>222.07</ele>
        <time>2021-11-14T10:26:25Z</time>
      </trkpt>
      <trkpt lat="44.04585" lon="4.64946">
        <ele>222.04</ele>
        <time>2021-11-14T10:26:26Z</time>
      </trkpt>
      <trkpt lat="44.04584" lon="4.64949">
        <ele>221.8</ele>
        <time>2021-11-14T10:26:27Z</time>
      </trkpt>
      <trkpt lat="44.04584" lon="4.64952">
        <ele>221.56</ele>
        <time>2021-11-14T10:26:28Z</time>
      </trkpt>
      <trkpt lat="44.04584" lon="4.64955">
        <ele>221.49</ele>
        <time>2021-11-14T10:26:29Z</time>
      </trkpt>
      <trkpt lat="44.04582" lon="4.64958">
        <ele>221.3</ele>
        <time>2021-11-14T10:26:30Z</time>
      </trkpt>
      <trkpt lat="44.0458" lon="4.64961">
        <ele>220.93</ele>
        <time>2021-11-14T10:26:31Z</time>
      </trkpt>
      <trkpt lat="44.04577" lon="4.64964">
        <ele>220.82</ele>
        <time>2021-11-14T10:26:32Z</time>
      </trkpt>
      <trkpt lat="44.04574" lon="4.64968">
        <ele>219.99</ele>
        <time>2021-11-14T10:26:33Z</time>
      </trkpt>
      <trkpt lat="44.04572" lon="4.64972">
        <ele>219.78</ele>
        <time>2021-11-14T10:26:34Z</time>
      </trkpt>
      <trkpt lat="44.0457" lon="4.64976">
        <ele>219.34</ele>
        <time>2021-11-14T10:26:35Z</time>
      </trkpt>
      <trkpt lat="44.04567" lon="4.6498">
        <ele>218.66</ele>
        <time>2021-11-14T10:26:36Z</time>
      </trkpt>
      <trkpt lat="44.04565" lon="4.64985">
        <ele>218.48</ele>
        <time>2021-11-14T10:26:37Z</time>
      </trkpt>
      <trkpt lat="44.04563" lon="4.6499">
        <ele>218.09</ele>
        <time>2021-11-14T10:26:38Z</time>
      </trkpt>
      <trkpt lat="44.04561" lon="4.64996">
        <ele>217.24</ele>
        <time>2021-11-14T10:26:39Z</time>
      </trkpt>
      <trkpt lat="44.04557" lon="4.65001">
        <ele>216.95</ele>
        <time>2021-11-14T10:26:40Z</time>
      </trkpt>
      <trkpt lat="44.04554" lon="4.65007">
        <ele>216.52</ele>
        <time>2021-11-14T10:26:41Z</time>
      </trkpt>
      <trkpt lat="44.04552" lon="4.65012">
        <ele>215.89</ele>
        <time>2021-11-14T10:26:42Z</time>
      </trkpt>
      <trkpt lat="44.04548" lon="4.6503">
        <ele>215.37</ele>
        <time>2021-11-14T10:26:50Z</time>
      </trkpt>
      <trkpt lat="44.04546" lon="4.65035">
        <ele>217.1</ele>
        <time>2021-11-14T10:26:59Z</time>
      </trkpt>
      <trkpt lat="44.04545" lon="4.65037">
        <ele>216.57</ele>
        <time>2021-11-14T10:27:00Z</time>
      </trkpt>
      <trkpt lat="44.04545" lon="4.65039">
        <ele>216.09</ele>
        <time>2021-11-14T10:27:01Z</time>
      </trkpt>
      <trkpt lat="44.04544" lon="4.65041">
        <ele>215.9</ele>
        <time>2021-11-14T10:27:02Z</time>
      </trkpt>
      <trkpt lat="44.04544" lon="4.65043">
        <ele>215.89</ele>
        <time>2021-11-14T10:27:03Z</time>
      </trkpt>
      <trkpt lat="44.04543" lon="4.65046">
        <ele>216.17</ele>
        <time>2021-11-14T10:27:04Z</time>
      </trkpt>
      <trkpt lat="44.04543" lon="4.65048">
        <ele>216.36</ele>
        <time>2021-11-14T10:27:05Z</time>
      </trkpt>
      <trkpt lat="44.04543" lon="4.6505">
        <ele>216.66</ele>
        <time>2021-11-14T10:27:06Z</time>
      </trkpt>
      <trkpt lat="44.04544" lon="4.65052">
        <ele>216.92</ele>
        <time>2021-11-14T10:27:07Z</time>
      </trkpt>
      <trkpt lat="44.04545" lon="4.65055">
        <ele>217.39</ele>
        <time>2021-11-14T10:27:08Z</time>
      </trkpt>
      <trkpt lat="44.04545" lon="4.65057">
        <ele>217.36</ele>
        <time>2021-11-14T10:27:09Z</time>
      </trkpt>
      <trkpt lat="44.04546" lon="4.6506">
        <ele>217.5</ele>
        <time>2021-11-14T10:27:10Z</time>
      </trkpt>
      <trkpt lat="44.04546" lon="4.65062">
        <ele>217.8</ele>
        <time>2021-11-14T10:27:11Z</time>
      </trkpt>
      <trkpt lat="44.04545" lon="4.65065">
        <ele>217.99</ele>
        <time>2021-11-14T10:27:12Z</time>
      </trkpt>
      <trkpt lat="44.04545" lon="4.65067">
        <ele>218.13</ele>
        <time>2021-11-14T10:27:13Z</time>
      </trkpt>
      <trkpt lat="44.04544" lon="4.6507">
        <ele>218.08</ele>
        <time>2021-11-14T10:27:14Z</time>
      </trkpt>
      <trkpt lat="44.04542" lon="4.65079">
        <ele>220.52</ele>
        <time>2021-11-14T10:27:18Z</time>
      </trkpt>
      <trkpt lat="44.04537" lon="4.651">
        <ele>223.77</ele>
        <time>2021-11-14T10:27:28Z</time>
      </trkpt>
      <trkpt lat="44.04539" lon="4.65117">
        <ele>226.96</ele>
        <time>2021-11-14T10:27:37Z</time>
      </trkpt>
      <trkpt lat="44.04545" lon="4.65125">
        <ele>228.99</ele>
        <time>2021-11-14T10:27:44Z</time>
      </trkpt>
      <trkpt lat="44.04552" lon="4.65146">
        <ele>232.05</ele>
        <time>2021-11-14T10:27:58Z</time>
      </trkpt>
      <trkpt lat="44.0455" lon="4.65151">
        <ele>232.64</ele>
        <time>2021-11-14T10:28:02Z</time>
      </trkpt>
      <trkpt lat="44.04549" lon="4.65151">
        <ele>232.55</ele>
        <time>2021-11-14T10:28:03Z</time>
      </trkpt>
      <trkpt lat="44.04545" lon="4.65154">
        <ele>232.85</ele>
        <time>2021-11-14T10:28:17Z</time>
      </trkpt>
      <trkpt lat="44.04545" lon="4.65153">
        <ele>232.88</ele>
        <time>2021-11-14T10:30:06Z</time>
      </trkpt>
      <trkpt lat="44.04544" lon="4.65151">
        <ele>232.49</ele>
        <time>2021-11-14T10:30:52Z</time>
      </trkpt>
      <trkpt lat="44.04543" lon="4.6515">
        <ele>232.15</ele>
        <time>2021-11-14T10:30:53Z</time>
      </trkpt>
      <trkpt lat="44.0454" lon="4.65149">
        <ele>231.96</ele>
        <time>2021-11-14T10:30:54Z</time>
      </trkpt>
      <trkpt lat="44.04538" lon="4.65148">
        <ele>231.86</ele>
        <time>2021-11-14T10:30:55Z</time>
      </trkpt>
      <trkpt lat="44.04534" lon="4.65147">
        <ele>231.11</ele>
        <time>2021-11-14T10:30:56Z</time>
      </trkpt>
      <trkpt lat="44.04523" lon="4.65147">
        <ele>231.56</ele>
        <time>2021-11-14T10:30:59Z</time>
      </trkpt>
      <trkpt lat="44.0452" lon="4.65144">
        <ele>231.76</ele>
        <time>2021-11-14T10:31:00Z</time>
      </trkpt>
      <trkpt lat="44.04517" lon="4.6514">
        <ele>231.69</ele>
        <time>2021-11-14T10:31:01Z</time>
      </trkpt>
      <trkpt lat="44.04513" lon="4.65137">
        <ele>231.19</ele>
        <time>2021-11-14T10:31:02Z</time>
      </trkpt>
      <trkpt lat="44.04509" lon="4.65134">
        <ele>230.63</ele>
        <time>2021-11-14T10:31:03Z</time>
      </trkpt>
      <trkpt lat="44.04504" lon="4.65133">
        <ele>230.22</ele>
        <time>2021-11-14T10:31:04Z</time>
      </trkpt>
      <trkpt lat="44.045" lon="4.65133">
        <ele>229.6</ele>
        <time>2021-11-14T10:31:05Z</time>
      </trkpt>
      <trkpt lat="44.04496" lon="4.65134">
        <ele>228.96</ele>
        <time>2021-11-14T10:31:06Z</time>
      </trkpt>
      <trkpt lat="44.04489" lon="4.65133">
        <ele>227.74</ele>
        <time>2021-11-14T10:31:08Z</time>
      </trkpt>
      <trkpt lat="44.04487" lon="4.65131">
        <ele>227.29</ele>
        <time>2021-11-14T10:31:09Z</time>
      </trkpt>
      <trkpt lat="44.04485" lon="4.65128">
        <ele>227.16</ele>
        <time>2021-11-14T10:31:10Z</time>
      </trkpt>
      <trkpt lat="44.04482" lon="4.65125">
        <ele>226.18</ele>
        <time>2021-11-14T10:31:11Z</time>
      </trkpt>
      <trkpt lat="44.04479" lon="4.65125">
        <ele>225.59</ele>
        <time>2021-11-14T10:31:12Z</time>
      </trkpt>
      <trkpt lat="44.04475" lon="4.65127">
        <ele>225.16</ele>
        <time>2021-11-14T10:31:13Z</time>
      </trkpt>
      <trkpt lat="44.04472" lon="4.65128">
        <ele>224.79</ele>
        <time>2021-11-14T10:31:14Z</time>
      </trkpt>
      <trkpt lat="44.0447" lon="4.65128">
        <ele>224.3</ele>
        <time>2021-11-14T10:31:15Z</time>
      </trkpt>
      <trkpt lat="44.04468" lon="4.65129">
        <ele>224.14</ele>
        <time>2021-11-14T10:31:16Z</time>
      </trkpt>
      <trkpt lat="44.04467" lon="4.6513">
        <ele>224.01</ele>
        <time>2021-11-14T10:31:17Z</time>
      </trkpt>
      <trkpt lat="44.04466" lon="4.65132">
        <ele>224.39</ele>
        <time>2021-11-14T10:31:18Z</time>
      </trkpt>
      <trkpt lat="44.04464" lon="4.65134">
        <ele>224.72</ele>
        <time>2021-11-14T10:31:19Z</time>
      </trkpt>
      <trkpt lat="44.04447" lon="4.65143">
        <ele>221.55</ele>
        <time>2021-11-14T10:31:25Z</time>
      </trkpt>
      <trkpt lat="44.04442" lon="4.65144">
        <ele>220.11</ele>
        <time>2021-11-14T10:31:27Z</time>
      </trkpt>
      <trkpt lat="44.0444" lon="4.65144">
        <ele>219.77</ele>
        <time>2021-11-14T10:31:28Z</time>
      </trkpt>
      <trkpt lat="44.04432" lon="4.65138">
        <ele>217.12</ele>
        <time>2021-11-14T10:31:32Z</time>
      </trkpt>
      <trkpt lat="44.04431" lon="4.6514">
        <ele>217.15</ele>
        <time>2021-11-14T10:31:33Z</time>
      </trkpt>
      <trkpt lat="44.0443" lon="4.65142">
        <ele>217.58</ele>
        <time>2021-11-14T10:31:34Z</time>
      </trkpt>
      <trkpt lat="44.04429" lon="4.65145">
        <ele>217.24</ele>
        <time>2021-11-14T10:31:35Z</time>
      </trkpt>
      <trkpt lat="44.04427" lon="4.65149">
        <ele>216.25</ele>
        <time>2021-11-14T10:31:36Z</time>
      </trkpt>
      <trkpt lat="44.04426" lon="4.65153">
        <ele>214.99</ele>
        <time>2021-11-14T10:31:37Z</time>
      </trkpt>
      <trkpt lat="44.04426" lon="4.65156">
        <ele>213.89</ele>
        <time>2021-11-14T10:31:38Z</time>
      </trkpt>
      <trkpt lat="44.04425" lon="4.65157">
        <ele>213.27</ele>
        <time>2021-11-14T10:31:39Z</time>
      </trkpt>
      <trkpt lat="44.04424" lon="4.65157">
        <ele>213.01</ele>
        <time>2021-11-14T10:31:40Z</time>
      </trkpt>
      <trkpt lat="44.04423" lon="4.65157">
        <ele>212.91</ele>
        <time>2021-11-14T10:31:41Z</time>
      </trkpt>
      <trkpt lat="44.04421" lon="4.65156">
        <ele>212.82</ele>
        <time>2021-11-14T10:31:42Z</time>
      </trkpt>
      <trkpt lat="44.0442" lon="4.65154">
        <ele>212.27</ele>
        <time>2021-11-14T10:31:43Z</time>
      </trkpt>
      <trkpt lat="44.04419" lon="4.65151">
        <ele>211.8</ele>
        <time>2021-11-14T10:31:44Z</time>
      </trkpt>
      <trkpt lat="44.04419" lon="4.65149">
        <ele>211.67</ele>
        <time>2021-11-14T10:31:45Z</time>
      </trkpt>
      <trkpt lat="44.04417" lon="4.65148">
        <ele>211.51</ele>
        <time>2021-11-14T10:31:46Z</time>
      </trkpt>
      <trkpt lat="44.04415" lon="4.65149">
        <ele>211.33</ele>
        <time>2021-11-14T10:31:47Z</time>
      </trkpt>
      <trkpt lat="44.04413" lon="4.6515">
        <ele>210.82</ele>
        <time>2021-11-14T10:31:48Z</time>
      </trkpt>
      <trkpt lat="44.0441" lon="4.65151">
        <ele>210.19</ele>
        <time>2021-11-14T10:31:49Z</time>
      </trkpt>
      <trkpt lat="44.04408" lon="4.65152">
        <ele>209.36</ele>
        <time>2021-11-14T10:31:50Z</time>
      </trkpt>
      <trkpt lat="44.04406" lon="4.65152">
        <ele>208.61</ele>
        <time>2021-11-14T10:31:51Z</time>
      </trkpt>
      <trkpt lat="44.04404" lon="4.65151">
        <ele>207.94</ele>
        <time>2021-11-14T10:31:52Z</time>
      </trkpt>
      <trkpt lat="44.04401" lon="4.65152">
        <ele>207.02</ele>
        <time>2021-11-14T10:31:53Z</time>
      </trkpt>
      <trkpt lat="44.04399" lon="4.65154">
        <ele>206.47</ele>
        <time>2021-11-14T10:31:54Z</time>
      </trkpt>
      <trkpt lat="44.04397" lon="4.65156">
        <ele>205.87</ele>
        <time>2021-11-14T10:31:55Z</time>
      </trkpt>
      <trkpt lat="44.04395" lon="4.65157">
        <ele>205.66</ele>
        <time>2021-11-14T10:31:56Z</time>
      </trkpt>
      <trkpt lat="44.04393" lon="4.65157">
        <ele>204.89</ele>
        <time>2021-11-14T10:31:57Z</time>
      </trkpt>
      <trkpt lat="44.04391" lon="4.65157">
        <ele>204.28</ele>
        <time>2021-11-14T10:31:58Z</time>
      </trkpt>
      <trkpt lat="44.04389" lon="4.65156">
        <ele>203.38</ele>
        <time>2021-11-14T10:31:59Z</time>
      </trkpt>
      <trkpt lat="44.04388" lon="4.65155">
        <ele>202.87</ele>
        <time>2021-11-14T10:32:00Z</time>
      </trkpt>
      <trkpt lat="44.04386" lon="4.65154">
        <ele>202.19</ele>
        <time>2021-11-14T10:32:01Z</time>
      </trkpt>
      <trkpt lat="44.04385" lon="4.65154">
        <ele>201.36</ele>
        <time>2021-11-14T10:32:02Z</time>
      </trkpt>
      <trkpt lat="44.04383" lon="4.65153">
        <ele>200.24</ele>
        <time>2021-11-14T10:32:03Z</time>
      </trkpt>
      <trkpt lat="44.04382" lon="4.65152">
        <ele>199.67</ele>
        <time>2021-11-14T10:32:04Z</time>
      </trkpt>
      <trkpt lat="44.04381" lon="4.65149">
        <ele>199.01</ele>
        <time>2021-11-14T10:32:05Z</time>
      </trkpt>
      <trkpt lat="44.04377" lon="4.65145">
        <ele>197.42</ele>
        <time>2021-11-14T10:32:07Z</time>
      </trkpt>
      <trkpt lat="44.04374" lon="4.65145">
        <ele>196.15</ele>
        <time>2021-11-14T10:32:08Z</time>
      </trkpt>
      <trkpt lat="44.0437" lon="4.65145">
        <ele>194.89</ele>
        <time>2021-11-14T10:32:09Z</time>
      </trkpt>
      <trkpt lat="44.04367" lon="4.65143">
        <ele>194.12</ele>
        <time>2021-11-14T10:32:10Z</time>
      </trkpt>
      <trkpt lat="44.04365" lon="4.65139">
        <ele>193.61</ele>
        <time>2021-11-14T10:32:11Z</time>
      </trkpt>
      <trkpt lat="44.04362" lon="4.65136">
        <ele>193.02</ele>
        <time>2021-11-14T10:32:12Z</time>
      </trkpt>
      <trkpt lat="44.0436" lon="4.65133">
        <ele>192.46</ele>
        <time>2021-11-14T10:32:13Z</time>
      </trkpt>
      <trkpt lat="44.04358" lon="4.6513">
        <ele>191.85</ele>
        <time>2021-11-14T10:32:14Z</time>
      </trkpt>
      <trkpt lat="44.04356" lon="4.65127">
        <ele>191.06</ele>
        <time>2021-11-14T10:32:15Z</time>
      </trkpt>
      <trkpt lat="44.04356" lon="4.65124">
        <ele>191.03</ele>
        <time>2021-11-14T10:32:16Z</time>
      </trkpt>
      <trkpt lat="44.04357" lon="4.65121">
        <ele>190.94</ele>
        <time>2021-11-14T10:32:17Z</time>
      </trkpt>
      <trkpt lat="44.04358" lon="4.65119">
        <ele>191.08</ele>
        <time>2021-11-14T10:32:18Z</time>
      </trkpt>
      <trkpt lat="44.04359" lon="4.65119">
        <ele>191.22</ele>
        <time>2021-11-14T10:32:19Z</time>
      </trkpt>
      <trkpt lat="44.0436" lon="4.65118">
        <ele>190.73</ele>
        <time>2021-11-14T10:32:33Z</time>
      </trkpt>
      <trkpt lat="44.04367" lon="4.65118">
        <ele>192.52</ele>
        <time>2021-11-14T10:33:09Z</time>
      </trkpt>
      <trkpt lat="44.04387" lon="4.65101">
        <ele>193.59</ele>
        <time>2021-11-14T10:33:24Z</time>
      </trkpt>
      <trkpt lat="44.0439" lon="4.65094">
        <ele>193.73</ele>
        <time>2021-11-14T10:33:28Z</time>
      </trkpt>
      <trkpt lat="44.04391" lon="4.65092">
        <ele>194.07</ele>
        <time>2021-11-14T10:33:29Z</time>
      </trkpt>
      <trkpt lat="44.04398" lon="4.65053">
        <ele>195.4</ele>
        <time>2021-11-14T10:33:48Z</time>
      </trkpt>
      <trkpt lat="44.04416" lon="4.65004">
        <ele>197.88</ele>
        <time>2021-11-14T10:34:13Z</time>
      </trkpt>
      <trkpt lat="44.04436" lon="4.64981">
        <ele>200.04</ele>
        <time>2021-11-14T10:34:31Z</time>
      </trkpt>
      <trkpt lat="44.04457" lon="4.64955">
        <ele>202.31</ele>
        <time>2021-11-14T10:34:50Z</time>
      </trkpt>
      <trkpt lat="44.04458" lon="4.64953">
        <ele>202.29</ele>
        <time>2021-11-14T10:34:51Z</time>
      </trkpt>
      <trkpt lat="44.04458" lon="4.64951">
        <ele>202.4</ele>
        <time>2021-11-14T10:34:52Z</time>
      </trkpt>
      <trkpt lat="44.04458" lon="4.64949">
        <ele>202.52</ele>
        <time>2021-11-14T10:34:53Z</time>
      </trkpt>
      <trkpt lat="44.04457" lon="4.64947">
        <ele>202.74</ele>
        <time>2021-11-14T10:34:54Z</time>
      </trkpt>
      <trkpt lat="44.04456" lon="4.64946">
        <ele>202.94</ele>
        <time>2021-11-14T10:34:55Z</time>
      </trkpt>
      <trkpt lat="44.04455" lon="4.64945">
        <ele>203.23</ele>
        <time>2021-11-14T10:34:56Z</time>
      </trkpt>
      <trkpt lat="44.04453" lon="4.64945">
        <ele>203.28</ele>
        <time>2021-11-14T10:34:57Z</time>
      </trkpt>
      <trkpt lat="44.0444" lon="4.64938">
        <ele>205.16</ele>
        <time>2021-11-14T10:35:07Z</time>
      </trkpt>
      <trkpt lat="44.0444" lon="4.64936">
        <ele>205.53</ele>
        <time>2021-11-14T10:35:08Z</time>
      </trkpt>
      <trkpt lat="44.0444" lon="4.64934">
        <ele>205.7</ele>
        <time>2021-11-14T10:35:09Z</time>
      </trkpt>
      <trkpt lat="44.0444" lon="4.64932">
        <ele>205.81</ele>
        <time>2021-11-14T10:35:10Z</time>
      </trkpt>
      <trkpt lat="44.04441" lon="4.64931">
        <ele>206.02</ele>
        <time>2021-11-14T10:35:11Z</time>
      </trkpt>
      <trkpt lat="44.04438" lon="4.64899">
        <ele>204.55</ele>
        <time>2021-11-14T10:35:21Z</time>
      </trkpt>
      <trkpt lat="44.04436" lon="4.64894">
        <ele>203.88</ele>
        <time>2021-11-14T10:35:22Z</time>
      </trkpt>
      <trkpt lat="44.04434" lon="4.64889">
        <ele>203.36</ele>
        <time>2021-11-14T10:35:23Z</time>
      </trkpt>
      <trkpt lat="44.04434" lon="4.64884">
        <ele>202.85</ele>
        <time>2021-11-14T10:35:24Z</time>
      </trkpt>
      <trkpt lat="44.04434" lon="4.64879">
        <ele>202.18</ele>
        <time>2021-11-14T10:35:25Z</time>
      </trkpt>
      <trkpt lat="44.04435" lon="4.64874">
        <ele>201.63</ele>
        <time>2021-11-14T10:35:26Z</time>
      </trkpt>
      <trkpt lat="44.04437" lon="4.64868">
        <ele>200.89</ele>
        <time>2021-11-14T10:35:27Z</time>
      </trkpt>
      <trkpt lat="44.04438" lon="4.64862">
        <ele>200.28</ele>
        <time>2021-11-14T10:35:28Z</time>
      </trkpt>
      <trkpt lat="44.04439" lon="4.64856">
        <ele>198.92</ele>
        <time>2021-11-14T10:35:29Z</time>
      </trkpt>
      <trkpt lat="44.04438" lon="4.64849">
        <ele>198.11</ele>
        <time>2021-11-14T10:35:30Z</time>
      </trkpt>
      <trkpt lat="44.04436" lon="4.64844">
        <ele>197.49</ele>
        <time>2021-11-14T10:35:31Z</time>
      </trkpt>
      <trkpt lat="44.04433" lon="4.64841">
        <ele>196.52</ele>
        <time>2021-11-14T10:35:32Z</time>
      </trkpt>
      <trkpt lat="44.04429" lon="4.64839">
        <ele>196.31</ele>
        <time>2021-11-14T10:35:33Z</time>
      </trkpt>
      <trkpt lat="44.04423" lon="4.64834">
        <ele>195.29</ele>
        <time>2021-11-14T10:35:35Z</time>
      </trkpt>
      <trkpt lat="44.04422" lon="4.6483">
        <ele>195.21</ele>
        <time>2021-11-14T10:35:36Z</time>
      </trkpt>
      <trkpt lat="44.04421" lon="4.64825">
        <ele>194.87</ele>
        <time>2021-11-14T10:35:37Z</time>
      </trkpt>
      <trkpt lat="44.04422" lon="4.6482">
        <ele>194.6</ele>
        <time>2021-11-14T10:35:38Z</time>
      </trkpt>
      <trkpt lat="44.04423" lon="4.64816">
        <ele>194.15</ele>
        <time>2021-11-14T10:35:39Z</time>
      </trkpt>
      <trkpt lat="44.04425" lon="4.64812">
        <ele>194.29</ele>
        <time>2021-11-14T10:35:40Z</time>
      </trkpt>
      <trkpt lat="44.04426" lon="4.64807">
        <ele>194.05</ele>
        <time>2021-11-14T10:35:41Z</time>
      </trkpt>
      <trkpt lat="44.04427" lon="4.64802">
        <ele>193.79</ele>
        <time>2021-11-14T10:35:42Z</time>
      </trkpt>
      <trkpt lat="44.04426" lon="4.64799">
        <ele>193.52</ele>
        <time>2021-11-14T10:35:43Z</time>
      </trkpt>
      <trkpt lat="44.04425" lon="4.64797">
        <ele>193.49</ele>
        <time>2021-11-14T10:35:44Z</time>
      </trkpt>
      <trkpt lat="44.04424" lon="4.64795">
        <ele>193.51</ele>
        <time>2021-11-14T10:35:45Z</time>
      </trkpt>
      <trkpt lat="44.04423" lon="4.64793">
        <ele>193.54</ele>
        <time>2021-11-14T10:35:46Z</time>
      </trkpt>
      <trkpt lat="44.04423" lon="4.64791">
        <ele>193.42</ele>
        <time>2021-11-14T10:35:47Z</time>
      </trkpt>
      <trkpt lat="44.04422" lon="4.64787">
        <ele>192.84</ele>
        <time>2021-11-14T10:35:50Z</time>
      </trkpt>
      <trkpt lat="44.04421" lon="4.64786">
        <ele>192.59</ele>
        <time>2021-11-14T10:35:51Z</time>
      </trkpt>
      <trkpt lat="44.04419" lon="4.64785">
        <ele>192.49</ele>
        <time>2021-11-14T10:35:52Z</time>
      </trkpt>
      <trkpt lat="44.04418" lon="4.64784">
        <ele>192.45</ele>
        <time>2021-11-14T10:35:53Z</time>
      </trkpt>
      <trkpt lat="44.04416" lon="4.64782">
        <ele>192.38</ele>
        <time>2021-11-14T10:35:55Z</time>
      </trkpt>
      <trkpt lat="44.04415" lon="4.64781">
        <ele>192.14</ele>
        <time>2021-11-14T10:35:56Z</time>
      </trkpt>
      <trkpt lat="44.04414" lon="4.64781">
        <ele>192.2</ele>
        <time>2021-11-14T10:35:57Z</time>
      </trkpt>
      <trkpt lat="44.04412" lon="4.64781">
        <ele>193.27</ele>
        <time>2021-11-14T10:36:00Z</time>
      </trkpt>
      <trkpt lat="44.0441" lon="4.6478">
        <ele>194.02</ele>
        <time>2021-11-14T10:36:01Z</time>
      </trkpt>
      <trkpt lat="44.04409" lon="4.64778">
        <ele>194.23</ele>
        <time>2021-11-14T10:36:02Z</time>
      </trkpt>
      <trkpt lat="44.04409" lon="4.64776">
        <ele>194.51</ele>
        <time>2021-11-14T10:36:03Z</time>
      </trkpt>
      <trkpt lat="44.04408" lon="4.64774">
        <ele>194.38</ele>
        <time>2021-11-14T10:36:04Z</time>
      </trkpt>
      <trkpt lat="44.04408" lon="4.64771">
        <ele>193.96</ele>
        <time>2021-11-14T10:36:05Z</time>
      </trkpt>
      <trkpt lat="44.04409" lon="4.64767">
        <ele>193.43</ele>
        <time>2021-11-14T10:36:06Z</time>
      </trkpt>
      <trkpt lat="44.04408" lon="4.64761">
        <ele>193.04</ele>
        <time>2021-11-14T10:36:07Z</time>
      </trkpt>
      <trkpt lat="44.04408" lon="4.64756">
        <ele>192.15</ele>
        <time>2021-11-14T10:36:08Z</time>
      </trkpt>
      <trkpt lat="44.04406" lon="4.64753">
        <ele>191.88</ele>
        <time>2021-11-14T10:36:09Z</time>
      </trkpt>
      <trkpt lat="44.04405" lon="4.6475">
        <ele>191.99</ele>
        <time>2021-11-14T10:36:10Z</time>
      </trkpt>
      <trkpt lat="44.04403" lon="4.64748">
        <ele>191.99</ele>
        <time>2021-11-14T10:36:11Z</time>
      </trkpt>
      <trkpt lat="44.04401" lon="4.64747">
        <ele>191.89</ele>
        <time>2021-11-14T10:36:12Z</time>
      </trkpt>
      <trkpt lat="44.044" lon="4.64746">
        <ele>192.14</ele>
        <time>2021-11-14T10:36:13Z</time>
      </trkpt>
      <trkpt lat="44.04399" lon="4.64742">
        <ele>192.09</ele>
        <time>2021-11-14T10:36:16Z</time>
      </trkpt>
      <trkpt lat="44.04399" lon="4.64739">
        <ele>191.82</ele>
        <time>2021-11-14T10:36:17Z</time>
      </trkpt>
      <trkpt lat="44.04399" lon="4.64735">
        <ele>191.38</ele>
        <time>2021-11-14T10:36:18Z</time>
      </trkpt>
      <trkpt lat="44.04396" lon="4.64731">
        <ele>190.81</ele>
        <time>2021-11-14T10:36:19Z</time>
      </trkpt>
      <trkpt lat="44.04394" lon="4.64728">
        <ele>190.91</ele>
        <time>2021-11-14T10:36:20Z</time>
      </trkpt>
      <trkpt lat="44.04388" lon="4.64705">
        <ele>190.11</ele>
        <time>2021-11-14T10:36:25Z</time>
      </trkpt>
      <trkpt lat="44.04387" lon="4.64698">
        <ele>189.73</ele>
        <time>2021-11-14T10:36:26Z</time>
      </trkpt>
      <trkpt lat="44.04387" lon="4.64691">
        <ele>189.42</ele>
        <time>2021-11-14T10:36:27Z</time>
      </trkpt>
      <trkpt lat="44.04387" lon="4.64684">
        <ele>189.17</ele>
        <time>2021-11-14T10:36:28Z</time>
      </trkpt>
      <trkpt lat="44.04388" lon="4.64679">
        <ele>189.15</ele>
        <time>2021-11-14T10:36:29Z</time>
      </trkpt>
      <trkpt lat="44.04389" lon="4.64675">
        <ele>188.81</ele>
        <time>2021-11-14T10:36:30Z</time>
      </trkpt>
      <trkpt lat="44.04388" lon="4.64667">
        <ele>188.47</ele>
        <time>2021-11-14T10:36:43Z</time>
      </trkpt>
      <trkpt lat="44.04391" lon="4.64661">
        <ele>188.79</ele>
        <time>2021-11-14T10:36:49Z</time>
      </trkpt>
      <trkpt lat="44.04392" lon="4.64659">
        <ele>189.06</ele>
        <time>2021-11-14T10:36:50Z</time>
      </trkpt>
      <trkpt lat="44.04393" lon="4.64656">
        <ele>188.89</ele>
        <time>2021-11-14T10:36:51Z</time>
      </trkpt>
      <trkpt lat="44.04395" lon="4.64654">
        <ele>188.82</ele>
        <time>2021-11-14T10:36:52Z</time>
      </trkpt>
      <trkpt lat="44.04396" lon="4.64651">
        <ele>188.81</ele>
        <time>2021-11-14T10:36:53Z</time>
      </trkpt>
      <trkpt lat="44.04403" lon="4.64622">
        <ele>189.03</ele>
        <time>2021-11-14T10:37:03Z</time>
      </trkpt>
      <trkpt lat="44.04402" lon="4.64602">
        <ele>187.81</ele>
        <time>2021-11-14T10:37:07Z</time>
      </trkpt>
      <trkpt lat="44.04401" lon="4.64596">
        <ele>187.44</ele>
        <time>2021-11-14T10:37:08Z</time>
      </trkpt>
      <trkpt lat="44.044" lon="4.64587">
        <ele>186.57</ele>
        <time>2021-11-14T10:37:10Z</time>
      </trkpt>
      <trkpt lat="44.04394" lon="4.64551">
        <ele>187.46</ele>
        <time>2021-11-14T10:37:24Z</time>
      </trkpt>
      <trkpt lat="44.04393" lon="4.64545">
        <ele>187.99</ele>
        <time>2021-11-14T10:37:26Z</time>
      </trkpt>
      <trkpt lat="44.04392" lon="4.64542">
        <ele>188.05</ele>
        <time>2021-11-14T10:37:27Z</time>
      </trkpt>
      <trkpt lat="44.04393" lon="4.64538">
        <ele>188.44</ele>
        <time>2021-11-14T10:37:28Z</time>
      </trkpt>
      <trkpt lat="44.04394" lon="4.64535">
        <ele>187.96</ele>
        <time>2021-11-14T10:37:29Z</time>
      </trkpt>
      <trkpt lat="44.04394" lon="4.6453">
        <ele>187</ele>
        <time>2021-11-14T10:37:30Z</time>
      </trkpt>
      <trkpt lat="44.04394" lon="4.64525">
        <ele>186.07</ele>
        <time>2021-11-14T10:37:31Z</time>
      </trkpt>
      <trkpt lat="44.04393" lon="4.6452">
        <ele>185.45</ele>
        <time>2021-11-14T10:37:32Z</time>
      </trkpt>
      <trkpt lat="44.04392" lon="4.64514">
        <ele>185.22</ele>
        <time>2021-11-14T10:37:33Z</time>
      </trkpt>
      <trkpt lat="44.04392" lon="4.64509">
        <ele>185.6</ele>
        <time>2021-11-14T10:37:34Z</time>
      </trkpt>
      <trkpt lat="44.04391" lon="4.64503">
        <ele>185.02</ele>
        <time>2021-11-14T10:37:35Z</time>
      </trkpt>
      <trkpt lat="44.04389" lon="4.64497">
        <ele>184.22</ele>
        <time>2021-11-14T10:37:36Z</time>
      </trkpt>
      <trkpt lat="44.04387" lon="4.64491">
        <ele>184.06</ele>
        <time>2021-11-14T10:37:37Z</time>
      </trkpt>
      <trkpt lat="44.04385" lon="4.64484">
        <ele>184.13</ele>
        <time>2021-11-14T10:37:39Z</time>
      </trkpt>
      <trkpt lat="44.04383" lon="4.64484">
        <ele>184.15</ele>
        <time>2021-11-14T10:37:40Z</time>
      </trkpt>
      <trkpt lat="44.04381" lon="4.64484">
        <ele>184.22</ele>
        <time>2021-11-14T10:37:41Z</time>
      </trkpt>
      <trkpt lat="44.04379" lon="4.64483">
        <ele>184.48</ele>
        <time>2021-11-14T10:37:42Z</time>
      </trkpt>
      <trkpt lat="44.04377" lon="4.64482">
        <ele>184.58</ele>
        <time>2021-11-14T10:37:43Z</time>
      </trkpt>
      <trkpt lat="44.04369" lon="4.6448">
        <ele>185.16</ele>
        <time>2021-11-14T10:37:47Z</time>
      </trkpt>
      <trkpt lat="44.04367" lon="4.64478">
        <ele>185.14</ele>
        <time>2021-11-14T10:37:48Z</time>
      </trkpt>
      <trkpt lat="44.04365" lon="4.64477">
        <ele>184.94</ele>
        <time>2021-11-14T10:37:49Z</time>
      </trkpt>
      <trkpt lat="44.04363" lon="4.64477">
        <ele>185.06</ele>
        <time>2021-11-14T10:37:50Z</time>
      </trkpt>
      <trkpt lat="44.04361" lon="4.64478">
        <ele>185.18</ele>
        <time>2021-11-14T10:37:51Z</time>
      </trkpt>
      <trkpt lat="44.04354" lon="4.64479">
        <ele>186.19</ele>
        <time>2021-11-14T10:38:07Z</time>
      </trkpt>
      <trkpt lat="44.04337" lon="4.6448">
        <ele>187.64</ele>
        <time>2021-11-14T10:38:20Z</time>
      </trkpt>
      <trkpt lat="44.04302" lon="4.64481">
        <ele>190.08</ele>
        <time>2021-11-14T10:38:38Z</time>
      </trkpt>
      <trkpt lat="44.04264" lon="4.64497">
        <ele>192.46</ele>
        <time>2021-11-14T10:38:59Z</time>
      </trkpt>
      <trkpt lat="44.0423" lon="4.64515">
        <ele>194.51</ele>
        <time>2021-11-14T10:39:18Z</time>
      </trkpt>
      <trkpt lat="44.04213" lon="4.64547">
        <ele>196.73</ele>
        <time>2021-11-14T10:39:34Z</time>
      </trkpt>
      <trkpt lat="44.04194" lon="4.64559">
        <ele>199.13</ele>
        <time>2021-11-14T10:39:48Z</time>
      </trkpt>
      <trkpt lat="44.04174" lon="4.64573">
        <ele>201.26</ele>
        <time>2021-11-14T10:40:04Z</time>
      </trkpt>
      <trkpt lat="44.04146" lon="4.64593">
        <ele>203.02</ele>
        <time>2021-11-14T10:40:25Z</time>
      </trkpt>
      <trkpt lat="44.04123" lon="4.64608">
        <ele>204.62</ele>
        <time>2021-11-14T10:40:41Z</time>
      </trkpt>
      <trkpt lat="44.04097" lon="4.64615">
        <ele>207.91</ele>
        <time>2021-11-14T10:40:59Z</time>
      </trkpt>
      <trkpt lat="44.0408" lon="4.64629">
        <ele>210.33</ele>
        <time>2021-11-14T10:41:12Z</time>
      </trkpt>
      <trkpt lat="44.04071" lon="4.64647">
        <ele>213.02</ele>
        <time>2021-11-14T10:41:24Z</time>
      </trkpt>
      <trkpt lat="44.04071" lon="4.64648">
        <ele>213.3</ele>
        <time>2021-11-14T10:41:25Z</time>
      </trkpt>
      <trkpt lat="44.0407" lon="4.64654">
        <ele>214.37</ele>
        <time>2021-11-14T10:41:30Z</time>
      </trkpt>
      <trkpt lat="44.0407" lon="4.64664">
        <ele>215.27</ele>
        <time>2021-11-14T10:41:36Z</time>
      </trkpt>
      <trkpt lat="44.0407" lon="4.64665">
        <ele>215.4</ele>
        <time>2021-11-14T10:41:37Z</time>
      </trkpt>
      <trkpt lat="44.0407" lon="4.64667">
        <ele>215.28</ele>
        <time>2021-11-14T10:41:38Z</time>
      </trkpt>
      <trkpt lat="44.04086" lon="4.64692">
        <ele>217.63</ele>
        <time>2021-11-14T10:41:56Z</time>
      </trkpt>
      <trkpt lat="44.04104" lon="4.64715">
        <ele>220.75</ele>
        <time>2021-11-14T10:42:15Z</time>
      </trkpt>
      <trkpt lat="44.04109" lon="4.64718">
        <ele>221.21</ele>
        <time>2021-11-14T10:42:19Z</time>
      </trkpt>
      <trkpt lat="44.0411" lon="4.64719">
        <ele>221.3</ele>
        <time>2021-11-14T10:42:20Z</time>
      </trkpt>
      <trkpt lat="44.04119" lon="4.64742">
        <ele>224.42</ele>
        <time>2021-11-14T10:42:35Z</time>
      </trkpt>
      <trkpt lat="44.04119" lon="4.64744">
        <ele>224.67</ele>
        <time>2021-11-14T10:42:36Z</time>
      </trkpt>
      <trkpt lat="44.04117" lon="4.64762">
        <ele>225.61</ele>
        <time>2021-11-14T10:42:46Z</time>
      </trkpt>
      <trkpt lat="44.04116" lon="4.64764">
        <ele>225.6</ele>
        <time>2021-11-14T10:42:47Z</time>
      </trkpt>
      <trkpt lat="44.04115" lon="4.64765">
        <ele>225.46</ele>
        <time>2021-11-14T10:42:48Z</time>
      </trkpt>
      <trkpt lat="44.04114" lon="4.64765">
        <ele>225.42</ele>
        <time>2021-11-14T10:42:49Z</time>
      </trkpt>
      <trkpt lat="44.04112" lon="4.64766">
        <ele>225.57</ele>
        <time>2021-11-14T10:42:50Z</time>
      </trkpt>
      <trkpt lat="44.04111" lon="4.64766">
        <ele>226</ele>
        <time>2021-11-14T10:42:51Z</time>
      </trkpt>
      <trkpt lat="44.0411" lon="4.64766">
        <ele>226.26</ele>
        <time>2021-11-14T10:42:52Z</time>
      </trkpt>
      <trkpt lat="44.04108" lon="4.64766">
        <ele>226.02</ele>
        <time>2021-11-14T10:42:53Z</time>
      </trkpt>
      <trkpt lat="44.04107" lon="4.64766">
        <ele>225.92</ele>
        <time>2021-11-14T10:42:54Z</time>
      </trkpt>
      <trkpt lat="44.04106" lon="4.64766">
        <ele>226.06</ele>
        <time>2021-11-14T10:42:55Z</time>
      </trkpt>
      <trkpt lat="44.04105" lon="4.64765">
        <ele>226.1</ele>
        <time>2021-11-14T10:42:56Z</time>
      </trkpt>
      <trkpt lat="44.04096" lon="4.64757">
        <ele>226.91</ele>
        <time>2021-11-14T10:43:04Z</time>
      </trkpt>
      <trkpt lat="44.04095" lon="4.64756">
        <ele>227.01</ele>
        <time>2021-11-14T10:43:05Z</time>
      </trkpt>
      <trkpt lat="44.04094" lon="4.64755">
        <ele>226.9</ele>
        <time>2021-11-14T10:43:06Z</time>
      </trkpt>
      <trkpt lat="44.04077" lon="4.6475">
        <ele>229.91</ele>
        <time>2021-11-14T10:43:20Z</time>
      </trkpt>
      <trkpt lat="44.04066" lon="4.64754">
        <ele>232.67</ele>
        <time>2021-11-14T10:43:29Z</time>
      </trkpt>
      <trkpt lat="44.04064" lon="4.64754">
        <ele>232.83</ele>
        <time>2021-11-14T10:43:30Z</time>
      </trkpt>
      <trkpt lat="44.04063" lon="4.64755">
        <ele>232.92</ele>
        <time>2021-11-14T10:43:31Z</time>
      </trkpt>
      <trkpt lat="44.04062" lon="4.64756">
        <ele>232.97</ele>
        <time>2021-11-14T10:43:32Z</time>
      </trkpt>
      <trkpt lat="44.04061" lon="4.64757">
        <ele>232.99</ele>
        <time>2021-11-14T10:43:33Z</time>
      </trkpt>
      <trkpt lat="44.04053" lon="4.6476">
        <ele>235.23</ele>
        <time>2021-11-14T10:43:40Z</time>
      </trkpt>
      <trkpt lat="44.04046" lon="4.64762">
        <ele>236.4</ele>
        <time>2021-11-14T10:43:46Z</time>
      </trkpt>
      <trkpt lat="44.04044" lon="4.64761">
        <ele>236.77</ele>
        <time>2021-11-14T10:44:00Z</time>
      </trkpt>
      <trkpt lat="44.04044" lon="4.64762">
        <ele>237.35</ele>
        <time>2021-11-14T10:44:58Z</time>
      </trkpt>
      <trkpt lat="44.04042" lon="4.64764">
        <ele>237.77</ele>
        <time>2021-11-14T10:45:09Z</time>
      </trkpt>
      <trkpt lat="44.04041" lon="4.64764">
        <ele>237.87</ele>
        <time>2021-11-14T10:45:10Z</time>
      </trkpt>
      <trkpt lat="44.0404" lon="4.64764">
        <ele>238.01</ele>
        <time>2021-11-14T10:45:11Z</time>
      </trkpt>
      <trkpt lat="44.04038" lon="4.64764">
        <ele>238.19</ele>
        <time>2021-11-14T10:45:12Z</time>
      </trkpt>
      <trkpt lat="44.04037" lon="4.64764">
        <ele>238.23</ele>
        <time>2021-11-14T10:45:13Z</time>
      </trkpt>
      <trkpt lat="44.04036" lon="4.64764">
        <ele>238.37</ele>
        <time>2021-11-14T10:45:14Z</time>
      </trkpt>
      <trkpt lat="44.04034" lon="4.64765">
        <ele>238.66</ele>
        <time>2021-11-14T10:45:15Z</time>
      </trkpt>
      <trkpt lat="44.04033" lon="4.64765">
        <ele>239.35</ele>
        <time>2021-11-14T10:45:16Z</time>
      </trkpt>
      <trkpt lat="44.04031" lon="4.64765">
        <ele>239.39</ele>
        <time>2021-11-14T10:45:17Z</time>
      </trkpt>
      <trkpt lat="44.04009" lon="4.64767">
        <ele>241.97</ele>
        <time>2021-11-14T10:45:33Z</time>
      </trkpt>
      <trkpt lat="44.03996" lon="4.64774">
        <ele>244.43</ele>
        <time>2021-11-14T10:45:43Z</time>
      </trkpt>
      <trkpt lat="44.03994" lon="4.64774">
        <ele>244.12</ele>
        <time>2021-11-14T10:45:44Z</time>
      </trkpt>
      <trkpt lat="44.03993" lon="4.64773">
        <ele>243.9</ele>
        <time>2021-11-14T10:45:45Z</time>
      </trkpt>
      <trkpt lat="44.03991" lon="4.64773">
        <ele>244.53</ele>
        <time>2021-11-14T10:45:46Z</time>
      </trkpt>
      <trkpt lat="44.0399" lon="4.64773">
        <ele>244.92</ele>
        <time>2021-11-14T10:45:47Z</time>
      </trkpt>
      <trkpt lat="44.03988" lon="4.64772">
        <ele>244.52</ele>
        <time>2021-11-14T10:45:48Z</time>
      </trkpt>
      <trkpt lat="44.0397" lon="4.64755">
        <ele>246.17</ele>
        <time>2021-11-14T10:46:03Z</time>
      </trkpt>
      <trkpt lat="44.03957" lon="4.64731">
        <ele>247.98</ele>
        <time>2021-11-14T10:46:19Z</time>
      </trkpt>
      <trkpt lat="44.03954" lon="4.64723">
        <ele>248.85</ele>
        <time>2021-11-14T10:46:24Z</time>
      </trkpt>
      <trkpt lat="44.03953" lon="4.64723">
        <ele>249.24</ele>
        <time>2021-11-14T10:46:25Z</time>
      </trkpt>
      <trkpt lat="44.03951" lon="4.64723">
        <ele>249.44</ele>
        <time>2021-11-14T10:46:26Z</time>
      </trkpt>
      <trkpt lat="44.0395" lon="4.64724">
        <ele>249.47</ele>
        <time>2021-11-14T10:46:27Z</time>
      </trkpt>
      <trkpt lat="44.03949" lon="4.64726">
        <ele>249.07</ele>
        <time>2021-11-14T10:46:28Z</time>
      </trkpt>
      <trkpt lat="44.03949" lon="4.64729">
        <ele>248.68</ele>
        <time>2021-11-14T10:46:29Z</time>
      </trkpt>
      <trkpt lat="44.03949" lon="4.64731">
        <ele>248.33</ele>
        <time>2021-11-14T10:46:30Z</time>
      </trkpt>
      <trkpt lat="44.03949" lon="4.64734">
        <ele>248.6</ele>
        <time>2021-11-14T10:46:31Z</time>
      </trkpt>
      <trkpt lat="44.03947" lon="4.64759">
        <ele>245.48</ele>
        <time>2021-11-14T10:46:38Z</time>
      </trkpt>
      <trkpt lat="44.03949" lon="4.64778">
        <ele>243.28</ele>
        <time>2021-11-14T10:46:43Z</time>
      </trkpt>
      <trkpt lat="44.0395" lon="4.64798">
        <ele>241</ele>
        <time>2021-11-14T10:46:52Z</time>
      </trkpt>
      <trkpt lat="44.03949" lon="4.64798">
        <ele>241.17</ele>
        <time>2021-11-14T10:46:53Z</time>
      </trkpt>
      <trkpt lat="44.03949" lon="4.648">
        <ele>241.15</ele>
        <time>2021-11-14T10:46:54Z</time>
      </trkpt>
      <trkpt lat="44.03948" lon="4.64804">
        <ele>240.9</ele>
        <time>2021-11-14T10:46:55Z</time>
      </trkpt>
      <trkpt lat="44.03949" lon="4.64807">
        <ele>240.52</ele>
        <time>2021-11-14T10:46:56Z</time>
      </trkpt>
      <trkpt lat="44.0395" lon="4.6481">
        <ele>240.38</ele>
        <time>2021-11-14T10:46:57Z</time>
      </trkpt>
      <trkpt lat="44.03951" lon="4.64812">
        <ele>240.22</ele>
        <time>2021-11-14T10:46:58Z</time>
      </trkpt>
      <trkpt lat="44.03961" lon="4.64829">
        <ele>240.08</ele>
        <time>2021-11-14T10:47:11Z</time>
      </trkpt>
      <trkpt lat="44.03962" lon="4.64831">
        <ele>239.65</ele>
        <time>2021-11-14T10:47:21Z</time>
      </trkpt>
      <trkpt lat="44.03963" lon="4.64831">
        <ele>239.65</ele>
        <time>2021-11-14T10:47:22Z</time>
      </trkpt>
      <trkpt lat="44.03965" lon="4.64832">
        <ele>239.71</ele>
        <time>2021-11-14T10:47:23Z</time>
      </trkpt>
      <trkpt lat="44.03967" lon="4.64831">
        <ele>239.71</ele>
        <time>2021-11-14T10:47:24Z</time>
      </trkpt>
      <trkpt lat="44.03969" lon="4.64831">
        <ele>239.7</ele>
        <time>2021-11-14T10:47:25Z</time>
      </trkpt>
      <trkpt lat="44.03987" lon="4.64829">
        <ele>236.15</ele>
        <time>2021-11-14T10:47:33Z</time>
      </trkpt>
      <trkpt lat="44.0399" lon="4.64828">
        <ele>236.03</ele>
        <time>2021-11-14T10:47:34Z</time>
      </trkpt>
      <trkpt lat="44.03992" lon="4.64828">
        <ele>234.61</ele>
        <time>2021-11-14T10:47:35Z</time>
      </trkpt>
      <trkpt lat="44.03994" lon="4.6483">
        <ele>233.99</ele>
        <time>2021-11-14T10:47:36Z</time>
      </trkpt>
      <trkpt lat="44.03997" lon="4.64833">
        <ele>233.27</ele>
        <time>2021-11-14T10:47:37Z</time>
      </trkpt>
      <trkpt lat="44.04" lon="4.64837">
        <ele>232.24</ele>
        <time>2021-11-14T10:47:38Z</time>
      </trkpt>
      <trkpt lat="44.04004" lon="4.6484">
        <ele>231.13</ele>
        <time>2021-11-14T10:47:39Z</time>
      </trkpt>
      <trkpt lat="44.04008" lon="4.64841">
        <ele>230.16</ele>
        <time>2021-11-14T10:47:40Z</time>
      </trkpt>
      <trkpt lat="44.04011" lon="4.64841">
        <ele>228.98</ele>
        <time>2021-11-14T10:47:41Z</time>
      </trkpt>
      <trkpt lat="44.04014" lon="4.64841">
        <ele>228.74</ele>
        <time>2021-11-14T10:47:42Z</time>
      </trkpt>
      <trkpt lat="44.04019" lon="4.64841">
        <ele>228.04</ele>
        <time>2021-11-14T10:47:43Z</time>
      </trkpt>
      <trkpt lat="44.04024" lon="4.64842">
        <ele>227.55</ele>
        <time>2021-11-14T10:47:44Z</time>
      </trkpt>
      <trkpt lat="44.04028" lon="4.64843">
        <ele>226.55</ele>
        <time>2021-11-14T10:47:45Z</time>
      </trkpt>
      <trkpt lat="44.04033" lon="4.64843">
        <ele>225.93</ele>
        <time>2021-11-14T10:47:46Z</time>
      </trkpt>
      <trkpt lat="44.04047" lon="4.6484">
        <ele>222.66</ele>
        <time>2021-11-14T10:47:49Z</time>
      </trkpt>
      <trkpt lat="44.04062" lon="4.6484">
        <ele>219.27</ele>
        <time>2021-11-14T10:47:53Z</time>
      </trkpt>
      <trkpt lat="44.04072" lon="4.64845">
        <ele>216.54</ele>
        <time>2021-11-14T10:47:57Z</time>
      </trkpt>
      <trkpt lat="44.04074" lon="4.64848">
        <ele>216.16</ele>
        <time>2021-11-14T10:47:58Z</time>
      </trkpt>
      <trkpt lat="44.04076" lon="4.64851">
        <ele>215.53</ele>
        <time>2021-11-14T10:47:59Z</time>
      </trkpt>
      <trkpt lat="44.04079" lon="4.64854">
        <ele>215.34</ele>
        <time>2021-11-14T10:48:00Z</time>
      </trkpt>
      <trkpt lat="44.04082" lon="4.64855">
        <ele>215.35</ele>
        <time>2021-11-14T10:48:01Z</time>
      </trkpt>
      <trkpt lat="44.04086" lon="4.64858">
        <ele>214.9</ele>
        <time>2021-11-14T10:48:02Z</time>
      </trkpt>
      <trkpt lat="44.0409" lon="4.64862">
        <ele>214.3</ele>
        <time>2021-11-14T10:48:03Z</time>
      </trkpt>
      <trkpt lat="44.04094" lon="4.64865">
        <ele>213.83</ele>
        <time>2021-11-14T10:48:04Z</time>
      </trkpt>
      <trkpt lat="44.04104" lon="4.64871">
        <ele>212.38</ele>
        <time>2021-11-14T10:48:07Z</time>
      </trkpt>
      <trkpt lat="44.04107" lon="4.64874">
        <ele>212.17</ele>
        <time>2021-11-14T10:48:08Z</time>
      </trkpt>
      <trkpt lat="44.04109" lon="4.64877">
        <ele>211.81</ele>
        <time>2021-11-14T10:48:09Z</time>
      </trkpt>
      <trkpt lat="44.04112" lon="4.64879">
        <ele>211.53</ele>
        <time>2021-11-14T10:48:10Z</time>
      </trkpt>
      <trkpt lat="44.0412" lon="4.64886">
        <ele>211.04</ele>
        <time>2021-11-14T10:48:24Z</time>
      </trkpt>
      <trkpt lat="44.04129" lon="4.6491">
        <ele>210.15</ele>
        <time>2021-11-14T10:48:31Z</time>
      </trkpt>
      <trkpt lat="44.04133" lon="4.6492">
        <ele>209.75</ele>
        <time>2021-11-14T10:48:33Z</time>
      </trkpt>
      <trkpt lat="44.04133" lon="4.64925">
        <ele>209.39</ele>
        <time>2021-11-14T10:48:34Z</time>
      </trkpt>
      <trkpt lat="44.04133" lon="4.6493">
        <ele>208.97</ele>
        <time>2021-11-14T10:48:35Z</time>
      </trkpt>
      <trkpt lat="44.04133" lon="4.64935">
        <ele>208.62</ele>
        <time>2021-11-14T10:48:36Z</time>
      </trkpt>
      <trkpt lat="44.04132" lon="4.6494">
        <ele>208.48</ele>
        <time>2021-11-14T10:48:37Z</time>
      </trkpt>
      <trkpt lat="44.04133" lon="4.64945">
        <ele>208.35</ele>
        <time>2021-11-14T10:48:38Z</time>
      </trkpt>
      <trkpt lat="44.04134" lon="4.6495">
        <ele>207.92</ele>
        <time>2021-11-14T10:48:39Z</time>
      </trkpt>
      <trkpt lat="44.04135" lon="4.64956">
        <ele>207.47</ele>
        <time>2021-11-14T10:48:40Z</time>
      </trkpt>
      <trkpt lat="44.04137" lon="4.64963">
        <ele>206.73</ele>
        <time>2021-11-14T10:48:41Z</time>
      </trkpt>
      <trkpt lat="44.04138" lon="4.64971">
        <ele>206.52</ele>
        <time>2021-11-14T10:48:42Z</time>
      </trkpt>
      <trkpt lat="44.0414" lon="4.64988">
        <ele>204.78</ele>
        <time>2021-11-14T10:48:44Z</time>
      </trkpt>
      <trkpt lat="44.04143" lon="4.64997">
        <ele>204.45</ele>
        <time>2021-11-14T10:48:45Z</time>
      </trkpt>
      <trkpt lat="44.04147" lon="4.65004">
        <ele>204.11</ele>
        <time>2021-11-14T10:48:46Z</time>
      </trkpt>
      <trkpt lat="44.04151" lon="4.65011">
        <ele>203.53</ele>
        <time>2021-11-14T10:48:47Z</time>
      </trkpt>
      <trkpt lat="44.04155" lon="4.65018">
        <ele>203.39</ele>
        <time>2021-11-14T10:48:48Z</time>
      </trkpt>
      <trkpt lat="44.04158" lon="4.65026">
        <ele>202.99</ele>
        <time>2021-11-14T10:48:49Z</time>
      </trkpt>
      <trkpt lat="44.04161" lon="4.65034">
        <ele>202.96</ele>
        <time>2021-11-14T10:48:50Z</time>
      </trkpt>
      <trkpt lat="44.04166" lon="4.6504">
        <ele>202.37</ele>
        <time>2021-11-14T10:48:51Z</time>
      </trkpt>
      <trkpt lat="44.04172" lon="4.65051">
        <ele>201.87</ele>
        <time>2021-11-14T10:48:53Z</time>
      </trkpt>
      <trkpt lat="44.04174" lon="4.65057">
        <ele>201.71</ele>
        <time>2021-11-14T10:48:54Z</time>
      </trkpt>
      <trkpt lat="44.04176" lon="4.65062">
        <ele>201.38</ele>
        <time>2021-11-14T10:48:55Z</time>
      </trkpt>
      <trkpt lat="44.04177" lon="4.65067">
        <ele>200.89</ele>
        <time>2021-11-14T10:48:56Z</time>
      </trkpt>
      <trkpt lat="44.04177" lon="4.65073">
        <ele>200.83</ele>
        <time>2021-11-14T10:48:57Z</time>
      </trkpt>
      <trkpt lat="44.04178" lon="4.65079">
        <ele>200.18</ele>
        <time>2021-11-14T10:48:58Z</time>
      </trkpt>
      <trkpt lat="44.0418" lon="4.65085">
        <ele>199.51</ele>
        <time>2021-11-14T10:48:59Z</time>
      </trkpt>
      <trkpt lat="44.04182" lon="4.65092">
        <ele>199.68</ele>
        <time>2021-11-14T10:49:00Z</time>
      </trkpt>
      <trkpt lat="44.04184" lon="4.65098">
        <ele>198.79</ele>
        <time>2021-11-14T10:49:01Z</time>
      </trkpt>
      <trkpt lat="44.04187" lon="4.65105">
        <ele>198.5</ele>
        <time>2021-11-14T10:49:02Z</time>
      </trkpt>
      <trkpt lat="44.0419" lon="4.65111">
        <ele>197.98</ele>
        <time>2021-11-14T10:49:03Z</time>
      </trkpt>
      <trkpt lat="44.04194" lon="4.65117">
        <ele>197.75</ele>
        <time>2021-11-14T10:49:04Z</time>
      </trkpt>
      <trkpt lat="44.04199" lon="4.65121">
        <ele>197.61</ele>
        <time>2021-11-14T10:49:05Z</time>
      </trkpt>
      <trkpt lat="44.04203" lon="4.65126">
        <ele>197.44</ele>
        <time>2021-11-14T10:49:06Z</time>
      </trkpt>
      <trkpt lat="44.04206" lon="4.65131">
        <ele>196.79</ele>
        <time>2021-11-14T10:49:07Z</time>
      </trkpt>
      <trkpt lat="44.0421" lon="4.65137">
        <ele>196.24</ele>
        <time>2021-11-14T10:49:08Z</time>
      </trkpt>
      <trkpt lat="44.04213" lon="4.65144">
        <ele>196.04</ele>
        <time>2021-11-14T10:49:09Z</time>
      </trkpt>
      <trkpt lat="44.04215" lon="4.65151">
        <ele>195.37</ele>
        <time>2021-11-14T10:49:10Z</time>
      </trkpt>
      <trkpt lat="44.04218" lon="4.65159">
        <ele>195.06</ele>
        <time>2021-11-14T10:49:11Z</time>
      </trkpt>
      <trkpt lat="44.04221" lon="4.65167">
        <ele>194.4</ele>
        <time>2021-11-14T10:49:12Z</time>
      </trkpt>
      <trkpt lat="44.04225" lon="4.65174">
        <ele>193.49</ele>
        <time>2021-11-14T10:49:13Z</time>
      </trkpt>
      <trkpt lat="44.04232" lon="4.65188">
        <ele>192.86</ele>
        <time>2021-11-14T10:49:15Z</time>
      </trkpt>
      <trkpt lat="44.04241" lon="4.6521">
        <ele>192.08</ele>
        <time>2021-11-14T10:49:18Z</time>
      </trkpt>
      <trkpt lat="44.04242" lon="4.65217">
        <ele>191.91</ele>
        <time>2021-11-14T10:49:19Z</time>
      </trkpt>
      <trkpt lat="44.04242" lon="4.65224">
        <ele>191.3</ele>
        <time>2021-11-14T10:49:20Z</time>
      </trkpt>
      <trkpt lat="44.0424" lon="4.65231">
        <ele>190.73</ele>
        <time>2021-11-14T10:49:21Z</time>
      </trkpt>
      <trkpt lat="44.04238" lon="4.65238">
        <ele>190.35</ele>
        <time>2021-11-14T10:49:22Z</time>
      </trkpt>
      <trkpt lat="44.04236" lon="4.65245">
        <ele>190.02</ele>
        <time>2021-11-14T10:49:23Z</time>
      </trkpt>
      <trkpt lat="44.04235" lon="4.65252">
        <ele>190.04</ele>
        <time>2021-11-14T10:49:24Z</time>
      </trkpt>
      <trkpt lat="44.04229" lon="4.65274">
        <ele>190.04</ele>
        <time>2021-11-14T10:49:27Z</time>
      </trkpt>
      <trkpt lat="44.04227" lon="4.6528">
        <ele>189.78</ele>
        <time>2021-11-14T10:49:28Z</time>
      </trkpt>
      <trkpt lat="44.04226" lon="4.65287">
        <ele>189.68</ele>
        <time>2021-11-14T10:49:29Z</time>
      </trkpt>
      <trkpt lat="44.04227" lon="4.65293">
        <ele>189.66</ele>
        <time>2021-11-14T10:49:30Z</time>
      </trkpt>
      <trkpt lat="44.04229" lon="4.65298">
        <ele>189.27</ele>
        <time>2021-11-14T10:49:31Z</time>
      </trkpt>
      <trkpt lat="44.04231" lon="4.65302">
        <ele>188.81</ele>
        <time>2021-11-14T10:49:32Z</time>
      </trkpt>
      <trkpt lat="44.04234" lon="4.65305">
        <ele>188.78</ele>
        <time>2021-11-14T10:49:33Z</time>
      </trkpt>
      <trkpt lat="44.04238" lon="4.65307">
        <ele>188.52</ele>
        <time>2021-11-14T10:49:34Z</time>
      </trkpt>
      <trkpt lat="44.04246" lon="4.65312">
        <ele>188.11</ele>
        <time>2021-11-14T10:49:36Z</time>
      </trkpt>
      <trkpt lat="44.04251" lon="4.65313">
        <ele>187.72</ele>
        <time>2021-11-14T10:49:37Z</time>
      </trkpt>
      <trkpt lat="44.04254" lon="4.65314">
        <ele>187.7</ele>
        <time>2021-11-14T10:49:38Z</time>
      </trkpt>
      <trkpt lat="44.04257" lon="4.65316">
        <ele>187.26</ele>
        <time>2021-11-14T10:49:39Z</time>
      </trkpt>
      <trkpt lat="44.04258" lon="4.65317">
        <ele>186.9</ele>
        <time>2021-11-14T10:49:40Z</time>
      </trkpt>
      <trkpt lat="44.04259" lon="4.65319">
        <ele>186.74</ele>
        <time>2021-11-14T10:49:41Z</time>
      </trkpt>
      <trkpt lat="44.04262" lon="4.65324">
        <ele>186.51</ele>
        <time>2021-11-14T10:49:59Z</time>
      </trkpt>
      <trkpt lat="44.04265" lon="4.65332">
        <ele>186.36</ele>
        <time>2021-11-14T10:50:09Z</time>
      </trkpt>
      <trkpt lat="44.04265" lon="4.65334">
        <ele>186.45</ele>
        <time>2021-11-14T10:50:10Z</time>
      </trkpt>
      <trkpt lat="44.04265" lon="4.65337">
        <ele>186.66</ele>
        <time>2021-11-14T10:50:11Z</time>
      </trkpt>
      <trkpt lat="44.04266" lon="4.6534">
        <ele>186.82</ele>
        <time>2021-11-14T10:50:12Z</time>
      </trkpt>
      <trkpt lat="44.04267" lon="4.65342">
        <ele>187.14</ele>
        <time>2021-11-14T10:50:13Z</time>
      </trkpt>
      <trkpt lat="44.04268" lon="4.65343">
        <ele>187.17</ele>
        <time>2021-11-14T10:50:14Z</time>
      </trkpt>
      <trkpt lat="44.0427" lon="4.65346">
        <ele>187.14</ele>
        <time>2021-11-14T10:50:15Z</time>
      </trkpt>
      <trkpt lat="44.04272" lon="4.65348">
        <ele>186.87</ele>
        <time>2021-11-14T10:50:16Z</time>
      </trkpt>
      <trkpt lat="44.04278" lon="4.65356">
        <ele>186.19</ele>
        <time>2021-11-14T10:50:19Z</time>
      </trkpt>
      <trkpt lat="44.04281" lon="4.65358">
        <ele>186.18</ele>
        <time>2021-11-14T10:50:20Z</time>
      </trkpt>
      <trkpt lat="44.04283" lon="4.65361">
        <ele>186.01</ele>
        <time>2021-11-14T10:50:21Z</time>
      </trkpt>
      <trkpt lat="44.04285" lon="4.65365">
        <ele>185.9</ele>
        <time>2021-11-14T10:50:22Z</time>
      </trkpt>
      <trkpt lat="44.04287" lon="4.65369">
        <ele>185.64</ele>
        <time>2021-11-14T10:50:23Z</time>
      </trkpt>
      <trkpt lat="44.043" lon="4.65403">
        <ele>183.89</ele>
        <time>2021-11-14T10:50:30Z</time>
      </trkpt>
      <trkpt lat="44.04302" lon="4.6541">
        <ele>183.6</ele>
        <time>2021-11-14T10:50:31Z</time>
      </trkpt>
      <trkpt lat="44.04303" lon="4.65415">
        <ele>183.43</ele>
        <time>2021-11-14T10:50:32Z</time>
      </trkpt>
      <trkpt lat="44.04303" lon="4.65419">
        <ele>183.1</ele>
        <time>2021-11-14T10:50:33Z</time>
      </trkpt>
      <trkpt lat="44.04303" lon="4.65422">
        <ele>182.84</ele>
        <time>2021-11-14T10:50:34Z</time>
      </trkpt>
      <trkpt lat="44.04303" lon="4.65425">
        <ele>182.68</ele>
        <time>2021-11-14T10:50:35Z</time>
      </trkpt>
      <trkpt lat="44.04304" lon="4.65469">
        <ele>180.74</ele>
        <time>2021-11-14T10:50:45Z</time>
      </trkpt>
      <trkpt lat="44.04302" lon="4.65544">
        <ele>179.42</ele>
        <time>2021-11-14T10:50:58Z</time>
      </trkpt>
      <trkpt lat="44.04301" lon="4.65549">
        <ele>179.62</ele>
        <time>2021-11-14T10:50:59Z</time>
      </trkpt>
      <trkpt lat="44.04283" lon="4.65583">
        <ele>179.04</ele>
        <time>2021-11-14T10:51:09Z</time>
      </trkpt>
      <trkpt lat="44.04281" lon="4.65585">
        <ele>178.93</ele>
        <time>2021-11-14T10:51:10Z</time>
      </trkpt>
      <trkpt lat="44.04279" lon="4.65584">
        <ele>179.03</ele>
        <time>2021-11-14T10:51:11Z</time>
      </trkpt>
      <trkpt lat="44.04277" lon="4.65584">
        <ele>178.98</ele>
        <time>2021-11-14T10:51:12Z</time>
      </trkpt>
      <trkpt lat="44.04275" lon="4.65583">
        <ele>179.06</ele>
        <time>2021-11-14T10:51:13Z</time>
      </trkpt>
      <trkpt lat="44.04272" lon="4.65582">
        <ele>179.17</ele>
        <time>2021-11-14T10:51:14Z</time>
      </trkpt>
      <trkpt lat="44.0427" lon="4.65582">
        <ele>179.33</ele>
        <time>2021-11-14T10:51:15Z</time>
      </trkpt>
      <trkpt lat="44.04268" lon="4.65582">
        <ele>179.7</ele>
        <time>2021-11-14T10:51:16Z</time>
      </trkpt>
      <trkpt lat="44.04266" lon="4.65582">
        <ele>179.87</ele>
        <time>2021-11-14T10:51:17Z</time>
      </trkpt>
      <trkpt lat="44.04264" lon="4.65582">
        <ele>179.92</ele>
        <time>2021-11-14T10:51:18Z</time>
      </trkpt>
      <trkpt lat="44.04238" lon="4.65574">
        <ele>182.83</ele>
        <time>2021-11-14T10:51:34Z</time>
      </trkpt>
      <trkpt lat="44.04237" lon="4.65574">
        <ele>182.89</ele>
        <time>2021-11-14T10:51:35Z</time>
      </trkpt>
      <trkpt lat="44.04236" lon="4.65575">
        <ele>182.92</ele>
        <time>2021-11-14T10:51:36Z</time>
      </trkpt>
      <trkpt lat="44.04234" lon="4.65576">
        <ele>183.01</ele>
        <time>2021-11-14T10:51:37Z</time>
      </trkpt>
      <trkpt lat="44.04233" lon="4.65577">
        <ele>182.97</ele>
        <time>2021-11-14T10:51:38Z</time>
      </trkpt>
      <trkpt lat="44.04231" lon="4.65578">
        <ele>182.95</ele>
        <time>2021-11-14T10:51:39Z</time>
      </trkpt>
      <trkpt lat="44.0423" lon="4.65578">
        <ele>183.01</ele>
        <time>2021-11-14T10:51:40Z</time>
      </trkpt>
      <trkpt lat="44.04228" lon="4.65579">
        <ele>182.95</ele>
        <time>2021-11-14T10:51:41Z</time>
      </trkpt>
      <trkpt lat="44.04226" lon="4.6558">
        <ele>183.01</ele>
        <time>2021-11-14T10:51:42Z</time>
      </trkpt>
      <trkpt lat="44.04225" lon="4.65581">
        <ele>183.09</ele>
        <time>2021-11-14T10:51:43Z</time>
      </trkpt>
      <trkpt lat="44.04223" lon="4.65582">
        <ele>183.13</ele>
        <time>2021-11-14T10:51:44Z</time>
      </trkpt>
      <trkpt lat="44.04222" lon="4.65584">
        <ele>183.19</ele>
        <time>2021-11-14T10:51:45Z</time>
      </trkpt>
      <trkpt lat="44.0422" lon="4.65584">
        <ele>183.2</ele>
        <time>2021-11-14T10:51:46Z</time>
      </trkpt>
      <trkpt lat="44.04219" lon="4.65586">
        <ele>183.37</ele>
        <time>2021-11-14T10:51:47Z</time>
      </trkpt>
      <trkpt lat="44.04217" lon="4.65586">
        <ele>183.44</ele>
        <time>2021-11-14T10:51:48Z</time>
      </trkpt>
      <trkpt lat="44.04216" lon="4.65587">
        <ele>183.5</ele>
        <time>2021-11-14T10:51:49Z</time>
      </trkpt>
      <trkpt lat="44.04196" lon="4.65598">
        <ele>183.87</ele>
        <time>2021-11-14T10:52:02Z</time>
      </trkpt>
      <trkpt lat="44.04169" lon="4.65611">
        <ele>185.96</ele>
        <time>2021-11-14T10:52:19Z</time>
      </trkpt>
      <trkpt lat="44.04143" lon="4.65624">
        <ele>186.1</ele>
        <time>2021-11-14T10:52:34Z</time>
      </trkpt>
      <trkpt lat="44.04109" lon="4.65638">
        <ele>187.78</ele>
        <time>2021-11-14T10:52:54Z</time>
      </trkpt>
      <trkpt lat="44.04076" lon="4.65644">
        <ele>190.51</ele>
        <time>2021-11-14T10:53:14Z</time>
      </trkpt>
      <trkpt lat="44.0405" lon="4.65648">
        <ele>191.9</ele>
        <time>2021-11-14T10:53:32Z</time>
      </trkpt>
      <trkpt lat="44.04013" lon="4.65663">
        <ele>193.44</ele>
        <time>2021-11-14T10:53:57Z</time>
      </trkpt>
      <trkpt lat="44.03992" lon="4.65676">
        <ele>194.29</ele>
        <time>2021-11-14T10:54:13Z</time>
      </trkpt>
      <trkpt lat="44.03977" lon="4.65691">
        <ele>197.19</ele>
        <time>2021-11-14T10:54:27Z</time>
      </trkpt>
      <trkpt lat="44.03966" lon="4.65715">
        <ele>197.59</ele>
        <time>2021-11-14T10:54:42Z</time>
      </trkpt>
      <trkpt lat="44.03952" lon="4.65733">
        <ele>200.57</ele>
        <time>2021-11-14T10:54:56Z</time>
      </trkpt>
      <trkpt lat="44.03941" lon="4.65753">
        <ele>202.41</ele>
        <time>2021-11-14T10:55:10Z</time>
      </trkpt>
      <trkpt lat="44.03939" lon="4.65759">
        <ele>203.1</ele>
        <time>2021-11-14T10:55:15Z</time>
      </trkpt>
      <trkpt lat="44.03939" lon="4.65761">
        <ele>203.14</ele>
        <time>2021-11-14T10:55:16Z</time>
      </trkpt>
      <trkpt lat="44.03944" lon="4.65783">
        <ele>204.12</ele>
        <time>2021-11-14T10:55:28Z</time>
      </trkpt>
      <trkpt lat="44.03944" lon="4.65785">
        <ele>204.06</ele>
        <time>2021-11-14T10:55:29Z</time>
      </trkpt>
      <trkpt lat="44.03944" lon="4.65787">
        <ele>204.18</ele>
        <time>2021-11-14T10:55:30Z</time>
      </trkpt>
      <trkpt lat="44.03944" lon="4.65789">
        <ele>204.36</ele>
        <time>2021-11-14T10:55:31Z</time>
      </trkpt>
      <trkpt lat="44.03945" lon="4.6579">
        <ele>204.53</ele>
        <time>2021-11-14T10:55:32Z</time>
      </trkpt>
      <trkpt lat="44.03945" lon="4.65792">
        <ele>204.7</ele>
        <time>2021-11-14T10:55:33Z</time>
      </trkpt>
      <trkpt lat="44.03945" lon="4.65824">
        <ele>205.1</ele>
        <time>2021-11-14T10:55:49Z</time>
      </trkpt>
      <trkpt lat="44.03947" lon="4.65838">
        <ele>206.67</ele>
        <time>2021-11-14T10:55:58Z</time>
      </trkpt>
      <trkpt lat="44.03948" lon="4.65839">
        <ele>206.91</ele>
        <time>2021-11-14T10:55:59Z</time>
      </trkpt>
      <trkpt lat="44.03949" lon="4.65842">
        <ele>207.04</ele>
        <time>2021-11-14T10:56:01Z</time>
      </trkpt>
      <trkpt lat="44.03949" lon="4.65844">
        <ele>207.2</ele>
        <time>2021-11-14T10:56:02Z</time>
      </trkpt>
      <trkpt lat="44.0395" lon="4.65851">
        <ele>207.54</ele>
        <time>2021-11-14T10:56:06Z</time>
      </trkpt>
      <trkpt lat="44.03951" lon="4.65856">
        <ele>207.91</ele>
        <time>2021-11-14T10:56:09Z</time>
      </trkpt>
      <trkpt lat="44.03951" lon="4.65858">
        <ele>207.85</ele>
        <time>2021-11-14T10:56:10Z</time>
      </trkpt>
      <trkpt lat="44.0395" lon="4.65861">
        <ele>207.86</ele>
        <time>2021-11-14T10:56:11Z</time>
      </trkpt>
      <trkpt lat="44.0395" lon="4.65862">
        <ele>208.03</ele>
        <time>2021-11-14T10:56:12Z</time>
      </trkpt>
      <trkpt lat="44.03949" lon="4.65864">
        <ele>208.25</ele>
        <time>2021-11-14T10:56:13Z</time>
      </trkpt>
      <trkpt lat="44.03949" lon="4.65867">
        <ele>208.73</ele>
        <time>2021-11-14T10:56:14Z</time>
      </trkpt>
      <trkpt lat="44.03949" lon="4.65869">
        <ele>209.05</ele>
        <time>2021-11-14T10:56:15Z</time>
      </trkpt>
      <trkpt lat="44.03949" lon="4.65871">
        <ele>209.09</ele>
        <time>2021-11-14T10:56:16Z</time>
      </trkpt>
      <trkpt lat="44.0395" lon="4.65873">
        <ele>209.19</ele>
        <time>2021-11-14T10:56:17Z</time>
      </trkpt>
      <trkpt lat="44.0395" lon="4.65875">
        <ele>209.21</ele>
        <time>2021-11-14T10:56:18Z</time>
      </trkpt>
      <trkpt lat="44.03953" lon="4.65888">
        <ele>210.57</ele>
        <time>2021-11-14T10:56:28Z</time>
      </trkpt>
      <trkpt lat="44.03951" lon="4.65897">
        <ele>213.29</ele>
        <time>2021-11-14T10:56:41Z</time>
      </trkpt>
      <trkpt lat="44.03954" lon="4.6591">
        <ele>215.88</ele>
        <time>2021-11-14T10:56:57Z</time>
      </trkpt>
      <trkpt lat="44.03954" lon="4.65911">
        <ele>215.99</ele>
        <time>2021-11-14T10:57:19Z</time>
      </trkpt>
      <trkpt lat="44.03953" lon="4.65913">
        <ele>216.24</ele>
        <time>2021-11-14T10:57:20Z</time>
      </trkpt>
      <trkpt lat="44.03953" lon="4.65915">
        <ele>216.42</ele>
        <time>2021-11-14T10:57:21Z</time>
      </trkpt>
      <trkpt lat="44.03953" lon="4.65918">
        <ele>216.68</ele>
        <time>2021-11-14T10:57:23Z</time>
      </trkpt>
      <trkpt lat="44.03952" lon="4.65919">
        <ele>216.75</ele>
        <time>2021-11-14T10:57:24Z</time>
      </trkpt>
      <trkpt lat="44.03951" lon="4.6594">
        <ele>219.65</ele>
        <time>2021-11-14T10:57:34Z</time>
      </trkpt>
      <trkpt lat="44.03949" lon="4.65945">
        <ele>220.38</ele>
        <time>2021-11-14T10:57:37Z</time>
      </trkpt>
      <trkpt lat="44.03943" lon="4.65968">
        <ele>223.51</ele>
        <time>2021-11-14T10:57:49Z</time>
      </trkpt>
      <trkpt lat="44.03943" lon="4.65979">
        <ele>224.8</ele>
        <time>2021-11-14T10:57:55Z</time>
      </trkpt>
      <trkpt lat="44.03944" lon="4.65981">
        <ele>225.63</ele>
        <time>2021-11-14T10:57:56Z</time>
      </trkpt>
      <trkpt lat="44.03947" lon="4.65987">
        <ele>225.51</ele>
        <time>2021-11-14T10:58:00Z</time>
      </trkpt>
      <trkpt lat="44.03948" lon="4.65988">
        <ele>225.64</ele>
        <time>2021-11-14T10:58:01Z</time>
      </trkpt>
      <trkpt lat="44.03951" lon="4.65993">
        <ele>227.37</ele>
        <time>2021-11-14T10:58:04Z</time>
      </trkpt>
      <trkpt lat="44.03951" lon="4.65994">
        <ele>227.14</ele>
        <time>2021-11-14T10:58:05Z</time>
      </trkpt>
      <trkpt lat="44.03951" lon="4.65996">
        <ele>226.87</ele>
        <time>2021-11-14T10:58:06Z</time>
      </trkpt>
      <trkpt lat="44.03949" lon="4.65997">
        <ele>226.59</ele>
        <time>2021-11-14T10:58:07Z</time>
      </trkpt>
      <trkpt lat="44.03948" lon="4.65997">
        <ele>226.58</ele>
        <time>2021-11-14T10:58:08Z</time>
      </trkpt>
      <trkpt lat="44.03946" lon="4.65997">
        <ele>226.48</ele>
        <time>2021-11-14T10:58:09Z</time>
      </trkpt>
      <trkpt lat="44.03943" lon="4.65997">
        <ele>226.27</ele>
        <time>2021-11-14T10:58:10Z</time>
      </trkpt>
      <trkpt lat="44.03941" lon="4.65996">
        <ele>226.04</ele>
        <time>2021-11-14T10:58:11Z</time>
      </trkpt>
      <trkpt lat="44.0393" lon="4.65994">
        <ele>226.57</ele>
        <time>2021-11-14T10:58:22Z</time>
      </trkpt>
      <trkpt lat="44.03929" lon="4.65995">
        <ele>226.55</ele>
        <time>2021-11-14T10:59:05Z</time>
      </trkpt>
      <trkpt lat="44.03925" lon="4.65995">
        <ele>224.66</ele>
        <time>2021-11-14T10:59:14Z</time>
      </trkpt>
      <trkpt lat="44.03918" lon="4.65994">
        <ele>226.38</ele>
        <time>2021-11-14T10:59:19Z</time>
      </trkpt>
      <trkpt lat="44.03892" lon="4.65997">
        <ele>227.43</ele>
        <time>2021-11-14T10:59:34Z</time>
      </trkpt>
      <trkpt lat="44.03863" lon="4.66016">
        <ele>229.91</ele>
        <time>2021-11-14T10:59:51Z</time>
      </trkpt>
      <trkpt lat="44.03843" lon="4.66063">
        <ele>230.35</ele>
        <time>2021-11-14T11:00:09Z</time>
      </trkpt>
      <trkpt lat="44.03828" lon="4.66094">
        <ele>231.64</ele>
        <time>2021-11-14T11:00:21Z</time>
      </trkpt>
      <trkpt lat="44.03813" lon="4.6611">
        <ele>232.72</ele>
        <time>2021-11-14T11:00:30Z</time>
      </trkpt>
      <trkpt lat="44.03797" lon="4.66124">
        <ele>236.13</ele>
        <time>2021-11-14T11:00:41Z</time>
      </trkpt>
      <trkpt lat="44.03789" lon="4.66144">
        <ele>239.33</ele>
        <time>2021-11-14T11:00:52Z</time>
      </trkpt>
      <trkpt lat="44.03778" lon="4.66174">
        <ele>241.25</ele>
        <time>2021-11-14T11:01:08Z</time>
      </trkpt>
      <trkpt lat="44.03777" lon="4.66175">
        <ele>241.16</ele>
        <time>2021-11-14T11:01:09Z</time>
      </trkpt>
      <trkpt lat="44.03777" lon="4.66176">
        <ele>240.78</ele>
        <time>2021-11-14T11:01:10Z</time>
      </trkpt>
      <trkpt lat="44.03762" lon="4.66207">
        <ele>241.76</ele>
        <time>2021-11-14T11:01:27Z</time>
      </trkpt>
      <trkpt lat="44.03745" lon="4.66215">
        <ele>240.75</ele>
        <time>2021-11-14T11:01:37Z</time>
      </trkpt>
      <trkpt lat="44.03744" lon="4.66217">
        <ele>240.5</ele>
        <time>2021-11-14T11:01:38Z</time>
      </trkpt>
      <trkpt lat="44.03729" lon="4.66249">
        <ele>241.67</ele>
        <time>2021-11-14T11:01:53Z</time>
      </trkpt>
      <trkpt lat="44.0372" lon="4.66274">
        <ele>241.74</ele>
        <time>2021-11-14T11:02:06Z</time>
      </trkpt>
      <trkpt lat="44.03719" lon="4.66276">
        <ele>241.8</ele>
        <time>2021-11-14T11:02:25Z</time>
      </trkpt>
      <trkpt lat="44.03719" lon="4.66278">
        <ele>241.81</ele>
        <time>2021-11-14T11:02:30Z</time>
      </trkpt>
      <trkpt lat="44.03718" lon="4.66279">
        <ele>241.65</ele>
        <time>2021-11-14T11:02:31Z</time>
      </trkpt>
      <trkpt lat="44.03718" lon="4.66282">
        <ele>241.33</ele>
        <time>2021-11-14T11:02:32Z</time>
      </trkpt>
      <trkpt lat="44.03716" lon="4.66285">
        <ele>241.18</ele>
        <time>2021-11-14T11:02:33Z</time>
      </trkpt>
      <trkpt lat="44.03714" lon="4.66289">
        <ele>240.43</ele>
        <time>2021-11-14T11:02:34Z</time>
      </trkpt>
      <trkpt lat="44.03705" lon="4.66309">
        <ele>242.9</ele>
        <time>2021-11-14T11:02:43Z</time>
      </trkpt>
      <trkpt lat="44.03705" lon="4.6631">
        <ele>242.61</ele>
        <time>2021-11-14T11:02:44Z</time>
      </trkpt>
      <trkpt lat="44.03705" lon="4.66313">
        <ele>242.78</ele>
        <time>2021-11-14T11:02:45Z</time>
      </trkpt>
      <trkpt lat="44.03706" lon="4.66328">
        <ele>243.59</ele>
        <time>2021-11-14T11:02:56Z</time>
      </trkpt>
      <trkpt lat="44.03707" lon="4.6633">
        <ele>242.99</ele>
        <time>2021-11-14T11:02:57Z</time>
      </trkpt>
      <trkpt lat="44.03708" lon="4.66331">
        <ele>242.69</ele>
        <time>2021-11-14T11:02:58Z</time>
      </trkpt>
      <trkpt lat="44.0371" lon="4.66333">
        <ele>242.65</ele>
        <time>2021-11-14T11:02:59Z</time>
      </trkpt>
      <trkpt lat="44.03711" lon="4.66336">
        <ele>242.2</ele>
        <time>2021-11-14T11:03:00Z</time>
      </trkpt>
      <trkpt lat="44.03712" lon="4.66339">
        <ele>241.93</ele>
        <time>2021-11-14T11:03:01Z</time>
      </trkpt>
      <trkpt lat="44.03713" lon="4.66341">
        <ele>242.03</ele>
        <time>2021-11-14T11:03:02Z</time>
      </trkpt>
      <trkpt lat="44.03715" lon="4.66344">
        <ele>241.75</ele>
        <time>2021-11-14T11:03:03Z</time>
      </trkpt>
      <trkpt lat="44.03716" lon="4.66346">
        <ele>241.7</ele>
        <time>2021-11-14T11:03:04Z</time>
      </trkpt>
      <trkpt lat="44.03716" lon="4.66349">
        <ele>241.57</ele>
        <time>2021-11-14T11:03:05Z</time>
      </trkpt>
      <trkpt lat="44.03717" lon="4.66353">
        <ele>241.66</ele>
        <time>2021-11-14T11:03:06Z</time>
      </trkpt>
      <trkpt lat="44.03717" lon="4.66356">
        <ele>241.46</ele>
        <time>2021-11-14T11:03:07Z</time>
      </trkpt>
      <trkpt lat="44.03716" lon="4.6636">
        <ele>241.06</ele>
        <time>2021-11-14T11:03:08Z</time>
      </trkpt>
      <trkpt lat="44.03715" lon="4.66364">
        <ele>240.68</ele>
        <time>2021-11-14T11:03:09Z</time>
      </trkpt>
      <trkpt lat="44.0371" lon="4.66384">
        <ele>237.35</ele>
        <time>2021-11-14T11:03:15Z</time>
      </trkpt>
      <trkpt lat="44.03709" lon="4.66396">
        <ele>234.06</ele>
        <time>2021-11-14T11:03:19Z</time>
      </trkpt>
      <trkpt lat="44.03709" lon="4.66404">
        <ele>230.87</ele>
        <time>2021-11-14T11:03:22Z</time>
      </trkpt>
      <trkpt lat="44.03709" lon="4.66407">
        <ele>229.52</ele>
        <time>2021-11-14T11:03:23Z</time>
      </trkpt>
      <trkpt lat="44.0371" lon="4.6641">
        <ele>228.92</ele>
        <time>2021-11-14T11:03:24Z</time>
      </trkpt>
      <trkpt lat="44.03712" lon="4.66414">
        <ele>227.04</ele>
        <time>2021-11-14T11:03:26Z</time>
      </trkpt>
      <trkpt lat="44.03711" lon="4.66431">
        <ele>222.87</ele>
        <time>2021-11-14T11:03:30Z</time>
      </trkpt>
      <trkpt lat="44.03711" lon="4.66436">
        <ele>222.06</ele>
        <time>2021-11-14T11:03:31Z</time>
      </trkpt>
      <trkpt lat="44.03711" lon="4.66441">
        <ele>222.09</ele>
        <time>2021-11-14T11:03:32Z</time>
      </trkpt>
      <trkpt lat="44.0371" lon="4.66446">
        <ele>221.89</ele>
        <time>2021-11-14T11:03:33Z</time>
      </trkpt>
      <trkpt lat="44.03709" lon="4.66451">
        <ele>221.34</ele>
        <time>2021-11-14T11:03:34Z</time>
      </trkpt>
      <trkpt lat="44.0371" lon="4.66455">
        <ele>220.93</ele>
        <time>2021-11-14T11:03:35Z</time>
      </trkpt>
      <trkpt lat="44.03711" lon="4.66459">
        <ele>220.37</ele>
        <time>2021-11-14T11:03:36Z</time>
      </trkpt>
      <trkpt lat="44.03711" lon="4.66463">
        <ele>219.67</ele>
        <time>2021-11-14T11:03:37Z</time>
      </trkpt>
      <trkpt lat="44.03711" lon="4.66468">
        <ele>219.35</ele>
        <time>2021-11-14T11:03:38Z</time>
      </trkpt>
      <trkpt lat="44.0371" lon="4.66473">
        <ele>219.07</ele>
        <time>2021-11-14T11:03:39Z</time>
      </trkpt>
      <trkpt lat="44.03711" lon="4.66476">
        <ele>218.5</ele>
        <time>2021-11-14T11:03:40Z</time>
      </trkpt>
      <trkpt lat="44.03712" lon="4.6648">
        <ele>218.56</ele>
        <time>2021-11-14T11:03:41Z</time>
      </trkpt>
      <trkpt lat="44.03714" lon="4.66483">
        <ele>218.36</ele>
        <time>2021-11-14T11:03:42Z</time>
      </trkpt>
      <trkpt lat="44.03716" lon="4.66489">
        <ele>217.98</ele>
        <time>2021-11-14T11:03:44Z</time>
      </trkpt>
      <trkpt lat="44.03716" lon="4.66493">
        <ele>217.64</ele>
        <time>2021-11-14T11:03:45Z</time>
      </trkpt>
      <trkpt lat="44.03716" lon="4.66496">
        <ele>217.52</ele>
        <time>2021-11-14T11:03:46Z</time>
      </trkpt>
      <trkpt lat="44.03715" lon="4.66502">
        <ele>218.02</ele>
        <time>2021-11-14T11:04:01Z</time>
      </trkpt>
      <trkpt lat="44.03714" lon="4.66505">
        <ele>218</ele>
        <time>2021-11-14T11:04:08Z</time>
      </trkpt>
      <trkpt lat="44.03714" lon="4.66507">
        <ele>217.15</ele>
        <time>2021-11-14T11:04:09Z</time>
      </trkpt>
      <trkpt lat="44.03715" lon="4.66509">
        <ele>217.14</ele>
        <time>2021-11-14T11:04:10Z</time>
      </trkpt>
      <trkpt lat="44.03716" lon="4.66512">
        <ele>216.95</ele>
        <time>2021-11-14T11:04:11Z</time>
      </trkpt>
      <trkpt lat="44.03717" lon="4.66514">
        <ele>217.06</ele>
        <time>2021-11-14T11:04:12Z</time>
      </trkpt>
      <trkpt lat="44.03718" lon="4.66515">
        <ele>217.05</ele>
        <time>2021-11-14T11:04:13Z</time>
      </trkpt>
      <trkpt lat="44.03719" lon="4.66517">
        <ele>217.17</ele>
        <time>2021-11-14T11:04:14Z</time>
      </trkpt>
      <trkpt lat="44.03719" lon="4.6652">
        <ele>217.41</ele>
        <time>2021-11-14T11:04:16Z</time>
      </trkpt>
      <trkpt lat="44.03719" lon="4.66522">
        <ele>217.4</ele>
        <time>2021-11-14T11:04:17Z</time>
      </trkpt>
      <trkpt lat="44.0372" lon="4.66532">
        <ele>218.69</ele>
        <time>2021-11-14T11:04:21Z</time>
      </trkpt>
      <trkpt lat="44.03719" lon="4.66539">
        <ele>218.88</ele>
        <time>2021-11-14T11:04:24Z</time>
      </trkpt>
      <trkpt lat="44.03719" lon="4.66541">
        <ele>219.08</ele>
        <time>2021-11-14T11:04:25Z</time>
      </trkpt>
      <trkpt lat="44.03719" lon="4.66544">
        <ele>218.92</ele>
        <time>2021-11-14T11:04:26Z</time>
      </trkpt>
      <trkpt lat="44.03719" lon="4.66546">
        <ele>218.92</ele>
        <time>2021-11-14T11:04:27Z</time>
      </trkpt>
      <trkpt lat="44.03719" lon="4.66549">
        <ele>219.07</ele>
        <time>2021-11-14T11:04:28Z</time>
      </trkpt>
      <trkpt lat="44.03718" lon="4.66551">
        <ele>220.41</ele>
        <time>2021-11-14T11:04:29Z</time>
      </trkpt>
      <trkpt lat="44.03718" lon="4.66554">
        <ele>220.98</ele>
        <time>2021-11-14T11:04:30Z</time>
      </trkpt>
      <trkpt lat="44.03717" lon="4.66556">
        <ele>220.65</ele>
        <time>2021-11-14T11:04:31Z</time>
      </trkpt>
      <trkpt lat="44.03716" lon="4.66575">
        <ele>220.12</ele>
        <time>2021-11-14T11:04:39Z</time>
      </trkpt>
      <trkpt lat="44.03715" lon="4.66577">
        <ele>220.04</ele>
        <time>2021-11-14T11:04:40Z</time>
      </trkpt>
      <trkpt lat="44.03712" lon="4.66585">
        <ele>222.44</ele>
        <time>2021-11-14T11:04:44Z</time>
      </trkpt>
      <trkpt lat="44.0371" lon="4.66586">
        <ele>222.15</ele>
        <time>2021-11-14T11:04:45Z</time>
      </trkpt>
      <trkpt lat="44.03708" lon="4.66586">
        <ele>221.7</ele>
        <time>2021-11-14T11:04:46Z</time>
      </trkpt>
      <trkpt lat="44.03705" lon="4.66588">
        <ele>221.17</ele>
        <time>2021-11-14T11:04:47Z</time>
      </trkpt>
      <trkpt lat="44.03703" lon="4.66589">
        <ele>220.66</ele>
        <time>2021-11-14T11:04:48Z</time>
      </trkpt>
      <trkpt lat="44.03701" lon="4.66591">
        <ele>220.21</ele>
        <time>2021-11-14T11:04:49Z</time>
      </trkpt>
      <trkpt lat="44.03698" lon="4.66593">
        <ele>220.18</ele>
        <time>2021-11-14T11:04:50Z</time>
      </trkpt>
      <trkpt lat="44.03686" lon="4.66604">
        <ele>218.42</ele>
        <time>2021-11-14T11:05:00Z</time>
      </trkpt>
      <trkpt lat="44.03684" lon="4.66607">
        <ele>217.1</ele>
        <time>2021-11-14T11:05:03Z</time>
      </trkpt>
      <trkpt lat="44.03682" lon="4.66609">
        <ele>216.67</ele>
        <time>2021-11-14T11:05:04Z</time>
      </trkpt>
      <trkpt lat="44.0368" lon="4.6661">
        <ele>217.09</ele>
        <time>2021-11-14T11:05:05Z</time>
      </trkpt>
      <trkpt lat="44.03678" lon="4.66612">
        <ele>217.44</ele>
        <time>2021-11-14T11:05:06Z</time>
      </trkpt>
      <trkpt lat="44.03676" lon="4.66612">
        <ele>217.43</ele>
        <time>2021-11-14T11:05:07Z</time>
      </trkpt>
      <trkpt lat="44.03674" lon="4.66612">
        <ele>217.29</ele>
        <time>2021-11-14T11:05:08Z</time>
      </trkpt>
      <trkpt lat="44.03673" lon="4.66614">
        <ele>217.51</ele>
        <time>2021-11-14T11:05:10Z</time>
      </trkpt>
      <trkpt lat="44.03672" lon="4.66617">
        <ele>218.36</ele>
        <time>2021-11-14T11:05:11Z</time>
      </trkpt>
      <trkpt lat="44.03663" lon="4.66665">
        <ele>215.83</ele>
        <time>2021-11-14T11:05:21Z</time>
      </trkpt>
      <trkpt lat="44.0366" lon="4.6668">
        <ele>214.23</ele>
        <time>2021-11-14T11:05:24Z</time>
      </trkpt>
      <trkpt lat="44.03657" lon="4.66692">
        <ele>210.94</ele>
        <time>2021-11-14T11:05:27Z</time>
      </trkpt>
      <trkpt lat="44.03653" lon="4.66703">
        <ele>206.88</ele>
        <time>2021-11-14T11:05:30Z</time>
      </trkpt>
      <trkpt lat="44.03649" lon="4.66711">
        <ele>205.55</ele>
        <time>2021-11-14T11:05:32Z</time>
      </trkpt>
      <trkpt lat="44.03645" lon="4.66715">
        <ele>204.83</ele>
        <time>2021-11-14T11:05:33Z</time>
      </trkpt>
      <trkpt lat="44.03642" lon="4.66718">
        <ele>204.23</ele>
        <time>2021-11-14T11:05:34Z</time>
      </trkpt>
      <trkpt lat="44.0364" lon="4.66721">
        <ele>203.89</ele>
        <time>2021-11-14T11:05:35Z</time>
      </trkpt>
      <trkpt lat="44.03638" lon="4.66724">
        <ele>203.43</ele>
        <time>2021-11-14T11:05:36Z</time>
      </trkpt>
      <trkpt lat="44.03637" lon="4.66727">
        <ele>203.69</ele>
        <time>2021-11-14T11:05:37Z</time>
      </trkpt>
      <trkpt lat="44.03634" lon="4.66734">
        <ele>206.07</ele>
        <time>2021-11-14T11:05:48Z</time>
      </trkpt>
      <trkpt lat="44.03626" lon="4.66748">
        <ele>209.39</ele>
        <time>2021-11-14T11:06:02Z</time>
      </trkpt>
      <trkpt lat="44.03622" lon="4.66761">
        <ele>212.5</ele>
        <time>2021-11-14T11:06:15Z</time>
      </trkpt>
      <trkpt lat="44.03618" lon="4.66767">
        <ele>215.3</ele>
        <time>2021-11-14T11:06:22Z</time>
      </trkpt>
      <trkpt lat="44.03617" lon="4.66767">
        <ele>213.75</ele>
        <time>2021-11-14T11:06:26Z</time>
      </trkpt>
      <trkpt lat="44.03615" lon="4.66768">
        <ele>213.55</ele>
        <time>2021-11-14T11:06:28Z</time>
      </trkpt>
      <trkpt lat="44.03614" lon="4.6677">
        <ele>213.07</ele>
        <time>2021-11-14T11:06:29Z</time>
      </trkpt>
      <trkpt lat="44.03612" lon="4.66772">
        <ele>213.84</ele>
        <time>2021-11-14T11:06:30Z</time>
      </trkpt>
      <trkpt lat="44.03611" lon="4.66774">
        <ele>213.67</ele>
        <time>2021-11-14T11:06:31Z</time>
      </trkpt>
      <trkpt lat="44.0361" lon="4.66776">
        <ele>213.36</ele>
        <time>2021-11-14T11:06:32Z</time>
      </trkpt>
      <trkpt lat="44.03609" lon="4.66778">
        <ele>213.12</ele>
        <time>2021-11-14T11:06:33Z</time>
      </trkpt>
      <trkpt lat="44.03601" lon="4.66788">
        <ele>211.94</ele>
        <time>2021-11-14T11:06:37Z</time>
      </trkpt>
      <trkpt lat="44.03598" lon="4.66793">
        <ele>211.68</ele>
        <time>2021-11-14T11:06:38Z</time>
      </trkpt>
      <trkpt lat="44.03596" lon="4.66797">
        <ele>210.58</ele>
        <time>2021-11-14T11:06:39Z</time>
      </trkpt>
      <trkpt lat="44.03595" lon="4.66801">
        <ele>209.45</ele>
        <time>2021-11-14T11:06:40Z</time>
      </trkpt>
      <trkpt lat="44.03594" lon="4.66804">
        <ele>208.84</ele>
        <time>2021-11-14T11:06:41Z</time>
      </trkpt>
      <trkpt lat="44.0359" lon="4.66821">
        <ele>205.09</ele>
        <time>2021-11-14T11:06:45Z</time>
      </trkpt>
      <trkpt lat="44.03587" lon="4.66829">
        <ele>201.89</ele>
        <time>2021-11-14T11:06:48Z</time>
      </trkpt>
      <trkpt lat="44.03586" lon="4.66832">
        <ele>200.68</ele>
        <time>2021-11-14T11:06:49Z</time>
      </trkpt>
      <trkpt lat="44.03586" lon="4.66836">
        <ele>199.62</ele>
        <time>2021-11-14T11:06:50Z</time>
      </trkpt>
      <trkpt lat="44.03585" lon="4.66839">
        <ele>198.48</ele>
        <time>2021-11-14T11:06:51Z</time>
      </trkpt>
      <trkpt lat="44.03574" lon="4.66858">
        <ele>194.67</ele>
        <time>2021-11-14T11:06:55Z</time>
      </trkpt>
      <trkpt lat="44.03572" lon="4.66862">
        <ele>194.26</ele>
        <time>2021-11-14T11:06:56Z</time>
      </trkpt>
      <trkpt lat="44.03569" lon="4.66864">
        <ele>193.73</ele>
        <time>2021-11-14T11:06:57Z</time>
      </trkpt>
      <trkpt lat="44.03567" lon="4.66868">
        <ele>193.59</ele>
        <time>2021-11-14T11:06:58Z</time>
      </trkpt>
      <trkpt lat="44.03565" lon="4.66871">
        <ele>193.41</ele>
        <time>2021-11-14T11:06:59Z</time>
      </trkpt>
      <trkpt lat="44.03564" lon="4.66874">
        <ele>193.34</ele>
        <time>2021-11-14T11:07:00Z</time>
      </trkpt>
      <trkpt lat="44.03557" lon="4.66883">
        <ele>192.9</ele>
        <time>2021-11-14T11:07:04Z</time>
      </trkpt>
      <trkpt lat="44.0353" lon="4.66895">
        <ele>191.62</ele>
        <time>2021-11-14T11:07:15Z</time>
      </trkpt>
      <trkpt lat="44.03527" lon="4.66897">
        <ele>191.39</ele>
        <time>2021-11-14T11:07:16Z</time>
      </trkpt>
      <trkpt lat="44.03525" lon="4.66899">
        <ele>191.33</ele>
        <time>2021-11-14T11:07:17Z</time>
      </trkpt>
      <trkpt lat="44.03522" lon="4.66901">
        <ele>191.11</ele>
        <time>2021-11-14T11:07:18Z</time>
      </trkpt>
      <trkpt lat="44.0352" lon="4.66902">
        <ele>190.97</ele>
        <time>2021-11-14T11:07:19Z</time>
      </trkpt>
      <trkpt lat="44.03517" lon="4.66901">
        <ele>190.92</ele>
        <time>2021-11-14T11:07:20Z</time>
      </trkpt>
      <trkpt lat="44.03515" lon="4.66899">
        <ele>190.66</ele>
        <time>2021-11-14T11:07:21Z</time>
      </trkpt>
      <trkpt lat="44.03512" lon="4.66897">
        <ele>190.09</ele>
        <time>2021-11-14T11:07:22Z</time>
      </trkpt>
      <trkpt lat="44.03508" lon="4.66897">
        <ele>189.95</ele>
        <time>2021-11-14T11:07:23Z</time>
      </trkpt>
      <trkpt lat="44.03504" lon="4.66897">
        <ele>189.57</ele>
        <time>2021-11-14T11:07:24Z</time>
      </trkpt>
      <trkpt lat="44.03501" lon="4.66899">
        <ele>189.42</ele>
        <time>2021-11-14T11:07:25Z</time>
      </trkpt>
      <trkpt lat="44.03497" lon="4.66901">
        <ele>188.94</ele>
        <time>2021-11-14T11:07:26Z</time>
      </trkpt>
      <trkpt lat="44.03494" lon="4.66903">
        <ele>189.12</ele>
        <time>2021-11-14T11:07:27Z</time>
      </trkpt>
      <trkpt lat="44.0349" lon="4.66905">
        <ele>188.36</ele>
        <time>2021-11-14T11:07:28Z</time>
      </trkpt>
      <trkpt lat="44.03481" lon="4.66908">
        <ele>187.74</ele>
        <time>2021-11-14T11:07:30Z</time>
      </trkpt>
      <trkpt lat="44.03472" lon="4.66909">
        <ele>186.03</ele>
        <time>2021-11-14T11:07:33Z</time>
      </trkpt>
      <trkpt lat="44.03471" lon="4.66908">
        <ele>185.66</ele>
        <time>2021-11-14T11:07:34Z</time>
      </trkpt>
      <trkpt lat="44.03469" lon="4.66906">
        <ele>185.56</ele>
        <time>2021-11-14T11:07:46Z</time>
      </trkpt>
      <trkpt lat="44.03468" lon="4.66903">
        <ele>185.29</ele>
        <time>2021-11-14T11:08:13Z</time>
      </trkpt>
      <trkpt lat="44.03466" lon="4.66894">
        <ele>185.09</ele>
        <time>2021-11-14T11:08:16Z</time>
      </trkpt>
      <trkpt lat="44.03465" lon="4.66892">
        <ele>184.89</ele>
        <time>2021-11-14T11:08:17Z</time>
      </trkpt>
      <trkpt lat="44.03463" lon="4.6689">
        <ele>184.48</ele>
        <time>2021-11-14T11:08:18Z</time>
      </trkpt>
      <trkpt lat="44.03462" lon="4.66887">
        <ele>184.2</ele>
        <time>2021-11-14T11:08:19Z</time>
      </trkpt>
      <trkpt lat="44.03462" lon="4.66883">
        <ele>183.64</ele>
        <time>2021-11-14T11:08:20Z</time>
      </trkpt>
      <trkpt lat="44.03462" lon="4.66879">
        <ele>183.04</ele>
        <time>2021-11-14T11:08:21Z</time>
      </trkpt>
      <trkpt lat="44.03462" lon="4.66875">
        <ele>182.36</ele>
        <time>2021-11-14T11:08:22Z</time>
      </trkpt>
      <trkpt lat="44.0346" lon="4.66871">
        <ele>181.41</ele>
        <time>2021-11-14T11:08:23Z</time>
      </trkpt>
      <trkpt lat="44.03457" lon="4.66868">
        <ele>181.02</ele>
        <time>2021-11-14T11:08:24Z</time>
      </trkpt>
      <trkpt lat="44.03454" lon="4.66866">
        <ele>179.93</ele>
        <time>2021-11-14T11:08:25Z</time>
      </trkpt>
      <trkpt lat="44.03449" lon="4.66864">
        <ele>179.56</ele>
        <time>2021-11-14T11:08:26Z</time>
      </trkpt>
      <trkpt lat="44.03444" lon="4.66862">
        <ele>178.68</ele>
        <time>2021-11-14T11:08:27Z</time>
      </trkpt>
      <trkpt lat="44.03438" lon="4.66859">
        <ele>177.17</ele>
        <time>2021-11-14T11:08:28Z</time>
      </trkpt>
      <trkpt lat="44.03432" lon="4.66857">
        <ele>176.79</ele>
        <time>2021-11-14T11:08:29Z</time>
      </trkpt>
      <trkpt lat="44.03427" lon="4.66854">
        <ele>175.74</ele>
        <time>2021-11-14T11:08:30Z</time>
      </trkpt>
      <trkpt lat="44.03422" lon="4.66851">
        <ele>174.64</ele>
        <time>2021-11-14T11:08:31Z</time>
      </trkpt>
      <trkpt lat="44.03416" lon="4.66845">
        <ele>173.81</ele>
        <time>2021-11-14T11:08:32Z</time>
      </trkpt>
      <trkpt lat="44.0341" lon="4.66839">
        <ele>172.47</ele>
        <time>2021-11-14T11:08:33Z</time>
      </trkpt>
      <trkpt lat="44.034" lon="4.66827">
        <ele>169.87</ele>
        <time>2021-11-14T11:08:35Z</time>
      </trkpt>
      <trkpt lat="44.03396" lon="4.6682">
        <ele>169.2</ele>
        <time>2021-11-14T11:08:36Z</time>
      </trkpt>
      <trkpt lat="44.03382" lon="4.66797">
        <ele>166.86</ele>
        <time>2021-11-14T11:08:39Z</time>
      </trkpt>
      <trkpt lat="44.0338" lon="4.66789">
        <ele>165.98</ele>
        <time>2021-11-14T11:08:40Z</time>
      </trkpt>
      <trkpt lat="44.03379" lon="4.66784">
        <ele>166.06</ele>
        <time>2021-11-14T11:08:41Z</time>
      </trkpt>
      <trkpt lat="44.03376" lon="4.6678">
        <ele>165.54</ele>
        <time>2021-11-14T11:08:42Z</time>
      </trkpt>
      <trkpt lat="44.03373" lon="4.66779">
        <ele>164.52</ele>
        <time>2021-11-14T11:08:43Z</time>
      </trkpt>
      <trkpt lat="44.03371" lon="4.66778">
        <ele>163.81</ele>
        <time>2021-11-14T11:08:44Z</time>
      </trkpt>
      <trkpt lat="44.03369" lon="4.66777">
        <ele>163.49</ele>
        <time>2021-11-14T11:08:45Z</time>
      </trkpt>
      <trkpt lat="44.03368" lon="4.66773">
        <ele>163.31</ele>
        <time>2021-11-14T11:08:46Z</time>
      </trkpt>
      <trkpt lat="44.03368" lon="4.66769">
        <ele>163.1</ele>
        <time>2021-11-14T11:08:47Z</time>
      </trkpt>
      <trkpt lat="44.03368" lon="4.66766">
        <ele>162.8</ele>
        <time>2021-11-14T11:08:48Z</time>
      </trkpt>
      <trkpt lat="44.03368" lon="4.66763">
        <ele>162.44</ele>
        <time>2021-11-14T11:08:49Z</time>
      </trkpt>
      <trkpt lat="44.0337" lon="4.66755">
        <ele>161.64</ele>
        <time>2021-11-14T11:09:06Z</time>
      </trkpt>
      <trkpt lat="44.0337" lon="4.6675">
        <ele>161.8</ele>
        <time>2021-11-14T11:09:15Z</time>
      </trkpt>
      <trkpt lat="44.03371" lon="4.66748">
        <ele>161.73</ele>
        <time>2021-11-14T11:09:16Z</time>
      </trkpt>
      <trkpt lat="44.03371" lon="4.66701">
        <ele>162.39</ele>
        <time>2021-11-14T11:09:33Z</time>
      </trkpt>
      <trkpt lat="44.03367" lon="4.66643">
        <ele>163.55</ele>
        <time>2021-11-14T11:09:54Z</time>
      </trkpt>
      <trkpt lat="44.03363" lon="4.66575">
        <ele>163.1</ele>
        <time>2021-11-14T11:10:18Z</time>
      </trkpt>
      <trkpt lat="44.03357" lon="4.66531">
        <ele>161.83</ele>
        <time>2021-11-14T11:10:35Z</time>
      </trkpt>
      <trkpt lat="44.03346" lon="4.66479">
        <ele>162.38</ele>
        <time>2021-11-14T11:10:55Z</time>
      </trkpt>
      <trkpt lat="44.03334" lon="4.66446">
        <ele>162.44</ele>
        <time>2021-11-14T11:11:10Z</time>
      </trkpt>
      <trkpt lat="44.03335" lon="4.66443">
        <ele>164.25</ele>
        <time>2021-11-14T11:11:16Z</time>
      </trkpt>
      <trkpt lat="44.03335" lon="4.66441">
        <ele>163.03</ele>
        <time>2021-11-14T11:12:13Z</time>
      </trkpt>
      <trkpt lat="44.03334" lon="4.66439">
        <ele>163.92</ele>
        <time>2021-11-14T11:13:08Z</time>
      </trkpt>
      <trkpt lat="44.03333" lon="4.66441">
        <ele>164.13</ele>
        <time>2021-11-14T11:14:26Z</time>
      </trkpt>
      <trkpt lat="44.03333" lon="4.66442">
        <ele>165.7</ele>
        <time>2021-11-14T11:15:45Z</time>
      </trkpt>
      <trkpt lat="44.03334" lon="4.66441">
        <ele>165.34</ele>
        <time>2021-11-14T11:16:55Z</time>
      </trkpt>
      <trkpt lat="44.03334" lon="4.6644">
        <ele>165.31</ele>
        <time>2021-11-14T11:18:02Z</time>
      </trkpt>
      <trkpt lat="44.03333" lon="4.66439">
        <ele>166.42</ele>
        <time>2021-11-14T11:19:14Z</time>
      </trkpt>
      <trkpt lat="44.03333" lon="4.66441">
        <ele>166.64</ele>
        <time>2021-11-14T11:20:33Z</time>
      </trkpt>
      <trkpt lat="44.03327" lon="4.66435">
        <ele>167.08</ele>
        <time>2021-11-14T11:20:44Z</time>
      </trkpt>
      <trkpt lat="44.03312" lon="4.66397">
        <ele>167.54</ele>
        <time>2021-11-14T11:21:00Z</time>
      </trkpt>
      <trkpt lat="44.03297" lon="4.66342">
        <ele>168.12</ele>
        <time>2021-11-14T11:21:20Z</time>
      </trkpt>
      <trkpt lat="44.03289" lon="4.66276">
        <ele>168.55</ele>
        <time>2021-11-14T11:21:41Z</time>
      </trkpt>
      <trkpt lat="44.03288" lon="4.66217">
        <ele>168.85</ele>
        <time>2021-11-14T11:22:01Z</time>
      </trkpt>
      <trkpt lat="44.03269" lon="4.66176">
        <ele>170.95</ele>
        <time>2021-11-14T11:22:18Z</time>
      </trkpt>
      <trkpt lat="44.03269" lon="4.66173">
        <ele>171.19</ele>
        <time>2021-11-14T11:22:19Z</time>
      </trkpt>
      <trkpt lat="44.03269" lon="4.6617">
        <ele>171.5</ele>
        <time>2021-11-14T11:22:20Z</time>
      </trkpt>
      <trkpt lat="44.0327" lon="4.66168">
        <ele>172.41</ele>
        <time>2021-11-14T11:22:21Z</time>
      </trkpt>
      <trkpt lat="44.03271" lon="4.66167">
        <ele>172.86</ele>
        <time>2021-11-14T11:22:22Z</time>
      </trkpt>
      <trkpt lat="44.03273" lon="4.66165">
        <ele>172.75</ele>
        <time>2021-11-14T11:22:23Z</time>
      </trkpt>
      <trkpt lat="44.03274" lon="4.66163">
        <ele>172.57</ele>
        <time>2021-11-14T11:22:24Z</time>
      </trkpt>
      <trkpt lat="44.03298" lon="4.66136">
        <ele>174.11</ele>
        <time>2021-11-14T11:22:40Z</time>
      </trkpt>
      <trkpt lat="44.03299" lon="4.66134">
        <ele>173.83</ele>
        <time>2021-11-14T11:22:41Z</time>
      </trkpt>
      <trkpt lat="44.033" lon="4.66133">
        <ele>173.9</ele>
        <time>2021-11-14T11:22:42Z</time>
      </trkpt>
      <trkpt lat="44.03302" lon="4.66131">
        <ele>174.3</ele>
        <time>2021-11-14T11:22:43Z</time>
      </trkpt>
      <trkpt lat="44.03303" lon="4.6613">
        <ele>174.2</ele>
        <time>2021-11-14T11:22:44Z</time>
      </trkpt>
      <trkpt lat="44.03304" lon="4.66128">
        <ele>173.89</ele>
        <time>2021-11-14T11:22:45Z</time>
      </trkpt>
      <trkpt lat="44.03322" lon="4.66107">
        <ele>174.95</ele>
        <time>2021-11-14T11:22:57Z</time>
      </trkpt>
      <trkpt lat="44.0334" lon="4.66078">
        <ele>174.92</ele>
        <time>2021-11-14T11:23:12Z</time>
      </trkpt>
      <trkpt lat="44.03367" lon="4.66044">
        <ele>176.58</ele>
        <time>2021-11-14T11:23:30Z</time>
      </trkpt>
      <trkpt lat="44.03397" lon="4.66006">
        <ele>176.54</ele>
        <time>2021-11-14T11:23:49Z</time>
      </trkpt>
      <trkpt lat="44.03418" lon="4.65969">
        <ele>177.4</ele>
        <time>2021-11-14T11:24:05Z</time>
      </trkpt>
      <trkpt lat="44.03431" lon="4.6593">
        <ele>180.43</ele>
        <time>2021-11-14T11:24:20Z</time>
      </trkpt>
      <trkpt lat="44.03447" lon="4.65892">
        <ele>180.76</ele>
        <time>2021-11-14T11:24:37Z</time>
      </trkpt>
      <trkpt lat="44.03474" lon="4.659">
        <ele>180.47</ele>
        <time>2021-11-14T11:24:50Z</time>
      </trkpt>
      <trkpt lat="44.03475" lon="4.65899">
        <ele>180.77</ele>
        <time>2021-11-14T11:24:51Z</time>
      </trkpt>
      <trkpt lat="44.03475" lon="4.65897">
        <ele>180.93</ele>
        <time>2021-11-14T11:24:52Z</time>
      </trkpt>
      <trkpt lat="44.03476" lon="4.65894">
        <ele>181.05</ele>
        <time>2021-11-14T11:24:53Z</time>
      </trkpt>
      <trkpt lat="44.03476" lon="4.65892">
        <ele>181.05</ele>
        <time>2021-11-14T11:24:54Z</time>
      </trkpt>
      <trkpt lat="44.03477" lon="4.65889">
        <ele>181.05</ele>
        <time>2021-11-14T11:24:55Z</time>
      </trkpt>
      <trkpt lat="44.0348" lon="4.65845">
        <ele>181.5</ele>
        <time>2021-11-14T11:25:11Z</time>
      </trkpt>
      <trkpt lat="44.03482" lon="4.65797">
        <ele>181.61</ele>
        <time>2021-11-14T11:25:28Z</time>
      </trkpt>
      <trkpt lat="44.03484" lon="4.6578">
        <ele>182.93</ele>
        <time>2021-11-14T11:25:34Z</time>
      </trkpt>
      <trkpt lat="44.03483" lon="4.65745">
        <ele>182.33</ele>
        <time>2021-11-14T11:25:48Z</time>
      </trkpt>
      <trkpt lat="44.03481" lon="4.65707">
        <ele>183.32</ele>
        <time>2021-11-14T11:26:03Z</time>
      </trkpt>
      <trkpt lat="44.03478" lon="4.65661">
        <ele>185.48</ele>
        <time>2021-11-14T11:26:20Z</time>
      </trkpt>
      <trkpt lat="44.03482" lon="4.65616">
        <ele>186.95</ele>
        <time>2021-11-14T11:26:37Z</time>
      </trkpt>
      <trkpt lat="44.03482" lon="4.65577">
        <ele>187.64</ele>
        <time>2021-11-14T11:26:51Z</time>
      </trkpt>
      <trkpt lat="44.03481" lon="4.65554">
        <ele>187.8</ele>
        <time>2021-11-14T11:27:01Z</time>
      </trkpt>
      <trkpt lat="44.0348" lon="4.65552">
        <ele>187.85</ele>
        <time>2021-11-14T11:27:02Z</time>
      </trkpt>
      <trkpt lat="44.03479" lon="4.65549">
        <ele>187.87</ele>
        <time>2021-11-14T11:27:03Z</time>
      </trkpt>
      <trkpt lat="44.03478" lon="4.65547">
        <ele>187.91</ele>
        <time>2021-11-14T11:27:04Z</time>
      </trkpt>
      <trkpt lat="44.03478" lon="4.65545">
        <ele>187.9</ele>
        <time>2021-11-14T11:27:05Z</time>
      </trkpt>
      <trkpt lat="44.03473" lon="4.65505">
        <ele>188.71</ele>
        <time>2021-11-14T11:27:20Z</time>
      </trkpt>
      <trkpt lat="44.03486" lon="4.65466">
        <ele>189.82</ele>
        <time>2021-11-14T11:27:35Z</time>
      </trkpt>
      <trkpt lat="44.03511" lon="4.65434">
        <ele>190.35</ele>
        <time>2021-11-14T11:27:52Z</time>
      </trkpt>
      <trkpt lat="44.03534" lon="4.65415">
        <ele>191.15</ele>
        <time>2021-11-14T11:28:06Z</time>
      </trkpt>
      <trkpt lat="44.03548" lon="4.65384">
        <ele>191.68</ele>
        <time>2021-11-14T11:28:19Z</time>
      </trkpt>
      <trkpt lat="44.03545" lon="4.65351">
        <ele>191.69</ele>
        <time>2021-11-14T11:28:32Z</time>
      </trkpt>
      <trkpt lat="44.03544" lon="4.65349">
        <ele>191.75</ele>
        <time>2021-11-14T11:28:33Z</time>
      </trkpt>
      <trkpt lat="44.03543" lon="4.65347">
        <ele>191.63</ele>
        <time>2021-11-14T11:28:34Z</time>
      </trkpt>
      <trkpt lat="44.03542" lon="4.65345">
        <ele>191.69</ele>
        <time>2021-11-14T11:28:35Z</time>
      </trkpt>
      <trkpt lat="44.03541" lon="4.65342">
        <ele>191.8</ele>
        <time>2021-11-14T11:28:36Z</time>
      </trkpt>
      <trkpt lat="44.0354" lon="4.6534">
        <ele>191.83</ele>
        <time>2021-11-14T11:28:37Z</time>
      </trkpt>
      <trkpt lat="44.03527" lon="4.65311">
        <ele>192.41</ele>
        <time>2021-11-14T11:28:50Z</time>
      </trkpt>
      <trkpt lat="44.03524" lon="4.65272">
        <ele>194.01</ele>
        <time>2021-11-14T11:29:05Z</time>
      </trkpt>
      <trkpt lat="44.03535" lon="4.65242">
        <ele>194.78</ele>
        <time>2021-11-14T11:29:19Z</time>
      </trkpt>
      <trkpt lat="44.03553" lon="4.65217">
        <ele>196.36</ele>
        <time>2021-11-14T11:29:34Z</time>
      </trkpt>
      <trkpt lat="44.03567" lon="4.65196">
        <ele>196.51</ele>
        <time>2021-11-14T11:29:45Z</time>
      </trkpt>
      <trkpt lat="44.03568" lon="4.65194">
        <ele>196.73</ele>
        <time>2021-11-14T11:29:46Z</time>
      </trkpt>
      <trkpt lat="44.03569" lon="4.65193">
        <ele>197</ele>
        <time>2021-11-14T11:29:47Z</time>
      </trkpt>
      <trkpt lat="44.0357" lon="4.65191">
        <ele>197.21</ele>
        <time>2021-11-14T11:29:48Z</time>
      </trkpt>
      <trkpt lat="44.03572" lon="4.6519">
        <ele>197.36</ele>
        <time>2021-11-14T11:29:49Z</time>
      </trkpt>
      <trkpt lat="44.03573" lon="4.65188">
        <ele>197.43</ele>
        <time>2021-11-14T11:29:50Z</time>
      </trkpt>
      <trkpt lat="44.03574" lon="4.65187">
        <ele>197.37</ele>
        <time>2021-11-14T11:29:51Z</time>
      </trkpt>
      <trkpt lat="44.03576" lon="4.65185">
        <ele>197.57</ele>
        <time>2021-11-14T11:29:52Z</time>
      </trkpt>
      <trkpt lat="44.03599" lon="4.65156">
        <ele>198.86</ele>
        <time>2021-11-14T11:30:08Z</time>
      </trkpt>
      <trkpt lat="44.03604" lon="4.65146">
        <ele>199.33</ele>
        <time>2021-11-14T11:30:13Z</time>
      </trkpt>
      <trkpt lat="44.03605" lon="4.65144">
        <ele>199.39</ele>
        <time>2021-11-14T11:30:14Z</time>
      </trkpt>
      <trkpt lat="44.03606" lon="4.65141">
        <ele>199.53</ele>
        <time>2021-11-14T11:30:15Z</time>
      </trkpt>
      <trkpt lat="44.03606" lon="4.65139">
        <ele>199.72</ele>
        <time>2021-11-14T11:30:16Z</time>
      </trkpt>
      <trkpt lat="44.03607" lon="4.65136">
        <ele>199.65</ele>
        <time>2021-11-14T11:30:17Z</time>
      </trkpt>
      <trkpt lat="44.03607" lon="4.65133">
        <ele>199.64</ele>
        <time>2021-11-14T11:30:18Z</time>
      </trkpt>
      <trkpt lat="44.03607" lon="4.65131">
        <ele>199.84</ele>
        <time>2021-11-14T11:30:19Z</time>
      </trkpt>
      <trkpt lat="44.03606" lon="4.65102">
        <ele>200.41</ele>
        <time>2021-11-14T11:30:32Z</time>
      </trkpt>
      <trkpt lat="44.03605" lon="4.651">
        <ele>200.43</ele>
        <time>2021-11-14T11:30:33Z</time>
      </trkpt>
      <trkpt lat="44.03605" lon="4.65097">
        <ele>200.47</ele>
        <time>2021-11-14T11:30:34Z</time>
      </trkpt>
      <trkpt lat="44.03604" lon="4.65094">
        <ele>200.29</ele>
        <time>2021-11-14T11:30:35Z</time>
      </trkpt>
      <trkpt lat="44.03604" lon="4.65092">
        <ele>200.43</ele>
        <time>2021-11-14T11:30:36Z</time>
      </trkpt>
      <trkpt lat="44.03603" lon="4.65089">
        <ele>200.31</ele>
        <time>2021-11-14T11:30:37Z</time>
      </trkpt>
      <trkpt lat="44.03603" lon="4.65087">
        <ele>200.61</ele>
        <time>2021-11-14T11:30:38Z</time>
      </trkpt>
      <trkpt lat="44.03602" lon="4.65084">
        <ele>200.46</ele>
        <time>2021-11-14T11:30:39Z</time>
      </trkpt>
      <trkpt lat="44.03602" lon="4.65082">
        <ele>200.4</ele>
        <time>2021-11-14T11:30:40Z</time>
      </trkpt>
      <trkpt lat="44.03601" lon="4.6508">
        <ele>200.45</ele>
        <time>2021-11-14T11:30:41Z</time>
      </trkpt>
      <trkpt lat="44.03594" lon="4.65049">
        <ele>201.17</ele>
        <time>2021-11-14T11:30:53Z</time>
      </trkpt>
      <trkpt lat="44.03588" lon="4.65029">
        <ele>202.19</ele>
        <time>2021-11-14T11:31:01Z</time>
      </trkpt>
      <trkpt lat="44.03589" lon="4.65026">
        <ele>202.35</ele>
        <time>2021-11-14T11:31:02Z</time>
      </trkpt>
      <trkpt lat="44.0359" lon="4.65025">
        <ele>202.27</ele>
        <time>2021-11-14T11:31:03Z</time>
      </trkpt>
      <trkpt lat="44.03592" lon="4.65024">
        <ele>202.35</ele>
        <time>2021-11-14T11:31:04Z</time>
      </trkpt>
      <trkpt lat="44.03593" lon="4.65023">
        <ele>202.44</ele>
        <time>2021-11-14T11:31:05Z</time>
      </trkpt>
      <trkpt lat="44.03595" lon="4.65022">
        <ele>202.56</ele>
        <time>2021-11-14T11:31:06Z</time>
      </trkpt>
      <trkpt lat="44.03596" lon="4.6502">
        <ele>202.68</ele>
        <time>2021-11-14T11:31:07Z</time>
      </trkpt>
      <trkpt lat="44.03622" lon="4.64995">
        <ele>204.68</ele>
        <time>2021-11-14T11:31:24Z</time>
      </trkpt>
      <trkpt lat="44.03649" lon="4.6498">
        <ele>205.36</ele>
        <time>2021-11-14T11:31:39Z</time>
      </trkpt>
      <trkpt lat="44.03675" lon="4.64968">
        <ele>206.81</ele>
        <time>2021-11-14T11:31:53Z</time>
      </trkpt>
      <trkpt lat="44.0369" lon="4.64946">
        <ele>208.6</ele>
        <time>2021-11-14T11:32:04Z</time>
      </trkpt>
      <trkpt lat="44.03704" lon="4.64918">
        <ele>209.65</ele>
        <time>2021-11-14T11:32:17Z</time>
      </trkpt>
      <trkpt lat="44.0372" lon="4.64896">
        <ele>211</ele>
        <time>2021-11-14T11:32:29Z</time>
      </trkpt>
      <trkpt lat="44.03721" lon="4.64894">
        <ele>211</ele>
        <time>2021-11-14T11:32:30Z</time>
      </trkpt>
      <trkpt lat="44.03744" lon="4.64864">
        <ele>212.74</ele>
        <time>2021-11-14T11:32:46Z</time>
      </trkpt>
      <trkpt lat="44.03764" lon="4.64849">
        <ele>214.96</ele>
        <time>2021-11-14T11:33:01Z</time>
      </trkpt>
      <trkpt lat="44.03784" lon="4.64854">
        <ele>217.61</ele>
        <time>2021-11-14T11:33:17Z</time>
      </trkpt>
      <trkpt lat="44.03799" lon="4.64858">
        <ele>220.43</ele>
        <time>2021-11-14T11:33:28Z</time>
      </trkpt>
      <trkpt lat="44.03801" lon="4.64858">
        <ele>220.68</ele>
        <time>2021-11-14T11:33:29Z</time>
      </trkpt>
      <trkpt lat="44.03802" lon="4.64858">
        <ele>221.01</ele>
        <time>2021-11-14T11:33:30Z</time>
      </trkpt>
      <trkpt lat="44.03805" lon="4.64859">
        <ele>221.3</ele>
        <time>2021-11-14T11:33:32Z</time>
      </trkpt>
      <trkpt lat="44.03806" lon="4.6486">
        <ele>221.26</ele>
        <time>2021-11-14T11:33:33Z</time>
      </trkpt>
      <trkpt lat="44.03807" lon="4.6486">
        <ele>221.11</ele>
        <time>2021-11-14T11:33:34Z</time>
      </trkpt>
      <trkpt lat="44.03814" lon="4.6486">
        <ele>221.91</ele>
        <time>2021-11-14T11:33:39Z</time>
      </trkpt>
      <trkpt lat="44.03815" lon="4.64859">
        <ele>222.23</ele>
        <time>2021-11-14T11:33:40Z</time>
      </trkpt>
      <trkpt lat="44.03817" lon="4.64859">
        <ele>222.58</ele>
        <time>2021-11-14T11:33:41Z</time>
      </trkpt>
      <trkpt lat="44.03818" lon="4.64859">
        <ele>222.96</ele>
        <time>2021-11-14T11:33:42Z</time>
      </trkpt>
      <trkpt lat="44.0382" lon="4.64858">
        <ele>223.41</ele>
        <time>2021-11-14T11:33:43Z</time>
      </trkpt>
      <trkpt lat="44.03826" lon="4.64858">
        <ele>222.78</ele>
        <time>2021-11-14T11:33:48Z</time>
      </trkpt>
      <trkpt lat="44.03828" lon="4.64859">
        <ele>223.46</ele>
        <time>2021-11-14T11:33:49Z</time>
      </trkpt>
      <trkpt lat="44.03829" lon="4.64859">
        <ele>223.78</ele>
        <time>2021-11-14T11:33:50Z</time>
      </trkpt>
      <trkpt lat="44.03837" lon="4.6486">
        <ele>224.96</ele>
        <time>2021-11-14T11:33:56Z</time>
      </trkpt>
      <trkpt lat="44.03838" lon="4.6486">
        <ele>225.2</ele>
        <time>2021-11-14T11:33:57Z</time>
      </trkpt>
      <trkpt lat="44.03839" lon="4.6486">
        <ele>225.53</ele>
        <time>2021-11-14T11:33:58Z</time>
      </trkpt>
      <trkpt lat="44.0386" lon="4.64865">
        <ele>228.37</ele>
        <time>2021-11-14T11:34:14Z</time>
      </trkpt>
      <trkpt lat="44.03878" lon="4.6486">
        <ele>230.89</ele>
        <time>2021-11-14T11:34:29Z</time>
      </trkpt>
      <trkpt lat="44.03888" lon="4.64854">
        <ele>231.13</ele>
        <time>2021-11-14T11:34:44Z</time>
      </trkpt>
      <trkpt lat="44.0389" lon="4.64856">
        <ele>231.19</ele>
        <time>2021-11-14T11:35:57Z</time>
      </trkpt>
      <trkpt lat="44.03892" lon="4.64858">
        <ele>231.28</ele>
        <time>2021-11-14T11:36:58Z</time>
      </trkpt>
      <trkpt lat="44.03892" lon="4.64857">
        <ele>232.8</ele>
        <time>2021-11-14T11:37:09Z</time>
      </trkpt>
      <trkpt lat="44.03902" lon="4.64851">
        <ele>233.32</ele>
        <time>2021-11-14T11:37:23Z</time>
      </trkpt>
      <trkpt lat="44.0391" lon="4.64848">
        <ele>234.65</ele>
        <time>2021-11-14T11:37:30Z</time>
      </trkpt>
      <trkpt lat="44.0392" lon="4.64844">
        <ele>236.64</ele>
        <time>2021-11-14T11:37:39Z</time>
      </trkpt>
      <trkpt lat="44.03922" lon="4.64843">
        <ele>237.16</ele>
        <time>2021-11-14T11:37:41Z</time>
      </trkpt>
      <trkpt lat="44.03923" lon="4.64843">
        <ele>237.45</ele>
        <time>2021-11-14T11:37:42Z</time>
      </trkpt>
      <trkpt lat="44.03929" lon="4.6484">
        <ele>238.1</ele>
        <time>2021-11-14T11:37:47Z</time>
      </trkpt>
      <trkpt lat="44.03936" lon="4.64834">
        <ele>238.28</ele>
        <time>2021-11-14T11:37:58Z</time>
      </trkpt>
      <trkpt lat="44.0394" lon="4.6483">
        <ele>241.35</ele>
        <time>2021-11-14T11:38:05Z</time>
      </trkpt>
      <trkpt lat="44.03945" lon="4.64823">
        <ele>240.61</ele>
        <time>2021-11-14T11:38:18Z</time>
      </trkpt>
      <trkpt lat="44.03949" lon="4.64806">
        <ele>242.18</ele>
        <time>2021-11-14T11:38:28Z</time>
      </trkpt>
      <trkpt lat="44.0395" lon="4.64799">
        <ele>242.72</ele>
        <time>2021-11-14T11:38:40Z</time>
      </trkpt>
      <trkpt lat="44.0395" lon="4.64793">
        <ele>243.59</ele>
        <time>2021-11-14T11:38:53Z</time>
      </trkpt>
      <trkpt lat="44.03949" lon="4.64783">
        <ele>243.56</ele>
        <time>2021-11-14T11:38:58Z</time>
      </trkpt>
      <trkpt lat="44.03948" lon="4.64781">
        <ele>243.6</ele>
        <time>2021-11-14T11:38:59Z</time>
      </trkpt>
      <trkpt lat="44.03947" lon="4.64767">
        <ele>244.36</ele>
        <time>2021-11-14T11:39:07Z</time>
      </trkpt>
      <trkpt lat="44.03947" lon="4.64765">
        <ele>244.41</ele>
        <time>2021-11-14T11:39:08Z</time>
      </trkpt>
      <trkpt lat="44.03948" lon="4.64737">
        <ele>247.48</ele>
        <time>2021-11-14T11:39:24Z</time>
      </trkpt>
      <trkpt lat="44.03949" lon="4.64723">
        <ele>250.71</ele>
        <time>2021-11-14T11:39:32Z</time>
      </trkpt>
      <trkpt lat="44.03949" lon="4.64721">
        <ele>250.46</ele>
        <time>2021-11-14T11:39:33Z</time>
      </trkpt>
      <trkpt lat="44.03949" lon="4.64715">
        <ele>249.08</ele>
        <time>2021-11-14T11:39:36Z</time>
      </trkpt>
      <trkpt lat="44.03949" lon="4.64714">
        <ele>248.97</ele>
        <time>2021-11-14T11:39:37Z</time>
      </trkpt>
      <trkpt lat="44.03949" lon="4.64712">
        <ele>249.25</ele>
        <time>2021-11-14T11:39:38Z</time>
      </trkpt>
      <trkpt lat="44.0395" lon="4.64673">
        <ele>248.98</ele>
        <time>2021-11-14T11:39:55Z</time>
      </trkpt>
      <trkpt lat="44.03955" lon="4.64617">
        <ele>248.23</ele>
        <time>2021-11-14T11:40:09Z</time>
      </trkpt>
      <trkpt lat="44.03971" lon="4.64554">
        <ele>247.18</ele>
        <time>2021-11-14T11:40:27Z</time>
      </trkpt>
      <trkpt lat="44.03963" lon="4.64527">
        <ele>246.06</ele>
        <time>2021-11-14T11:40:35Z</time>
      </trkpt>
      <trkpt lat="44.03959" lon="4.64526">
        <ele>245.82</ele>
        <time>2021-11-14T11:40:36Z</time>
      </trkpt>
      <trkpt lat="44.03955" lon="4.64525">
        <ele>245.73</ele>
        <time>2021-11-14T11:40:37Z</time>
      </trkpt>
      <trkpt lat="44.03927" lon="4.64505">
        <ele>245.59</ele>
        <time>2021-11-14T11:40:49Z</time>
      </trkpt>
      <trkpt lat="44.03908" lon="4.64485">
        <ele>248.77</ele>
        <time>2021-11-14T11:41:04Z</time>
      </trkpt>
      <trkpt lat="44.03895" lon="4.64468">
        <ele>251.03</ele>
        <time>2021-11-14T11:41:18Z</time>
      </trkpt>
      <trkpt lat="44.03885" lon="4.64445">
        <ele>253.16</ele>
        <time>2021-11-14T11:41:34Z</time>
      </trkpt>
      <trkpt lat="44.03884" lon="4.64444">
        <ele>253.28</ele>
        <time>2021-11-14T11:41:35Z</time>
      </trkpt>
      <trkpt lat="44.03883" lon="4.64442">
        <ele>253.43</ele>
        <time>2021-11-14T11:41:36Z</time>
      </trkpt>
      <trkpt lat="44.03883" lon="4.6444">
        <ele>253.68</ele>
        <time>2021-11-14T11:41:37Z</time>
      </trkpt>
      <trkpt lat="44.03882" lon="4.64439">
        <ele>253.88</ele>
        <time>2021-11-14T11:41:38Z</time>
      </trkpt>
      <trkpt lat="44.03881" lon="4.64437">
        <ele>254.2</ele>
        <time>2021-11-14T11:41:39Z</time>
      </trkpt>
      <trkpt lat="44.03881" lon="4.64435">
        <ele>254.37</ele>
        <time>2021-11-14T11:41:40Z</time>
      </trkpt>
      <trkpt lat="44.03873" lon="4.64403">
        <ele>256.78</ele>
        <time>2021-11-14T11:41:59Z</time>
      </trkpt>
      <trkpt lat="44.03851" lon="4.64382">
        <ele>258.2</ele>
        <time>2021-11-14T11:42:18Z</time>
      </trkpt>
      <trkpt lat="44.03827" lon="4.64378">
        <ele>258.63</ele>
        <time>2021-11-14T11:42:34Z</time>
      </trkpt>
      <trkpt lat="44.03809" lon="4.64386">
        <ele>257.44</ele>
        <time>2021-11-14T11:43:55Z</time>
      </trkpt>
      <trkpt lat="44.03808" lon="4.64387">
        <ele>257.59</ele>
        <time>2021-11-14T11:43:56Z</time>
      </trkpt>
      <trkpt lat="44.03807" lon="4.64388">
        <ele>257.75</ele>
        <time>2021-11-14T11:43:57Z</time>
      </trkpt>
      <trkpt lat="44.03803" lon="4.6439">
        <ele>257.98</ele>
        <time>2021-11-14T11:44:00Z</time>
      </trkpt>
      <trkpt lat="44.03801" lon="4.64389">
        <ele>258.03</ele>
        <time>2021-11-14T11:44:01Z</time>
      </trkpt>
      <trkpt lat="44.03799" lon="4.64388">
        <ele>258.03</ele>
        <time>2021-11-14T11:44:02Z</time>
      </trkpt>
      <trkpt lat="44.03797" lon="4.64388">
        <ele>257.63</ele>
        <time>2021-11-14T11:44:03Z</time>
      </trkpt>
      <trkpt lat="44.03795" lon="4.64388">
        <ele>257.17</ele>
        <time>2021-11-14T11:44:04Z</time>
      </trkpt>
      <trkpt lat="44.03777" lon="4.64396">
        <ele>254.76</ele>
        <time>2021-11-14T11:44:12Z</time>
      </trkpt>
      <trkpt lat="44.03775" lon="4.64396">
        <ele>254.39</ele>
        <time>2021-11-14T11:44:13Z</time>
      </trkpt>
      <trkpt lat="44.03763" lon="4.644">
        <ele>253.66</ele>
        <time>2021-11-14T11:44:23Z</time>
      </trkpt>
      <trkpt lat="44.03754" lon="4.64402">
        <ele>252.52</ele>
        <time>2021-11-14T11:44:29Z</time>
      </trkpt>
      <trkpt lat="44.03752" lon="4.64402">
        <ele>252.34</ele>
        <time>2021-11-14T11:44:30Z</time>
      </trkpt>
      <trkpt lat="44.03743" lon="4.64406">
        <ele>250.33</ele>
        <time>2021-11-14T11:44:34Z</time>
      </trkpt>
      <trkpt lat="44.03742" lon="4.64408">
        <ele>249.99</ele>
        <time>2021-11-14T11:44:35Z</time>
      </trkpt>
      <trkpt lat="44.03741" lon="4.6441">
        <ele>249.57</ele>
        <time>2021-11-14T11:44:37Z</time>
      </trkpt>
      <trkpt lat="44.03739" lon="4.64412">
        <ele>249.43</ele>
        <time>2021-11-14T11:44:38Z</time>
      </trkpt>
      <trkpt lat="44.03734" lon="4.64415">
        <ele>248.65</ele>
        <time>2021-11-14T11:44:43Z</time>
      </trkpt>
      <trkpt lat="44.0373" lon="4.64411">
        <ele>248.79</ele>
        <time>2021-11-14T11:44:46Z</time>
      </trkpt>
      <trkpt lat="44.0372" lon="4.6441">
        <ele>248.97</ele>
        <time>2021-11-14T11:45:01Z</time>
      </trkpt>
      <trkpt lat="44.03701" lon="4.64416">
        <ele>249.88</ele>
        <time>2021-11-14T11:45:11Z</time>
      </trkpt>
      <trkpt lat="44.03694" lon="4.64415">
        <ele>250.9</ele>
        <time>2021-11-14T11:45:15Z</time>
      </trkpt>
      <trkpt lat="44.03693" lon="4.64416">
        <ele>251.23</ele>
        <time>2021-11-14T11:45:16Z</time>
      </trkpt>
      <trkpt lat="44.03691" lon="4.64417">
        <ele>251.3</ele>
        <time>2021-11-14T11:45:17Z</time>
      </trkpt>
      <trkpt lat="44.03689" lon="4.64417">
        <ele>251.7</ele>
        <time>2021-11-14T11:45:18Z</time>
      </trkpt>
      <trkpt lat="44.03687" lon="4.64418">
        <ele>251.75</ele>
        <time>2021-11-14T11:45:19Z</time>
      </trkpt>
      <trkpt lat="44.03685" lon="4.64418">
        <ele>251.81</ele>
        <time>2021-11-14T11:45:20Z</time>
      </trkpt>
      <trkpt lat="44.03684" lon="4.64419">
        <ele>252.08</ele>
        <time>2021-11-14T11:45:21Z</time>
      </trkpt>
      <trkpt lat="44.03682" lon="4.64419">
        <ele>252.29</ele>
        <time>2021-11-14T11:45:22Z</time>
      </trkpt>
      <trkpt lat="44.03662" lon="4.64425">
        <ele>254.38</ele>
        <time>2021-11-14T11:45:35Z</time>
      </trkpt>
      <trkpt lat="44.03653" lon="4.6443">
        <ele>254.34</ele>
        <time>2021-11-14T11:45:40Z</time>
      </trkpt>
      <trkpt lat="44.03651" lon="4.6443">
        <ele>254.25</ele>
        <time>2021-11-14T11:45:41Z</time>
      </trkpt>
      <trkpt lat="44.03639" lon="4.64432">
        <ele>254.47</ele>
        <time>2021-11-14T11:45:47Z</time>
      </trkpt>
      <trkpt lat="44.03638" lon="4.64433">
        <ele>254.7</ele>
        <time>2021-11-14T11:45:48Z</time>
      </trkpt>
      <trkpt lat="44.03636" lon="4.64437">
        <ele>254.63</ele>
        <time>2021-11-14T11:45:51Z</time>
      </trkpt>
      <trkpt lat="44.03635" lon="4.64438">
        <ele>254.7</ele>
        <time>2021-11-14T11:45:52Z</time>
      </trkpt>
      <trkpt lat="44.03633" lon="4.64437">
        <ele>254.5</ele>
        <time>2021-11-14T11:45:53Z</time>
      </trkpt>
      <trkpt lat="44.03631" lon="4.64437">
        <ele>254.44</ele>
        <time>2021-11-14T11:45:54Z</time>
      </trkpt>
      <trkpt lat="44.0363" lon="4.64438">
        <ele>254.12</ele>
        <time>2021-11-14T11:45:55Z</time>
      </trkpt>
      <trkpt lat="44.03628" lon="4.64438">
        <ele>254.05</ele>
        <time>2021-11-14T11:45:56Z</time>
      </trkpt>
      <trkpt lat="44.03627" lon="4.6444">
        <ele>253.94</ele>
        <time>2021-11-14T11:45:57Z</time>
      </trkpt>
      <trkpt lat="44.03625" lon="4.64441">
        <ele>253.68</ele>
        <time>2021-11-14T11:45:58Z</time>
      </trkpt>
      <trkpt lat="44.03622" lon="4.64445">
        <ele>253.57</ele>
        <time>2021-11-14T11:46:00Z</time>
      </trkpt>
      <trkpt lat="44.03619" lon="4.64452">
        <ele>253.5</ele>
        <time>2021-11-14T11:46:03Z</time>
      </trkpt>
      <trkpt lat="44.03617" lon="4.64453">
        <ele>253.57</ele>
        <time>2021-11-14T11:46:04Z</time>
      </trkpt>
      <trkpt lat="44.03615" lon="4.64454">
        <ele>253.56</ele>
        <time>2021-11-14T11:46:05Z</time>
      </trkpt>
      <trkpt lat="44.03612" lon="4.64455">
        <ele>253.79</ele>
        <time>2021-11-14T11:46:06Z</time>
      </trkpt>
      <trkpt lat="44.0361" lon="4.64456">
        <ele>253.9</ele>
        <time>2021-11-14T11:46:07Z</time>
      </trkpt>
      <trkpt lat="44.03602" lon="4.64462">
        <ele>253.27</ele>
        <time>2021-11-14T11:46:11Z</time>
      </trkpt>
      <trkpt lat="44.03601" lon="4.64463">
        <ele>253.26</ele>
        <time>2021-11-14T11:46:12Z</time>
      </trkpt>
      <trkpt lat="44.03592" lon="4.6447">
        <ele>251.82</ele>
        <time>2021-11-14T11:46:17Z</time>
      </trkpt>
      <trkpt lat="44.0359" lon="4.64469">
        <ele>251.41</ele>
        <time>2021-11-14T11:46:18Z</time>
      </trkpt>
      <trkpt lat="44.03589" lon="4.64468">
        <ele>251.1</ele>
        <time>2021-11-14T11:46:19Z</time>
      </trkpt>
      <trkpt lat="44.03588" lon="4.64467">
        <ele>250.86</ele>
        <time>2021-11-14T11:46:20Z</time>
      </trkpt>
      <trkpt lat="44.03585" lon="4.64467">
        <ele>250.69</ele>
        <time>2021-11-14T11:46:21Z</time>
      </trkpt>
      <trkpt lat="44.03583" lon="4.64467">
        <ele>250.51</ele>
        <time>2021-11-14T11:46:22Z</time>
      </trkpt>
      <trkpt lat="44.03581" lon="4.64467">
        <ele>250.43</ele>
        <time>2021-11-14T11:46:23Z</time>
      </trkpt>
      <trkpt lat="44.03579" lon="4.64468">
        <ele>250.09</ele>
        <time>2021-11-14T11:46:24Z</time>
      </trkpt>
      <trkpt lat="44.03577" lon="4.6447">
        <ele>249.8</ele>
        <time>2021-11-14T11:46:25Z</time>
      </trkpt>
      <trkpt lat="44.03574" lon="4.64471">
        <ele>249.21</ele>
        <time>2021-11-14T11:46:26Z</time>
      </trkpt>
      <trkpt lat="44.03572" lon="4.64473">
        <ele>248.68</ele>
        <time>2021-11-14T11:46:27Z</time>
      </trkpt>
      <trkpt lat="44.03569" lon="4.64476">
        <ele>248.1</ele>
        <time>2021-11-14T11:46:28Z</time>
      </trkpt>
      <trkpt lat="44.03566" lon="4.64477">
        <ele>247.63</ele>
        <time>2021-11-14T11:46:29Z</time>
      </trkpt>
      <trkpt lat="44.03564" lon="4.64479">
        <ele>247.03</ele>
        <time>2021-11-14T11:46:30Z</time>
      </trkpt>
      <trkpt lat="44.0355" lon="4.64489">
        <ele>243.88</ele>
        <time>2021-11-14T11:46:36Z</time>
      </trkpt>
      <trkpt lat="44.03542" lon="4.64495">
        <ele>241.7</ele>
        <time>2021-11-14T11:46:40Z</time>
      </trkpt>
      <trkpt lat="44.03541" lon="4.64496">
        <ele>241.31</ele>
        <time>2021-11-14T11:46:41Z</time>
      </trkpt>
      <trkpt lat="44.03536" lon="4.64498">
        <ele>240.47</ele>
        <time>2021-11-14T11:46:44Z</time>
      </trkpt>
      <trkpt lat="44.03535" lon="4.64499">
        <ele>240.18</ele>
        <time>2021-11-14T11:46:45Z</time>
      </trkpt>
      <trkpt lat="44.03533" lon="4.64501">
        <ele>240.43</ele>
        <time>2021-11-14T11:46:46Z</time>
      </trkpt>
      <trkpt lat="44.03526" lon="4.64506">
        <ele>241.56</ele>
        <time>2021-11-14T11:46:53Z</time>
      </trkpt>
      <trkpt lat="44.03524" lon="4.64508">
        <ele>241.44</ele>
        <time>2021-11-14T11:46:54Z</time>
      </trkpt>
      <trkpt lat="44.03522" lon="4.64509">
        <ele>241.22</ele>
        <time>2021-11-14T11:46:55Z</time>
      </trkpt>
      <trkpt lat="44.03511" lon="4.64518">
        <ele>240.18</ele>
        <time>2021-11-14T11:47:01Z</time>
      </trkpt>
      <trkpt lat="44.03508" lon="4.6452">
        <ele>239.78</ele>
        <time>2021-11-14T11:47:04Z</time>
      </trkpt>
      <trkpt lat="44.03506" lon="4.6452">
        <ele>239.51</ele>
        <time>2021-11-14T11:47:05Z</time>
      </trkpt>
      <trkpt lat="44.03503" lon="4.64521">
        <ele>239.21</ele>
        <time>2021-11-14T11:47:06Z</time>
      </trkpt>
      <trkpt lat="44.035" lon="4.64522">
        <ele>238.86</ele>
        <time>2021-11-14T11:47:07Z</time>
      </trkpt>
      <trkpt lat="44.03498" lon="4.64522">
        <ele>238.53</ele>
        <time>2021-11-14T11:47:08Z</time>
      </trkpt>
      <trkpt lat="44.03496" lon="4.64523">
        <ele>238.35</ele>
        <time>2021-11-14T11:47:09Z</time>
      </trkpt>
      <trkpt lat="44.03494" lon="4.64523">
        <ele>238.3</ele>
        <time>2021-11-14T11:47:10Z</time>
      </trkpt>
      <trkpt lat="44.03492" lon="4.64523">
        <ele>237.69</ele>
        <time>2021-11-14T11:47:11Z</time>
      </trkpt>
      <trkpt lat="44.03489" lon="4.64523">
        <ele>237.24</ele>
        <time>2021-11-14T11:47:12Z</time>
      </trkpt>
      <trkpt lat="44.03486" lon="4.64524">
        <ele>236.77</ele>
        <time>2021-11-14T11:47:13Z</time>
      </trkpt>
      <trkpt lat="44.03484" lon="4.64525">
        <ele>236.65</ele>
        <time>2021-11-14T11:47:14Z</time>
      </trkpt>
      <trkpt lat="44.03481" lon="4.64526">
        <ele>236.23</ele>
        <time>2021-11-14T11:47:15Z</time>
      </trkpt>
      <trkpt lat="44.03478" lon="4.64526">
        <ele>235.94</ele>
        <time>2021-11-14T11:47:16Z</time>
      </trkpt>
      <trkpt lat="44.03475" lon="4.64528">
        <ele>235.15</ele>
        <time>2021-11-14T11:47:17Z</time>
      </trkpt>
      <trkpt lat="44.03472" lon="4.64529">
        <ele>235.14</ele>
        <time>2021-11-14T11:47:18Z</time>
      </trkpt>
      <trkpt lat="44.0347" lon="4.6453">
        <ele>234.56</ele>
        <time>2021-11-14T11:47:19Z</time>
      </trkpt>
      <trkpt lat="44.03468" lon="4.64532">
        <ele>234.34</ele>
        <time>2021-11-14T11:47:20Z</time>
      </trkpt>
      <trkpt lat="44.03466" lon="4.64533">
        <ele>233.92</ele>
        <time>2021-11-14T11:47:21Z</time>
      </trkpt>
      <trkpt lat="44.03457" lon="4.64543">
        <ele>230.77</ele>
        <time>2021-11-14T11:47:27Z</time>
      </trkpt>
      <trkpt lat="44.03456" lon="4.64545">
        <ele>230.32</ele>
        <time>2021-11-14T11:47:28Z</time>
      </trkpt>
      <trkpt lat="44.03455" lon="4.64546">
        <ele>229.77</ele>
        <time>2021-11-14T11:47:29Z</time>
      </trkpt>
      <trkpt lat="44.03455" lon="4.64548">
        <ele>229.57</ele>
        <time>2021-11-14T11:47:30Z</time>
      </trkpt>
      <trkpt lat="44.0345" lon="4.64552">
        <ele>227.61</ele>
        <time>2021-11-14T11:47:35Z</time>
      </trkpt>
      <trkpt lat="44.03446" lon="4.64559">
        <ele>223.99</ele>
        <time>2021-11-14T11:47:41Z</time>
      </trkpt>
      <trkpt lat="44.03441" lon="4.64563">
        <ele>220.81</ele>
        <time>2021-11-14T11:47:46Z</time>
      </trkpt>
      <trkpt lat="44.03439" lon="4.64564">
        <ele>219.82</ele>
        <time>2021-11-14T11:47:47Z</time>
      </trkpt>
      <trkpt lat="44.03437" lon="4.64566">
        <ele>218.56</ele>
        <time>2021-11-14T11:47:48Z</time>
      </trkpt>
      <trkpt lat="44.03436" lon="4.64567">
        <ele>217.22</ele>
        <time>2021-11-14T11:47:49Z</time>
      </trkpt>
      <trkpt lat="44.03433" lon="4.64567">
        <ele>216.75</ele>
        <time>2021-11-14T11:47:50Z</time>
      </trkpt>
      <trkpt lat="44.03431" lon="4.64568">
        <ele>215.89</ele>
        <time>2021-11-14T11:47:51Z</time>
      </trkpt>
      <trkpt lat="44.03428" lon="4.6457">
        <ele>215.05</ele>
        <time>2021-11-14T11:47:53Z</time>
      </trkpt>
      <trkpt lat="44.03418" lon="4.64575">
        <ele>214.62</ele>
        <time>2021-11-14T11:47:59Z</time>
      </trkpt>
      <trkpt lat="44.03414" lon="4.64574">
        <ele>214.47</ele>
        <time>2021-11-14T11:48:10Z</time>
      </trkpt>
      <trkpt lat="44.03406" lon="4.64573">
        <ele>214.31</ele>
        <time>2021-11-14T11:49:16Z</time>
      </trkpt>
      <trkpt lat="44.03402" lon="4.64569">
        <ele>215.39</ele>
        <time>2021-11-14T11:50:06Z</time>
      </trkpt>
      <trkpt lat="44.03402" lon="4.64568">
        <ele>215.24</ele>
        <time>2021-11-14T11:50:15Z</time>
      </trkpt>
      <trkpt lat="44.03401" lon="4.64566">
        <ele>215.25</ele>
        <time>2021-11-14T11:50:16Z</time>
      </trkpt>
      <trkpt lat="44.034" lon="4.64565">
        <ele>215.42</ele>
        <time>2021-11-14T11:50:17Z</time>
      </trkpt>
      <trkpt lat="44.03399" lon="4.64564">
        <ele>215.53</ele>
        <time>2021-11-14T11:50:18Z</time>
      </trkpt>
      <trkpt lat="44.03398" lon="4.64563">
        <ele>215.61</ele>
        <time>2021-11-14T11:50:19Z</time>
      </trkpt>
      <trkpt lat="44.03397" lon="4.64561">
        <ele>215.72</ele>
        <time>2021-11-14T11:50:20Z</time>
      </trkpt>
      <trkpt lat="44.03396" lon="4.6456">
        <ele>215.87</ele>
        <time>2021-11-14T11:50:21Z</time>
      </trkpt>
      <trkpt lat="44.03379" lon="4.64543">
        <ele>216.57</ele>
        <time>2021-11-14T11:50:34Z</time>
      </trkpt>
      <trkpt lat="44.0337" lon="4.64521">
        <ele>217.45</ele>
        <time>2021-11-14T11:50:46Z</time>
      </trkpt>
      <trkpt lat="44.03367" lon="4.64484">
        <ele>218.63</ele>
        <time>2021-11-14T11:51:02Z</time>
      </trkpt>
      <trkpt lat="44.03358" lon="4.64453">
        <ele>219.09</ele>
        <time>2021-11-14T11:51:18Z</time>
      </trkpt>
      <trkpt lat="44.03353" lon="4.64416">
        <ele>220.02</ele>
        <time>2021-11-14T11:51:34Z</time>
      </trkpt>
      <trkpt lat="44.03348" lon="4.64381">
        <ele>220.66</ele>
        <time>2021-11-14T11:51:49Z</time>
      </trkpt>
      <trkpt lat="44.0334" lon="4.64352">
        <ele>221.99</ele>
        <time>2021-11-14T11:52:02Z</time>
      </trkpt>
      <trkpt lat="44.0333" lon="4.64322">
        <ele>223.04</ele>
        <time>2021-11-14T11:52:17Z</time>
      </trkpt>
      <trkpt lat="44.03328" lon="4.64314">
        <ele>222.75</ele>
        <time>2021-11-14T11:52:36Z</time>
      </trkpt>
      <trkpt lat="44.03326" lon="4.64311">
        <ele>222.22</ele>
        <time>2021-11-14T11:53:05Z</time>
      </trkpt>
      <trkpt lat="44.03325" lon="4.64308">
        <ele>222.36</ele>
        <time>2021-11-14T11:53:48Z</time>
      </trkpt>
      <trkpt lat="44.03324" lon="4.64311">
        <ele>222.92</ele>
        <time>2021-11-14T11:54:32Z</time>
      </trkpt>
      <trkpt lat="44.03324" lon="4.6431">
        <ele>223.22</ele>
        <time>2021-11-14T11:55:28Z</time>
      </trkpt>
      <trkpt lat="44.03324" lon="4.64305">
        <ele>224.75</ele>
        <time>2021-11-14T11:58:00Z</time>
      </trkpt>
      <trkpt lat="44.03323" lon="4.643">
        <ele>224.97</ele>
        <time>2021-11-14T11:58:03Z</time>
      </trkpt>
      <trkpt lat="44.03317" lon="4.64281">
        <ele>226.02</ele>
        <time>2021-11-14T11:58:16Z</time>
      </trkpt>
      <trkpt lat="44.03313" lon="4.64269">
        <ele>227.09</ele>
        <time>2021-11-14T11:58:23Z</time>
      </trkpt>
      <trkpt lat="44.03312" lon="4.64267">
        <ele>227.01</ele>
        <time>2021-11-14T11:58:24Z</time>
      </trkpt>
      <trkpt lat="44.03295" lon="4.64239">
        <ele>228.37</ele>
        <time>2021-11-14T11:58:40Z</time>
      </trkpt>
      <trkpt lat="44.0328" lon="4.64216">
        <ele>229.8</ele>
        <time>2021-11-14T11:58:54Z</time>
      </trkpt>
      <trkpt lat="44.03285" lon="4.64174">
        <ele>231.81</ele>
        <time>2021-11-14T11:59:13Z</time>
      </trkpt>
      <trkpt lat="44.0329" lon="4.64131">
        <ele>233.99</ele>
        <time>2021-11-14T11:59:33Z</time>
      </trkpt>
      <trkpt lat="44.03275" lon="4.64088">
        <ele>235.55</ele>
        <time>2021-11-14T11:59:54Z</time>
      </trkpt>
      <trkpt lat="44.0326" lon="4.64049">
        <ele>237.04</ele>
        <time>2021-11-14T12:00:13Z</time>
      </trkpt>
      <trkpt lat="44.03256" lon="4.64008">
        <ele>239.07</ele>
        <time>2021-11-14T12:01:46Z</time>
      </trkpt>
      <trkpt lat="44.03258" lon="4.64008">
        <ele>239.25</ele>
        <time>2021-11-14T12:01:47Z</time>
      </trkpt>
      <trkpt lat="44.03268" lon="4.64007">
        <ele>239.62</ele>
        <time>2021-11-14T12:01:54Z</time>
      </trkpt>
      <trkpt lat="44.03288" lon="4.63997">
        <ele>241.57</ele>
        <time>2021-11-14T12:02:07Z</time>
      </trkpt>
      <trkpt lat="44.03294" lon="4.63988">
        <ele>242.53</ele>
        <time>2021-11-14T12:02:13Z</time>
      </trkpt>
      <trkpt lat="44.03296" lon="4.63988">
        <ele>242.82</ele>
        <time>2021-11-14T12:02:14Z</time>
      </trkpt>
      <trkpt lat="44.03297" lon="4.63988">
        <ele>242.79</ele>
        <time>2021-11-14T12:02:15Z</time>
      </trkpt>
      <trkpt lat="44.03298" lon="4.63987">
        <ele>242.87</ele>
        <time>2021-11-14T12:02:16Z</time>
      </trkpt>
      <trkpt lat="44.03299" lon="4.63985">
        <ele>242.92</ele>
        <time>2021-11-14T12:02:17Z</time>
      </trkpt>
      <trkpt lat="44.033" lon="4.63984">
        <ele>243.08</ele>
        <time>2021-11-14T12:02:18Z</time>
      </trkpt>
      <trkpt lat="44.03301" lon="4.63982">
        <ele>243.26</ele>
        <time>2021-11-14T12:02:19Z</time>
      </trkpt>
      <trkpt lat="44.03316" lon="4.63955">
        <ele>245.03</ele>
        <time>2021-11-14T12:02:35Z</time>
      </trkpt>
      <trkpt lat="44.03318" lon="4.6395">
        <ele>245.21</ele>
        <time>2021-11-14T12:02:38Z</time>
      </trkpt>
      <trkpt lat="44.03319" lon="4.63949">
        <ele>245.18</ele>
        <time>2021-11-14T12:02:39Z</time>
      </trkpt>
      <trkpt lat="44.03319" lon="4.63946">
        <ele>245.29</ele>
        <time>2021-11-14T12:02:40Z</time>
      </trkpt>
      <trkpt lat="44.0332" lon="4.63945">
        <ele>245.5</ele>
        <time>2021-11-14T12:02:41Z</time>
      </trkpt>
      <trkpt lat="44.0332" lon="4.63942">
        <ele>245.66</ele>
        <time>2021-11-14T12:02:42Z</time>
      </trkpt>
      <trkpt lat="44.03319" lon="4.6394">
        <ele>245.89</ele>
        <time>2021-11-14T12:02:43Z</time>
      </trkpt>
      <trkpt lat="44.03319" lon="4.63938">
        <ele>246.38</ele>
        <time>2021-11-14T12:02:44Z</time>
      </trkpt>
      <trkpt lat="44.03319" lon="4.63936">
        <ele>246.98</ele>
        <time>2021-11-14T12:02:45Z</time>
      </trkpt>
      <trkpt lat="44.03318" lon="4.63934">
        <ele>247.54</ele>
        <time>2021-11-14T12:02:46Z</time>
      </trkpt>
      <trkpt lat="44.03318" lon="4.63932">
        <ele>247.51</ele>
        <time>2021-11-14T12:02:47Z</time>
      </trkpt>
      <trkpt lat="44.03317" lon="4.6393">
        <ele>247.65</ele>
        <time>2021-11-14T12:02:48Z</time>
      </trkpt>
      <trkpt lat="44.03318" lon="4.63928">
        <ele>247.8</ele>
        <time>2021-11-14T12:02:49Z</time>
      </trkpt>
      <trkpt lat="44.03319" lon="4.63926">
        <ele>247.93</ele>
        <time>2021-11-14T12:02:50Z</time>
      </trkpt>
      <trkpt lat="44.0332" lon="4.63925">
        <ele>248.11</ele>
        <time>2021-11-14T12:02:51Z</time>
      </trkpt>
      <trkpt lat="44.03321" lon="4.63924">
        <ele>248.47</ele>
        <time>2021-11-14T12:02:52Z</time>
      </trkpt>
      <trkpt lat="44.03329" lon="4.6391">
        <ele>248.82</ele>
        <time>2021-11-14T12:03:01Z</time>
      </trkpt>
      <trkpt lat="44.03329" lon="4.63908">
        <ele>248.96</ele>
        <time>2021-11-14T12:03:02Z</time>
      </trkpt>
      <trkpt lat="44.03329" lon="4.63906">
        <ele>249.14</ele>
        <time>2021-11-14T12:03:03Z</time>
      </trkpt>
      <trkpt lat="44.03329" lon="4.63904">
        <ele>249.22</ele>
        <time>2021-11-14T12:03:04Z</time>
      </trkpt>
      <trkpt lat="44.0333" lon="4.63903">
        <ele>249.21</ele>
        <time>2021-11-14T12:03:05Z</time>
      </trkpt>
      <trkpt lat="44.0333" lon="4.63901">
        <ele>249.23</ele>
        <time>2021-11-14T12:03:06Z</time>
      </trkpt>
      <trkpt lat="44.0335" lon="4.6388">
        <ele>250.96</ele>
        <time>2021-11-14T12:03:24Z</time>
      </trkpt>
      <trkpt lat="44.03372" lon="4.63859">
        <ele>252.57</ele>
        <time>2021-11-14T12:03:43Z</time>
      </trkpt>
      <trkpt lat="44.03389" lon="4.63841">
        <ele>255.42</ele>
        <time>2021-11-14T12:03:59Z</time>
      </trkpt>
      <trkpt lat="44.0341" lon="4.63819">
        <ele>257.04</ele>
        <time>2021-11-14T12:04:19Z</time>
      </trkpt>
      <trkpt lat="44.0342" lon="4.63809">
        <ele>258.81</ele>
        <time>2021-11-14T12:04:28Z</time>
      </trkpt>
      <trkpt lat="44.03421" lon="4.63808">
        <ele>259.02</ele>
        <time>2021-11-14T12:04:29Z</time>
      </trkpt>
      <trkpt lat="44.03422" lon="4.63807">
        <ele>258.96</ele>
        <time>2021-11-14T12:04:30Z</time>
      </trkpt>
      <trkpt lat="44.03423" lon="4.63806">
        <ele>259.37</ele>
        <time>2021-11-14T12:04:31Z</time>
      </trkpt>
      <trkpt lat="44.03424" lon="4.63806">
        <ele>259.32</ele>
        <time>2021-11-14T12:04:32Z</time>
      </trkpt>
      <trkpt lat="44.03425" lon="4.63805">
        <ele>259.46</ele>
        <time>2021-11-14T12:04:33Z</time>
      </trkpt>
      <trkpt lat="44.03447" lon="4.63784">
        <ele>262.16</ele>
        <time>2021-11-14T12:04:53Z</time>
      </trkpt>
      <trkpt lat="44.03453" lon="4.63754">
        <ele>264.78</ele>
        <time>2021-11-14T12:05:11Z</time>
      </trkpt>
      <trkpt lat="44.03451" lon="4.6375">
        <ele>264.69</ele>
        <time>2021-11-14T12:05:14Z</time>
      </trkpt>
      <trkpt lat="44.0345" lon="4.63748">
        <ele>264.62</ele>
        <time>2021-11-14T12:05:15Z</time>
      </trkpt>
      <trkpt lat="44.03449" lon="4.63748">
        <ele>264.58</ele>
        <time>2021-11-14T12:05:16Z</time>
      </trkpt>
      <trkpt lat="44.03445" lon="4.63747">
        <ele>265.33</ele>
        <time>2021-11-14T12:05:33Z</time>
      </trkpt>
      <trkpt lat="44.03423" lon="4.63747">
        <ele>263.71</ele>
        <time>2021-11-14T12:05:50Z</time>
      </trkpt>
      <trkpt lat="44.03365" lon="4.63748">
        <ele>262.5</ele>
        <time>2021-11-14T12:06:09Z</time>
      </trkpt>
      <trkpt lat="44.03298" lon="4.63742">
        <ele>260.67</ele>
        <time>2021-11-14T12:06:27Z</time>
      </trkpt>
      <trkpt lat="44.03243" lon="4.63734">
        <ele>259.05</ele>
        <time>2021-11-14T12:06:40Z</time>
      </trkpt>
      <trkpt lat="44.03222" lon="4.6374">
        <ele>257.98</ele>
        <time>2021-11-14T12:06:44Z</time>
      </trkpt>
      <trkpt lat="44.03184" lon="4.63766">
        <ele>255.21</ele>
        <time>2021-11-14T12:06:51Z</time>
      </trkpt>
      <trkpt lat="44.03179" lon="4.63771">
        <ele>254.99</ele>
        <time>2021-11-14T12:06:52Z</time>
      </trkpt>
      <trkpt lat="44.03169" lon="4.63783">
        <ele>254.93</ele>
        <time>2021-11-14T12:06:54Z</time>
      </trkpt>
      <trkpt lat="44.03166" lon="4.63788">
        <ele>254.93</ele>
        <time>2021-11-14T12:06:55Z</time>
      </trkpt>
      <trkpt lat="44.03164" lon="4.63794">
        <ele>254.59</ele>
        <time>2021-11-14T12:06:56Z</time>
      </trkpt>
      <trkpt lat="44.03163" lon="4.63799">
        <ele>254.15</ele>
        <time>2021-11-14T12:06:57Z</time>
      </trkpt>
      <trkpt lat="44.03162" lon="4.63804">
        <ele>253.92</ele>
        <time>2021-11-14T12:06:58Z</time>
      </trkpt>
      <trkpt lat="44.03157" lon="4.63816">
        <ele>251.43</ele>
        <time>2021-11-14T12:07:01Z</time>
      </trkpt>
      <trkpt lat="44.03146" lon="4.63825">
        <ele>254.08</ele>
        <time>2021-11-14T12:07:06Z</time>
      </trkpt>
      <trkpt lat="44.03144" lon="4.63824">
        <ele>253.93</ele>
        <time>2021-11-14T12:07:07Z</time>
      </trkpt>
      <trkpt lat="44.03142" lon="4.63822">
        <ele>253.94</ele>
        <time>2021-11-14T12:07:08Z</time>
      </trkpt>
      <trkpt lat="44.03142" lon="4.63819">
        <ele>253.86</ele>
        <time>2021-11-14T12:07:09Z</time>
      </trkpt>
      <trkpt lat="44.03143" lon="4.63817">
        <ele>253.97</ele>
        <time>2021-11-14T12:07:10Z</time>
      </trkpt>
      <trkpt lat="44.03143" lon="4.63815">
        <ele>253.98</ele>
        <time>2021-11-14T12:07:11Z</time>
      </trkpt>
      <trkpt lat="44.03145" lon="4.6381">
        <ele>254.9</ele>
        <time>2021-11-14T12:07:22Z</time>
      </trkpt>
      <trkpt lat="44.03147" lon="4.63805">
        <ele>254.99</ele>
        <time>2021-11-14T12:07:37Z</time>
      </trkpt>
      <trkpt lat="44.03147" lon="4.63799">
        <ele>253.13</ele>
        <time>2021-11-14T12:07:51Z</time>
      </trkpt>
      <trkpt lat="44.03149" lon="4.63796">
        <ele>255.39</ele>
        <time>2021-11-14T12:08:15Z</time>
      </trkpt>
      <trkpt lat="44.03149" lon="4.63795">
        <ele>255.36</ele>
        <time>2021-11-14T12:08:16Z</time>
      </trkpt>
      <trkpt lat="44.0315" lon="4.63793">
        <ele>255.43</ele>
        <time>2021-11-14T12:08:17Z</time>
      </trkpt>
      <trkpt lat="44.03157" lon="4.63742">
        <ele>257.26</ele>
        <time>2021-11-14T12:08:36Z</time>
      </trkpt>
      <trkpt lat="44.03171" lon="4.63701">
        <ele>258.8</ele>
        <time>2021-11-14T12:08:53Z</time>
      </trkpt>
      <trkpt lat="44.03164" lon="4.63672">
        <ele>260.35</ele>
        <time>2021-11-14T12:09:08Z</time>
      </trkpt>
      <trkpt lat="44.03163" lon="4.63672">
        <ele>259.23</ele>
        <time>2021-11-14T12:09:34Z</time>
      </trkpt>
      <trkpt lat="44.03162" lon="4.63673">
        <ele>258.99</ele>
        <time>2021-11-14T12:10:56Z</time>
      </trkpt>
      <trkpt lat="44.03162" lon="4.63672">
        <ele>259.36</ele>
        <time>2021-11-14T12:12:12Z</time>
      </trkpt>
      <trkpt lat="44.03161" lon="4.63672">
        <ele>259.4</ele>
        <time>2021-11-14T12:13:29Z</time>
      </trkpt>
      <trkpt lat="44.03161" lon="4.63671">
        <ele>259.58</ele>
        <time>2021-11-14T12:14:43Z</time>
      </trkpt>
      <trkpt lat="44.03162" lon="4.63671">
        <ele>259.26</ele>
        <time>2021-11-14T12:15:59Z</time>
      </trkpt>
      <trkpt lat="44.03163" lon="4.63671">
        <ele>260.76</ele>
        <time>2021-11-14T12:19:31Z</time>
      </trkpt>
      <trkpt lat="44.03163" lon="4.63671">
        <ele>260.53</ele>
        <time>2021-11-14T12:20:39Z</time>
      </trkpt>
      <trkpt lat="44.03163" lon="4.63672">
        <ele>260.19</ele>
        <time>2021-11-14T12:21:50Z</time>
      </trkpt>
      <trkpt lat="44.03163" lon="4.63673">
        <ele>260.34</ele>
        <time>2021-11-14T12:22:58Z</time>
      </trkpt>
      <trkpt lat="44.03162" lon="4.63673">
        <ele>260.26</ele>
        <time>2021-11-14T12:25:07Z</time>
      </trkpt>
      <trkpt lat="44.03163" lon="4.63671">
        <ele>260.56</ele>
        <time>2021-11-14T12:26:12Z</time>
      </trkpt>
      <trkpt lat="44.03164" lon="4.6367">
        <ele>260.56</ele>
        <time>2021-11-14T12:27:25Z</time>
      </trkpt>
      <trkpt lat="44.03163" lon="4.63666">
        <ele>261.86</ele>
        <time>2021-11-14T12:27:59Z</time>
      </trkpt>
      <trkpt lat="44.03163" lon="4.63664">
        <ele>261.91</ele>
        <time>2021-11-14T12:28:00Z</time>
      </trkpt>
      <trkpt lat="44.03162" lon="4.63662">
        <ele>262.04</ele>
        <time>2021-11-14T12:28:01Z</time>
      </trkpt>
      <trkpt lat="44.03162" lon="4.6366">
        <ele>262.25</ele>
        <time>2021-11-14T12:28:02Z</time>
      </trkpt>
      <trkpt lat="44.03161" lon="4.63659">
        <ele>262.41</ele>
        <time>2021-11-14T12:28:03Z</time>
      </trkpt>
      <trkpt lat="44.03161" lon="4.63657">
        <ele>262.76</ele>
        <time>2021-11-14T12:28:04Z</time>
      </trkpt>
      <trkpt lat="44.0316" lon="4.63656">
        <ele>262.71</ele>
        <time>2021-11-14T12:28:05Z</time>
      </trkpt>
      <trkpt lat="44.0316" lon="4.63654">
        <ele>262.76</ele>
        <time>2021-11-14T12:28:06Z</time>
      </trkpt>
      <trkpt lat="44.03149" lon="4.63623">
        <ele>263.34</ele>
        <time>2021-11-14T12:28:23Z</time>
      </trkpt>
      <trkpt lat="44.03131" lon="4.63582">
        <ele>262.99</ele>
        <time>2021-11-14T12:28:39Z</time>
      </trkpt>
      <trkpt lat="44.03114" lon="4.63507">
        <ele>259.61</ele>
        <time>2021-11-14T12:28:54Z</time>
      </trkpt>
      <trkpt lat="44.03101" lon="4.63456">
        <ele>258.95</ele>
        <time>2021-11-14T12:29:06Z</time>
      </trkpt>
      <trkpt lat="44.03102" lon="4.63451">
        <ele>258.68</ele>
        <time>2021-11-14T12:29:07Z</time>
      </trkpt>
      <trkpt lat="44.03102" lon="4.63447">
        <ele>258.53</ele>
        <time>2021-11-14T12:29:08Z</time>
      </trkpt>
      <trkpt lat="44.03103" lon="4.63442">
        <ele>258.43</ele>
        <time>2021-11-14T12:29:09Z</time>
      </trkpt>
      <trkpt lat="44.03103" lon="4.63437">
        <ele>258.47</ele>
        <time>2021-11-14T12:29:10Z</time>
      </trkpt>
      <trkpt lat="44.031" lon="4.63387">
        <ele>256.19</ele>
        <time>2021-11-14T12:29:21Z</time>
      </trkpt>
      <trkpt lat="44.03099" lon="4.63376">
        <ele>255.99</ele>
        <time>2021-11-14T12:29:23Z</time>
      </trkpt>
      <trkpt lat="44.03095" lon="4.6331">
        <ele>255.42</ele>
        <time>2021-11-14T12:29:36Z</time>
      </trkpt>
      <trkpt lat="44.03107" lon="4.63263">
        <ele>255.13</ele>
        <time>2021-11-14T12:29:47Z</time>
      </trkpt>
      <trkpt lat="44.03085" lon="4.63234">
        <ele>255.31</ele>
        <time>2021-11-14T12:30:00Z</time>
      </trkpt>
      <trkpt lat="44.0306" lon="4.63228">
        <ele>257.82</ele>
        <time>2021-11-14T12:30:13Z</time>
      </trkpt>
      <trkpt lat="44.03024" lon="4.6321">
        <ele>259.61</ele>
        <time>2021-11-14T12:30:34Z</time>
      </trkpt>
      <trkpt lat="44.02987" lon="4.63204">
        <ele>260.87</ele>
        <time>2021-11-14T12:30:54Z</time>
      </trkpt>
      <trkpt lat="44.02946" lon="4.63198">
        <ele>261.51</ele>
        <time>2021-11-14T12:31:14Z</time>
      </trkpt>
      <trkpt lat="44.02915" lon="4.63184">
        <ele>261.78</ele>
        <time>2021-11-14T12:31:30Z</time>
      </trkpt>
      <trkpt lat="44.02905" lon="4.63154">
        <ele>261.3</ele>
        <time>2021-11-14T12:31:43Z</time>
      </trkpt>
      <trkpt lat="44.02918" lon="4.63116">
        <ele>262.8</ele>
        <time>2021-11-14T12:31:58Z</time>
      </trkpt>
      <trkpt lat="44.02921" lon="4.63071">
        <ele>262.73</ele>
        <time>2021-11-14T12:32:13Z</time>
      </trkpt>
      <trkpt lat="44.02937" lon="4.63038">
        <ele>261.95</ele>
        <time>2021-11-14T12:32:26Z</time>
      </trkpt>
      <trkpt lat="44.02959" lon="4.63034">
        <ele>263.86</ele>
        <time>2021-11-14T12:32:37Z</time>
      </trkpt>
      <trkpt lat="44.0296" lon="4.63032">
        <ele>263.51</ele>
        <time>2021-11-14T12:32:38Z</time>
      </trkpt>
      <trkpt lat="44.0296" lon="4.6303">
        <ele>263.42</ele>
        <time>2021-11-14T12:32:39Z</time>
      </trkpt>
      <trkpt lat="44.0296" lon="4.63028">
        <ele>263.39</ele>
        <time>2021-11-14T12:32:40Z</time>
      </trkpt>
      <trkpt lat="44.0296" lon="4.63027">
        <ele>263.25</ele>
        <time>2021-11-14T12:32:57Z</time>
      </trkpt>
      <trkpt lat="44.02962" lon="4.63024">
        <ele>263.03</ele>
        <time>2021-11-14T12:33:37Z</time>
      </trkpt>
      <trkpt lat="44.02962" lon="4.63022">
        <ele>262.86</ele>
        <time>2021-11-14T12:33:38Z</time>
      </trkpt>
      <trkpt lat="44.02963" lon="4.63019">
        <ele>262.86</ele>
        <time>2021-11-14T12:33:39Z</time>
      </trkpt>
      <trkpt lat="44.02962" lon="4.62962">
        <ele>259.92</ele>
        <time>2021-11-14T12:33:51Z</time>
      </trkpt>
      <trkpt lat="44.02963" lon="4.62956">
        <ele>259.75</ele>
        <time>2021-11-14T12:33:52Z</time>
      </trkpt>
      <trkpt lat="44.02962" lon="4.6291">
        <ele>260.51</ele>
        <time>2021-11-14T12:34:03Z</time>
      </trkpt>
      <trkpt lat="44.02961" lon="4.629">
        <ele>260.23</ele>
        <time>2021-11-14T12:34:06Z</time>
      </trkpt>
      <trkpt lat="44.02962" lon="4.62898">
        <ele>260.34</ele>
        <time>2021-11-14T12:34:07Z</time>
      </trkpt>
      <trkpt lat="44.02963" lon="4.62897">
        <ele>260.42</ele>
        <time>2021-11-14T12:34:08Z</time>
      </trkpt>
      <trkpt lat="44.02965" lon="4.62895">
        <ele>260.49</ele>
        <time>2021-11-14T12:34:09Z</time>
      </trkpt>
      <trkpt lat="44.02966" lon="4.62894">
        <ele>260.42</ele>
        <time>2021-11-14T12:34:10Z</time>
      </trkpt>
      <trkpt lat="44.02968" lon="4.62892">
        <ele>260.42</ele>
        <time>2021-11-14T12:34:11Z</time>
      </trkpt>
      <trkpt lat="44.02969" lon="4.62889">
        <ele>260.4</ele>
        <time>2021-11-14T12:34:12Z</time>
      </trkpt>
      <trkpt lat="44.0297" lon="4.62887">
        <ele>260.4</ele>
        <time>2021-11-14T12:34:13Z</time>
      </trkpt>
      <trkpt lat="44.02971" lon="4.62884">
        <ele>260.39</ele>
        <time>2021-11-14T12:34:14Z</time>
      </trkpt>
      <trkpt lat="44.02972" lon="4.62882">
        <ele>261.35</ele>
        <time>2021-11-14T12:34:15Z</time>
      </trkpt>
      <trkpt lat="44.02973" lon="4.62879">
        <ele>261.33</ele>
        <time>2021-11-14T12:34:16Z</time>
      </trkpt>
      <trkpt lat="44.02973" lon="4.62877">
        <ele>261.33</ele>
        <time>2021-11-14T12:34:17Z</time>
      </trkpt>
      <trkpt lat="44.02974" lon="4.62875">
        <ele>261.32</ele>
        <time>2021-11-14T12:34:18Z</time>
      </trkpt>
      <trkpt lat="44.02975" lon="4.62872">
        <ele>261.32</ele>
        <time>2021-11-14T12:34:19Z</time>
      </trkpt>
      <trkpt lat="44.02976" lon="4.6287">
        <ele>261.31</ele>
        <time>2021-11-14T12:34:20Z</time>
      </trkpt>
      <trkpt lat="44.02977" lon="4.62867">
        <ele>262.04</ele>
        <time>2021-11-14T12:34:21Z</time>
      </trkpt>
      <trkpt lat="44.02992" lon="4.62839">
        <ele>263.35</ele>
        <time>2021-11-14T12:34:35Z</time>
      </trkpt>
      <trkpt lat="44.03001" lon="4.62811">
        <ele>264.18</ele>
        <time>2021-11-14T12:34:47Z</time>
      </trkpt>
      <trkpt lat="44.03015" lon="4.62775">
        <ele>264.8</ele>
        <time>2021-11-14T12:35:02Z</time>
      </trkpt>
      <trkpt lat="44.0304" lon="4.62737">
        <ele>264.43</ele>
        <time>2021-11-14T12:35:18Z</time>
      </trkpt>
      <trkpt lat="44.03056" lon="4.62692">
        <ele>264.5</ele>
        <time>2021-11-14T12:35:31Z</time>
      </trkpt>
      <trkpt lat="44.03078" lon="4.62658">
        <ele>263.17</ele>
        <time>2021-11-14T12:35:43Z</time>
      </trkpt>
      <trkpt lat="44.03108" lon="4.6262">
        <ele>264.04</ele>
        <time>2021-11-14T12:35:58Z</time>
      </trkpt>
      <trkpt lat="44.03113" lon="4.62612">
        <ele>263.18</ele>
        <time>2021-11-14T12:36:01Z</time>
      </trkpt>
      <trkpt lat="44.03114" lon="4.62608">
        <ele>262.84</ele>
        <time>2021-11-14T12:36:02Z</time>
      </trkpt>
      <trkpt lat="44.03132" lon="4.62574">
        <ele>262.55</ele>
        <time>2021-11-14T12:36:12Z</time>
      </trkpt>
      <trkpt lat="44.03137" lon="4.62571">
        <ele>261.63</ele>
        <time>2021-11-14T12:36:14Z</time>
      </trkpt>
      <trkpt lat="44.03138" lon="4.62569">
        <ele>262.02</ele>
        <time>2021-11-14T12:36:15Z</time>
      </trkpt>
      <trkpt lat="44.03139" lon="4.62566">
        <ele>262.87</ele>
        <time>2021-11-14T12:36:16Z</time>
      </trkpt>
      <trkpt lat="44.0314" lon="4.62563">
        <ele>263.62</ele>
        <time>2021-11-14T12:36:17Z</time>
      </trkpt>
      <trkpt lat="44.0314" lon="4.6256">
        <ele>263.23</ele>
        <time>2021-11-14T12:36:18Z</time>
      </trkpt>
      <trkpt lat="44.03139" lon="4.62556">
        <ele>263.14</ele>
        <time>2021-11-14T12:36:19Z</time>
      </trkpt>
      <trkpt lat="44.03139" lon="4.62552">
        <ele>262.89</ele>
        <time>2021-11-14T12:36:20Z</time>
      </trkpt>
      <trkpt lat="44.03139" lon="4.62548">
        <ele>262.91</ele>
        <time>2021-11-14T12:36:21Z</time>
      </trkpt>
      <trkpt lat="44.03148" lon="4.62501">
        <ele>264.49</ele>
        <time>2021-11-14T12:36:34Z</time>
      </trkpt>
      <trkpt lat="44.03172" lon="4.6246">
        <ele>264.8</ele>
        <time>2021-11-14T12:36:50Z</time>
      </trkpt>
      <trkpt lat="44.03211" lon="4.62423">
        <ele>265.19</ele>
        <time>2021-11-14T12:37:10Z</time>
      </trkpt>
      <trkpt lat="44.03245" lon="4.62401">
        <ele>265.27</ele>
        <time>2021-11-14T12:37:26Z</time>
      </trkpt>
      <trkpt lat="44.03247" lon="4.624">
        <ele>264.02</ele>
        <time>2021-11-14T12:37:38Z</time>
      </trkpt>
      <trkpt lat="44.03268" lon="4.62392">
        <ele>263.28</ele>
        <time>2021-11-14T12:37:49Z</time>
      </trkpt>
      <trkpt lat="44.03285" lon="4.62384">
        <ele>259.69</ele>
        <time>2021-11-14T12:37:52Z</time>
      </trkpt>
      <trkpt lat="44.03291" lon="4.6238">
        <ele>259.43</ele>
        <time>2021-11-14T12:37:53Z</time>
      </trkpt>
      <trkpt lat="44.03297" lon="4.62378">
        <ele>259.17</ele>
        <time>2021-11-14T12:37:54Z</time>
      </trkpt>
      <trkpt lat="44.0332" lon="4.62371">
        <ele>259.89</ele>
        <time>2021-11-14T12:38:01Z</time>
      </trkpt>
      <trkpt lat="44.03372" lon="4.62351">
        <ele>258.5</ele>
        <time>2021-11-14T12:38:17Z</time>
      </trkpt>
      <trkpt lat="44.03402" lon="4.6234">
        <ele>257.85</ele>
        <time>2021-11-14T12:38:26Z</time>
      </trkpt>
      <trkpt lat="44.0344" lon="4.6233">
        <ele>260.32</ele>
        <time>2021-11-14T12:38:43Z</time>
      </trkpt>
      <trkpt lat="44.03464" lon="4.62325">
        <ele>261.91</ele>
        <time>2021-11-14T12:38:59Z</time>
      </trkpt>
      <trkpt lat="44.03491" lon="4.62317">
        <ele>264.53</ele>
        <time>2021-11-14T12:39:17Z</time>
      </trkpt>
      <trkpt lat="44.03495" lon="4.62311">
        <ele>264.73</ele>
        <time>2021-11-14T12:39:21Z</time>
      </trkpt>
      <trkpt lat="44.03495" lon="4.62309">
        <ele>264.77</ele>
        <time>2021-11-14T12:39:22Z</time>
      </trkpt>
      <trkpt lat="44.03495" lon="4.62307">
        <ele>264.83</ele>
        <time>2021-11-14T12:39:23Z</time>
      </trkpt>
      <trkpt lat="44.03495" lon="4.62305">
        <ele>264.85</ele>
        <time>2021-11-14T12:39:24Z</time>
      </trkpt>
      <trkpt lat="44.03495" lon="4.62303">
        <ele>265.08</ele>
        <time>2021-11-14T12:39:25Z</time>
      </trkpt>
      <trkpt lat="44.03496" lon="4.62297">
        <ele>265.93</ele>
        <time>2021-11-14T12:39:28Z</time>
      </trkpt>
      <trkpt lat="44.035" lon="4.62296">
        <ele>264.42</ele>
        <time>2021-11-14T12:39:35Z</time>
      </trkpt>
      <trkpt lat="44.03507" lon="4.62297">
        <ele>265.64</ele>
        <time>2021-11-14T12:39:57Z</time>
      </trkpt>
      <trkpt lat="44.03525" lon="4.62315">
        <ele>265.48</ele>
        <time>2021-11-14T12:40:10Z</time>
      </trkpt>
      <trkpt lat="44.03542" lon="4.62341">
        <ele>264.99</ele>
        <time>2021-11-14T12:40:20Z</time>
      </trkpt>
      <trkpt lat="44.03567" lon="4.62374">
        <ele>262.34</ele>
        <time>2021-11-14T12:40:31Z</time>
      </trkpt>
      <trkpt lat="44.03569" lon="4.62378">
        <ele>262.24</ele>
        <time>2021-11-14T12:40:32Z</time>
      </trkpt>
      <trkpt lat="44.0357" lon="4.62381">
        <ele>262.22</ele>
        <time>2021-11-14T12:40:33Z</time>
      </trkpt>
      <trkpt lat="44.03572" lon="4.62385">
        <ele>261.98</ele>
        <time>2021-11-14T12:40:34Z</time>
      </trkpt>
      <trkpt lat="44.03588" lon="4.62411">
        <ele>260.15</ele>
        <time>2021-11-14T12:40:42Z</time>
      </trkpt>
      <trkpt lat="44.0359" lon="4.62416">
        <ele>260.21</ele>
        <time>2021-11-14T12:40:46Z</time>
      </trkpt>
      <trkpt lat="44.03591" lon="4.62419">
        <ele>259.96</ele>
        <time>2021-11-14T12:40:47Z</time>
      </trkpt>
      <trkpt lat="44.03592" lon="4.62421">
        <ele>259.83</ele>
        <time>2021-11-14T12:40:48Z</time>
      </trkpt>
      <trkpt lat="44.03593" lon="4.62423">
        <ele>259.7</ele>
        <time>2021-11-14T12:40:49Z</time>
      </trkpt>
      <trkpt lat="44.03595" lon="4.62425">
        <ele>259.99</ele>
        <time>2021-11-14T12:40:50Z</time>
      </trkpt>
      <trkpt lat="44.03596" lon="4.62428">
        <ele>260.14</ele>
        <time>2021-11-14T12:40:51Z</time>
      </trkpt>
      <trkpt lat="44.03598" lon="4.6243">
        <ele>260.02</ele>
        <time>2021-11-14T12:40:52Z</time>
      </trkpt>
      <trkpt lat="44.03599" lon="4.62431">
        <ele>259.66</ele>
        <time>2021-11-14T12:40:53Z</time>
      </trkpt>
      <trkpt lat="44.036" lon="4.62433">
        <ele>259.27</ele>
        <time>2021-11-14T12:40:54Z</time>
      </trkpt>
      <trkpt lat="44.03602" lon="4.62436">
        <ele>259.13</ele>
        <time>2021-11-14T12:40:55Z</time>
      </trkpt>
      <trkpt lat="44.03603" lon="4.62436">
        <ele>259.13</ele>
        <time>2021-11-14T12:40:56Z</time>
      </trkpt>
      <trkpt lat="44.03605" lon="4.62435">
        <ele>259.34</ele>
        <time>2021-11-14T12:40:57Z</time>
      </trkpt>
      <trkpt lat="44.03606" lon="4.62434">
        <ele>259.25</ele>
        <time>2021-11-14T12:40:58Z</time>
      </trkpt>
      <trkpt lat="44.03607" lon="4.62434">
        <ele>259.29</ele>
        <time>2021-11-14T12:40:59Z</time>
      </trkpt>
      <trkpt lat="44.03628" lon="4.62423">
        <ele>255.82</ele>
        <time>2021-11-14T12:41:07Z</time>
      </trkpt>
      <trkpt lat="44.03636" lon="4.62423">
        <ele>252.62</ele>
        <time>2021-11-14T12:41:10Z</time>
      </trkpt>
      <trkpt lat="44.0364" lon="4.6242">
        <ele>250.46</ele>
        <time>2021-11-14T12:41:12Z</time>
      </trkpt>
      <trkpt lat="44.03641" lon="4.62417">
        <ele>250.18</ele>
        <time>2021-11-14T12:41:13Z</time>
      </trkpt>
      <trkpt lat="44.03642" lon="4.62415">
        <ele>249.43</ele>
        <time>2021-11-14T12:41:14Z</time>
      </trkpt>
      <trkpt lat="44.03644" lon="4.62415">
        <ele>248.24</ele>
        <time>2021-11-14T12:41:16Z</time>
      </trkpt>
      <trkpt lat="44.03646" lon="4.62415">
        <ele>247.58</ele>
        <time>2021-11-14T12:41:17Z</time>
      </trkpt>
      <trkpt lat="44.03647" lon="4.62416">
        <ele>246.71</ele>
        <time>2021-11-14T12:41:18Z</time>
      </trkpt>
      <trkpt lat="44.03649" lon="4.62417">
        <ele>245.99</ele>
        <time>2021-11-14T12:41:19Z</time>
      </trkpt>
      <trkpt lat="44.0365" lon="4.62416">
        <ele>245.29</ele>
        <time>2021-11-14T12:41:20Z</time>
      </trkpt>
      <trkpt lat="44.03652" lon="4.62416">
        <ele>244.56</ele>
        <time>2021-11-14T12:41:21Z</time>
      </trkpt>
      <trkpt lat="44.03653" lon="4.62414">
        <ele>244.07</ele>
        <time>2021-11-14T12:41:22Z</time>
      </trkpt>
      <trkpt lat="44.03654" lon="4.62413">
        <ele>243.59</ele>
        <time>2021-11-14T12:41:23Z</time>
      </trkpt>
      <trkpt lat="44.03656" lon="4.62413">
        <ele>243.07</ele>
        <time>2021-11-14T12:41:24Z</time>
      </trkpt>
      <trkpt lat="44.03658" lon="4.62413">
        <ele>242.43</ele>
        <time>2021-11-14T12:41:25Z</time>
      </trkpt>
      <trkpt lat="44.0366" lon="4.62413">
        <ele>242.27</ele>
        <time>2021-11-14T12:41:26Z</time>
      </trkpt>
      <trkpt lat="44.03662" lon="4.62412">
        <ele>242.29</ele>
        <time>2021-11-14T12:41:27Z</time>
      </trkpt>
      <trkpt lat="44.03663" lon="4.62411">
        <ele>241.8</ele>
        <time>2021-11-14T12:41:28Z</time>
      </trkpt>
      <trkpt lat="44.03664" lon="4.62409">
        <ele>241.74</ele>
        <time>2021-11-14T12:41:29Z</time>
      </trkpt>
      <trkpt lat="44.03667" lon="4.62405">
        <ele>241.78</ele>
        <time>2021-11-14T12:41:32Z</time>
      </trkpt>
      <trkpt lat="44.03669" lon="4.62404">
        <ele>241.24</ele>
        <time>2021-11-14T12:41:33Z</time>
      </trkpt>
      <trkpt lat="44.0367" lon="4.62404">
        <ele>240.51</ele>
        <time>2021-11-14T12:41:34Z</time>
      </trkpt>
      <trkpt lat="44.03675" lon="4.62401">
        <ele>238.75</ele>
        <time>2021-11-14T12:41:45Z</time>
      </trkpt>
      <trkpt lat="44.03687" lon="4.624">
        <ele>239.02</ele>
        <time>2021-11-14T12:42:20Z</time>
      </trkpt>
      <trkpt lat="44.03689" lon="4.624">
        <ele>238.38</ele>
        <time>2021-11-14T12:42:25Z</time>
      </trkpt>
      <trkpt lat="44.03694" lon="4.62398">
        <ele>237.39</ele>
        <time>2021-11-14T12:42:29Z</time>
      </trkpt>
      <trkpt lat="44.03698" lon="4.624">
        <ele>236.59</ele>
        <time>2021-11-14T12:42:32Z</time>
      </trkpt>
      <trkpt lat="44.03702" lon="4.624">
        <ele>235.93</ele>
        <time>2021-11-14T12:42:36Z</time>
      </trkpt>
      <trkpt lat="44.03704" lon="4.624">
        <ele>235.29</ele>
        <time>2021-11-14T12:42:37Z</time>
      </trkpt>
      <trkpt lat="44.03717" lon="4.62402">
        <ele>232.13</ele>
        <time>2021-11-14T12:42:49Z</time>
      </trkpt>
      <trkpt lat="44.0372" lon="4.624">
        <ele>232.15</ele>
        <time>2021-11-14T12:42:51Z</time>
      </trkpt>
      <trkpt lat="44.03723" lon="4.62397">
        <ele>232.05</ele>
        <time>2021-11-14T12:42:53Z</time>
      </trkpt>
      <trkpt lat="44.03725" lon="4.62395">
        <ele>232.03</ele>
        <time>2021-11-14T12:42:54Z</time>
      </trkpt>
      <trkpt lat="44.03727" lon="4.62394">
        <ele>232.2</ele>
        <time>2021-11-14T12:42:55Z</time>
      </trkpt>
      <trkpt lat="44.03742" lon="4.62389">
        <ele>232.56</ele>
        <time>2021-11-14T12:43:01Z</time>
      </trkpt>
      <trkpt lat="44.03745" lon="4.62388">
        <ele>232.24</ele>
        <time>2021-11-14T12:43:02Z</time>
      </trkpt>
      <trkpt lat="44.03747" lon="4.62386">
        <ele>232.24</ele>
        <time>2021-11-14T12:43:03Z</time>
      </trkpt>
      <trkpt lat="44.03749" lon="4.62384">
        <ele>232.25</ele>
        <time>2021-11-14T12:43:04Z</time>
      </trkpt>
      <trkpt lat="44.03751" lon="4.62382">
        <ele>232.3</ele>
        <time>2021-11-14T12:43:05Z</time>
      </trkpt>
      <trkpt lat="44.03752" lon="4.6238">
        <ele>232.19</ele>
        <time>2021-11-14T12:43:06Z</time>
      </trkpt>
      <trkpt lat="44.03753" lon="4.62378">
        <ele>232.24</ele>
        <time>2021-11-14T12:43:07Z</time>
      </trkpt>
      <trkpt lat="44.03754" lon="4.62376">
        <ele>232.25</ele>
        <time>2021-11-14T12:43:08Z</time>
      </trkpt>
      <trkpt lat="44.03755" lon="4.62374">
        <ele>232.42</ele>
        <time>2021-11-14T12:43:09Z</time>
      </trkpt>
      <trkpt lat="44.03757" lon="4.62372">
        <ele>232.36</ele>
        <time>2021-11-14T12:43:10Z</time>
      </trkpt>
      <trkpt lat="44.03759" lon="4.62369">
        <ele>232.99</ele>
        <time>2021-11-14T12:43:12Z</time>
      </trkpt>
      <trkpt lat="44.03772" lon="4.62349">
        <ele>233.85</ele>
        <time>2021-11-14T12:43:23Z</time>
      </trkpt>
      <trkpt lat="44.03773" lon="4.62347">
        <ele>233.97</ele>
        <time>2021-11-14T12:43:24Z</time>
      </trkpt>
      <trkpt lat="44.03775" lon="4.62345">
        <ele>234.17</ele>
        <time>2021-11-14T12:43:25Z</time>
      </trkpt>
      <trkpt lat="44.03776" lon="4.62344">
        <ele>234.11</ele>
        <time>2021-11-14T12:43:26Z</time>
      </trkpt>
      <trkpt lat="44.03778" lon="4.62343">
        <ele>234.28</ele>
        <time>2021-11-14T12:43:27Z</time>
      </trkpt>
      <trkpt lat="44.03779" lon="4.62341">
        <ele>234.25</ele>
        <time>2021-11-14T12:43:28Z</time>
      </trkpt>
      <trkpt lat="44.0378" lon="4.62339">
        <ele>234.28</ele>
        <time>2021-11-14T12:43:29Z</time>
      </trkpt>
      <trkpt lat="44.03782" lon="4.62338">
        <ele>234.35</ele>
        <time>2021-11-14T12:43:30Z</time>
      </trkpt>
      <trkpt lat="44.03783" lon="4.62337">
        <ele>234.6</ele>
        <time>2021-11-14T12:43:31Z</time>
      </trkpt>
      <trkpt lat="44.03784" lon="4.62335">
        <ele>234.78</ele>
        <time>2021-11-14T12:43:32Z</time>
      </trkpt>
      <trkpt lat="44.03785" lon="4.62333">
        <ele>235.01</ele>
        <time>2021-11-14T12:43:33Z</time>
      </trkpt>
      <trkpt lat="44.03786" lon="4.62332">
        <ele>235.06</ele>
        <time>2021-11-14T12:43:34Z</time>
      </trkpt>
      <trkpt lat="44.03787" lon="4.62329">
        <ele>235.17</ele>
        <time>2021-11-14T12:43:35Z</time>
      </trkpt>
      <trkpt lat="44.03787" lon="4.62327">
        <ele>235.19</ele>
        <time>2021-11-14T12:43:36Z</time>
      </trkpt>
      <trkpt lat="44.03786" lon="4.62301">
        <ele>236.13</ele>
        <time>2021-11-14T12:43:50Z</time>
      </trkpt>
      <trkpt lat="44.0378" lon="4.62266">
        <ele>236.91</ele>
        <time>2021-11-14T12:44:06Z</time>
      </trkpt>
      <trkpt lat="44.03774" lon="4.62248">
        <ele>238.06</ele>
        <time>2021-11-14T12:44:17Z</time>
      </trkpt>
      <trkpt lat="44.03772" lon="4.62246">
        <ele>238.06</ele>
        <time>2021-11-14T12:44:18Z</time>
      </trkpt>
      <trkpt lat="44.03771" lon="4.62244">
        <ele>237.96</ele>
        <time>2021-11-14T12:44:19Z</time>
      </trkpt>
      <trkpt lat="44.03758" lon="4.62228">
        <ele>238.83</ele>
        <time>2021-11-14T12:44:32Z</time>
      </trkpt>
      <trkpt lat="44.03755" lon="4.62226">
        <ele>239.2</ele>
        <time>2021-11-14T12:44:34Z</time>
      </trkpt>
      <trkpt lat="44.03737" lon="4.62213">
        <ele>240.51</ele>
        <time>2021-11-14T12:44:46Z</time>
      </trkpt>
      <trkpt lat="44.03732" lon="4.62207">
        <ele>240.81</ele>
        <time>2021-11-14T12:44:51Z</time>
      </trkpt>
      <trkpt lat="44.03731" lon="4.62205">
        <ele>240.63</ele>
        <time>2021-11-14T12:44:52Z</time>
      </trkpt>
      <trkpt lat="44.03721" lon="4.62192">
        <ele>241.02</ele>
        <time>2021-11-14T12:45:00Z</time>
      </trkpt>
      <trkpt lat="44.0372" lon="4.6219">
        <ele>241.28</ele>
        <time>2021-11-14T12:45:01Z</time>
      </trkpt>
      <trkpt lat="44.03719" lon="4.62188">
        <ele>241.35</ele>
        <time>2021-11-14T12:45:02Z</time>
      </trkpt>
      <trkpt lat="44.03713" lon="4.62179">
        <ele>241.22</ele>
        <time>2021-11-14T12:45:14Z</time>
      </trkpt>
      <trkpt lat="44.03708" lon="4.62175">
        <ele>241.45</ele>
        <time>2021-11-14T12:45:39Z</time>
      </trkpt>
      <trkpt lat="44.03707" lon="4.62172">
        <ele>241.68</ele>
        <time>2021-11-14T12:45:58Z</time>
      </trkpt>
      <trkpt lat="44.03703" lon="4.62166">
        <ele>241.91</ele>
        <time>2021-11-14T12:46:18Z</time>
      </trkpt>
      <trkpt lat="44.03704" lon="4.62164">
        <ele>241.96</ele>
        <time>2021-11-14T12:46:19Z</time>
      </trkpt>
      <trkpt lat="44.03704" lon="4.62162">
        <ele>242.24</ele>
        <time>2021-11-14T12:46:20Z</time>
      </trkpt>
      <trkpt lat="44.03706" lon="4.62137">
        <ele>244.35</ele>
        <time>2021-11-14T12:46:35Z</time>
      </trkpt>
      <trkpt lat="44.03702" lon="4.62126">
        <ele>245.89</ele>
        <time>2021-11-14T12:46:43Z</time>
      </trkpt>
      <trkpt lat="44.03701" lon="4.62124">
        <ele>246.14</ele>
        <time>2021-11-14T12:46:44Z</time>
      </trkpt>
      <trkpt lat="44.037" lon="4.62123">
        <ele>246.16</ele>
        <time>2021-11-14T12:46:45Z</time>
      </trkpt>
      <trkpt lat="44.03697" lon="4.62119">
        <ele>246.34</ele>
        <time>2021-11-14T12:46:49Z</time>
      </trkpt>
      <trkpt lat="44.03688" lon="4.62098">
        <ele>247.65</ele>
        <time>2021-11-14T12:47:03Z</time>
      </trkpt>
      <trkpt lat="44.03685" lon="4.62075">
        <ele>249.41</ele>
        <time>2021-11-14T12:47:17Z</time>
      </trkpt>
      <trkpt lat="44.03683" lon="4.62059">
        <ele>250.74</ele>
        <time>2021-11-14T12:47:26Z</time>
      </trkpt>
      <trkpt lat="44.03685" lon="4.6205">
        <ele>251.56</ele>
        <time>2021-11-14T12:47:32Z</time>
      </trkpt>
      <trkpt lat="44.03686" lon="4.62048">
        <ele>251.7</ele>
        <time>2021-11-14T12:47:33Z</time>
      </trkpt>
      <trkpt lat="44.03689" lon="4.62035">
        <ele>253.95</ele>
        <time>2021-11-14T12:47:43Z</time>
      </trkpt>
      <trkpt lat="44.0369" lon="4.62033">
        <ele>254.15</ele>
        <time>2021-11-14T12:47:44Z</time>
      </trkpt>
      <trkpt lat="44.03691" lon="4.62024">
        <ele>254.59</ele>
        <time>2021-11-14T12:47:50Z</time>
      </trkpt>
      <trkpt lat="44.03704" lon="4.62015">
        <ele>256.71</ele>
        <time>2021-11-14T12:48:03Z</time>
      </trkpt>
      <trkpt lat="44.03705" lon="4.62017">
        <ele>256.94</ele>
        <time>2021-11-14T12:48:04Z</time>
      </trkpt>
      <trkpt lat="44.03705" lon="4.62018">
        <ele>256.87</ele>
        <time>2021-11-14T12:48:05Z</time>
      </trkpt>
      <trkpt lat="44.03708" lon="4.6202">
        <ele>257.18</ele>
        <time>2021-11-14T12:48:08Z</time>
      </trkpt>
      <trkpt lat="44.03709" lon="4.62021">
        <ele>257.52</ele>
        <time>2021-11-14T12:48:09Z</time>
      </trkpt>
      <trkpt lat="44.03716" lon="4.62026">
        <ele>258.56</ele>
        <time>2021-11-14T12:48:17Z</time>
      </trkpt>
      <trkpt lat="44.03717" lon="4.62027">
        <ele>258.75</ele>
        <time>2021-11-14T12:48:18Z</time>
      </trkpt>
      <trkpt lat="44.03727" lon="4.62039">
        <ele>258.94</ele>
        <time>2021-11-14T12:48:29Z</time>
      </trkpt>
      <trkpt lat="44.03739" lon="4.62039">
        <ele>260.23</ele>
        <time>2021-11-14T12:48:40Z</time>
      </trkpt>
      <trkpt lat="44.0374" lon="4.62038">
        <ele>260.24</ele>
        <time>2021-11-14T12:48:41Z</time>
      </trkpt>
      <trkpt lat="44.03741" lon="4.62037">
        <ele>260.47</ele>
        <time>2021-11-14T12:48:42Z</time>
      </trkpt>
      <trkpt lat="44.03745" lon="4.62034">
        <ele>260.56</ele>
        <time>2021-11-14T12:48:47Z</time>
      </trkpt>
      <trkpt lat="44.03746" lon="4.62032">
        <ele>260.73</ele>
        <time>2021-11-14T12:48:48Z</time>
      </trkpt>
      <trkpt lat="44.0375" lon="4.62024">
        <ele>261.2</ele>
        <time>2021-11-14T12:48:54Z</time>
      </trkpt>
      <trkpt lat="44.0375" lon="4.62023">
        <ele>261.41</ele>
        <time>2021-11-14T12:48:55Z</time>
      </trkpt>
      <trkpt lat="44.03751" lon="4.62021">
        <ele>261.51</ele>
        <time>2021-11-14T12:48:56Z</time>
      </trkpt>
      <trkpt lat="44.03752" lon="4.6202">
        <ele>261.54</ele>
        <time>2021-11-14T12:48:57Z</time>
      </trkpt>
      <trkpt lat="44.03753" lon="4.62018">
        <ele>261.57</ele>
        <time>2021-11-14T12:48:58Z</time>
      </trkpt>
      <trkpt lat="44.03754" lon="4.62003">
        <ele>262.07</ele>
        <time>2021-11-14T12:49:08Z</time>
      </trkpt>
      <trkpt lat="44.03759" lon="4.61995">
        <ele>263.27</ele>
        <time>2021-11-14T12:49:15Z</time>
      </trkpt>
      <trkpt lat="44.0376" lon="4.61994">
        <ele>263.29</ele>
        <time>2021-11-14T12:49:16Z</time>
      </trkpt>
      <trkpt lat="44.03761" lon="4.61993">
        <ele>263.47</ele>
        <time>2021-11-14T12:49:17Z</time>
      </trkpt>
      <trkpt lat="44.0377" lon="4.61983">
        <ele>264.8</ele>
        <time>2021-11-14T12:49:25Z</time>
      </trkpt>
      <trkpt lat="44.03771" lon="4.61982">
        <ele>265.04</ele>
        <time>2021-11-14T12:49:26Z</time>
      </trkpt>
      <trkpt lat="44.03772" lon="4.61981">
        <ele>264.83</ele>
        <time>2021-11-14T12:49:27Z</time>
      </trkpt>
      <trkpt lat="44.03774" lon="4.6198">
        <ele>264.71</ele>
        <time>2021-11-14T12:49:28Z</time>
      </trkpt>
      <trkpt lat="44.03775" lon="4.6198">
        <ele>264.59</ele>
        <time>2021-11-14T12:49:29Z</time>
      </trkpt>
      <trkpt lat="44.03777" lon="4.6198">
        <ele>264.64</ele>
        <time>2021-11-14T12:49:30Z</time>
      </trkpt>
      <trkpt lat="44.03783" lon="4.6198">
        <ele>265.13</ele>
        <time>2021-11-14T12:49:34Z</time>
      </trkpt>
      <trkpt lat="44.03784" lon="4.61979">
        <ele>265.26</ele>
        <time>2021-11-14T12:49:35Z</time>
      </trkpt>
      <trkpt lat="44.03789" lon="4.61976">
        <ele>266.15</ele>
        <time>2021-11-14T12:49:39Z</time>
      </trkpt>
      <trkpt lat="44.0379" lon="4.61975">
        <ele>266.45</ele>
        <time>2021-11-14T12:49:40Z</time>
      </trkpt>
      <trkpt lat="44.03792" lon="4.61974">
        <ele>266.5</ele>
        <time>2021-11-14T12:49:41Z</time>
      </trkpt>
      <trkpt lat="44.03795" lon="4.61971">
        <ele>266.66</ele>
        <time>2021-11-14T12:49:43Z</time>
      </trkpt>
      <trkpt lat="44.03802" lon="4.61958">
        <ele>267.1</ele>
        <time>2021-11-14T12:49:54Z</time>
      </trkpt>
      <trkpt lat="44.03803" lon="4.61956">
        <ele>267.09</ele>
        <time>2021-11-14T12:49:55Z</time>
      </trkpt>
      <trkpt lat="44.03803" lon="4.61954">
        <ele>266.92</ele>
        <time>2021-11-14T12:49:56Z</time>
      </trkpt>
      <trkpt lat="44.03803" lon="4.61952">
        <ele>267</ele>
        <time>2021-11-14T12:49:58Z</time>
      </trkpt>
      <trkpt lat="44.03804" lon="4.61949">
        <ele>267.05</ele>
        <time>2021-11-14T12:49:59Z</time>
      </trkpt>
      <trkpt lat="44.03804" lon="4.61947">
        <ele>267.3</ele>
        <time>2021-11-14T12:50:00Z</time>
      </trkpt>
      <trkpt lat="44.03805" lon="4.61945">
        <ele>267.57</ele>
        <time>2021-11-14T12:50:01Z</time>
      </trkpt>
      <trkpt lat="44.03806" lon="4.61944">
        <ele>267.97</ele>
        <time>2021-11-14T12:50:02Z</time>
      </trkpt>
      <trkpt lat="44.03807" lon="4.61944">
        <ele>268.78</ele>
        <time>2021-11-14T12:50:03Z</time>
      </trkpt>
      <trkpt lat="44.03809" lon="4.61944">
        <ele>269.36</ele>
        <time>2021-11-14T12:50:04Z</time>
      </trkpt>
      <trkpt lat="44.0381" lon="4.61944">
        <ele>268.97</ele>
        <time>2021-11-14T12:50:05Z</time>
      </trkpt>
      <trkpt lat="44.03811" lon="4.61945">
        <ele>268.65</ele>
        <time>2021-11-14T12:50:06Z</time>
      </trkpt>
      <trkpt lat="44.03812" lon="4.61946">
        <ele>268.28</ele>
        <time>2021-11-14T12:50:07Z</time>
      </trkpt>
      <trkpt lat="44.03838" lon="4.61973">
        <ele>268.45</ele>
        <time>2021-11-14T12:50:23Z</time>
      </trkpt>
      <trkpt lat="44.03855" lon="4.62013">
        <ele>268.51</ele>
        <time>2021-11-14T12:50:38Z</time>
      </trkpt>
      <trkpt lat="44.0388" lon="4.62038">
        <ele>268.94</ele>
        <time>2021-11-14T12:50:51Z</time>
      </trkpt>
      <trkpt lat="44.03905" lon="4.62062">
        <ele>268.63</ele>
        <time>2021-11-14T12:51:03Z</time>
      </trkpt>
      <trkpt lat="44.03938" lon="4.6208">
        <ele>268.43</ele>
        <time>2021-11-14T12:51:16Z</time>
      </trkpt>
      <trkpt lat="44.03971" lon="4.6209">
        <ele>268.95</ele>
        <time>2021-11-14T12:51:29Z</time>
      </trkpt>
      <trkpt lat="44.04" lon="4.62101">
        <ele>269.31</ele>
        <time>2021-11-14T12:51:41Z</time>
      </trkpt>
      <trkpt lat="44.04009" lon="4.6211">
        <ele>268.78</ele>
        <time>2021-11-14T12:51:51Z</time>
      </trkpt>
      <trkpt lat="44.0401" lon="4.62113">
        <ele>270.02</ele>
        <time>2021-11-14T12:52:30Z</time>
      </trkpt>
      <trkpt lat="44.0402" lon="4.6213">
        <ele>269.85</ele>
        <time>2021-11-14T12:53:20Z</time>
      </trkpt>
      <trkpt lat="44.04027" lon="4.6217">
        <ele>269.04</ele>
        <time>2021-11-14T12:53:32Z</time>
      </trkpt>
      <trkpt lat="44.04014" lon="4.62185">
        <ele>266.68</ele>
        <time>2021-11-14T12:53:40Z</time>
      </trkpt>
      <trkpt lat="44.04018" lon="4.62191">
        <ele>267.84</ele>
        <time>2021-11-14T12:53:53Z</time>
      </trkpt>
      <trkpt lat="44.04019" lon="4.62192">
        <ele>267.94</ele>
        <time>2021-11-14T12:53:54Z</time>
      </trkpt>
      <trkpt lat="44.0402" lon="4.62194">
        <ele>267.83</ele>
        <time>2021-11-14T12:53:55Z</time>
      </trkpt>
      <trkpt lat="44.04022" lon="4.62195">
        <ele>268.03</ele>
        <time>2021-11-14T12:53:56Z</time>
      </trkpt>
      <trkpt lat="44.04023" lon="4.62197">
        <ele>268.17</ele>
        <time>2021-11-14T12:53:57Z</time>
      </trkpt>
      <trkpt lat="44.04024" lon="4.62199">
        <ele>268.27</ele>
        <time>2021-11-14T12:53:58Z</time>
      </trkpt>
      <trkpt lat="44.04026" lon="4.622">
        <ele>268.27</ele>
        <time>2021-11-14T12:53:59Z</time>
      </trkpt>
      <trkpt lat="44.04027" lon="4.622">
        <ele>268.22</ele>
        <time>2021-11-14T12:54:00Z</time>
      </trkpt>
      <trkpt lat="44.04029" lon="4.62199">
        <ele>268.53</ele>
        <time>2021-11-14T12:54:01Z</time>
      </trkpt>
      <trkpt lat="44.0403" lon="4.62199">
        <ele>268.68</ele>
        <time>2021-11-14T12:54:02Z</time>
      </trkpt>
      <trkpt lat="44.04032" lon="4.62199">
        <ele>268.68</ele>
        <time>2021-11-14T12:54:03Z</time>
      </trkpt>
      <trkpt lat="44.04033" lon="4.62199">
        <ele>268.86</ele>
        <time>2021-11-14T12:54:04Z</time>
      </trkpt>
      <trkpt lat="44.04034" lon="4.62198">
        <ele>268.43</ele>
        <time>2021-11-14T12:54:05Z</time>
      </trkpt>
      <trkpt lat="44.04035" lon="4.62198">
        <ele>268.26</ele>
        <time>2021-11-14T12:54:06Z</time>
      </trkpt>
      <trkpt lat="44.04037" lon="4.62197">
        <ele>268.21</ele>
        <time>2021-11-14T12:54:08Z</time>
      </trkpt>
      <trkpt lat="44.04038" lon="4.62197">
        <ele>268.28</ele>
        <time>2021-11-14T12:54:09Z</time>
      </trkpt>
      <trkpt lat="44.0404" lon="4.62198">
        <ele>268.46</ele>
        <time>2021-11-14T12:54:10Z</time>
      </trkpt>
      <trkpt lat="44.04043" lon="4.62198">
        <ele>268.53</ele>
        <time>2021-11-14T12:54:12Z</time>
      </trkpt>
      <trkpt lat="44.04045" lon="4.622">
        <ele>268.64</ele>
        <time>2021-11-14T12:54:13Z</time>
      </trkpt>
      <trkpt lat="44.04049" lon="4.62204">
        <ele>268.61</ele>
        <time>2021-11-14T12:54:15Z</time>
      </trkpt>
      <trkpt lat="44.04051" lon="4.62205">
        <ele>269.03</ele>
        <time>2021-11-14T12:54:16Z</time>
      </trkpt>
      <trkpt lat="44.04053" lon="4.62206">
        <ele>269.45</ele>
        <time>2021-11-14T12:54:17Z</time>
      </trkpt>
      <trkpt lat="44.04055" lon="4.62206">
        <ele>269.37</ele>
        <time>2021-11-14T12:54:18Z</time>
      </trkpt>
      <trkpt lat="44.04057" lon="4.62206">
        <ele>269.05</ele>
        <time>2021-11-14T12:54:20Z</time>
      </trkpt>
      <trkpt lat="44.04059" lon="4.62208">
        <ele>268.51</ele>
        <time>2021-11-14T12:54:22Z</time>
      </trkpt>
      <trkpt lat="44.0406" lon="4.62209">
        <ele>268.37</ele>
        <time>2021-11-14T12:54:23Z</time>
      </trkpt>
      <trkpt lat="44.04061" lon="4.6221">
        <ele>268.44</ele>
        <time>2021-11-14T12:54:24Z</time>
      </trkpt>
      <trkpt lat="44.04063" lon="4.62209">
        <ele>268.58</ele>
        <time>2021-11-14T12:54:25Z</time>
      </trkpt>
      <trkpt lat="44.04065" lon="4.6221">
        <ele>268.37</ele>
        <time>2021-11-14T12:54:26Z</time>
      </trkpt>
      <trkpt lat="44.04066" lon="4.6221">
        <ele>268.08</ele>
        <time>2021-11-14T12:54:27Z</time>
      </trkpt>
      <trkpt lat="44.04067" lon="4.6221">
        <ele>268.03</ele>
        <time>2021-11-14T12:54:28Z</time>
      </trkpt>
      <trkpt lat="44.04071" lon="4.6221">
        <ele>267.91</ele>
        <time>2021-11-14T12:54:30Z</time>
      </trkpt>
      <trkpt lat="44.04072" lon="4.6221">
        <ele>267.94</ele>
        <time>2021-11-14T12:54:31Z</time>
      </trkpt>
      <trkpt lat="44.04074" lon="4.6221">
        <ele>268.02</ele>
        <time>2021-11-14T12:54:32Z</time>
      </trkpt>
      <trkpt lat="44.04075" lon="4.62211">
        <ele>267.98</ele>
        <time>2021-11-14T12:54:33Z</time>
      </trkpt>
      <trkpt lat="44.04077" lon="4.62212">
        <ele>267.9</ele>
        <time>2021-11-14T12:54:34Z</time>
      </trkpt>
      <trkpt lat="44.04079" lon="4.62212">
        <ele>268.12</ele>
        <time>2021-11-14T12:54:35Z</time>
      </trkpt>
      <trkpt lat="44.04081" lon="4.62211">
        <ele>268.14</ele>
        <time>2021-11-14T12:54:36Z</time>
      </trkpt>
      <trkpt lat="44.04083" lon="4.6221">
        <ele>267.96</ele>
        <time>2021-11-14T12:54:37Z</time>
      </trkpt>
      <trkpt lat="44.04084" lon="4.62209">
        <ele>267.8</ele>
        <time>2021-11-14T12:54:38Z</time>
      </trkpt>
      <trkpt lat="44.04086" lon="4.62209">
        <ele>267.61</ele>
        <time>2021-11-14T12:54:39Z</time>
      </trkpt>
      <trkpt lat="44.04088" lon="4.6221">
        <ele>267.39</ele>
        <time>2021-11-14T12:54:40Z</time>
      </trkpt>
      <trkpt lat="44.04091" lon="4.6221">
        <ele>266.57</ele>
        <time>2021-11-14T12:54:41Z</time>
      </trkpt>
      <trkpt lat="44.04092" lon="4.62211">
        <ele>266.04</ele>
        <time>2021-11-14T12:54:42Z</time>
      </trkpt>
      <trkpt lat="44.04094" lon="4.62211">
        <ele>265.94</ele>
        <time>2021-11-14T12:54:43Z</time>
      </trkpt>
      <trkpt lat="44.04096" lon="4.62212">
        <ele>266.32</ele>
        <time>2021-11-14T12:54:44Z</time>
      </trkpt>
      <trkpt lat="44.04098" lon="4.62211">
        <ele>266.5</ele>
        <time>2021-11-14T12:54:45Z</time>
      </trkpt>
      <trkpt lat="44.041" lon="4.6221">
        <ele>266.18</ele>
        <time>2021-11-14T12:54:46Z</time>
      </trkpt>
      <trkpt lat="44.04103" lon="4.6221">
        <ele>265.46</ele>
        <time>2021-11-14T12:54:47Z</time>
      </trkpt>
      <trkpt lat="44.04105" lon="4.62211">
        <ele>264.32</ele>
        <time>2021-11-14T12:54:48Z</time>
      </trkpt>
      <trkpt lat="44.04107" lon="4.62212">
        <ele>263.84</ele>
        <time>2021-11-14T12:54:49Z</time>
      </trkpt>
      <trkpt lat="44.04109" lon="4.62212">
        <ele>263.29</ele>
        <time>2021-11-14T12:54:50Z</time>
      </trkpt>
      <trkpt lat="44.0411" lon="4.62212">
        <ele>263.07</ele>
        <time>2021-11-14T12:54:51Z</time>
      </trkpt>
      <trkpt lat="44.04112" lon="4.62211">
        <ele>262.52</ele>
        <time>2021-11-14T12:54:52Z</time>
      </trkpt>
      <trkpt lat="44.04114" lon="4.62211">
        <ele>261.72</ele>
        <time>2021-11-14T12:54:53Z</time>
      </trkpt>
      <trkpt lat="44.04116" lon="4.6221">
        <ele>261.16</ele>
        <time>2021-11-14T12:54:54Z</time>
      </trkpt>
      <trkpt lat="44.04118" lon="4.6221">
        <ele>260.72</ele>
        <time>2021-11-14T12:54:55Z</time>
      </trkpt>
      <trkpt lat="44.04119" lon="4.6221">
        <ele>260.11</ele>
        <time>2021-11-14T12:54:56Z</time>
      </trkpt>
      <trkpt lat="44.04121" lon="4.6221">
        <ele>259.31</ele>
        <time>2021-11-14T12:54:57Z</time>
      </trkpt>
      <trkpt lat="44.04131" lon="4.62211">
        <ele>254.96</ele>
        <time>2021-11-14T12:55:09Z</time>
      </trkpt>
      <trkpt lat="44.04132" lon="4.6221">
        <ele>253.81</ele>
        <time>2021-11-14T12:55:10Z</time>
      </trkpt>
      <trkpt lat="44.04133" lon="4.62209">
        <ele>252.92</ele>
        <time>2021-11-14T12:55:11Z</time>
      </trkpt>
      <trkpt lat="44.04134" lon="4.62209">
        <ele>252.27</ele>
        <time>2021-11-14T12:55:13Z</time>
      </trkpt>
      <trkpt lat="44.0414" lon="4.62211">
        <ele>252.08</ele>
        <time>2021-11-14T12:55:44Z</time>
      </trkpt>
      <trkpt lat="44.04151" lon="4.62209">
        <ele>251.77</ele>
        <time>2021-11-14T12:56:05Z</time>
      </trkpt>
      <trkpt lat="44.04158" lon="4.62206">
        <ele>248.02</ele>
        <time>2021-11-14T12:56:16Z</time>
      </trkpt>
      <trkpt lat="44.04165" lon="4.62203">
        <ele>245.56</ele>
        <time>2021-11-14T12:56:21Z</time>
      </trkpt>
      <trkpt lat="44.04166" lon="4.62203">
        <ele>245.32</ele>
        <time>2021-11-14T12:56:22Z</time>
      </trkpt>
      <trkpt lat="44.04168" lon="4.62203">
        <ele>244.53</ele>
        <time>2021-11-14T12:56:23Z</time>
      </trkpt>
      <trkpt lat="44.0417" lon="4.62202">
        <ele>244.02</ele>
        <time>2021-11-14T12:56:24Z</time>
      </trkpt>
      <trkpt lat="44.04171" lon="4.62202">
        <ele>243.35</ele>
        <time>2021-11-14T12:56:25Z</time>
      </trkpt>
      <trkpt lat="44.04173" lon="4.62201">
        <ele>242.85</ele>
        <time>2021-11-14T12:56:26Z</time>
      </trkpt>
      <trkpt lat="44.04184" lon="4.622">
        <ele>239.77</ele>
        <time>2021-11-14T12:56:31Z</time>
      </trkpt>
      <trkpt lat="44.04197" lon="4.62197">
        <ele>236.69</ele>
        <time>2021-11-14T12:56:37Z</time>
      </trkpt>
      <trkpt lat="44.04202" lon="4.62195">
        <ele>234.9</ele>
        <time>2021-11-14T12:56:41Z</time>
      </trkpt>
      <trkpt lat="44.04208" lon="4.62192">
        <ele>234.11</ele>
        <time>2021-11-14T12:56:49Z</time>
      </trkpt>
      <trkpt lat="44.0421" lon="4.62191">
        <ele>233.69</ele>
        <time>2021-11-14T12:56:50Z</time>
      </trkpt>
      <trkpt lat="44.04212" lon="4.6219">
        <ele>233.3</ele>
        <time>2021-11-14T12:56:51Z</time>
      </trkpt>
      <trkpt lat="44.04213" lon="4.62189">
        <ele>233.15</ele>
        <time>2021-11-14T12:56:52Z</time>
      </trkpt>
      <trkpt lat="44.04215" lon="4.62188">
        <ele>232.61</ele>
        <time>2021-11-14T12:56:53Z</time>
      </trkpt>
      <trkpt lat="44.04216" lon="4.62187">
        <ele>232.27</ele>
        <time>2021-11-14T12:56:54Z</time>
      </trkpt>
      <trkpt lat="44.04218" lon="4.62186">
        <ele>231.83</ele>
        <time>2021-11-14T12:56:55Z</time>
      </trkpt>
      <trkpt lat="44.0422" lon="4.62185">
        <ele>231.59</ele>
        <time>2021-11-14T12:56:56Z</time>
      </trkpt>
      <trkpt lat="44.04222" lon="4.62184">
        <ele>231.37</ele>
        <time>2021-11-14T12:56:57Z</time>
      </trkpt>
      <trkpt lat="44.04231" lon="4.62179">
        <ele>230.53</ele>
        <time>2021-11-14T12:57:04Z</time>
      </trkpt>
      <trkpt lat="44.04232" lon="4.62178">
        <ele>230.15</ele>
        <time>2021-11-14T12:57:05Z</time>
      </trkpt>
      <trkpt lat="44.04243" lon="4.62171">
        <ele>227.99</ele>
        <time>2021-11-14T12:57:12Z</time>
      </trkpt>
      <trkpt lat="44.04246" lon="4.62169">
        <ele>227.17</ele>
        <time>2021-11-14T12:57:14Z</time>
      </trkpt>
      <trkpt lat="44.04248" lon="4.62168">
        <ele>226.46</ele>
        <time>2021-11-14T12:57:15Z</time>
      </trkpt>
      <trkpt lat="44.0425" lon="4.62166">
        <ele>225.95</ele>
        <time>2021-11-14T12:57:16Z</time>
      </trkpt>
      <trkpt lat="44.04252" lon="4.62164">
        <ele>225.29</ele>
        <time>2021-11-14T12:57:17Z</time>
      </trkpt>
      <trkpt lat="44.04254" lon="4.62163">
        <ele>224.97</ele>
        <time>2021-11-14T12:57:18Z</time>
      </trkpt>
      <trkpt lat="44.04265" lon="4.62151">
        <ele>223.03</ele>
        <time>2021-11-14T12:57:28Z</time>
      </trkpt>
      <trkpt lat="44.04269" lon="4.62145">
        <ele>221.03</ele>
        <time>2021-11-14T12:57:32Z</time>
      </trkpt>
      <trkpt lat="44.04271" lon="4.62144">
        <ele>220.72</ele>
        <time>2021-11-14T12:57:33Z</time>
      </trkpt>
      <trkpt lat="44.04279" lon="4.62138">
        <ele>219.09</ele>
        <time>2021-11-14T12:57:44Z</time>
      </trkpt>
      <trkpt lat="44.04288" lon="4.62134">
        <ele>218.09</ele>
        <time>2021-11-14T12:58:04Z</time>
      </trkpt>
      <trkpt lat="44.04294" lon="4.62132">
        <ele>218.01</ele>
        <time>2021-11-14T12:58:55Z</time>
      </trkpt>
      <trkpt lat="44.04294" lon="4.6213">
        <ele>219.07</ele>
        <time>2021-11-14T12:59:27Z</time>
      </trkpt>
      <trkpt lat="44.04311" lon="4.6212">
        <ele>216.83</ele>
        <time>2021-11-14T12:59:37Z</time>
      </trkpt>
      <trkpt lat="44.04314" lon="4.62119">
        <ele>216.48</ele>
        <time>2021-11-14T12:59:38Z</time>
      </trkpt>
      <trkpt lat="44.04318" lon="4.62117">
        <ele>216.13</ele>
        <time>2021-11-14T12:59:39Z</time>
      </trkpt>
      <trkpt lat="44.04321" lon="4.62115">
        <ele>215.28</ele>
        <time>2021-11-14T12:59:40Z</time>
      </trkpt>
      <trkpt lat="44.04323" lon="4.62112">
        <ele>214.7</ele>
        <time>2021-11-14T12:59:41Z</time>
      </trkpt>
      <trkpt lat="44.04325" lon="4.62111">
        <ele>214.61</ele>
        <time>2021-11-14T12:59:42Z</time>
      </trkpt>
      <trkpt lat="44.0433" lon="4.62105">
        <ele>213.63</ele>
        <time>2021-11-14T12:59:53Z</time>
      </trkpt>
      <trkpt lat="44.04347" lon="4.62093">
        <ele>212.01</ele>
        <time>2021-11-14T12:59:59Z</time>
      </trkpt>
      <trkpt lat="44.0436" lon="4.62083">
        <ele>209.76</ele>
        <time>2021-11-14T13:00:03Z</time>
      </trkpt>
      <trkpt lat="44.04363" lon="4.62079">
        <ele>209.1</ele>
        <time>2021-11-14T13:00:04Z</time>
      </trkpt>
      <trkpt lat="44.04366" lon="4.62075">
        <ele>208.57</ele>
        <time>2021-11-14T13:00:05Z</time>
      </trkpt>
      <trkpt lat="44.04369" lon="4.62072">
        <ele>208.25</ele>
        <time>2021-11-14T13:00:06Z</time>
      </trkpt>
      <trkpt lat="44.0437" lon="4.62069">
        <ele>207.65</ele>
        <time>2021-11-14T13:00:07Z</time>
      </trkpt>
      <trkpt lat="44.0437" lon="4.62067">
        <ele>207.45</ele>
        <time>2021-11-14T13:00:08Z</time>
      </trkpt>
      <trkpt lat="44.04372" lon="4.62065">
        <ele>207.14</ele>
        <time>2021-11-14T13:00:09Z</time>
      </trkpt>
      <trkpt lat="44.04373" lon="4.62064">
        <ele>207.06</ele>
        <time>2021-11-14T13:00:10Z</time>
      </trkpt>
      <trkpt lat="44.04375" lon="4.62061">
        <ele>206.95</ele>
        <time>2021-11-14T13:00:11Z</time>
      </trkpt>
      <trkpt lat="44.04376" lon="4.62059">
        <ele>206.66</ele>
        <time>2021-11-14T13:00:12Z</time>
      </trkpt>
      <trkpt lat="44.04378" lon="4.62057">
        <ele>205.99</ele>
        <time>2021-11-14T13:00:13Z</time>
      </trkpt>
      <trkpt lat="44.0438" lon="4.62055">
        <ele>205.33</ele>
        <time>2021-11-14T13:00:14Z</time>
      </trkpt>
      <trkpt lat="44.04382" lon="4.62052">
        <ele>205.06</ele>
        <time>2021-11-14T13:00:15Z</time>
      </trkpt>
      <trkpt lat="44.04397" lon="4.62035">
        <ele>203.67</ele>
        <time>2021-11-14T13:00:20Z</time>
      </trkpt>
      <trkpt lat="44.04407" lon="4.62023">
        <ele>202.94</ele>
        <time>2021-11-14T13:00:23Z</time>
      </trkpt>
      <trkpt lat="44.04418" lon="4.62004">
        <ele>201.69</ele>
        <time>2021-11-14T13:00:27Z</time>
      </trkpt>
      <trkpt lat="44.04419" lon="4.61997">
        <ele>201.18</ele>
        <time>2021-11-14T13:00:28Z</time>
      </trkpt>
      <trkpt lat="44.0442" lon="4.61991">
        <ele>200.52</ele>
        <time>2021-11-14T13:00:29Z</time>
      </trkpt>
      <trkpt lat="44.04424" lon="4.61979">
        <ele>199.01</ele>
        <time>2021-11-14T13:00:32Z</time>
      </trkpt>
      <trkpt lat="44.04437" lon="4.61962">
        <ele>197.45</ele>
        <time>2021-11-14T13:00:37Z</time>
      </trkpt>
      <trkpt lat="44.0444" lon="4.61956">
        <ele>196.83</ele>
        <time>2021-11-14T13:00:38Z</time>
      </trkpt>
      <trkpt lat="44.04442" lon="4.6195">
        <ele>196.09</ele>
        <time>2021-11-14T13:00:39Z</time>
      </trkpt>
      <trkpt lat="44.04445" lon="4.61945">
        <ele>195.66</ele>
        <time>2021-11-14T13:00:40Z</time>
      </trkpt>
      <trkpt lat="44.04448" lon="4.61939">
        <ele>194.94</ele>
        <time>2021-11-14T13:00:41Z</time>
      </trkpt>
      <trkpt lat="44.04451" lon="4.61934">
        <ele>194.44</ele>
        <time>2021-11-14T13:00:42Z</time>
      </trkpt>
      <trkpt lat="44.04455" lon="4.6193">
        <ele>193.61</ele>
        <time>2021-11-14T13:00:43Z</time>
      </trkpt>
      <trkpt lat="44.04458" lon="4.61927">
        <ele>193.13</ele>
        <time>2021-11-14T13:00:44Z</time>
      </trkpt>
      <trkpt lat="44.04462" lon="4.61924">
        <ele>192.46</ele>
        <time>2021-11-14T13:00:45Z</time>
      </trkpt>
      <trkpt lat="44.04467" lon="4.61921">
        <ele>191.83</ele>
        <time>2021-11-14T13:00:46Z</time>
      </trkpt>
      <trkpt lat="44.04488" lon="4.61905">
        <ele>189.17</ele>
        <time>2021-11-14T13:00:50Z</time>
      </trkpt>
      <trkpt lat="44.04497" lon="4.61895">
        <ele>187.93</ele>
        <time>2021-11-14T13:00:52Z</time>
      </trkpt>
      <trkpt lat="44.04502" lon="4.6189">
        <ele>187.71</ele>
        <time>2021-11-14T13:00:53Z</time>
      </trkpt>
      <trkpt lat="44.04506" lon="4.61884">
        <ele>187.06</ele>
        <time>2021-11-14T13:00:54Z</time>
      </trkpt>
      <trkpt lat="44.04511" lon="4.61879">
        <ele>186.3</ele>
        <time>2021-11-14T13:00:55Z</time>
      </trkpt>
      <trkpt lat="44.04516" lon="4.61874">
        <ele>185.83</ele>
        <time>2021-11-14T13:00:56Z</time>
      </trkpt>
      <trkpt lat="44.0452" lon="4.6187">
        <ele>184.94</ele>
        <time>2021-11-14T13:00:57Z</time>
      </trkpt>
      <trkpt lat="44.04525" lon="4.61867">
        <ele>184.42</ele>
        <time>2021-11-14T13:00:58Z</time>
      </trkpt>
      <trkpt lat="44.0453" lon="4.61864">
        <ele>184.1</ele>
        <time>2021-11-14T13:00:59Z</time>
      </trkpt>
      <trkpt lat="44.04532" lon="4.61859">
        <ele>184.16</ele>
        <time>2021-11-14T13:01:00Z</time>
      </trkpt>
      <trkpt lat="44.04534" lon="4.61853">
        <ele>183.64</ele>
        <time>2021-11-14T13:01:01Z</time>
      </trkpt>
      <trkpt lat="44.04535" lon="4.61847">
        <ele>183.53</ele>
        <time>2021-11-14T13:01:02Z</time>
      </trkpt>
      <trkpt lat="44.04536" lon="4.61842">
        <ele>183.09</ele>
        <time>2021-11-14T13:01:03Z</time>
      </trkpt>
      <trkpt lat="44.04537" lon="4.61838">
        <ele>182.46</ele>
        <time>2021-11-14T13:01:04Z</time>
      </trkpt>
      <trkpt lat="44.04538" lon="4.61835">
        <ele>181.75</ele>
        <time>2021-11-14T13:01:05Z</time>
      </trkpt>
      <trkpt lat="44.0454" lon="4.61828">
        <ele>180.69</ele>
        <time>2021-11-14T13:01:17Z</time>
      </trkpt>
      <trkpt lat="44.04546" lon="4.61822">
        <ele>181.45</ele>
        <time>2021-11-14T13:01:56Z</time>
      </trkpt>
      <trkpt lat="44.04556" lon="4.61787">
        <ele>180.04</ele>
        <time>2021-11-14T13:02:06Z</time>
      </trkpt>
      <trkpt lat="44.04556" lon="4.61783">
        <ele>179.57</ele>
        <time>2021-11-14T13:02:07Z</time>
      </trkpt>
      <trkpt lat="44.04545" lon="4.6174">
        <ele>176.76</ele>
        <time>2021-11-14T13:02:17Z</time>
      </trkpt>
      <trkpt lat="44.04552" lon="4.61717">
        <ele>175.2</ele>
        <time>2021-11-14T13:02:22Z</time>
      </trkpt>
      <trkpt lat="44.04554" lon="4.61715">
        <ele>175.26</ele>
        <time>2021-11-14T13:02:23Z</time>
      </trkpt>
      <trkpt lat="44.04556" lon="4.61715">
        <ele>175.17</ele>
        <time>2021-11-14T13:02:24Z</time>
      </trkpt>
      <trkpt lat="44.04557" lon="4.61716">
        <ele>175.19</ele>
        <time>2021-11-14T13:02:25Z</time>
      </trkpt>
      <trkpt lat="44.04559" lon="4.61717">
        <ele>174.95</ele>
        <time>2021-11-14T13:02:26Z</time>
      </trkpt>
      <trkpt lat="44.04593" lon="4.61744">
        <ele>173.85</ele>
        <time>2021-11-14T13:02:41Z</time>
      </trkpt>
      <trkpt lat="44.04636" lon="4.61769">
        <ele>172.82</ele>
        <time>2021-11-14T13:02:55Z</time>
      </trkpt>
      <trkpt lat="44.04698" lon="4.61808">
        <ele>169.59</ele>
        <time>2021-11-14T13:03:12Z</time>
      </trkpt>
      <trkpt lat="44.04701" lon="4.61811">
        <ele>169.46</ele>
        <time>2021-11-14T13:03:13Z</time>
      </trkpt>
      <trkpt lat="44.04742" lon="4.61857">
        <ele>166.44</ele>
        <time>2021-11-14T13:03:27Z</time>
      </trkpt>
      <trkpt lat="44.04747" lon="4.61862">
        <ele>165.93</ele>
        <time>2021-11-14T13:03:29Z</time>
      </trkpt>
      <trkpt lat="44.04747" lon="4.61865">
        <ele>165.11</ele>
        <time>2021-11-14T13:03:30Z</time>
      </trkpt>
      <trkpt lat="44.04746" lon="4.61867">
        <ele>165.06</ele>
        <time>2021-11-14T13:03:31Z</time>
      </trkpt>
      <trkpt lat="44.04746" lon="4.61868">
        <ele>165.03</ele>
        <time>2021-11-14T13:03:32Z</time>
      </trkpt>
      <trkpt lat="44.04745" lon="4.6187">
        <ele>165.06</ele>
        <time>2021-11-14T13:03:33Z</time>
      </trkpt>
      <trkpt lat="44.04746" lon="4.61872">
        <ele>165.27</ele>
        <time>2021-11-14T13:03:34Z</time>
      </trkpt>
      <trkpt lat="44.04747" lon="4.61875">
        <ele>165.26</ele>
        <time>2021-11-14T13:03:35Z</time>
      </trkpt>
      <trkpt lat="44.04747" lon="4.61878">
        <ele>165.25</ele>
        <time>2021-11-14T13:03:36Z</time>
      </trkpt>
      <trkpt lat="44.04748" lon="4.6188">
        <ele>165.14</ele>
        <time>2021-11-14T13:03:37Z</time>
      </trkpt>
      <trkpt lat="44.04749" lon="4.61883">
        <ele>164.15</ele>
        <time>2021-11-14T13:03:48Z</time>
      </trkpt>
      <trkpt lat="44.0475" lon="4.61887">
        <ele>164.28</ele>
        <time>2021-11-14T13:04:02Z</time>
      </trkpt>
      <trkpt lat="44.04753" lon="4.61907">
        <ele>165.22</ele>
        <time>2021-11-14T13:04:12Z</time>
      </trkpt>
      <trkpt lat="44.04752" lon="4.61917">
        <ele>168.58</ele>
        <time>2021-11-14T13:04:22Z</time>
      </trkpt>
      <trkpt lat="44.04752" lon="4.61927">
        <ele>169.81</ele>
        <time>2021-11-14T13:04:38Z</time>
      </trkpt>
      <trkpt lat="44.04753" lon="4.61934">
        <ele>169.25</ele>
        <time>2021-11-14T13:04:41Z</time>
      </trkpt>
      <trkpt lat="44.04754" lon="4.61936">
        <ele>169.05</ele>
        <time>2021-11-14T13:04:42Z</time>
      </trkpt>
      <trkpt lat="44.04754" lon="4.61938">
        <ele>168.97</ele>
        <time>2021-11-14T13:04:43Z</time>
      </trkpt>
      <trkpt lat="44.04754" lon="4.6194">
        <ele>168.76</ele>
        <time>2021-11-14T13:04:44Z</time>
      </trkpt>
      <trkpt lat="44.04753" lon="4.61942">
        <ele>168.83</ele>
        <time>2021-11-14T13:04:45Z</time>
      </trkpt>
      <trkpt lat="44.04753" lon="4.61953">
        <ele>169.24</ele>
        <time>2021-11-14T13:04:51Z</time>
      </trkpt>
      <trkpt lat="44.04753" lon="4.61955">
        <ele>169.37</ele>
        <time>2021-11-14T13:04:52Z</time>
      </trkpt>
      <trkpt lat="44.04754" lon="4.61958">
        <ele>169.5</ele>
        <time>2021-11-14T13:04:53Z</time>
      </trkpt>
      <trkpt lat="44.04754" lon="4.6196">
        <ele>169.69</ele>
        <time>2021-11-14T13:04:54Z</time>
      </trkpt>
      <trkpt lat="44.04754" lon="4.61962">
        <ele>169.95</ele>
        <time>2021-11-14T13:04:55Z</time>
      </trkpt>
      <trkpt lat="44.04754" lon="4.61964">
        <ele>170.17</ele>
        <time>2021-11-14T13:04:56Z</time>
      </trkpt>
      <trkpt lat="44.04753" lon="4.61966">
        <ele>170.41</ele>
        <time>2021-11-14T13:04:57Z</time>
      </trkpt>
      <trkpt lat="44.04753" lon="4.61968">
        <ele>170.97</ele>
        <time>2021-11-14T13:04:58Z</time>
      </trkpt>
      <trkpt lat="44.04753" lon="4.61969">
        <ele>171.19</ele>
        <time>2021-11-14T13:04:59Z</time>
      </trkpt>
      <trkpt lat="44.04753" lon="4.61971">
        <ele>171.31</ele>
        <time>2021-11-14T13:05:00Z</time>
      </trkpt>
      <trkpt lat="44.04753" lon="4.61974">
        <ele>171.34</ele>
        <time>2021-11-14T13:05:01Z</time>
      </trkpt>
      <trkpt lat="44.04753" lon="4.61976">
        <ele>171.48</ele>
        <time>2021-11-14T13:05:02Z</time>
      </trkpt>
      <trkpt lat="44.04754" lon="4.61978">
        <ele>171.61</ele>
        <time>2021-11-14T13:05:03Z</time>
      </trkpt>
      <trkpt lat="44.04754" lon="4.6198">
        <ele>171.64</ele>
        <time>2021-11-14T13:05:04Z</time>
      </trkpt>
      <trkpt lat="44.04755" lon="4.61982">
        <ele>171.81</ele>
        <time>2021-11-14T13:05:05Z</time>
      </trkpt>
      <trkpt lat="44.04755" lon="4.61985">
        <ele>171.79</ele>
        <time>2021-11-14T13:05:06Z</time>
      </trkpt>
      <trkpt lat="44.04768" lon="4.62001">
        <ele>170.17</ele>
        <time>2021-11-14T13:05:14Z</time>
      </trkpt>
      <trkpt lat="44.04768" lon="4.62004">
        <ele>169.82</ele>
        <time>2021-11-14T13:05:15Z</time>
      </trkpt>
      <trkpt lat="44.04772" lon="4.6204">
        <ele>168.58</ele>
        <time>2021-11-14T13:05:26Z</time>
      </trkpt>
      <trkpt lat="44.0477" lon="4.62065">
        <ele>170.67</ele>
        <time>2021-11-14T13:05:37Z</time>
      </trkpt>
      <trkpt lat="44.04768" lon="4.6207">
        <ele>170.84</ele>
        <time>2021-11-14T13:05:39Z</time>
      </trkpt>
      <trkpt lat="44.04767" lon="4.62072">
        <ele>170.89</ele>
        <time>2021-11-14T13:05:40Z</time>
      </trkpt>
      <trkpt lat="44.04765" lon="4.62073">
        <ele>170.86</ele>
        <time>2021-11-14T13:05:41Z</time>
      </trkpt>
      <trkpt lat="44.04764" lon="4.62074">
        <ele>170.88</ele>
        <time>2021-11-14T13:05:42Z</time>
      </trkpt>
      <trkpt lat="44.04763" lon="4.62076">
        <ele>170.91</ele>
        <time>2021-11-14T13:05:43Z</time>
      </trkpt>
      <trkpt lat="44.0476" lon="4.62087">
        <ele>172.66</ele>
        <time>2021-11-14T13:05:55Z</time>
      </trkpt>
      <trkpt lat="44.04759" lon="4.62089">
        <ele>172.67</ele>
        <time>2021-11-14T13:05:58Z</time>
      </trkpt>
      <trkpt lat="44.0475" lon="4.62094">
        <ele>174.52</ele>
        <time>2021-11-14T13:06:13Z</time>
      </trkpt>
      <trkpt lat="44.04748" lon="4.62093">
        <ele>175.97</ele>
        <time>2021-11-14T13:06:27Z</time>
      </trkpt>
      <trkpt lat="44.04741" lon="4.6209">
        <ele>178.03</ele>
        <time>2021-11-14T13:06:42Z</time>
      </trkpt>
      <trkpt lat="44.04737" lon="4.62094">
        <ele>178.97</ele>
        <time>2021-11-14T13:06:59Z</time>
      </trkpt>
      <trkpt lat="44.04737" lon="4.62096">
        <ele>179.11</ele>
        <time>2021-11-14T13:07:00Z</time>
      </trkpt>
      <trkpt lat="44.04737" lon="4.62098">
        <ele>179.24</ele>
        <time>2021-11-14T13:07:01Z</time>
      </trkpt>
      <trkpt lat="44.04736" lon="4.62099">
        <ele>179.32</ele>
        <time>2021-11-14T13:07:02Z</time>
      </trkpt>
      <trkpt lat="44.04735" lon="4.62117">
        <ele>179.97</ele>
        <time>2021-11-14T13:07:09Z</time>
      </trkpt>
      <trkpt lat="44.04734" lon="4.62118">
        <ele>180.18</ele>
        <time>2021-11-14T13:07:10Z</time>
      </trkpt>
      <trkpt lat="44.04735" lon="4.6212">
        <ele>180.23</ele>
        <time>2021-11-14T13:07:11Z</time>
      </trkpt>
      <trkpt lat="44.04736" lon="4.62123">
        <ele>180.21</ele>
        <time>2021-11-14T13:07:12Z</time>
      </trkpt>
      <trkpt lat="44.04736" lon="4.62125">
        <ele>180.36</ele>
        <time>2021-11-14T13:07:13Z</time>
      </trkpt>
      <trkpt lat="44.04736" lon="4.62127">
        <ele>180.6</ele>
        <time>2021-11-14T13:07:14Z</time>
      </trkpt>
      <trkpt lat="44.04736" lon="4.62129">
        <ele>180.89</ele>
        <time>2021-11-14T13:07:15Z</time>
      </trkpt>
      <trkpt lat="44.04737" lon="4.62131">
        <ele>181.07</ele>
        <time>2021-11-14T13:07:16Z</time>
      </trkpt>
      <trkpt lat="44.04738" lon="4.62132">
        <ele>180.92</ele>
        <time>2021-11-14T13:07:17Z</time>
      </trkpt>
      <trkpt lat="44.04739" lon="4.62134">
        <ele>180.69</ele>
        <time>2021-11-14T13:07:18Z</time>
      </trkpt>
      <trkpt lat="44.0474" lon="4.62135">
        <ele>180.68</ele>
        <time>2021-11-14T13:07:19Z</time>
      </trkpt>
      <trkpt lat="44.04741" lon="4.62138">
        <ele>180.51</ele>
        <time>2021-11-14T13:07:20Z</time>
      </trkpt>
      <trkpt lat="44.04742" lon="4.6214">
        <ele>180.66</ele>
        <time>2021-11-14T13:07:21Z</time>
      </trkpt>
      <trkpt lat="44.04744" lon="4.62141">
        <ele>181</ele>
        <time>2021-11-14T13:07:22Z</time>
      </trkpt>
      <trkpt lat="44.04745" lon="4.62142">
        <ele>181.16</ele>
        <time>2021-11-14T13:07:23Z</time>
      </trkpt>
      <trkpt lat="44.04747" lon="4.62142">
        <ele>181.14</ele>
        <time>2021-11-14T13:07:24Z</time>
      </trkpt>
      <trkpt lat="44.04749" lon="4.62142">
        <ele>181.06</ele>
        <time>2021-11-14T13:07:25Z</time>
      </trkpt>
      <trkpt lat="44.04752" lon="4.62142">
        <ele>180.76</ele>
        <time>2021-11-14T13:07:26Z</time>
      </trkpt>
      <trkpt lat="44.04755" lon="4.62141">
        <ele>180.42</ele>
        <time>2021-11-14T13:07:27Z</time>
      </trkpt>
      <trkpt lat="44.04757" lon="4.6214">
        <ele>179.64</ele>
        <time>2021-11-14T13:07:28Z</time>
      </trkpt>
      <trkpt lat="44.0476" lon="4.6214">
        <ele>179.18</ele>
        <time>2021-11-14T13:07:29Z</time>
      </trkpt>
      <trkpt lat="44.04763" lon="4.62141">
        <ele>179</ele>
        <time>2021-11-14T13:07:30Z</time>
      </trkpt>
      <trkpt lat="44.04797" lon="4.62155">
        <ele>176.75</ele>
        <time>2021-11-14T13:07:41Z</time>
      </trkpt>
      <trkpt lat="44.04815" lon="4.62175">
        <ele>176.13</ele>
        <time>2021-11-14T13:07:52Z</time>
      </trkpt>
      <trkpt lat="44.04826" lon="4.62197">
        <ele>177.61</ele>
        <time>2021-11-14T13:08:02Z</time>
      </trkpt>
      <trkpt lat="44.04827" lon="4.62199">
        <ele>177.5</ele>
        <time>2021-11-14T13:08:03Z</time>
      </trkpt>
      <trkpt lat="44.04812" lon="4.62213">
        <ele>176.03</ele>
        <time>2021-11-14T13:08:12Z</time>
      </trkpt>
      <trkpt lat="44.04794" lon="4.62228">
        <ele>174.2</ele>
        <time>2021-11-14T13:08:20Z</time>
      </trkpt>
      <trkpt lat="44.04783" lon="4.62257">
        <ele>172.54</ele>
        <time>2021-11-14T13:08:28Z</time>
      </trkpt>
      <trkpt lat="44.04784" lon="4.62256">
        <ele>172.91</ele>
        <time>2021-11-14T13:08:38Z</time>
      </trkpt>
      <trkpt lat="44.04787" lon="4.62267">
        <ele>173.31</ele>
        <time>2021-11-14T13:08:50Z</time>
      </trkpt>
      <trkpt lat="44.04789" lon="4.62269">
        <ele>172.63</ele>
        <time>2021-11-14T13:08:51Z</time>
      </trkpt>
      <trkpt lat="44.04791" lon="4.6227">
        <ele>171.01</ele>
        <time>2021-11-14T13:08:52Z</time>
      </trkpt>
      <trkpt lat="44.04794" lon="4.6227">
        <ele>170.24</ele>
        <time>2021-11-14T13:08:53Z</time>
      </trkpt>
      <trkpt lat="44.04796" lon="4.62268">
        <ele>169.73</ele>
        <time>2021-11-14T13:08:54Z</time>
      </trkpt>
      <trkpt lat="44.04798" lon="4.62266">
        <ele>169.37</ele>
        <time>2021-11-14T13:08:55Z</time>
      </trkpt>
      <trkpt lat="44.04805" lon="4.6226">
        <ele>168.67</ele>
        <time>2021-11-14T13:08:59Z</time>
      </trkpt>
      <trkpt lat="44.04807" lon="4.6226">
        <ele>168.29</ele>
        <time>2021-11-14T13:09:00Z</time>
      </trkpt>
      <trkpt lat="44.0481" lon="4.6226">
        <ele>168.06</ele>
        <time>2021-11-14T13:09:01Z</time>
      </trkpt>
      <trkpt lat="44.04813" lon="4.6226">
        <ele>167.65</ele>
        <time>2021-11-14T13:09:02Z</time>
      </trkpt>
      <trkpt lat="44.04817" lon="4.62258">
        <ele>167.47</ele>
        <time>2021-11-14T13:09:03Z</time>
      </trkpt>
      <trkpt lat="44.0482" lon="4.62256">
        <ele>167.31</ele>
        <time>2021-11-14T13:09:04Z</time>
      </trkpt>
      <trkpt lat="44.04822" lon="4.62254">
        <ele>166.76</ele>
        <time>2021-11-14T13:09:05Z</time>
      </trkpt>
      <trkpt lat="44.04827" lon="4.62252">
        <ele>165.76</ele>
        <time>2021-11-14T13:09:07Z</time>
      </trkpt>
      <trkpt lat="44.04829" lon="4.62254">
        <ele>165.26</ele>
        <time>2021-11-14T13:09:08Z</time>
      </trkpt>
      <trkpt lat="44.04831" lon="4.62256">
        <ele>165</ele>
        <time>2021-11-14T13:09:09Z</time>
      </trkpt>
      <trkpt lat="44.04833" lon="4.62258">
        <ele>164.82</ele>
        <time>2021-11-14T13:09:10Z</time>
      </trkpt>
      <trkpt lat="44.04834" lon="4.6226">
        <ele>164.38</ele>
        <time>2021-11-14T13:09:11Z</time>
      </trkpt>
      <trkpt lat="44.04836" lon="4.62261">
        <ele>163.92</ele>
        <time>2021-11-14T13:09:12Z</time>
      </trkpt>
      <trkpt lat="44.04839" lon="4.62263">
        <ele>163.62</ele>
        <time>2021-11-14T13:09:13Z</time>
      </trkpt>
      <trkpt lat="44.0484" lon="4.62266">
        <ele>162.82</ele>
        <time>2021-11-14T13:09:14Z</time>
      </trkpt>
      <trkpt lat="44.0484" lon="4.62269">
        <ele>162.06</ele>
        <time>2021-11-14T13:09:15Z</time>
      </trkpt>
      <trkpt lat="44.04839" lon="4.62273">
        <ele>161.91</ele>
        <time>2021-11-14T13:09:16Z</time>
      </trkpt>
      <trkpt lat="44.04837" lon="4.62275">
        <ele>161.67</ele>
        <time>2021-11-14T13:09:17Z</time>
      </trkpt>
      <trkpt lat="44.04835" lon="4.62276">
        <ele>161.84</ele>
        <time>2021-11-14T13:09:18Z</time>
      </trkpt>
      <trkpt lat="44.04833" lon="4.62276">
        <ele>162.13</ele>
        <time>2021-11-14T13:09:19Z</time>
      </trkpt>
      <trkpt lat="44.04832" lon="4.62276">
        <ele>162.1</ele>
        <time>2021-11-14T13:09:20Z</time>
      </trkpt>
      <trkpt lat="44.04816" lon="4.62293">
        <ele>163.15</ele>
        <time>2021-11-14T13:09:33Z</time>
      </trkpt>
      <trkpt lat="44.04801" lon="4.62306">
        <ele>162.99</ele>
        <time>2021-11-14T13:09:44Z</time>
      </trkpt>
      <trkpt lat="44.04799" lon="4.62306">
        <ele>163.02</ele>
        <time>2021-11-14T13:09:45Z</time>
      </trkpt>
      <trkpt lat="44.04798" lon="4.62307">
        <ele>163.21</ele>
        <time>2021-11-14T13:09:46Z</time>
      </trkpt>
      <trkpt lat="44.04797" lon="4.62308">
        <ele>163.42</ele>
        <time>2021-11-14T13:09:47Z</time>
      </trkpt>
      <trkpt lat="44.04796" lon="4.62309">
        <ele>163.52</ele>
        <time>2021-11-14T13:09:48Z</time>
      </trkpt>
      <trkpt lat="44.04794" lon="4.6231">
        <ele>163.71</ele>
        <time>2021-11-14T13:09:49Z</time>
      </trkpt>
      <trkpt lat="44.04793" lon="4.62311">
        <ele>163.77</ele>
        <time>2021-11-14T13:09:50Z</time>
      </trkpt>
      <trkpt lat="44.04792" lon="4.62311">
        <ele>163.78</ele>
        <time>2021-11-14T13:09:51Z</time>
      </trkpt>
      <trkpt lat="44.0479" lon="4.62312">
        <ele>164</ele>
        <time>2021-11-14T13:09:52Z</time>
      </trkpt>
      <trkpt lat="44.04788" lon="4.62313">
        <ele>163.98</ele>
        <time>2021-11-14T13:09:53Z</time>
      </trkpt>
      <trkpt lat="44.04765" lon="4.62319">
        <ele>165.97</ele>
        <time>2021-11-14T13:10:07Z</time>
      </trkpt>
      <trkpt lat="44.0474" lon="4.62323">
        <ele>168.22</ele>
        <time>2021-11-14T13:10:21Z</time>
      </trkpt>
      <trkpt lat="44.0473" lon="4.62326">
        <ele>168.39</ele>
        <time>2021-11-14T13:10:28Z</time>
      </trkpt>
      <trkpt lat="44.04729" lon="4.6233">
        <ele>168.4</ele>
        <time>2021-11-14T13:10:30Z</time>
      </trkpt>
      <trkpt lat="44.04728" lon="4.62331">
        <ele>168.39</ele>
        <time>2021-11-14T13:10:31Z</time>
      </trkpt>
      <trkpt lat="44.04728" lon="4.62333">
        <ele>168.39</ele>
        <time>2021-11-14T13:10:32Z</time>
      </trkpt>
      <trkpt lat="44.04729" lon="4.62339">
        <ele>168.28</ele>
        <time>2021-11-14T13:10:35Z</time>
      </trkpt>
      <trkpt lat="44.04741" lon="4.62372">
        <ele>169.43</ele>
        <time>2021-11-14T13:10:48Z</time>
      </trkpt>
      <trkpt lat="44.04742" lon="4.62378">
        <ele>170</ele>
        <time>2021-11-14T13:10:50Z</time>
      </trkpt>
      <trkpt lat="44.04742" lon="4.6238">
        <ele>170.42</ele>
        <time>2021-11-14T13:10:51Z</time>
      </trkpt>
      <trkpt lat="44.04739" lon="4.62392">
        <ele>171.95</ele>
        <time>2021-11-14T13:11:02Z</time>
      </trkpt>
      <trkpt lat="44.0474" lon="4.624">
        <ele>172.99</ele>
        <time>2021-11-14T13:11:09Z</time>
      </trkpt>
      <trkpt lat="44.04741" lon="4.62401">
        <ele>172.78</ele>
        <time>2021-11-14T13:11:10Z</time>
      </trkpt>
      <trkpt lat="44.04742" lon="4.62402">
        <ele>172.58</ele>
        <time>2021-11-14T13:11:11Z</time>
      </trkpt>
      <trkpt lat="44.04743" lon="4.62403">
        <ele>172.65</ele>
        <time>2021-11-14T13:11:12Z</time>
      </trkpt>
      <trkpt lat="44.04746" lon="4.62406">
        <ele>172.71</ele>
        <time>2021-11-14T13:11:27Z</time>
      </trkpt>
      <trkpt lat="44.04747" lon="4.62408">
        <ele>172.78</ele>
        <time>2021-11-14T13:11:30Z</time>
      </trkpt>
      <trkpt lat="44.04748" lon="4.62409">
        <ele>172.94</ele>
        <time>2021-11-14T13:11:31Z</time>
      </trkpt>
      <trkpt lat="44.04748" lon="4.6241">
        <ele>173.06</ele>
        <time>2021-11-14T13:11:32Z</time>
      </trkpt>
      <trkpt lat="44.0476" lon="4.62421">
        <ele>173.16</ele>
        <time>2021-11-14T13:11:41Z</time>
      </trkpt>
      <trkpt lat="44.04762" lon="4.62421">
        <ele>173.17</ele>
        <time>2021-11-14T13:11:42Z</time>
      </trkpt>
      <trkpt lat="44.04765" lon="4.62422">
        <ele>172.95</ele>
        <time>2021-11-14T13:11:43Z</time>
      </trkpt>
      <trkpt lat="44.0479" lon="4.62437">
        <ele>171.82</ele>
        <time>2021-11-14T13:11:54Z</time>
      </trkpt>
      <trkpt lat="44.04792" lon="4.6244">
        <ele>171.73</ele>
        <time>2021-11-14T13:11:55Z</time>
      </trkpt>
      <trkpt lat="44.04793" lon="4.62443">
        <ele>172</ele>
        <time>2021-11-14T13:11:56Z</time>
      </trkpt>
      <trkpt lat="44.04793" lon="4.62446">
        <ele>172.4</ele>
        <time>2021-11-14T13:11:57Z</time>
      </trkpt>
      <trkpt lat="44.04794" lon="4.62448">
        <ele>172.47</ele>
        <time>2021-11-14T13:11:58Z</time>
      </trkpt>
      <trkpt lat="44.04794" lon="4.6245">
        <ele>172.78</ele>
        <time>2021-11-14T13:11:59Z</time>
      </trkpt>
      <trkpt lat="44.04794" lon="4.62452">
        <ele>172.98</ele>
        <time>2021-11-14T13:12:00Z</time>
      </trkpt>
      <trkpt lat="44.04794" lon="4.62454">
        <ele>173.23</ele>
        <time>2021-11-14T13:12:01Z</time>
      </trkpt>
      <trkpt lat="44.04794" lon="4.62456">
        <ele>173.47</ele>
        <time>2021-11-14T13:12:02Z</time>
      </trkpt>
      <trkpt lat="44.04795" lon="4.62458">
        <ele>173.79</ele>
        <time>2021-11-14T13:12:03Z</time>
      </trkpt>
      <trkpt lat="44.04796" lon="4.62461">
        <ele>173.86</ele>
        <time>2021-11-14T13:12:04Z</time>
      </trkpt>
      <trkpt lat="44.0479" lon="4.62489">
        <ele>175.99</ele>
        <time>2021-11-14T13:12:19Z</time>
      </trkpt>
      <trkpt lat="44.04785" lon="4.62494">
        <ele>176.6</ele>
        <time>2021-11-14T13:12:23Z</time>
      </trkpt>
      <trkpt lat="44.04784" lon="4.62495">
        <ele>176.54</ele>
        <time>2021-11-14T13:12:24Z</time>
      </trkpt>
      <trkpt lat="44.04782" lon="4.62496">
        <ele>176.51</ele>
        <time>2021-11-14T13:12:25Z</time>
      </trkpt>
      <trkpt lat="44.04781" lon="4.62497">
        <ele>176.51</ele>
        <time>2021-11-14T13:12:26Z</time>
      </trkpt>
      <trkpt lat="44.0478" lon="4.62499">
        <ele>176.2</ele>
        <time>2021-11-14T13:12:27Z</time>
      </trkpt>
      <trkpt lat="44.04778" lon="4.62502">
        <ele>175.67</ele>
        <time>2021-11-14T13:12:28Z</time>
      </trkpt>
      <trkpt lat="44.04776" lon="4.62506">
        <ele>175.07</ele>
        <time>2021-11-14T13:12:29Z</time>
      </trkpt>
      <trkpt lat="44.04764" lon="4.62526">
        <ele>172.31</ele>
        <time>2021-11-14T13:12:33Z</time>
      </trkpt>
      <trkpt lat="44.0476" lon="4.62531">
        <ele>172.23</ele>
        <time>2021-11-14T13:12:34Z</time>
      </trkpt>
      <trkpt lat="44.04757" lon="4.62535">
        <ele>171.73</ele>
        <time>2021-11-14T13:12:35Z</time>
      </trkpt>
      <trkpt lat="44.04742" lon="4.62553">
        <ele>169.8</ele>
        <time>2021-11-14T13:12:40Z</time>
      </trkpt>
      <trkpt lat="44.04727" lon="4.62574">
        <ele>172.48</ele>
        <time>2021-11-14T13:12:51Z</time>
      </trkpt>
      <trkpt lat="44.04712" lon="4.62602">
        <ele>173.37</ele>
        <time>2021-11-14T13:13:04Z</time>
      </trkpt>
      <trkpt lat="44.04713" lon="4.62605">
        <ele>172.1</ele>
        <time>2021-11-14T13:13:05Z</time>
      </trkpt>
      <trkpt lat="44.04714" lon="4.62608">
        <ele>171.57</ele>
        <time>2021-11-14T13:13:06Z</time>
      </trkpt>
      <trkpt lat="44.04714" lon="4.62611">
        <ele>170.86</ele>
        <time>2021-11-14T13:13:07Z</time>
      </trkpt>
      <trkpt lat="44.04713" lon="4.62613">
        <ele>170.47</ele>
        <time>2021-11-14T13:13:08Z</time>
      </trkpt>
      <trkpt lat="44.04711" lon="4.62621">
        <ele>169.24</ele>
        <time>2021-11-14T13:13:19Z</time>
      </trkpt>
      <trkpt lat="44.04708" lon="4.62633">
        <ele>169.84</ele>
        <time>2021-11-14T13:14:05Z</time>
      </trkpt>
      <trkpt lat="44.04708" lon="4.62634">
        <ele>169.72</ele>
        <time>2021-11-14T13:14:07Z</time>
      </trkpt>
      <trkpt lat="44.04708" lon="4.62636">
        <ele>169.37</ele>
        <time>2021-11-14T13:14:08Z</time>
      </trkpt>
      <trkpt lat="44.04708" lon="4.62642">
        <ele>168.83</ele>
        <time>2021-11-14T13:14:09Z</time>
      </trkpt>
      <trkpt lat="44.04708" lon="4.62648">
        <ele>168.15</ele>
        <time>2021-11-14T13:14:10Z</time>
      </trkpt>
      <trkpt lat="44.04709" lon="4.62654">
        <ele>167.9</ele>
        <time>2021-11-14T13:14:11Z</time>
      </trkpt>
      <trkpt lat="44.0471" lon="4.6266">
        <ele>167.39</ele>
        <time>2021-11-14T13:14:12Z</time>
      </trkpt>
      <trkpt lat="44.0471" lon="4.62664">
        <ele>166.77</ele>
        <time>2021-11-14T13:14:13Z</time>
      </trkpt>
      <trkpt lat="44.04711" lon="4.62667">
        <ele>166.42</ele>
        <time>2021-11-14T13:14:14Z</time>
      </trkpt>
      <trkpt lat="44.04712" lon="4.62668">
        <ele>166.41</ele>
        <time>2021-11-14T13:14:15Z</time>
      </trkpt>
      <trkpt lat="44.04714" lon="4.62668">
        <ele>166.55</ele>
        <time>2021-11-14T13:14:16Z</time>
      </trkpt>
      <trkpt lat="44.04717" lon="4.62668">
        <ele>166.44</ele>
        <time>2021-11-14T13:14:17Z</time>
      </trkpt>
      <trkpt lat="44.0472" lon="4.62668">
        <ele>166.11</ele>
        <time>2021-11-14T13:14:18Z</time>
      </trkpt>
      <trkpt lat="44.04722" lon="4.62668">
        <ele>166.1</ele>
        <time>2021-11-14T13:14:19Z</time>
      </trkpt>
      <trkpt lat="44.04725" lon="4.62667">
        <ele>166.12</ele>
        <time>2021-11-14T13:14:20Z</time>
      </trkpt>
      <trkpt lat="44.04743" lon="4.62664">
        <ele>164.81</ele>
        <time>2021-11-14T13:14:25Z</time>
      </trkpt>
      <trkpt lat="44.04756" lon="4.62665">
        <ele>163.53</ele>
        <time>2021-11-14T13:14:28Z</time>
      </trkpt>
      <trkpt lat="44.04787" lon="4.62649">
        <ele>160.52</ele>
        <time>2021-11-14T13:14:37Z</time>
      </trkpt>
      <trkpt lat="44.04806" lon="4.62641">
        <ele>158.77</ele>
        <time>2021-11-14T13:14:42Z</time>
      </trkpt>
      <trkpt lat="44.04819" lon="4.62637">
        <ele>157.52</ele>
        <time>2021-11-14T13:14:45Z</time>
      </trkpt>
      <trkpt lat="44.04844" lon="4.62631">
        <ele>154.35</ele>
        <time>2021-11-14T13:14:53Z</time>
      </trkpt>
      <trkpt lat="44.04872" lon="4.62628">
        <ele>152.24</ele>
        <time>2021-11-14T13:15:02Z</time>
      </trkpt>
      <trkpt lat="44.049" lon="4.62628">
        <ele>151.79</ele>
        <time>2021-11-14T13:15:13Z</time>
      </trkpt>
      <trkpt lat="44.04931" lon="4.62635">
        <ele>150.23</ele>
        <time>2021-11-14T13:15:25Z</time>
      </trkpt>
      <trkpt lat="44.04942" lon="4.62638">
        <ele>149.92</ele>
        <time>2021-11-14T13:15:29Z</time>
      </trkpt>
      <trkpt lat="44.04945" lon="4.62635">
        <ele>149.84</ele>
        <time>2021-11-14T13:15:30Z</time>
      </trkpt>
      <trkpt lat="44.04948" lon="4.62633">
        <ele>149.73</ele>
        <time>2021-11-14T13:15:31Z</time>
      </trkpt>
      <trkpt lat="44.04951" lon="4.62633">
        <ele>149.68</ele>
        <time>2021-11-14T13:15:32Z</time>
      </trkpt>
      <trkpt lat="44.04953" lon="4.62634">
        <ele>149.52</ele>
        <time>2021-11-14T13:15:33Z</time>
      </trkpt>
      <trkpt lat="44.04955" lon="4.62636">
        <ele>149.44</ele>
        <time>2021-11-14T13:15:34Z</time>
      </trkpt>
      <trkpt lat="44.04986" lon="4.62665">
        <ele>148.36</ele>
        <time>2021-11-14T13:15:49Z</time>
      </trkpt>
      <trkpt lat="44.0499" lon="4.62669">
        <ele>148.06</ele>
        <time>2021-11-14T13:15:51Z</time>
      </trkpt>
      <trkpt lat="44.05005" lon="4.62674">
        <ele>147.46</ele>
        <time>2021-11-14T13:15:55Z</time>
      </trkpt>
      <trkpt lat="44.05009" lon="4.62674">
        <ele>147.15</ele>
        <time>2021-11-14T13:15:56Z</time>
      </trkpt>
      <trkpt lat="44.05013" lon="4.62673">
        <ele>146.49</ele>
        <time>2021-11-14T13:15:57Z</time>
      </trkpt>
      <trkpt lat="44.05016" lon="4.6267">
        <ele>146.23</ele>
        <time>2021-11-14T13:15:58Z</time>
      </trkpt>
      <trkpt lat="44.05018" lon="4.62666">
        <ele>146.07</ele>
        <time>2021-11-14T13:15:59Z</time>
      </trkpt>
      <trkpt lat="44.0502" lon="4.62663">
        <ele>146.06</ele>
        <time>2021-11-14T13:16:00Z</time>
      </trkpt>
      <trkpt lat="44.05021" lon="4.6266">
        <ele>145.95</ele>
        <time>2021-11-14T13:16:01Z</time>
      </trkpt>
      <trkpt lat="44.05022" lon="4.62658">
        <ele>146.15</ele>
        <time>2021-11-14T13:16:02Z</time>
      </trkpt>
      <trkpt lat="44.05022" lon="4.62649">
        <ele>146.32</ele>
        <time>2021-11-14T13:16:06Z</time>
      </trkpt>
      <trkpt lat="44.05022" lon="4.62647">
        <ele>146.36</ele>
        <time>2021-11-14T13:16:07Z</time>
      </trkpt>
      <trkpt lat="44.05019" lon="4.62644">
        <ele>145.71</ele>
        <time>2021-11-14T13:16:41Z</time>
      </trkpt>
      <trkpt lat="44.05017" lon="4.62643">
        <ele>145.81</ele>
        <time>2021-11-14T13:16:42Z</time>
      </trkpt>
      <trkpt lat="44.05016" lon="4.62642">
        <ele>145.94</ele>
        <time>2021-11-14T13:16:43Z</time>
      </trkpt>
      <trkpt lat="44.05015" lon="4.62641">
        <ele>145.98</ele>
        <time>2021-11-14T13:16:44Z</time>
      </trkpt>
      <trkpt lat="44.05013" lon="4.6264">
        <ele>146.13</ele>
        <time>2021-11-14T13:16:45Z</time>
      </trkpt>
      <trkpt lat="44.05011" lon="4.62639">
        <ele>146.19</ele>
        <time>2021-11-14T13:16:46Z</time>
      </trkpt>
      <trkpt lat="44.0501" lon="4.62638">
        <ele>146.31</ele>
        <time>2021-11-14T13:16:47Z</time>
      </trkpt>
      <trkpt lat="44.05008" lon="4.62636">
        <ele>146.62</ele>
        <time>2021-11-14T13:16:48Z</time>
      </trkpt>
      <trkpt lat="44.04989" lon="4.62611">
        <ele>147.7</ele>
        <time>2021-11-14T13:17:05Z</time>
      </trkpt>
      <trkpt lat="44.04986" lon="4.62602">
        <ele>149.91</ele>
        <time>2021-11-14T13:17:09Z</time>
      </trkpt>
      <trkpt lat="44.04984" lon="4.62598">
        <ele>149.62</ele>
        <time>2021-11-14T13:17:11Z</time>
      </trkpt>
      <trkpt lat="44.04983" lon="4.62597">
        <ele>149.74</ele>
        <time>2021-11-14T13:17:12Z</time>
      </trkpt>
      <trkpt lat="44.04982" lon="4.62595">
        <ele>149.5</ele>
        <time>2021-11-14T13:17:13Z</time>
      </trkpt>
      <trkpt lat="44.0498" lon="4.62593">
        <ele>149.43</ele>
        <time>2021-11-14T13:17:14Z</time>
      </trkpt>
      <trkpt lat="44.04977" lon="4.62591">
        <ele>149.1</ele>
        <time>2021-11-14T13:17:15Z</time>
      </trkpt>
      <trkpt lat="44.04975" lon="4.6259">
        <ele>148.68</ele>
        <time>2021-11-14T13:17:16Z</time>
      </trkpt>
      <trkpt lat="44.04972" lon="4.62588">
        <ele>147.7</ele>
        <time>2021-11-14T13:17:17Z</time>
      </trkpt>
      <trkpt lat="44.04969" lon="4.62587">
        <ele>147.51</ele>
        <time>2021-11-14T13:17:18Z</time>
      </trkpt>
      <trkpt lat="44.04965" lon="4.62586">
        <ele>147.28</ele>
        <time>2021-11-14T13:17:19Z</time>
      </trkpt>
      <trkpt lat="44.04963" lon="4.62585">
        <ele>147.1</ele>
        <time>2021-11-14T13:17:20Z</time>
      </trkpt>
      <trkpt lat="44.04962" lon="4.62584">
        <ele>147.11</ele>
        <time>2021-11-14T13:17:21Z</time>
      </trkpt>
      <trkpt lat="44.04961" lon="4.62583">
        <ele>147.06</ele>
        <time>2021-11-14T13:17:22Z</time>
      </trkpt>
      <trkpt lat="44.0496" lon="4.62582">
        <ele>146.8</ele>
        <time>2021-11-14T13:17:23Z</time>
      </trkpt>
      <trkpt lat="44.04959" lon="4.6258">
        <ele>146.67</ele>
        <time>2021-11-14T13:17:24Z</time>
      </trkpt>
      <trkpt lat="44.04957" lon="4.62578">
        <ele>146.87</ele>
        <time>2021-11-14T13:17:25Z</time>
      </trkpt>
      <trkpt lat="44.04955" lon="4.62577">
        <ele>147.17</ele>
        <time>2021-11-14T13:17:26Z</time>
      </trkpt>
      <trkpt lat="44.04954" lon="4.62576">
        <ele>147.54</ele>
        <time>2021-11-14T13:17:27Z</time>
      </trkpt>
      <trkpt lat="44.04954" lon="4.62575">
        <ele>147.71</ele>
        <time>2021-11-14T13:17:28Z</time>
      </trkpt>
      <trkpt lat="44.04955" lon="4.62573">
        <ele>147.85</ele>
        <time>2021-11-14T13:17:29Z</time>
      </trkpt>
      <trkpt lat="44.04955" lon="4.62571">
        <ele>147.58</ele>
        <time>2021-11-14T13:17:30Z</time>
      </trkpt>
      <trkpt lat="44.04956" lon="4.62569">
        <ele>147.59</ele>
        <time>2021-11-14T13:17:31Z</time>
      </trkpt>
      <trkpt lat="44.04957" lon="4.62568">
        <ele>147.72</ele>
        <time>2021-11-14T13:17:32Z</time>
      </trkpt>
      <trkpt lat="44.04959" lon="4.62563">
        <ele>148.78</ele>
        <time>2021-11-14T13:17:35Z</time>
      </trkpt>
      <trkpt lat="44.0496" lon="4.62561">
        <ele>148.95</ele>
        <time>2021-11-14T13:17:36Z</time>
      </trkpt>
      <trkpt lat="44.04961" lon="4.62559">
        <ele>148.98</ele>
        <time>2021-11-14T13:17:37Z</time>
      </trkpt>
      <trkpt lat="44.04964" lon="4.62544">
        <ele>148.73</ele>
        <time>2021-11-14T13:17:43Z</time>
      </trkpt>
      <trkpt lat="44.04965" lon="4.62541">
        <ele>148.66</ele>
        <time>2021-11-14T13:17:44Z</time>
      </trkpt>
      <trkpt lat="44.04966" lon="4.62539">
        <ele>148.54</ele>
        <time>2021-11-14T13:17:45Z</time>
      </trkpt>
      <trkpt lat="44.04966" lon="4.62536">
        <ele>148.62</ele>
        <time>2021-11-14T13:17:46Z</time>
      </trkpt>
      <trkpt lat="44.04965" lon="4.62534">
        <ele>148.44</ele>
        <time>2021-11-14T13:17:47Z</time>
      </trkpt>
      <trkpt lat="44.04966" lon="4.62526">
        <ele>148.58</ele>
        <time>2021-11-14T13:17:50Z</time>
      </trkpt>
      <trkpt lat="44.04971" lon="4.62509">
        <ele>150.03</ele>
        <time>2021-11-14T13:17:57Z</time>
      </trkpt>
      <trkpt lat="44.04972" lon="4.62507">
        <ele>150.41</ele>
        <time>2021-11-14T13:17:58Z</time>
      </trkpt>
      <trkpt lat="44.04973" lon="4.62505">
        <ele>150.72</ele>
        <time>2021-11-14T13:17:59Z</time>
      </trkpt>
      <trkpt lat="44.04978" lon="4.62491">
        <ele>151.18</ele>
        <time>2021-11-14T13:18:05Z</time>
      </trkpt>
      <trkpt lat="44.0498" lon="4.6249">
        <ele>151.28</ele>
        <time>2021-11-14T13:18:06Z</time>
      </trkpt>
      <trkpt lat="44.04981" lon="4.62489">
        <ele>151.22</ele>
        <time>2021-11-14T13:18:07Z</time>
      </trkpt>
      <trkpt lat="44.04982" lon="4.62487">
        <ele>151.22</ele>
        <time>2021-11-14T13:18:08Z</time>
      </trkpt>
      <trkpt lat="44.04982" lon="4.62484">
        <ele>151.4</ele>
        <time>2021-11-14T13:18:09Z</time>
      </trkpt>
      <trkpt lat="44.04983" lon="4.62482">
        <ele>151.32</ele>
        <time>2021-11-14T13:18:10Z</time>
      </trkpt>
      <trkpt lat="44.04983" lon="4.6248">
        <ele>151.55</ele>
        <time>2021-11-14T13:18:11Z</time>
      </trkpt>
      <trkpt lat="44.04984" lon="4.62478">
        <ele>151.69</ele>
        <time>2021-11-14T13:18:12Z</time>
      </trkpt>
      <trkpt lat="44.04984" lon="4.62476">
        <ele>151.85</ele>
        <time>2021-11-14T13:18:13Z</time>
      </trkpt>
      <trkpt lat="44.04984" lon="4.62474">
        <ele>151.77</ele>
        <time>2021-11-14T13:18:14Z</time>
      </trkpt>
      <trkpt lat="44.04983" lon="4.62472">
        <ele>151.79</ele>
        <time>2021-11-14T13:18:15Z</time>
      </trkpt>
      <trkpt lat="44.04983" lon="4.62471">
        <ele>151.7</ele>
        <time>2021-11-14T13:18:16Z</time>
      </trkpt>
      <trkpt lat="44.04984" lon="4.62469">
        <ele>151.56</ele>
        <time>2021-11-14T13:18:17Z</time>
      </trkpt>
      <trkpt lat="44.04985" lon="4.62467">
        <ele>151.4</ele>
        <time>2021-11-14T13:18:18Z</time>
      </trkpt>
      <trkpt lat="44.04986" lon="4.62465">
        <ele>151.28</ele>
        <time>2021-11-14T13:18:19Z</time>
      </trkpt>
      <trkpt lat="44.04986" lon="4.62463">
        <ele>151.15</ele>
        <time>2021-11-14T13:18:20Z</time>
      </trkpt>
      <trkpt lat="44.04987" lon="4.6246">
        <ele>151.29</ele>
        <time>2021-11-14T13:18:21Z</time>
      </trkpt>
      <trkpt lat="44.04989" lon="4.62456">
        <ele>151.03</ele>
        <time>2021-11-14T13:18:23Z</time>
      </trkpt>
      <trkpt lat="44.04996" lon="4.62443">
        <ele>151.7</ele>
        <time>2021-11-14T13:18:29Z</time>
      </trkpt>
      <trkpt lat="44.04997" lon="4.62441">
        <ele>151.74</ele>
        <time>2021-11-14T13:18:30Z</time>
      </trkpt>
      <trkpt lat="44.04998" lon="4.62439">
        <ele>151.83</ele>
        <time>2021-11-14T13:18:31Z</time>
      </trkpt>
      <trkpt lat="44.05" lon="4.62437">
        <ele>151.92</ele>
        <time>2021-11-14T13:18:32Z</time>
      </trkpt>
      <trkpt lat="44.05001" lon="4.62434">
        <ele>152.18</ele>
        <time>2021-11-14T13:18:33Z</time>
      </trkpt>
      <trkpt lat="44.05002" lon="4.62432">
        <ele>152.24</ele>
        <time>2021-11-14T13:18:34Z</time>
      </trkpt>
      <trkpt lat="44.05002" lon="4.62429">
        <ele>152.47</ele>
        <time>2021-11-14T13:18:35Z</time>
      </trkpt>
      <trkpt lat="44.05002" lon="4.62426">
        <ele>152.56</ele>
        <time>2021-11-14T13:18:36Z</time>
      </trkpt>
      <trkpt lat="44.05002" lon="4.62423">
        <ele>152.72</ele>
        <time>2021-11-14T13:18:37Z</time>
      </trkpt>
      <trkpt lat="44.05004" lon="4.62421">
        <ele>152.79</ele>
        <time>2021-11-14T13:18:38Z</time>
      </trkpt>
      <trkpt lat="44.05005" lon="4.62419">
        <ele>153.44</ele>
        <time>2021-11-14T13:18:48Z</time>
      </trkpt>
      <trkpt lat="44.05006" lon="4.62419">
        <ele>153.61</ele>
        <time>2021-11-14T13:18:49Z</time>
      </trkpt>
      <trkpt lat="44.05008" lon="4.62419">
        <ele>153.59</ele>
        <time>2021-11-14T13:18:50Z</time>
      </trkpt>
      <trkpt lat="44.05009" lon="4.6242">
        <ele>153.64</ele>
        <time>2021-11-14T13:18:51Z</time>
      </trkpt>
      <trkpt lat="44.05011" lon="4.62421">
        <ele>153.63</ele>
        <time>2021-11-14T13:18:52Z</time>
      </trkpt>
      <trkpt lat="44.05012" lon="4.62422">
        <ele>153.75</ele>
        <time>2021-11-14T13:18:53Z</time>
      </trkpt>
      <trkpt lat="44.05014" lon="4.62421">
        <ele>153.98</ele>
        <time>2021-11-14T13:18:54Z</time>
      </trkpt>
      <trkpt lat="44.05015" lon="4.6242">
        <ele>154.28</ele>
        <time>2021-11-14T13:18:55Z</time>
      </trkpt>
      <trkpt lat="44.05017" lon="4.62419">
        <ele>154.49</ele>
        <time>2021-11-14T13:18:56Z</time>
      </trkpt>
      <trkpt lat="44.05018" lon="4.62419">
        <ele>154.63</ele>
        <time>2021-11-14T13:18:57Z</time>
      </trkpt>
      <trkpt lat="44.0502" lon="4.62419">
        <ele>155.23</ele>
        <time>2021-11-14T13:18:58Z</time>
      </trkpt>
      <trkpt lat="44.05021" lon="4.62418">
        <ele>155.53</ele>
        <time>2021-11-14T13:18:59Z</time>
      </trkpt>
      <trkpt lat="44.05022" lon="4.62417">
        <ele>155.63</ele>
        <time>2021-11-14T13:19:00Z</time>
      </trkpt>
      <trkpt lat="44.05024" lon="4.62416">
        <ele>155.57</ele>
        <time>2021-11-14T13:19:01Z</time>
      </trkpt>
      <trkpt lat="44.05025" lon="4.62413">
        <ele>155.38</ele>
        <time>2021-11-14T13:19:02Z</time>
      </trkpt>
      <trkpt lat="44.05026" lon="4.62411">
        <ele>155.5</ele>
        <time>2021-11-14T13:19:03Z</time>
      </trkpt>
      <trkpt lat="44.05027" lon="4.62409">
        <ele>155.52</ele>
        <time>2021-11-14T13:19:04Z</time>
      </trkpt>
      <trkpt lat="44.05028" lon="4.62407">
        <ele>155.64</ele>
        <time>2021-11-14T13:19:05Z</time>
      </trkpt>
      <trkpt lat="44.0503" lon="4.62406">
        <ele>155.86</ele>
        <time>2021-11-14T13:19:06Z</time>
      </trkpt>
      <trkpt lat="44.05031" lon="4.62405">
        <ele>155.99</ele>
        <time>2021-11-14T13:19:07Z</time>
      </trkpt>
      <trkpt lat="44.05033" lon="4.62404">
        <ele>155.78</ele>
        <time>2021-11-14T13:19:08Z</time>
      </trkpt>
      <trkpt lat="44.05035" lon="4.62403">
        <ele>155.88</ele>
        <time>2021-11-14T13:19:09Z</time>
      </trkpt>
      <trkpt lat="44.05037" lon="4.62402">
        <ele>155.88</ele>
        <time>2021-11-14T13:19:10Z</time>
      </trkpt>
      <trkpt lat="44.05066" lon="4.624">
        <ele>157.33</ele>
        <time>2021-11-14T13:19:24Z</time>
      </trkpt>
      <trkpt lat="44.05084" lon="4.62411">
        <ele>158.97</ele>
        <time>2021-11-14T13:19:36Z</time>
      </trkpt>
      <trkpt lat="44.05084" lon="4.62413">
        <ele>159.01</ele>
        <time>2021-11-14T13:19:37Z</time>
      </trkpt>
      <trkpt lat="44.05083" lon="4.62415">
        <ele>159.11</ele>
        <time>2021-11-14T13:19:38Z</time>
      </trkpt>
      <trkpt lat="44.05083" lon="4.62418">
        <ele>159.11</ele>
        <time>2021-11-14T13:19:39Z</time>
      </trkpt>
      <trkpt lat="44.05082" lon="4.6242">
        <ele>159.24</ele>
        <time>2021-11-14T13:19:40Z</time>
      </trkpt>
      <trkpt lat="44.05081" lon="4.62421">
        <ele>159.22</ele>
        <time>2021-11-14T13:19:41Z</time>
      </trkpt>
      <trkpt lat="44.0508" lon="4.62423">
        <ele>159.38</ele>
        <time>2021-11-14T13:19:42Z</time>
      </trkpt>
      <trkpt lat="44.05078" lon="4.62429">
        <ele>159.49</ele>
        <time>2021-11-14T13:19:45Z</time>
      </trkpt>
      <trkpt lat="44.05079" lon="4.62431">
        <ele>159.64</ele>
        <time>2021-11-14T13:19:46Z</time>
      </trkpt>
      <trkpt lat="44.05081" lon="4.62437">
        <ele>160.07</ele>
        <time>2021-11-14T13:19:49Z</time>
      </trkpt>
      <trkpt lat="44.05091" lon="4.62454">
        <ele>161.17</ele>
        <time>2021-11-14T13:19:58Z</time>
      </trkpt>
      <trkpt lat="44.05092" lon="4.62456">
        <ele>161.41</ele>
        <time>2021-11-14T13:19:59Z</time>
      </trkpt>
      <trkpt lat="44.05094" lon="4.62456">
        <ele>161.6</ele>
        <time>2021-11-14T13:20:00Z</time>
      </trkpt>
      <trkpt lat="44.05095" lon="4.62456">
        <ele>161.61</ele>
        <time>2021-11-14T13:20:01Z</time>
      </trkpt>
      <trkpt lat="44.05096" lon="4.62457">
        <ele>161.5</ele>
        <time>2021-11-14T13:20:02Z</time>
      </trkpt>
      <trkpt lat="44.05098" lon="4.62459">
        <ele>161.56</ele>
        <time>2021-11-14T13:20:03Z</time>
      </trkpt>
      <trkpt lat="44.05099" lon="4.6246">
        <ele>161.4</ele>
        <time>2021-11-14T13:20:04Z</time>
      </trkpt>
      <trkpt lat="44.051" lon="4.62462">
        <ele>161.31</ele>
        <time>2021-11-14T13:20:05Z</time>
      </trkpt>
      <trkpt lat="44.05101" lon="4.62465">
        <ele>161.1</ele>
        <time>2021-11-14T13:20:06Z</time>
      </trkpt>
      <trkpt lat="44.05101" lon="4.62467">
        <ele>161.01</ele>
        <time>2021-11-14T13:20:07Z</time>
      </trkpt>
      <trkpt lat="44.05102" lon="4.62469">
        <ele>160.96</ele>
        <time>2021-11-14T13:20:08Z</time>
      </trkpt>
      <trkpt lat="44.05103" lon="4.62476">
        <ele>160.4</ele>
        <time>2021-11-14T13:20:11Z</time>
      </trkpt>
      <trkpt lat="44.0511" lon="4.6249">
        <ele>159.67</ele>
        <time>2021-11-14T13:20:18Z</time>
      </trkpt>
      <trkpt lat="44.05112" lon="4.62491">
        <ele>159.47</ele>
        <time>2021-11-14T13:20:19Z</time>
      </trkpt>
      <trkpt lat="44.05114" lon="4.62492">
        <ele>159.11</ele>
        <time>2021-11-14T13:20:20Z</time>
      </trkpt>
      <trkpt lat="44.05115" lon="4.62495">
        <ele>159.02</ele>
        <time>2021-11-14T13:20:21Z</time>
      </trkpt>
      <trkpt lat="44.05116" lon="4.62497">
        <ele>158.34</ele>
        <time>2021-11-14T13:20:22Z</time>
      </trkpt>
      <trkpt lat="44.05118" lon="4.625">
        <ele>157.92</ele>
        <time>2021-11-14T13:20:23Z</time>
      </trkpt>
      <trkpt lat="44.05119" lon="4.62501">
        <ele>157.81</ele>
        <time>2021-11-14T13:20:24Z</time>
      </trkpt>
      <trkpt lat="44.05121" lon="4.62503">
        <ele>157.22</ele>
        <time>2021-11-14T13:20:25Z</time>
      </trkpt>
      <trkpt lat="44.05134" lon="4.62518">
        <ele>154.73</ele>
        <time>2021-11-14T13:20:31Z</time>
      </trkpt>
      <trkpt lat="44.05137" lon="4.62524">
        <ele>153.81</ele>
        <time>2021-11-14T13:20:33Z</time>
      </trkpt>
      <trkpt lat="44.05138" lon="4.62528">
        <ele>153.52</ele>
        <time>2021-11-14T13:20:34Z</time>
      </trkpt>
      <trkpt lat="44.05138" lon="4.62532">
        <ele>155.24</ele>
        <time>2021-11-14T13:20:45Z</time>
      </trkpt>
      <trkpt lat="44.05142" lon="4.62556">
        <ele>154.85</ele>
        <time>2021-11-14T13:21:04Z</time>
      </trkpt>
      <trkpt lat="44.0516" lon="4.6259">
        <ele>151.5</ele>
        <time>2021-11-14T13:21:14Z</time>
      </trkpt>
      <trkpt lat="44.05162" lon="4.62595">
        <ele>151.38</ele>
        <time>2021-11-14T13:21:15Z</time>
      </trkpt>
      <trkpt lat="44.05173" lon="4.6263">
        <ele>148.19</ele>
        <time>2021-11-14T13:21:22Z</time>
      </trkpt>
      <trkpt lat="44.0518" lon="4.62657">
        <ele>144.53</ele>
        <time>2021-11-14T13:21:30Z</time>
      </trkpt>
      <trkpt lat="44.05181" lon="4.62662">
        <ele>144.37</ele>
        <time>2021-11-14T13:21:31Z</time>
      </trkpt>
      <trkpt lat="44.05184" lon="4.62676">
        <ele>143.46</ele>
        <time>2021-11-14T13:21:33Z</time>
      </trkpt>
      <trkpt lat="44.05186" lon="4.62682">
        <ele>143.79</ele>
        <time>2021-11-14T13:21:34Z</time>
      </trkpt>
      <trkpt lat="44.05189" lon="4.62688">
        <ele>143.99</ele>
        <time>2021-11-14T13:21:35Z</time>
      </trkpt>
      <trkpt lat="44.05192" lon="4.62694">
        <ele>143.92</ele>
        <time>2021-11-14T13:21:36Z</time>
      </trkpt>
      <trkpt lat="44.05195" lon="4.627">
        <ele>144.29</ele>
        <time>2021-11-14T13:21:37Z</time>
      </trkpt>
      <trkpt lat="44.05197" lon="4.62706">
        <ele>144</ele>
        <time>2021-11-14T13:21:38Z</time>
      </trkpt>
      <trkpt lat="44.05199" lon="4.62712">
        <ele>144.35</ele>
        <time>2021-11-14T13:21:39Z</time>
      </trkpt>
      <trkpt lat="44.05201" lon="4.62717">
        <ele>144.59</ele>
        <time>2021-11-14T13:21:40Z</time>
      </trkpt>
      <trkpt lat="44.05202" lon="4.62722">
        <ele>144.47</ele>
        <time>2021-11-14T13:21:41Z</time>
      </trkpt>
      <trkpt lat="44.05201" lon="4.62727">
        <ele>143.19</ele>
        <time>2021-11-14T13:21:50Z</time>
      </trkpt>
      <trkpt lat="44.05198" lon="4.62772">
        <ele>143.03</ele>
        <time>2021-11-14T13:22:04Z</time>
      </trkpt>
      <trkpt lat="44.05195" lon="4.62777">
        <ele>143.11</ele>
        <time>2021-11-14T13:22:06Z</time>
      </trkpt>
      <trkpt lat="44.05194" lon="4.6278">
        <ele>142.96</ele>
        <time>2021-11-14T13:22:07Z</time>
      </trkpt>
      <trkpt lat="44.05195" lon="4.62783">
        <ele>142.83</ele>
        <time>2021-11-14T13:22:08Z</time>
      </trkpt>
      <trkpt lat="44.05196" lon="4.62785">
        <ele>142.8</ele>
        <time>2021-11-14T13:22:09Z</time>
      </trkpt>
      <trkpt lat="44.05198" lon="4.62788">
        <ele>142.5</ele>
        <time>2021-11-14T13:22:10Z</time>
      </trkpt>
      <trkpt lat="44.05199" lon="4.6279">
        <ele>142.46</ele>
        <time>2021-11-14T13:22:11Z</time>
      </trkpt>
      <trkpt lat="44.05201" lon="4.62792">
        <ele>142.66</ele>
        <time>2021-11-14T13:22:12Z</time>
      </trkpt>
      <trkpt lat="44.05202" lon="4.62795">
        <ele>142.37</ele>
        <time>2021-11-14T13:22:13Z</time>
      </trkpt>
      <trkpt lat="44.05203" lon="4.62798">
        <ele>142.05</ele>
        <time>2021-11-14T13:22:14Z</time>
      </trkpt>
      <trkpt lat="44.05204" lon="4.62802">
        <ele>141.7</ele>
        <time>2021-11-14T13:22:15Z</time>
      </trkpt>
      <trkpt lat="44.05206" lon="4.62805">
        <ele>141.7</ele>
        <time>2021-11-14T13:22:16Z</time>
      </trkpt>
      <trkpt lat="44.05203" lon="4.62841">
        <ele>141.95</ele>
        <time>2021-11-14T13:22:28Z</time>
      </trkpt>
      <trkpt lat="44.0519" lon="4.6286">
        <ele>144.63</ele>
        <time>2021-11-14T13:22:39Z</time>
      </trkpt>
      <trkpt lat="44.05178" lon="4.62902">
        <ele>145.6</ele>
        <time>2021-11-14T13:22:52Z</time>
      </trkpt>
      <trkpt lat="44.05175" lon="4.62921">
        <ele>144.92</ele>
        <time>2021-11-14T13:22:58Z</time>
      </trkpt>
      <trkpt lat="44.05177" lon="4.62923">
        <ele>144.62</ele>
        <time>2021-11-14T13:22:59Z</time>
      </trkpt>
      <trkpt lat="44.05179" lon="4.62924">
        <ele>144.32</ele>
        <time>2021-11-14T13:23:00Z</time>
      </trkpt>
      <trkpt lat="44.05181" lon="4.62924">
        <ele>143.69</ele>
        <time>2021-11-14T13:23:01Z</time>
      </trkpt>
      <trkpt lat="44.05183" lon="4.62923">
        <ele>143.33</ele>
        <time>2021-11-14T13:23:02Z</time>
      </trkpt>
      <trkpt lat="44.05184" lon="4.62923">
        <ele>143.29</ele>
        <time>2021-11-14T13:23:03Z</time>
      </trkpt>
      <trkpt lat="44.05189" lon="4.62925">
        <ele>143.99</ele>
        <time>2021-11-14T13:23:11Z</time>
      </trkpt>
      <trkpt lat="44.05192" lon="4.62925">
        <ele>143.67</ele>
        <time>2021-11-14T13:23:12Z</time>
      </trkpt>
      <trkpt lat="44.05195" lon="4.62925">
        <ele>143.04</ele>
        <time>2021-11-14T13:23:13Z</time>
      </trkpt>
      <trkpt lat="44.05197" lon="4.62925">
        <ele>142.58</ele>
        <time>2021-11-14T13:23:14Z</time>
      </trkpt>
      <trkpt lat="44.05199" lon="4.62925">
        <ele>142.4</ele>
        <time>2021-11-14T13:23:15Z</time>
      </trkpt>
      <trkpt lat="44.05221" lon="4.62927">
        <ele>140.35</ele>
        <time>2021-11-14T13:23:23Z</time>
      </trkpt>
      <trkpt lat="44.05222" lon="4.62924">
        <ele>140.24</ele>
        <time>2021-11-14T13:23:24Z</time>
      </trkpt>
      <trkpt lat="44.05223" lon="4.62921">
        <ele>139.98</ele>
        <time>2021-11-14T13:23:25Z</time>
      </trkpt>
      <trkpt lat="44.05223" lon="4.62918">
        <ele>139.97</ele>
        <time>2021-11-14T13:23:26Z</time>
      </trkpt>
      <trkpt lat="44.05224" lon="4.62916">
        <ele>139.75</ele>
        <time>2021-11-14T13:23:27Z</time>
      </trkpt>
      <trkpt lat="44.05227" lon="4.6291">
        <ele>140.88</ele>
        <time>2021-11-14T13:23:37Z</time>
      </trkpt>
      <trkpt lat="44.05229" lon="4.62903">
        <ele>141.5</ele>
        <time>2021-11-14T13:23:51Z</time>
      </trkpt>
      <trkpt lat="44.05231" lon="4.62902">
        <ele>141.62</ele>
        <time>2021-11-14T13:23:52Z</time>
      </trkpt>
      <trkpt lat="44.05232" lon="4.62901">
        <ele>141.84</ele>
        <time>2021-11-14T13:23:53Z</time>
      </trkpt>
      <trkpt lat="44.05234" lon="4.62901">
        <ele>141.87</ele>
        <time>2021-11-14T13:23:54Z</time>
      </trkpt>
      <trkpt lat="44.05236" lon="4.629">
        <ele>141.89</ele>
        <time>2021-11-14T13:23:55Z</time>
      </trkpt>
      <trkpt lat="44.05238" lon="4.62899">
        <ele>141.86</ele>
        <time>2021-11-14T13:23:56Z</time>
      </trkpt>
      <trkpt lat="44.0524" lon="4.62898">
        <ele>141.56</ele>
        <time>2021-11-14T13:23:57Z</time>
      </trkpt>
      <trkpt lat="44.05242" lon="4.62898">
        <ele>141.24</ele>
        <time>2021-11-14T13:23:58Z</time>
      </trkpt>
      <trkpt lat="44.05245" lon="4.62899">
        <ele>140.69</ele>
        <time>2021-11-14T13:23:59Z</time>
      </trkpt>
      <trkpt lat="44.05249" lon="4.62903">
        <ele>139.62</ele>
        <time>2021-11-14T13:24:01Z</time>
      </trkpt>
      <trkpt lat="44.05253" lon="4.62909">
        <ele>137.41</ele>
        <time>2021-11-14T13:24:14Z</time>
      </trkpt>
      <trkpt lat="44.05255" lon="4.62912">
        <ele>137.41</ele>
        <time>2021-11-14T13:24:16Z</time>
      </trkpt>
      <trkpt lat="44.05256" lon="4.62914">
        <ele>137.23</ele>
        <time>2021-11-14T13:24:17Z</time>
      </trkpt>
      <trkpt lat="44.05276" lon="4.62943">
        <ele>136.69</ele>
        <time>2021-11-14T13:24:30Z</time>
      </trkpt>
      <trkpt lat="44.05282" lon="4.62947">
        <ele>137.45</ele>
        <time>2021-11-14T13:24:34Z</time>
      </trkpt>
      <trkpt lat="44.05283" lon="4.62949">
        <ele>137.5</ele>
        <time>2021-11-14T13:24:35Z</time>
      </trkpt>
      <trkpt lat="44.05287" lon="4.62959">
        <ele>137.88</ele>
        <time>2021-11-14T13:24:46Z</time>
      </trkpt>
      <trkpt lat="44.05288" lon="4.62965">
        <ele>137.82</ele>
        <time>2021-11-14T13:24:56Z</time>
      </trkpt>
      <trkpt lat="44.05289" lon="4.62967">
        <ele>137.62</ele>
        <time>2021-11-14T13:24:57Z</time>
      </trkpt>
      <trkpt lat="44.0529" lon="4.62971">
        <ele>137.49</ele>
        <time>2021-11-14T13:24:58Z</time>
      </trkpt>
      <trkpt lat="44.05298" lon="4.62997">
        <ele>137.84</ele>
        <time>2021-11-14T13:25:08Z</time>
      </trkpt>
      <trkpt lat="44.05301" lon="4.62999">
        <ele>137.83</ele>
        <time>2021-11-14T13:25:09Z</time>
      </trkpt>
      <trkpt lat="44.05303" lon="4.63">
        <ele>137.73</ele>
        <time>2021-11-14T13:25:10Z</time>
      </trkpt>
      <trkpt lat="44.0531" lon="4.63006">
        <ele>138.26</ele>
        <time>2021-11-14T13:25:13Z</time>
      </trkpt>
      <trkpt lat="44.05312" lon="4.63011">
        <ele>138.1</ele>
        <time>2021-11-14T13:25:15Z</time>
      </trkpt>
      <trkpt lat="44.05314" lon="4.63011">
        <ele>137.46</ele>
        <time>2021-11-14T13:25:17Z</time>
      </trkpt>
      <trkpt lat="44.05316" lon="4.63011">
        <ele>137.23</ele>
        <time>2021-11-14T13:25:18Z</time>
      </trkpt>
      <trkpt lat="44.05318" lon="4.63011">
        <ele>136.61</ele>
        <time>2021-11-14T13:25:19Z</time>
      </trkpt>
      <trkpt lat="44.05344" lon="4.6302">
        <ele>137.76</ele>
        <time>2021-11-14T13:25:31Z</time>
      </trkpt>
      <trkpt lat="44.05351" lon="4.63023">
        <ele>138.83</ele>
        <time>2021-11-14T13:25:35Z</time>
      </trkpt>
      <trkpt lat="44.05352" lon="4.63023">
        <ele>138.8</ele>
        <time>2021-11-14T13:25:36Z</time>
      </trkpt>
      <trkpt lat="44.05353" lon="4.63025">
        <ele>138.83</ele>
        <time>2021-11-14T13:25:37Z</time>
      </trkpt>
      <trkpt lat="44.05355" lon="4.63026">
        <ele>139.1</ele>
        <time>2021-11-14T13:25:38Z</time>
      </trkpt>
      <trkpt lat="44.05356" lon="4.63028">
        <ele>139.18</ele>
        <time>2021-11-14T13:25:39Z</time>
      </trkpt>
      <trkpt lat="44.05358" lon="4.6303">
        <ele>139.1</ele>
        <time>2021-11-14T13:25:40Z</time>
      </trkpt>
      <trkpt lat="44.05389" lon="4.63059">
        <ele>136.96</ele>
        <time>2021-11-14T13:25:54Z</time>
      </trkpt>
      <trkpt lat="44.05445" lon="4.631">
        <ele>136.16</ele>
        <time>2021-11-14T13:26:14Z</time>
      </trkpt>
      <trkpt lat="44.05468" lon="4.63158">
        <ele>135.28</ele>
        <time>2021-11-14T13:26:29Z</time>
      </trkpt>
      <trkpt lat="44.05471" lon="4.63257">
        <ele>133.39</ele>
        <time>2021-11-14T13:26:48Z</time>
      </trkpt>
      <trkpt lat="44.05476" lon="4.63339">
        <ele>132.12</ele>
        <time>2021-11-14T13:27:03Z</time>
      </trkpt>
      <trkpt lat="44.05478" lon="4.63345">
        <ele>131.26</ele>
        <time>2021-11-14T13:27:04Z</time>
      </trkpt>
      <trkpt lat="44.0548" lon="4.63351">
        <ele>130.74</ele>
        <time>2021-11-14T13:27:05Z</time>
      </trkpt>
      <trkpt lat="44.05487" lon="4.63361">
        <ele>130.91</ele>
        <time>2021-11-14T13:27:07Z</time>
      </trkpt>
      <trkpt lat="44.05491" lon="4.63365">
        <ele>130.73</ele>
        <time>2021-11-14T13:27:08Z</time>
      </trkpt>
      <trkpt lat="44.05496" lon="4.63369">
        <ele>130.76</ele>
        <time>2021-11-14T13:27:09Z</time>
      </trkpt>
      <trkpt lat="44.05515" lon="4.63379">
        <ele>130.53</ele>
        <time>2021-11-14T13:27:13Z</time>
      </trkpt>
      <trkpt lat="44.05518" lon="4.63384">
        <ele>130.26</ele>
        <time>2021-11-14T13:27:14Z</time>
      </trkpt>
      <trkpt lat="44.0552" lon="4.6339">
        <ele>129.78</ele>
        <time>2021-11-14T13:27:15Z</time>
      </trkpt>
      <trkpt lat="44.0552" lon="4.63397">
        <ele>129.63</ele>
        <time>2021-11-14T13:27:16Z</time>
      </trkpt>
      <trkpt lat="44.05518" lon="4.63403">
        <ele>129.41</ele>
        <time>2021-11-14T13:27:17Z</time>
      </trkpt>
      <trkpt lat="44.05515" lon="4.63408">
        <ele>129.28</ele>
        <time>2021-11-14T13:27:18Z</time>
      </trkpt>
      <trkpt lat="44.05512" lon="4.63413">
        <ele>129.66</ele>
        <time>2021-11-14T13:27:19Z</time>
      </trkpt>
      <trkpt lat="44.05509" lon="4.63417">
        <ele>130.18</ele>
        <time>2021-11-14T13:27:20Z</time>
      </trkpt>
      <trkpt lat="44.05504" lon="4.63421">
        <ele>131.41</ele>
        <time>2021-11-14T13:27:22Z</time>
      </trkpt>
      <trkpt lat="44.05458" lon="4.6343">
        <ele>130.47</ele>
        <time>2021-11-14T13:27:39Z</time>
      </trkpt>
      <trkpt lat="44.05407" lon="4.6343">
        <ele>131.35</ele>
        <time>2021-11-14T13:28:00Z</time>
      </trkpt>
      <trkpt lat="44.05351" lon="4.63426">
        <ele>132.23</ele>
        <time>2021-11-14T13:28:23Z</time>
      </trkpt>
      <trkpt lat="44.05308" lon="4.63428">
        <ele>134.36</ele>
        <time>2021-11-14T13:28:41Z</time>
      </trkpt>
      <trkpt lat="44.05284" lon="4.63431">
        <ele>133.97</ele>
        <time>2021-11-14T13:28:52Z</time>
      </trkpt>
      <trkpt lat="44.05283" lon="4.63434">
        <ele>134.32</ele>
        <time>2021-11-14T13:28:53Z</time>
      </trkpt>
      <trkpt lat="44.05283" lon="4.63436">
        <ele>134.81</ele>
        <time>2021-11-14T13:28:54Z</time>
      </trkpt>
      <trkpt lat="44.05283" lon="4.63439">
        <ele>135.54</ele>
        <time>2021-11-14T13:28:55Z</time>
      </trkpt>
      <trkpt lat="44.05284" lon="4.63442">
        <ele>136.06</ele>
        <time>2021-11-14T13:28:56Z</time>
      </trkpt>
      <trkpt lat="44.05285" lon="4.63445">
        <ele>136.34</ele>
        <time>2021-11-14T13:28:57Z</time>
      </trkpt>
      <trkpt lat="44.05299" lon="4.63487">
        <ele>137.56</ele>
        <time>2021-11-14T13:29:12Z</time>
      </trkpt>
      <trkpt lat="44.05302" lon="4.63516">
        <ele>137.91</ele>
        <time>2021-11-14T13:29:22Z</time>
      </trkpt>
      <trkpt lat="44.05302" lon="4.63518">
        <ele>138.25</ele>
        <time>2021-11-14T13:29:23Z</time>
      </trkpt>
      <trkpt lat="44.05288" lon="4.63531">
        <ele>138.86</ele>
        <time>2021-11-14T13:29:36Z</time>
      </trkpt>
      <trkpt lat="44.05288" lon="4.63529">
        <ele>139.85</ele>
        <time>2021-11-14T13:32:02Z</time>
      </trkpt>
      <trkpt lat="44.05282" lon="4.63529">
        <ele>141.34</ele>
        <time>2021-11-14T13:32:20Z</time>
      </trkpt>
      <trkpt lat="44.05275" lon="4.63533">
        <ele>141.62</ele>
        <time>2021-11-14T13:32:25Z</time>
      </trkpt>
      <trkpt lat="44.05274" lon="4.63533">
        <ele>141.44</ele>
        <time>2021-11-14T13:32:26Z</time>
      </trkpt>
      <trkpt lat="44.05239" lon="4.6355">
        <ele>143.16</ele>
        <time>2021-11-14T13:32:50Z</time>
      </trkpt>
      <trkpt lat="44.05218" lon="4.63568">
        <ele>144.65</ele>
        <time>2021-11-14T13:33:07Z</time>
      </trkpt>
      <trkpt lat="44.05207" lon="4.63576">
        <ele>145.4</ele>
        <time>2021-11-14T13:33:15Z</time>
      </trkpt>
      <trkpt lat="44.05184" lon="4.63587">
        <ele>147.32</ele>
        <time>2021-11-14T13:33:33Z</time>
      </trkpt>
      <trkpt lat="44.05166" lon="4.63606">
        <ele>148.43</ele>
        <time>2021-11-14T13:33:49Z</time>
      </trkpt>
      <trkpt lat="44.05168" lon="4.63644">
        <ele>150.1</ele>
        <time>2021-11-14T13:34:05Z</time>
      </trkpt>
      <trkpt lat="44.05175" lon="4.637">
        <ele>151.5</ele>
        <time>2021-11-14T13:34:25Z</time>
      </trkpt>
      <trkpt lat="44.05177" lon="4.63726">
        <ele>152.85</ele>
        <time>2021-11-14T13:34:36Z</time>
      </trkpt>
      <trkpt lat="44.05177" lon="4.63728">
        <ele>152.87</ele>
        <time>2021-11-14T13:34:37Z</time>
      </trkpt>
      <trkpt lat="44.05177" lon="4.6373">
        <ele>153.03</ele>
        <time>2021-11-14T13:34:38Z</time>
      </trkpt>
      <trkpt lat="44.05188" lon="4.63772">
        <ele>155.34</ele>
        <time>2021-11-14T13:34:57Z</time>
      </trkpt>
      <trkpt lat="44.05189" lon="4.63818">
        <ele>156.81</ele>
        <time>2021-11-14T13:35:16Z</time>
      </trkpt>
      <trkpt lat="44.0518" lon="4.63868">
        <ele>157.54</ele>
        <time>2021-11-14T13:35:37Z</time>
      </trkpt>
      <trkpt lat="44.05166" lon="4.6391">
        <ele>157.8</ele>
        <time>2021-11-14T13:35:55Z</time>
      </trkpt>
      <trkpt lat="44.05161" lon="4.63948">
        <ele>159.02</ele>
        <time>2021-11-14T13:36:13Z</time>
      </trkpt>
      <trkpt lat="44.05164" lon="4.63961">
        <ele>161.33</ele>
        <time>2021-11-14T13:36:20Z</time>
      </trkpt>
      <trkpt lat="44.05165" lon="4.63963">
        <ele>161.37</ele>
        <time>2021-11-14T13:36:21Z</time>
      </trkpt>
      <trkpt lat="44.05166" lon="4.63986">
        <ele>162</ele>
        <time>2021-11-14T13:36:32Z</time>
      </trkpt>
      <trkpt lat="44.05167" lon="4.64021">
        <ele>163.6</ele>
        <time>2021-11-14T13:36:49Z</time>
      </trkpt>
      <trkpt lat="44.05167" lon="4.64065">
        <ele>166.73</ele>
        <time>2021-11-14T13:37:08Z</time>
      </trkpt>
      <trkpt lat="44.05167" lon="4.64073">
        <ele>168.1</ele>
        <time>2021-11-14T13:37:11Z</time>
      </trkpt>
      <trkpt lat="44.05161" lon="4.64117">
        <ele>170.94</ele>
        <time>2021-11-14T13:37:30Z</time>
      </trkpt>
      <trkpt lat="44.05147" lon="4.64156">
        <ele>171.24</ele>
        <time>2021-11-14T13:37:50Z</time>
      </trkpt>
      <trkpt lat="44.05128" lon="4.64187">
        <ele>172.78</ele>
        <time>2021-11-14T13:38:08Z</time>
      </trkpt>
      <trkpt lat="44.05102" lon="4.64214">
        <ele>174.9</ele>
        <time>2021-11-14T13:38:25Z</time>
      </trkpt>
      <trkpt lat="44.05073" lon="4.64228">
        <ele>174.6</ele>
        <time>2021-11-14T13:38:40Z</time>
      </trkpt>
      <trkpt lat="44.05044" lon="4.64246">
        <ele>177.2</ele>
        <time>2021-11-14T13:38:57Z</time>
      </trkpt>
      <trkpt lat="44.0502" lon="4.64263">
        <ele>177.78</ele>
        <time>2021-11-14T13:39:13Z</time>
      </trkpt>
      <trkpt lat="44.05008" lon="4.64273">
        <ele>176.85</ele>
        <time>2021-11-14T13:39:26Z</time>
      </trkpt>
      <trkpt lat="44.05008" lon="4.64272">
        <ele>177.78</ele>
        <time>2021-11-14T13:39:32Z</time>
      </trkpt>
      <trkpt lat="44.05008" lon="4.64273">
        <ele>181.33</ele>
        <time>2021-11-14T13:39:42Z</time>
      </trkpt>
      <trkpt lat="44.05008" lon="4.64267">
        <ele>177.25</ele>
        <time>2021-11-14T13:40:06Z</time>
      </trkpt>
      <trkpt lat="44.05008" lon="4.64265">
        <ele>177.39</ele>
        <time>2021-11-14T13:40:07Z</time>
      </trkpt>
      <trkpt lat="44.05008" lon="4.64264">
        <ele>177.31</ele>
        <time>2021-11-14T13:40:08Z</time>
      </trkpt>
      <trkpt lat="44.05006" lon="4.64254">
        <ele>181.31</ele>
        <time>2021-11-14T13:40:13Z</time>
      </trkpt>
      <trkpt lat="44.05005" lon="4.64251">
        <ele>182.44</ele>
        <time>2021-11-14T13:40:15Z</time>
      </trkpt>
      <trkpt lat="44.05004" lon="4.64245">
        <ele>183.94</ele>
        <time>2021-11-14T13:40:18Z</time>
      </trkpt>
      <trkpt lat="44.05" lon="4.6423">
        <ele>184.41</ele>
        <time>2021-11-14T13:40:26Z</time>
      </trkpt>
      <trkpt lat="44.05" lon="4.64222">
        <ele>184.37</ele>
        <time>2021-11-14T13:40:30Z</time>
      </trkpt>
      <trkpt lat="44.04999" lon="4.6422">
        <ele>184.47</ele>
        <time>2021-11-14T13:40:31Z</time>
      </trkpt>
      <trkpt lat="44.04999" lon="4.64218">
        <ele>184.7</ele>
        <time>2021-11-14T13:40:32Z</time>
      </trkpt>
      <trkpt lat="44.04997" lon="4.64217">
        <ele>184.74</ele>
        <time>2021-11-14T13:40:33Z</time>
      </trkpt>
      <trkpt lat="44.04996" lon="4.64215">
        <ele>185.14</ele>
        <time>2021-11-14T13:40:34Z</time>
      </trkpt>
      <trkpt lat="44.04995" lon="4.64214">
        <ele>185.51</ele>
        <time>2021-11-14T13:40:35Z</time>
      </trkpt>
      <trkpt lat="44.04983" lon="4.64198">
        <ele>189.04</ele>
        <time>2021-11-14T13:40:47Z</time>
      </trkpt>
      <trkpt lat="44.04981" lon="4.64195">
        <ele>190.1</ele>
        <time>2021-11-14T13:40:50Z</time>
      </trkpt>
      <trkpt lat="44.0498" lon="4.64194">
        <ele>190.28</ele>
        <time>2021-11-14T13:40:51Z</time>
      </trkpt>
      <trkpt lat="44.0498" lon="4.64192">
        <ele>190.55</ele>
        <time>2021-11-14T13:40:52Z</time>
      </trkpt>
      <trkpt lat="44.04979" lon="4.64191">
        <ele>190.65</ele>
        <time>2021-11-14T13:40:53Z</time>
      </trkpt>
      <trkpt lat="44.04978" lon="4.6419">
        <ele>190.71</ele>
        <time>2021-11-14T13:40:54Z</time>
      </trkpt>
      <trkpt lat="44.04978" lon="4.64188">
        <ele>190.91</ele>
        <time>2021-11-14T13:40:55Z</time>
      </trkpt>
      <trkpt lat="44.04977" lon="4.64187">
        <ele>191.06</ele>
        <time>2021-11-14T13:40:56Z</time>
      </trkpt>
      <trkpt lat="44.04976" lon="4.64186">
        <ele>191.06</ele>
        <time>2021-11-14T13:40:57Z</time>
      </trkpt>
      <trkpt lat="44.04975" lon="4.64183">
        <ele>191.59</ele>
        <time>2021-11-14T13:40:59Z</time>
      </trkpt>
      <trkpt lat="44.04975" lon="4.64182">
        <ele>191.7</ele>
        <time>2021-11-14T13:41:00Z</time>
      </trkpt>
      <trkpt lat="44.04974" lon="4.64181">
        <ele>192.09</ele>
        <time>2021-11-14T13:41:01Z</time>
      </trkpt>
      <trkpt lat="44.04974" lon="4.6418">
        <ele>192.43</ele>
        <time>2021-11-14T13:41:02Z</time>
      </trkpt>
      <trkpt lat="44.04973" lon="4.64178">
        <ele>192.68</ele>
        <time>2021-11-14T13:41:03Z</time>
      </trkpt>
      <trkpt lat="44.04972" lon="4.64177">
        <ele>192.99</ele>
        <time>2021-11-14T13:41:04Z</time>
      </trkpt>
      <trkpt lat="44.04972" lon="4.64176">
        <ele>193.26</ele>
        <time>2021-11-14T13:41:05Z</time>
      </trkpt>
      <trkpt lat="44.04971" lon="4.64174">
        <ele>193.58</ele>
        <time>2021-11-14T13:41:06Z</time>
      </trkpt>
      <trkpt lat="44.0497" lon="4.64173">
        <ele>193.9</ele>
        <time>2021-11-14T13:41:07Z</time>
      </trkpt>
      <trkpt lat="44.0497" lon="4.64172">
        <ele>194.15</ele>
        <time>2021-11-14T13:41:08Z</time>
      </trkpt>
      <trkpt lat="44.04965" lon="4.64162">
        <ele>195.92</ele>
        <time>2021-11-14T13:41:15Z</time>
      </trkpt>
      <trkpt lat="44.04964" lon="4.64162">
        <ele>196.17</ele>
        <time>2021-11-14T13:41:16Z</time>
      </trkpt>
      <trkpt lat="44.04963" lon="4.64162">
        <ele>196.34</ele>
        <time>2021-11-14T13:41:17Z</time>
      </trkpt>
      <trkpt lat="44.04962" lon="4.64161">
        <ele>196.74</ele>
        <time>2021-11-14T13:41:18Z</time>
      </trkpt>
      <trkpt lat="44.04961" lon="4.6416">
        <ele>196.82</ele>
        <time>2021-11-14T13:41:19Z</time>
      </trkpt>
      <trkpt lat="44.0496" lon="4.64157">
        <ele>197.22</ele>
        <time>2021-11-14T13:41:21Z</time>
      </trkpt>
      <trkpt lat="44.0496" lon="4.64156">
        <ele>197.12</ele>
        <time>2021-11-14T13:41:22Z</time>
      </trkpt>
      <trkpt lat="44.0496" lon="4.64154">
        <ele>197.28</ele>
        <time>2021-11-14T13:41:23Z</time>
      </trkpt>
      <trkpt lat="44.04967" lon="4.6414">
        <ele>197.88</ele>
        <time>2021-11-14T13:41:39Z</time>
      </trkpt>
      <trkpt lat="44.04968" lon="4.64139">
        <ele>196.28</ele>
        <time>2021-11-14T13:42:22Z</time>
      </trkpt>
      <trkpt lat="44.04969" lon="4.64135">
        <ele>196.88</ele>
        <time>2021-11-14T13:42:30Z</time>
      </trkpt>
      <trkpt lat="44.0497" lon="4.64134">
        <ele>196.86</ele>
        <time>2021-11-14T13:42:31Z</time>
      </trkpt>
      <trkpt lat="44.04971" lon="4.64132">
        <ele>196.98</ele>
        <time>2021-11-14T13:42:32Z</time>
      </trkpt>
      <trkpt lat="44.04973" lon="4.64131">
        <ele>196.88</ele>
        <time>2021-11-14T13:42:33Z</time>
      </trkpt>
      <trkpt lat="44.04974" lon="4.6413">
        <ele>196.89</ele>
        <time>2021-11-14T13:42:34Z</time>
      </trkpt>
      <trkpt lat="44.04997" lon="4.64119">
        <ele>195.74</ele>
        <time>2021-11-14T13:42:44Z</time>
      </trkpt>
      <trkpt lat="44.04997" lon="4.64115">
        <ele>194.99</ele>
        <time>2021-11-14T13:42:45Z</time>
      </trkpt>
      <trkpt lat="44.04996" lon="4.64111">
        <ele>194.59</ele>
        <time>2021-11-14T13:42:46Z</time>
      </trkpt>
      <trkpt lat="44.04995" lon="4.64107">
        <ele>194.73</ele>
        <time>2021-11-14T13:42:47Z</time>
      </trkpt>
      <trkpt lat="44.04993" lon="4.64104">
        <ele>194.36</ele>
        <time>2021-11-14T13:42:48Z</time>
      </trkpt>
      <trkpt lat="44.05001" lon="4.64071">
        <ele>192.78</ele>
        <time>2021-11-14T13:42:57Z</time>
      </trkpt>
      <trkpt lat="44.05014" lon="4.64047">
        <ele>193.58</ele>
        <time>2021-11-14T13:43:04Z</time>
      </trkpt>
      <trkpt lat="44.05013" lon="4.64045">
        <ele>193.56</ele>
        <time>2021-11-14T13:43:05Z</time>
      </trkpt>
      <trkpt lat="44.05011" lon="4.64043">
        <ele>193.35</ele>
        <time>2021-11-14T13:43:06Z</time>
      </trkpt>
      <trkpt lat="44.05009" lon="4.6404">
        <ele>193.21</ele>
        <time>2021-11-14T13:43:07Z</time>
      </trkpt>
      <trkpt lat="44.05009" lon="4.64037">
        <ele>193.19</ele>
        <time>2021-11-14T13:43:08Z</time>
      </trkpt>
      <trkpt lat="44.05007" lon="4.64034">
        <ele>193.46</ele>
        <time>2021-11-14T13:43:09Z</time>
      </trkpt>
      <trkpt lat="44.05004" lon="4.64031">
        <ele>193.54</ele>
        <time>2021-11-14T13:43:10Z</time>
      </trkpt>
      <trkpt lat="44.05002" lon="4.64029">
        <ele>193.42</ele>
        <time>2021-11-14T13:43:11Z</time>
      </trkpt>
      <trkpt lat="44.04999" lon="4.64026">
        <ele>193.45</ele>
        <time>2021-11-14T13:43:12Z</time>
      </trkpt>
      <trkpt lat="44.04996" lon="4.64021">
        <ele>193.07</ele>
        <time>2021-11-14T13:43:13Z</time>
      </trkpt>
      <trkpt lat="44.04994" lon="4.64017">
        <ele>192.77</ele>
        <time>2021-11-14T13:43:14Z</time>
      </trkpt>
      <trkpt lat="44.04989" lon="4.64005">
        <ele>189.72</ele>
        <time>2021-11-14T13:43:18Z</time>
      </trkpt>
      <trkpt lat="44.04985" lon="4.64">
        <ele>186.97</ele>
        <time>2021-11-14T13:43:21Z</time>
      </trkpt>
      <trkpt lat="44.04984" lon="4.63999">
        <ele>186.3</ele>
        <time>2021-11-14T13:43:22Z</time>
      </trkpt>
      <trkpt lat="44.04979" lon="4.63998">
        <ele>183.21</ele>
        <time>2021-11-14T13:43:25Z</time>
      </trkpt>
      <trkpt lat="44.04978" lon="4.63997">
        <ele>182.09</ele>
        <time>2021-11-14T13:43:26Z</time>
      </trkpt>
      <trkpt lat="44.04977" lon="4.63995">
        <ele>181.06</ele>
        <time>2021-11-14T13:43:27Z</time>
      </trkpt>
      <trkpt lat="44.04975" lon="4.63992">
        <ele>180.14</ele>
        <time>2021-11-14T13:43:28Z</time>
      </trkpt>
      <trkpt lat="44.04973" lon="4.63989">
        <ele>179.26</ele>
        <time>2021-11-14T13:43:29Z</time>
      </trkpt>
      <trkpt lat="44.04972" lon="4.63987">
        <ele>178.72</ele>
        <time>2021-11-14T13:43:30Z</time>
      </trkpt>
      <trkpt lat="44.04972" lon="4.63984">
        <ele>178.24</ele>
        <time>2021-11-14T13:43:31Z</time>
      </trkpt>
      <trkpt lat="44.04972" lon="4.6398">
        <ele>177.96</ele>
        <time>2021-11-14T13:43:32Z</time>
      </trkpt>
      <trkpt lat="44.04975" lon="4.63965">
        <ele>176.64</ele>
        <time>2021-11-14T13:43:35Z</time>
      </trkpt>
      <trkpt lat="44.04977" lon="4.6396">
        <ele>175.87</ele>
        <time>2021-11-14T13:43:36Z</time>
      </trkpt>
      <trkpt lat="44.0498" lon="4.63956">
        <ele>175.06</ele>
        <time>2021-11-14T13:43:37Z</time>
      </trkpt>
      <trkpt lat="44.04982" lon="4.63953">
        <ele>174.42</ele>
        <time>2021-11-14T13:43:38Z</time>
      </trkpt>
      <trkpt lat="44.04984" lon="4.6395">
        <ele>173.95</ele>
        <time>2021-11-14T13:43:39Z</time>
      </trkpt>
      <trkpt lat="44.04988" lon="4.63942">
        <ele>173.07</ele>
        <time>2021-11-14T13:43:41Z</time>
      </trkpt>
      <trkpt lat="44.04991" lon="4.63938">
        <ele>172.28</ele>
        <time>2021-11-14T13:43:42Z</time>
      </trkpt>
      <trkpt lat="44.04995" lon="4.63935">
        <ele>172.02</ele>
        <time>2021-11-14T13:43:43Z</time>
      </trkpt>
      <trkpt lat="44.05" lon="4.63933">
        <ele>171.18</ele>
        <time>2021-11-14T13:43:44Z</time>
      </trkpt>
      <trkpt lat="44.05006" lon="4.63928">
        <ele>170.33</ele>
        <time>2021-11-14T13:43:45Z</time>
      </trkpt>
      <trkpt lat="44.0501" lon="4.63923">
        <ele>170.15</ele>
        <time>2021-11-14T13:43:46Z</time>
      </trkpt>
      <trkpt lat="44.05015" lon="4.63918">
        <ele>169.22</ele>
        <time>2021-11-14T13:43:47Z</time>
      </trkpt>
      <trkpt lat="44.05019" lon="4.63914">
        <ele>168.85</ele>
        <time>2021-11-14T13:43:48Z</time>
      </trkpt>
      <trkpt lat="44.05024" lon="4.63912">
        <ele>168.73</ele>
        <time>2021-11-14T13:43:49Z</time>
      </trkpt>
      <trkpt lat="44.05028" lon="4.63911">
        <ele>168.06</ele>
        <time>2021-11-14T13:43:50Z</time>
      </trkpt>
      <trkpt lat="44.05032" lon="4.63909">
        <ele>167.97</ele>
        <time>2021-11-14T13:43:51Z</time>
      </trkpt>
      <trkpt lat="44.05036" lon="4.63906">
        <ele>167.29</ele>
        <time>2021-11-14T13:43:52Z</time>
      </trkpt>
      <trkpt lat="44.05044" lon="4.63901">
        <ele>165.41</ele>
        <time>2021-11-14T13:43:55Z</time>
      </trkpt>
      <trkpt lat="44.0505" lon="4.63897">
        <ele>164.48</ele>
        <time>2021-11-14T13:44:08Z</time>
      </trkpt>
      <trkpt lat="44.05065" lon="4.63889">
        <ele>164.05</ele>
        <time>2021-11-14T13:44:22Z</time>
      </trkpt>
      <trkpt lat="44.05084" lon="4.63889">
        <ele>161.5</ele>
        <time>2021-11-14T13:44:27Z</time>
      </trkpt>
      <trkpt lat="44.05089" lon="4.6389">
        <ele>161.17</ele>
        <time>2021-11-14T13:44:28Z</time>
      </trkpt>
      <trkpt lat="44.05093" lon="4.63891">
        <ele>160.89</ele>
        <time>2021-11-14T13:44:29Z</time>
      </trkpt>
      <trkpt lat="44.05098" lon="4.63893">
        <ele>160.65</ele>
        <time>2021-11-14T13:44:30Z</time>
      </trkpt>
      <trkpt lat="44.05102" lon="4.63895">
        <ele>160.46</ele>
        <time>2021-11-14T13:44:31Z</time>
      </trkpt>
      <trkpt lat="44.05107" lon="4.63896">
        <ele>160.21</ele>
        <time>2021-11-14T13:44:32Z</time>
      </trkpt>
      <trkpt lat="44.05111" lon="4.63898">
        <ele>160.1</ele>
        <time>2021-11-14T13:44:33Z</time>
      </trkpt>
      <trkpt lat="44.05145" lon="4.63909">
        <ele>158.82</ele>
        <time>2021-11-14T13:44:44Z</time>
      </trkpt>
      <trkpt lat="44.05157" lon="4.63922">
        <ele>160.1</ele>
        <time>2021-11-14T13:44:53Z</time>
      </trkpt>
      <trkpt lat="44.05158" lon="4.63924">
        <ele>157.53</ele>
        <time>2021-11-14T13:45:00Z</time>
      </trkpt>
      <trkpt lat="44.05158" lon="4.63926">
        <ele>157.9</ele>
        <time>2021-11-14T13:45:01Z</time>
      </trkpt>
      <trkpt lat="44.05159" lon="4.63927">
        <ele>158.31</ele>
        <time>2021-11-14T13:45:02Z</time>
      </trkpt>
      <trkpt lat="44.0516" lon="4.63938">
        <ele>161.37</ele>
        <time>2021-11-14T13:45:07Z</time>
      </trkpt>
      <trkpt lat="44.05167" lon="4.63975">
        <ele>161.94</ele>
        <time>2021-11-14T13:45:24Z</time>
      </trkpt>
      <trkpt lat="44.05165" lon="4.64005">
        <ele>165.44</ele>
        <time>2021-11-14T13:45:37Z</time>
      </trkpt>
      <trkpt lat="44.05165" lon="4.64007">
        <ele>165.69</ele>
        <time>2021-11-14T13:45:38Z</time>
      </trkpt>
      <trkpt lat="44.05166" lon="4.64053">
        <ele>167.83</ele>
        <time>2021-11-14T13:45:58Z</time>
      </trkpt>
      <trkpt lat="44.05163" lon="4.641">
        <ele>168.87</ele>
        <time>2021-11-14T13:46:18Z</time>
      </trkpt>
      <trkpt lat="44.05151" lon="4.64142">
        <ele>171.91</ele>
        <time>2021-11-14T13:46:37Z</time>
      </trkpt>
      <trkpt lat="44.05137" lon="4.64173">
        <ele>172.77</ele>
        <time>2021-11-14T13:46:53Z</time>
      </trkpt>
      <trkpt lat="44.05109" lon="4.64206">
        <ele>173.52</ele>
        <time>2021-11-14T13:47:14Z</time>
      </trkpt>
      <trkpt lat="44.0508" lon="4.64225">
        <ele>175.8</ele>
        <time>2021-11-14T13:47:31Z</time>
      </trkpt>
      <trkpt lat="44.05051" lon="4.64241">
        <ele>176.57</ele>
        <time>2021-11-14T13:47:48Z</time>
      </trkpt>
      <trkpt lat="44.05017" lon="4.64264">
        <ele>179.13</ele>
        <time>2021-11-14T13:48:09Z</time>
      </trkpt>
      <trkpt lat="44.04987" lon="4.64279">
        <ele>181.9</ele>
        <time>2021-11-14T13:48:29Z</time>
      </trkpt>
      <trkpt lat="44.04955" lon="4.64279">
        <ele>183.99</ele>
        <time>2021-11-14T13:48:49Z</time>
      </trkpt>
      <trkpt lat="44.04923" lon="4.64276">
        <ele>186.66</ele>
        <time>2021-11-14T13:49:10Z</time>
      </trkpt>
      <trkpt lat="44.04918" lon="4.64278">
        <ele>187.03</ele>
        <time>2021-11-14T13:49:13Z</time>
      </trkpt>
      <trkpt lat="44.04917" lon="4.64278">
        <ele>187.32</ele>
        <time>2021-11-14T13:49:14Z</time>
      </trkpt>
      <trkpt lat="44.04902" lon="4.64286">
        <ele>190.54</ele>
        <time>2021-11-14T13:49:27Z</time>
      </trkpt>
      <trkpt lat="44.04887" lon="4.64294">
        <ele>192.82</ele>
        <time>2021-11-14T13:49:40Z</time>
      </trkpt>
      <trkpt lat="44.04885" lon="4.64295">
        <ele>193.24</ele>
        <time>2021-11-14T13:49:41Z</time>
      </trkpt>
      <trkpt lat="44.04865" lon="4.643">
        <ele>195.87</ele>
        <time>2021-11-14T13:49:56Z</time>
      </trkpt>
      <trkpt lat="44.04839" lon="4.64307">
        <ele>198.04</ele>
        <time>2021-11-14T13:50:14Z</time>
      </trkpt>
      <trkpt lat="44.04818" lon="4.64317">
        <ele>201.19</ele>
        <time>2021-11-14T13:50:28Z</time>
      </trkpt>
      <trkpt lat="44.04809" lon="4.64321">
        <ele>201.79</ele>
        <time>2021-11-14T13:50:35Z</time>
      </trkpt>
      <trkpt lat="44.04808" lon="4.64322">
        <ele>201.73</ele>
        <time>2021-11-14T13:50:36Z</time>
      </trkpt>
      <trkpt lat="44.04808" lon="4.64324">
        <ele>201.77</ele>
        <time>2021-11-14T13:50:37Z</time>
      </trkpt>
      <trkpt lat="44.04808" lon="4.64326">
        <ele>201.78</ele>
        <time>2021-11-14T13:50:38Z</time>
      </trkpt>
      <trkpt lat="44.04809" lon="4.64327">
        <ele>202.18</ele>
        <time>2021-11-14T13:50:39Z</time>
      </trkpt>
      <trkpt lat="44.0481" lon="4.64326">
        <ele>201.9</ele>
        <time>2021-11-14T13:50:40Z</time>
      </trkpt>
      <trkpt lat="44.04812" lon="4.64327">
        <ele>200.75</ele>
        <time>2021-11-14T13:50:52Z</time>
      </trkpt>
      <trkpt lat="44.04811" lon="4.64325">
        <ele>201.75</ele>
        <time>2021-11-14T13:52:05Z</time>
      </trkpt>
      <trkpt lat="44.04811" lon="4.64322">
        <ele>201.13</ele>
        <time>2021-11-14T13:52:10Z</time>
      </trkpt>
      <trkpt lat="44.04811" lon="4.6431">
        <ele>202.25</ele>
        <time>2021-11-14T13:52:15Z</time>
      </trkpt>
      <trkpt lat="44.04816" lon="4.64282">
        <ele>202.86</ele>
        <time>2021-11-14T13:52:27Z</time>
      </trkpt>
      <trkpt lat="44.04818" lon="4.64257">
        <ele>201.87</ele>
        <time>2021-11-14T13:52:37Z</time>
      </trkpt>
      <trkpt lat="44.04819" lon="4.64254">
        <ele>201.65</ele>
        <time>2021-11-14T13:52:38Z</time>
      </trkpt>
      <trkpt lat="44.0482" lon="4.64251">
        <ele>201.6</ele>
        <time>2021-11-14T13:52:39Z</time>
      </trkpt>
      <trkpt lat="44.04821" lon="4.64249">
        <ele>201.63</ele>
        <time>2021-11-14T13:52:40Z</time>
      </trkpt>
      <trkpt lat="44.04823" lon="4.64246">
        <ele>201.77</ele>
        <time>2021-11-14T13:52:41Z</time>
      </trkpt>
      <trkpt lat="44.04824" lon="4.64244">
        <ele>202.04</ele>
        <time>2021-11-14T13:52:42Z</time>
      </trkpt>
      <trkpt lat="44.04826" lon="4.64243">
        <ele>202.36</ele>
        <time>2021-11-14T13:52:43Z</time>
      </trkpt>
      <trkpt lat="44.04828" lon="4.64242">
        <ele>202.52</ele>
        <time>2021-11-14T13:52:44Z</time>
      </trkpt>
      <trkpt lat="44.0483" lon="4.64241">
        <ele>202.36</ele>
        <time>2021-11-14T13:52:45Z</time>
      </trkpt>
      <trkpt lat="44.04835" lon="4.64239">
        <ele>202.48</ele>
        <time>2021-11-14T13:52:48Z</time>
      </trkpt>
      <trkpt lat="44.04837" lon="4.64238">
        <ele>202.76</ele>
        <time>2021-11-14T13:52:49Z</time>
      </trkpt>
      <trkpt lat="44.04838" lon="4.64236">
        <ele>202.7</ele>
        <time>2021-11-14T13:52:50Z</time>
      </trkpt>
      <trkpt lat="44.0484" lon="4.64234">
        <ele>202.7</ele>
        <time>2021-11-14T13:52:51Z</time>
      </trkpt>
      <trkpt lat="44.04841" lon="4.64232">
        <ele>202.93</ele>
        <time>2021-11-14T13:52:52Z</time>
      </trkpt>
      <trkpt lat="44.04842" lon="4.6423">
        <ele>202.97</ele>
        <time>2021-11-14T13:52:53Z</time>
      </trkpt>
      <trkpt lat="44.04843" lon="4.64228">
        <ele>203.02</ele>
        <time>2021-11-14T13:52:54Z</time>
      </trkpt>
      <trkpt lat="44.04857" lon="4.64206">
        <ele>203.59</ele>
        <time>2021-11-14T13:53:04Z</time>
      </trkpt>
      <trkpt lat="44.04857" lon="4.64204">
        <ele>203.62</ele>
        <time>2021-11-14T13:53:05Z</time>
      </trkpt>
      <trkpt lat="44.04857" lon="4.64201">
        <ele>203.61</ele>
        <time>2021-11-14T13:53:06Z</time>
      </trkpt>
      <trkpt lat="44.04858" lon="4.642">
        <ele>203.5</ele>
        <time>2021-11-14T13:53:07Z</time>
      </trkpt>
      <trkpt lat="44.04859" lon="4.64198">
        <ele>203.54</ele>
        <time>2021-11-14T13:53:08Z</time>
      </trkpt>
      <trkpt lat="44.0486" lon="4.64195">
        <ele>203.68</ele>
        <time>2021-11-14T13:53:09Z</time>
      </trkpt>
      <trkpt lat="44.04861" lon="4.64192">
        <ele>203.72</ele>
        <time>2021-11-14T13:53:10Z</time>
      </trkpt>
      <trkpt lat="44.04861" lon="4.64189">
        <ele>203.74</ele>
        <time>2021-11-14T13:53:11Z</time>
      </trkpt>
      <trkpt lat="44.04862" lon="4.64186">
        <ele>203.81</ele>
        <time>2021-11-14T13:53:12Z</time>
      </trkpt>
      <trkpt lat="44.04863" lon="4.64183">
        <ele>203.94</ele>
        <time>2021-11-14T13:53:13Z</time>
      </trkpt>
      <trkpt lat="44.04864" lon="4.6418">
        <ele>203.85</ele>
        <time>2021-11-14T13:53:14Z</time>
      </trkpt>
      <trkpt lat="44.04865" lon="4.64177">
        <ele>203.9</ele>
        <time>2021-11-14T13:53:15Z</time>
      </trkpt>
      <trkpt lat="44.04865" lon="4.64174">
        <ele>203.87</ele>
        <time>2021-11-14T13:53:16Z</time>
      </trkpt>
      <trkpt lat="44.04865" lon="4.64172">
        <ele>203.88</ele>
        <time>2021-11-14T13:53:17Z</time>
      </trkpt>
      <trkpt lat="44.04865" lon="4.64167">
        <ele>203.88</ele>
        <time>2021-11-14T13:53:19Z</time>
      </trkpt>
      <trkpt lat="44.04865" lon="4.64164">
        <ele>203.71</ele>
        <time>2021-11-14T13:53:20Z</time>
      </trkpt>
      <trkpt lat="44.04864" lon="4.64156">
        <ele>203.71</ele>
        <time>2021-11-14T13:53:23Z</time>
      </trkpt>
      <trkpt lat="44.04863" lon="4.64153">
        <ele>203.81</ele>
        <time>2021-11-14T13:53:24Z</time>
      </trkpt>
      <trkpt lat="44.04862" lon="4.64151">
        <ele>203.83</ele>
        <time>2021-11-14T13:53:25Z</time>
      </trkpt>
      <trkpt lat="44.0486" lon="4.64151">
        <ele>203.82</ele>
        <time>2021-11-14T13:53:26Z</time>
      </trkpt>
      <trkpt lat="44.04858" lon="4.6415">
        <ele>203.7</ele>
        <time>2021-11-14T13:53:27Z</time>
      </trkpt>
      <trkpt lat="44.04856" lon="4.6415">
        <ele>203.63</ele>
        <time>2021-11-14T13:53:28Z</time>
      </trkpt>
      <trkpt lat="44.04855" lon="4.64151">
        <ele>203.67</ele>
        <time>2021-11-14T13:53:29Z</time>
      </trkpt>
      <trkpt lat="44.04853" lon="4.64151">
        <ele>203.54</ele>
        <time>2021-11-14T13:53:30Z</time>
      </trkpt>
      <trkpt lat="44.04851" lon="4.64151">
        <ele>203.38</ele>
        <time>2021-11-14T13:53:31Z</time>
      </trkpt>
      <trkpt lat="44.04848" lon="4.64151">
        <ele>203.32</ele>
        <time>2021-11-14T13:53:32Z</time>
      </trkpt>
      <trkpt lat="44.04846" lon="4.6415">
        <ele>202.9</ele>
        <time>2021-11-14T13:53:33Z</time>
      </trkpt>
      <trkpt lat="44.04844" lon="4.6415">
        <ele>202.88</ele>
        <time>2021-11-14T13:53:34Z</time>
      </trkpt>
      <trkpt lat="44.04839" lon="4.64149">
        <ele>202.48</ele>
        <time>2021-11-14T13:53:36Z</time>
      </trkpt>
      <trkpt lat="44.04837" lon="4.64148">
        <ele>202.39</ele>
        <time>2021-11-14T13:53:37Z</time>
      </trkpt>
      <trkpt lat="44.04831" lon="4.64139">
        <ele>202.27</ele>
        <time>2021-11-14T13:53:42Z</time>
      </trkpt>
      <trkpt lat="44.04831" lon="4.64136">
        <ele>202.13</ele>
        <time>2021-11-14T13:53:43Z</time>
      </trkpt>
      <trkpt lat="44.04832" lon="4.64132">
        <ele>201.78</ele>
        <time>2021-11-14T13:53:44Z</time>
      </trkpt>
      <trkpt lat="44.04834" lon="4.64126">
        <ele>202.46</ele>
        <time>2021-11-14T13:53:46Z</time>
      </trkpt>
      <trkpt lat="44.04844" lon="4.64095">
        <ele>203.51</ele>
        <time>2021-11-14T13:53:58Z</time>
      </trkpt>
      <trkpt lat="44.04837" lon="4.64065">
        <ele>205.14</ele>
        <time>2021-11-14T13:54:10Z</time>
      </trkpt>
      <trkpt lat="44.04836" lon="4.64063">
        <ele>205.3</ele>
        <time>2021-11-14T13:54:11Z</time>
      </trkpt>
      <trkpt lat="44.04834" lon="4.64061">
        <ele>205.25</ele>
        <time>2021-11-14T13:54:12Z</time>
      </trkpt>
      <trkpt lat="44.04825" lon="4.64047">
        <ele>206.21</ele>
        <time>2021-11-14T13:54:19Z</time>
      </trkpt>
      <trkpt lat="44.04824" lon="4.64045">
        <ele>206.17</ele>
        <time>2021-11-14T13:54:20Z</time>
      </trkpt>
      <trkpt lat="44.04822" lon="4.64044">
        <ele>206.06</ele>
        <time>2021-11-14T13:54:21Z</time>
      </trkpt>
      <trkpt lat="44.04817" lon="4.64043">
        <ele>206.13</ele>
        <time>2021-11-14T13:54:23Z</time>
      </trkpt>
      <trkpt lat="44.04815" lon="4.64042">
        <ele>206.27</ele>
        <time>2021-11-14T13:54:24Z</time>
      </trkpt>
      <trkpt lat="44.04813" lon="4.64042">
        <ele>206.14</ele>
        <time>2021-11-14T13:54:25Z</time>
      </trkpt>
      <trkpt lat="44.04812" lon="4.64042">
        <ele>206.09</ele>
        <time>2021-11-14T13:54:26Z</time>
      </trkpt>
      <trkpt lat="44.0481" lon="4.64043">
        <ele>206.12</ele>
        <time>2021-11-14T13:54:27Z</time>
      </trkpt>
      <trkpt lat="44.04808" lon="4.64043">
        <ele>206.21</ele>
        <time>2021-11-14T13:54:28Z</time>
      </trkpt>
      <trkpt lat="44.04805" lon="4.64043">
        <ele>206.3</ele>
        <time>2021-11-14T13:54:29Z</time>
      </trkpt>
      <trkpt lat="44.04776" lon="4.64039">
        <ele>204.35</ele>
        <time>2021-11-14T13:54:38Z</time>
      </trkpt>
      <trkpt lat="44.04771" lon="4.64038">
        <ele>204.02</ele>
        <time>2021-11-14T13:54:39Z</time>
      </trkpt>
      <trkpt lat="44.04766" lon="4.64036">
        <ele>202.71</ele>
        <time>2021-11-14T13:54:40Z</time>
      </trkpt>
      <trkpt lat="44.04762" lon="4.64032">
        <ele>202.32</ele>
        <time>2021-11-14T13:54:41Z</time>
      </trkpt>
      <trkpt lat="44.0476" lon="4.64028">
        <ele>202.19</ele>
        <time>2021-11-14T13:54:42Z</time>
      </trkpt>
      <trkpt lat="44.0476" lon="4.64025">
        <ele>201.82</ele>
        <time>2021-11-14T13:54:43Z</time>
      </trkpt>
      <trkpt lat="44.0476" lon="4.64022">
        <ele>201.65</ele>
        <time>2021-11-14T13:54:44Z</time>
      </trkpt>
      <trkpt lat="44.0476" lon="4.6402">
        <ele>201.47</ele>
        <time>2021-11-14T13:54:45Z</time>
      </trkpt>
      <trkpt lat="44.04761" lon="4.64018">
        <ele>201.42</ele>
        <time>2021-11-14T13:54:46Z</time>
      </trkpt>
      <trkpt lat="44.04762" lon="4.64017">
        <ele>201.2</ele>
        <time>2021-11-14T13:54:47Z</time>
      </trkpt>
      <trkpt lat="44.04762" lon="4.64016">
        <ele>201.46</ele>
        <time>2021-11-14T13:54:48Z</time>
      </trkpt>
      <trkpt lat="44.04763" lon="4.64014">
        <ele>201.64</ele>
        <time>2021-11-14T13:54:49Z</time>
      </trkpt>
      <trkpt lat="44.04765" lon="4.64008">
        <ele>202.7</ele>
        <time>2021-11-14T13:55:03Z</time>
      </trkpt>
      <trkpt lat="44.04765" lon="4.64005">
        <ele>202.64</ele>
        <time>2021-11-14T13:55:05Z</time>
      </trkpt>
      <trkpt lat="44.04765" lon="4.64003">
        <ele>202.53</ele>
        <time>2021-11-14T13:55:06Z</time>
      </trkpt>
      <trkpt lat="44.04765" lon="4.64">
        <ele>202.81</ele>
        <time>2021-11-14T13:55:07Z</time>
      </trkpt>
      <trkpt lat="44.04765" lon="4.63998">
        <ele>203</ele>
        <time>2021-11-14T13:55:08Z</time>
      </trkpt>
      <trkpt lat="44.04765" lon="4.63995">
        <ele>202.88</ele>
        <time>2021-11-14T13:55:09Z</time>
      </trkpt>
      <trkpt lat="44.04766" lon="4.63992">
        <ele>202.94</ele>
        <time>2021-11-14T13:55:10Z</time>
      </trkpt>
      <trkpt lat="44.04766" lon="4.6399">
        <ele>203.02</ele>
        <time>2021-11-14T13:55:11Z</time>
      </trkpt>
      <trkpt lat="44.04767" lon="4.63988">
        <ele>202.99</ele>
        <time>2021-11-14T13:55:12Z</time>
      </trkpt>
      <trkpt lat="44.04768" lon="4.63987">
        <ele>203.48</ele>
        <time>2021-11-14T13:55:13Z</time>
      </trkpt>
      <trkpt lat="44.04769" lon="4.63984">
        <ele>203.82</ele>
        <time>2021-11-14T13:55:14Z</time>
      </trkpt>
      <trkpt lat="44.04769" lon="4.63982">
        <ele>204.13</ele>
        <time>2021-11-14T13:55:15Z</time>
      </trkpt>
      <trkpt lat="44.04768" lon="4.63963">
        <ele>203.69</ele>
        <time>2021-11-14T13:55:21Z</time>
      </trkpt>
      <trkpt lat="44.04769" lon="4.63961">
        <ele>203.54</ele>
        <time>2021-11-14T13:55:22Z</time>
      </trkpt>
      <trkpt lat="44.0477" lon="4.63958">
        <ele>203.7</ele>
        <time>2021-11-14T13:55:23Z</time>
      </trkpt>
      <trkpt lat="44.0478" lon="4.63942">
        <ele>204.2</ele>
        <time>2021-11-14T13:55:31Z</time>
      </trkpt>
      <trkpt lat="44.0478" lon="4.63939">
        <ele>204.35</ele>
        <time>2021-11-14T13:55:32Z</time>
      </trkpt>
      <trkpt lat="44.04783" lon="4.63922">
        <ele>205.08</ele>
        <time>2021-11-14T13:55:38Z</time>
      </trkpt>
      <trkpt lat="44.04786" lon="4.63921">
        <ele>205.08</ele>
        <time>2021-11-14T13:55:39Z</time>
      </trkpt>
      <trkpt lat="44.04788" lon="4.63921">
        <ele>205.34</ele>
        <time>2021-11-14T13:55:40Z</time>
      </trkpt>
      <trkpt lat="44.0479" lon="4.63921">
        <ele>205.55</ele>
        <time>2021-11-14T13:55:41Z</time>
      </trkpt>
      <trkpt lat="44.04791" lon="4.63921">
        <ele>206.02</ele>
        <time>2021-11-14T13:55:42Z</time>
      </trkpt>
      <trkpt lat="44.04793" lon="4.6392">
        <ele>206.54</ele>
        <time>2021-11-14T13:55:43Z</time>
      </trkpt>
      <trkpt lat="44.04794" lon="4.63919">
        <ele>206.69</ele>
        <time>2021-11-14T13:55:44Z</time>
      </trkpt>
      <trkpt lat="44.04807" lon="4.63921">
        <ele>208.16</ele>
        <time>2021-11-14T13:55:53Z</time>
      </trkpt>
      <trkpt lat="44.04808" lon="4.63921">
        <ele>207.86</ele>
        <time>2021-11-14T13:55:54Z</time>
      </trkpt>
      <trkpt lat="44.04825" lon="4.63923">
        <ele>208.69</ele>
        <time>2021-11-14T13:56:05Z</time>
      </trkpt>
      <trkpt lat="44.04826" lon="4.63924">
        <ele>208.69</ele>
        <time>2021-11-14T13:56:06Z</time>
      </trkpt>
      <trkpt lat="44.04827" lon="4.63925">
        <ele>208.62</ele>
        <time>2021-11-14T13:56:07Z</time>
      </trkpt>
      <trkpt lat="44.04829" lon="4.63926">
        <ele>208.47</ele>
        <time>2021-11-14T13:56:08Z</time>
      </trkpt>
      <trkpt lat="44.0483" lon="4.63927">
        <ele>208.3</ele>
        <time>2021-11-14T13:56:09Z</time>
      </trkpt>
      <trkpt lat="44.04832" lon="4.63929">
        <ele>208.52</ele>
        <time>2021-11-14T13:56:10Z</time>
      </trkpt>
      <trkpt lat="44.04833" lon="4.6393">
        <ele>208.58</ele>
        <time>2021-11-14T13:56:11Z</time>
      </trkpt>
      <trkpt lat="44.04835" lon="4.6393">
        <ele>208.73</ele>
        <time>2021-11-14T13:56:12Z</time>
      </trkpt>
      <trkpt lat="44.04837" lon="4.63929">
        <ele>208.88</ele>
        <time>2021-11-14T13:56:13Z</time>
      </trkpt>
      <trkpt lat="44.04837" lon="4.63927">
        <ele>208.64</ele>
        <time>2021-11-14T13:56:14Z</time>
      </trkpt>
      <trkpt lat="44.04838" lon="4.63925">
        <ele>208.44</ele>
        <time>2021-11-14T13:56:15Z</time>
      </trkpt>
      <trkpt lat="44.04839" lon="4.63922">
        <ele>208.58</ele>
        <time>2021-11-14T13:56:16Z</time>
      </trkpt>
      <trkpt lat="44.0484" lon="4.63919">
        <ele>208.79</ele>
        <time>2021-11-14T13:56:17Z</time>
      </trkpt>
      <trkpt lat="44.04855" lon="4.63883">
        <ele>206.7</ele>
        <time>2021-11-14T13:56:29Z</time>
      </trkpt>
      <trkpt lat="44.04866" lon="4.63868">
        <ele>204.6</ele>
        <time>2021-11-14T13:56:33Z</time>
      </trkpt>
      <trkpt lat="44.04868" lon="4.63864">
        <ele>204.4</ele>
        <time>2021-11-14T13:56:34Z</time>
      </trkpt>
      <trkpt lat="44.04869" lon="4.6386">
        <ele>204.09</ele>
        <time>2021-11-14T13:56:35Z</time>
      </trkpt>
      <trkpt lat="44.0487" lon="4.63855">
        <ele>203.62</ele>
        <time>2021-11-14T13:56:36Z</time>
      </trkpt>
      <trkpt lat="44.04872" lon="4.63851">
        <ele>202.99</ele>
        <time>2021-11-14T13:56:37Z</time>
      </trkpt>
      <trkpt lat="44.04874" lon="4.63845">
        <ele>202.87</ele>
        <time>2021-11-14T13:56:38Z</time>
      </trkpt>
      <trkpt lat="44.04876" lon="4.63838">
        <ele>202.19</ele>
        <time>2021-11-14T13:56:39Z</time>
      </trkpt>
      <trkpt lat="44.04877" lon="4.63832">
        <ele>202.08</ele>
        <time>2021-11-14T13:56:40Z</time>
      </trkpt>
      <trkpt lat="44.0488" lon="4.63826">
        <ele>201.02</ele>
        <time>2021-11-14T13:56:41Z</time>
      </trkpt>
      <trkpt lat="44.04883" lon="4.63821">
        <ele>200.61</ele>
        <time>2021-11-14T13:56:42Z</time>
      </trkpt>
      <trkpt lat="44.04885" lon="4.63816">
        <ele>199.88</ele>
        <time>2021-11-14T13:56:43Z</time>
      </trkpt>
      <trkpt lat="44.04886" lon="4.6381">
        <ele>199.46</ele>
        <time>2021-11-14T13:56:44Z</time>
      </trkpt>
      <trkpt lat="44.04887" lon="4.63807">
        <ele>199.32</ele>
        <time>2021-11-14T13:56:45Z</time>
      </trkpt>
      <trkpt lat="44.04889" lon="4.63804">
        <ele>199.02</ele>
        <time>2021-11-14T13:56:46Z</time>
      </trkpt>
      <trkpt lat="44.04892" lon="4.63802">
        <ele>198.49</ele>
        <time>2021-11-14T13:56:47Z</time>
      </trkpt>
      <trkpt lat="44.04895" lon="4.63799">
        <ele>198.45</ele>
        <time>2021-11-14T13:56:48Z</time>
      </trkpt>
      <trkpt lat="44.04898" lon="4.63795">
        <ele>198.13</ele>
        <time>2021-11-14T13:56:49Z</time>
      </trkpt>
      <trkpt lat="44.04909" lon="4.63782">
        <ele>196.34</ele>
        <time>2021-11-14T13:56:52Z</time>
      </trkpt>
      <trkpt lat="44.04917" lon="4.63773">
        <ele>195.21</ele>
        <time>2021-11-14T13:56:54Z</time>
      </trkpt>
      <trkpt lat="44.04922" lon="4.63767">
        <ele>194.81</ele>
        <time>2021-11-14T13:56:55Z</time>
      </trkpt>
      <trkpt lat="44.0493" lon="4.63756">
        <ele>194.24</ele>
        <time>2021-11-14T13:56:57Z</time>
      </trkpt>
      <trkpt lat="44.04934" lon="4.63751">
        <ele>194.2</ele>
        <time>2021-11-14T13:56:58Z</time>
      </trkpt>
      <trkpt lat="44.04937" lon="4.63745">
        <ele>193.41</ele>
        <time>2021-11-14T13:56:59Z</time>
      </trkpt>
      <trkpt lat="44.04939" lon="4.63738">
        <ele>193.31</ele>
        <time>2021-11-14T13:57:00Z</time>
      </trkpt>
      <trkpt lat="44.0494" lon="4.6373">
        <ele>192.56</ele>
        <time>2021-11-14T13:57:01Z</time>
      </trkpt>
      <trkpt lat="44.04942" lon="4.63723">
        <ele>192.27</ele>
        <time>2021-11-14T13:57:02Z</time>
      </trkpt>
      <trkpt lat="44.04944" lon="4.63717">
        <ele>192.38</ele>
        <time>2021-11-14T13:57:03Z</time>
      </trkpt>
      <trkpt lat="44.04946" lon="4.63714">
        <ele>192.44</ele>
        <time>2021-11-14T13:57:04Z</time>
      </trkpt>
      <trkpt lat="44.04949" lon="4.63712">
        <ele>191.2</ele>
        <time>2021-11-14T13:57:13Z</time>
      </trkpt>
      <trkpt lat="44.0495" lon="4.63711">
        <ele>193.25</ele>
        <time>2021-11-14T13:57:27Z</time>
      </trkpt>
      <trkpt lat="44.0495" lon="4.6371">
        <ele>192.22</ele>
        <time>2021-11-14T13:57:29Z</time>
      </trkpt>
      <trkpt lat="44.04951" lon="4.63707">
        <ele>192.78</ele>
        <time>2021-11-14T13:57:37Z</time>
      </trkpt>
      <trkpt lat="44.04952" lon="4.63704">
        <ele>193.61</ele>
        <time>2021-11-14T13:57:38Z</time>
      </trkpt>
      <trkpt lat="44.04954" lon="4.63701">
        <ele>193.66</ele>
        <time>2021-11-14T13:57:39Z</time>
      </trkpt>
      <trkpt lat="44.04955" lon="4.63698">
        <ele>193.23</ele>
        <time>2021-11-14T13:57:40Z</time>
      </trkpt>
      <trkpt lat="44.04957" lon="4.63693">
        <ele>192.68</ele>
        <time>2021-11-14T13:57:41Z</time>
      </trkpt>
      <trkpt lat="44.04958" lon="4.63688">
        <ele>192.25</ele>
        <time>2021-11-14T13:57:42Z</time>
      </trkpt>
      <trkpt lat="44.04958" lon="4.63682">
        <ele>191.33</ele>
        <time>2021-11-14T13:57:43Z</time>
      </trkpt>
      <trkpt lat="44.04959" lon="4.63676">
        <ele>190.95</ele>
        <time>2021-11-14T13:57:44Z</time>
      </trkpt>
      <trkpt lat="44.0496" lon="4.6367">
        <ele>190.75</ele>
        <time>2021-11-14T13:57:45Z</time>
      </trkpt>
      <trkpt lat="44.04963" lon="4.63665">
        <ele>190.6</ele>
        <time>2021-11-14T13:57:46Z</time>
      </trkpt>
      <trkpt lat="44.04964" lon="4.63658">
        <ele>189.85</ele>
        <time>2021-11-14T13:57:47Z</time>
      </trkpt>
      <trkpt lat="44.04965" lon="4.63651">
        <ele>189.34</ele>
        <time>2021-11-14T13:57:48Z</time>
      </trkpt>
      <trkpt lat="44.04965" lon="4.63644">
        <ele>189.01</ele>
        <time>2021-11-14T13:57:49Z</time>
      </trkpt>
      <trkpt lat="44.04965" lon="4.63637">
        <ele>187.8</ele>
        <time>2021-11-14T13:57:50Z</time>
      </trkpt>
      <trkpt lat="44.04964" lon="4.63631">
        <ele>187.07</ele>
        <time>2021-11-14T13:57:51Z</time>
      </trkpt>
      <trkpt lat="44.04964" lon="4.63625">
        <ele>186.28</ele>
        <time>2021-11-14T13:57:52Z</time>
      </trkpt>
      <trkpt lat="44.04965" lon="4.63619">
        <ele>185.65</ele>
        <time>2021-11-14T13:57:53Z</time>
      </trkpt>
      <trkpt lat="44.04966" lon="4.63613">
        <ele>185.24</ele>
        <time>2021-11-14T13:57:54Z</time>
      </trkpt>
      <trkpt lat="44.04968" lon="4.63607">
        <ele>183.91</ele>
        <time>2021-11-14T13:57:55Z</time>
      </trkpt>
      <trkpt lat="44.0497" lon="4.63602">
        <ele>183.35</ele>
        <time>2021-11-14T13:57:56Z</time>
      </trkpt>
      <trkpt lat="44.04972" lon="4.63597">
        <ele>182.87</ele>
        <time>2021-11-14T13:57:57Z</time>
      </trkpt>
      <trkpt lat="44.04974" lon="4.63591">
        <ele>181.57</ele>
        <time>2021-11-14T13:57:58Z</time>
      </trkpt>
      <trkpt lat="44.04977" lon="4.63584">
        <ele>180.38</ele>
        <time>2021-11-14T13:57:59Z</time>
      </trkpt>
      <trkpt lat="44.0498" lon="4.63578">
        <ele>179.95</ele>
        <time>2021-11-14T13:58:00Z</time>
      </trkpt>
      <trkpt lat="44.04983" lon="4.63572">
        <ele>179.08</ele>
        <time>2021-11-14T13:58:01Z</time>
      </trkpt>
      <trkpt lat="44.04986" lon="4.63568">
        <ele>177.81</ele>
        <time>2021-11-14T13:58:02Z</time>
      </trkpt>
      <trkpt lat="44.0499" lon="4.63565">
        <ele>176.35</ele>
        <time>2021-11-14T13:58:03Z</time>
      </trkpt>
      <trkpt lat="44.04994" lon="4.63561">
        <ele>175.43</ele>
        <time>2021-11-14T13:58:04Z</time>
      </trkpt>
      <trkpt lat="44.04997" lon="4.63556">
        <ele>174.91</ele>
        <time>2021-11-14T13:58:05Z</time>
      </trkpt>
      <trkpt lat="44.05001" lon="4.6355">
        <ele>174.28</ele>
        <time>2021-11-14T13:58:06Z</time>
      </trkpt>
      <trkpt lat="44.05014" lon="4.63535">
        <ele>170.61</ele>
        <time>2021-11-14T13:58:09Z</time>
      </trkpt>
      <trkpt lat="44.05023" lon="4.63524">
        <ele>167.2</ele>
        <time>2021-11-14T13:58:12Z</time>
      </trkpt>
      <trkpt lat="44.0503" lon="4.63521">
        <ele>164.68</ele>
        <time>2021-11-14T13:58:14Z</time>
      </trkpt>
      <trkpt lat="44.05031" lon="4.63517">
        <ele>163.31</ele>
        <time>2021-11-14T13:58:15Z</time>
      </trkpt>
      <trkpt lat="44.05033" lon="4.63513">
        <ele>162.65</ele>
        <time>2021-11-14T13:58:16Z</time>
      </trkpt>
      <trkpt lat="44.05035" lon="4.63509">
        <ele>162.19</ele>
        <time>2021-11-14T13:58:17Z</time>
      </trkpt>
      <trkpt lat="44.05037" lon="4.63504">
        <ele>161.25</ele>
        <time>2021-11-14T13:58:18Z</time>
      </trkpt>
      <trkpt lat="44.0504" lon="4.63495">
        <ele>159.83</ele>
        <time>2021-11-14T13:58:20Z</time>
      </trkpt>
      <trkpt lat="44.0504" lon="4.63489">
        <ele>159.19</ele>
        <time>2021-11-14T13:58:21Z</time>
      </trkpt>
      <trkpt lat="44.05041" lon="4.63484">
        <ele>159.21</ele>
        <time>2021-11-14T13:58:22Z</time>
      </trkpt>
      <trkpt lat="44.05043" lon="4.63472">
        <ele>157.77</ele>
        <time>2021-11-14T13:58:25Z</time>
      </trkpt>
      <trkpt lat="44.05046" lon="4.63466">
        <ele>156.69</ele>
        <time>2021-11-14T13:58:27Z</time>
      </trkpt>
      <trkpt lat="44.05047" lon="4.63463">
        <ele>155.89</ele>
        <time>2021-11-14T13:58:28Z</time>
      </trkpt>
      <trkpt lat="44.05048" lon="4.6346">
        <ele>155.19</ele>
        <time>2021-11-14T13:58:29Z</time>
      </trkpt>
      <trkpt lat="44.05047" lon="4.63456">
        <ele>155.34</ele>
        <time>2021-11-14T13:58:30Z</time>
      </trkpt>
      <trkpt lat="44.05044" lon="4.63453">
        <ele>154.87</ele>
        <time>2021-11-14T13:58:31Z</time>
      </trkpt>
      <trkpt lat="44.05041" lon="4.63453">
        <ele>154.5</ele>
        <time>2021-11-14T13:58:32Z</time>
      </trkpt>
      <trkpt lat="44.05038" lon="4.63453">
        <ele>154.09</ele>
        <time>2021-11-14T13:58:33Z</time>
      </trkpt>
      <trkpt lat="44.05035" lon="4.63453">
        <ele>153.9</ele>
        <time>2021-11-14T13:58:34Z</time>
      </trkpt>
      <trkpt lat="44.05032" lon="4.63452">
        <ele>153.09</ele>
        <time>2021-11-14T13:58:35Z</time>
      </trkpt>
      <trkpt lat="44.0503" lon="4.63451">
        <ele>152.51</ele>
        <time>2021-11-14T13:58:36Z</time>
      </trkpt>
      <trkpt lat="44.05027" lon="4.63451">
        <ele>152.37</ele>
        <time>2021-11-14T13:58:37Z</time>
      </trkpt>
      <trkpt lat="44.05024" lon="4.63452">
        <ele>152.33</ele>
        <time>2021-11-14T13:58:38Z</time>
      </trkpt>
      <trkpt lat="44.05021" lon="4.63452">
        <ele>152</ele>
        <time>2021-11-14T13:58:39Z</time>
      </trkpt>
      <trkpt lat="44.05018" lon="4.63453">
        <ele>151.69</ele>
        <time>2021-11-14T13:58:40Z</time>
      </trkpt>
      <trkpt lat="44.05014" lon="4.63453">
        <ele>151.49</ele>
        <time>2021-11-14T13:58:41Z</time>
      </trkpt>
      <trkpt lat="44.0501" lon="4.63454">
        <ele>150.83</ele>
        <time>2021-11-14T13:58:42Z</time>
      </trkpt>
      <trkpt lat="44.04999" lon="4.6345">
        <ele>149.91</ele>
        <time>2021-11-14T13:58:45Z</time>
      </trkpt>
      <trkpt lat="44.0498" lon="4.63445">
        <ele>149.43</ele>
        <time>2021-11-14T13:58:52Z</time>
      </trkpt>
      <trkpt lat="44.04961" lon="4.63438">
        <ele>149</ele>
        <time>2021-11-14T13:58:59Z</time>
      </trkpt>
      <trkpt lat="44.04959" lon="4.63439">
        <ele>149.1</ele>
        <time>2021-11-14T13:59:00Z</time>
      </trkpt>
      <trkpt lat="44.04934" lon="4.63454">
        <ele>149.78</ele>
        <time>2021-11-14T13:59:13Z</time>
      </trkpt>
      <trkpt lat="44.04912" lon="4.63488">
        <ele>150.33</ele>
        <time>2021-11-14T13:59:28Z</time>
      </trkpt>
      <trkpt lat="44.04881" lon="4.63527">
        <ele>153.03</ele>
        <time>2021-11-14T13:59:47Z</time>
      </trkpt>
      <trkpt lat="44.04854" lon="4.63553">
        <ele>153.89</ele>
        <time>2021-11-14T14:00:01Z</time>
      </trkpt>
      <trkpt lat="44.04823" lon="4.63572">
        <ele>155.01</ele>
        <time>2021-11-14T14:00:16Z</time>
      </trkpt>
      <trkpt lat="44.04778" lon="4.63593">
        <ele>155.43</ele>
        <time>2021-11-14T14:00:37Z</time>
      </trkpt>
      <trkpt lat="44.04751" lon="4.63621">
        <ele>155.43</ele>
        <time>2021-11-14T14:00:52Z</time>
      </trkpt>
      <trkpt lat="44.04721" lon="4.63664">
        <ele>156.74</ele>
        <time>2021-11-14T14:01:12Z</time>
      </trkpt>
      <trkpt lat="44.04684" lon="4.63688">
        <ele>157.59</ele>
        <time>2021-11-14T14:01:31Z</time>
      </trkpt>
      <trkpt lat="44.04657" lon="4.63673">
        <ele>158.08</ele>
        <time>2021-11-14T14:01:45Z</time>
      </trkpt>
      <trkpt lat="44.04624" lon="4.63648">
        <ele>159.2</ele>
        <time>2021-11-14T14:02:04Z</time>
      </trkpt>
      <trkpt lat="44.04622" lon="4.63645">
        <ele>159.2</ele>
        <time>2021-11-14T14:02:06Z</time>
      </trkpt>
      <trkpt lat="44.04622" lon="4.63643">
        <ele>159.26</ele>
        <time>2021-11-14T14:02:07Z</time>
      </trkpt>
      <trkpt lat="44.04623" lon="4.63641">
        <ele>159.49</ele>
        <time>2021-11-14T14:02:08Z</time>
      </trkpt>
      <trkpt lat="44.04625" lon="4.6364">
        <ele>159.94</ele>
        <time>2021-11-14T14:02:09Z</time>
      </trkpt>
      <trkpt lat="44.04626" lon="4.63639">
        <ele>160.29</ele>
        <time>2021-11-14T14:02:10Z</time>
      </trkpt>
      <trkpt lat="44.04627" lon="4.63639">
        <ele>160.63</ele>
        <time>2021-11-14T14:02:11Z</time>
      </trkpt>
      <trkpt lat="44.04628" lon="4.6364">
        <ele>160.59</ele>
        <time>2021-11-14T14:02:12Z</time>
      </trkpt>
      <trkpt lat="44.0463" lon="4.6364">
        <ele>160.52</ele>
        <time>2021-11-14T14:02:14Z</time>
      </trkpt>
      <trkpt lat="44.04631" lon="4.6364">
        <ele>160.57</ele>
        <time>2021-11-14T14:02:15Z</time>
      </trkpt>
      <trkpt lat="44.04633" lon="4.6364">
        <ele>160.77</ele>
        <time>2021-11-14T14:02:16Z</time>
      </trkpt>
      <trkpt lat="44.04634" lon="4.63641">
        <ele>160.83</ele>
        <time>2021-11-14T14:02:17Z</time>
      </trkpt>
      <trkpt lat="44.04635" lon="4.63642">
        <ele>160.87</ele>
        <time>2021-11-14T14:02:18Z</time>
      </trkpt>
      <trkpt lat="44.04636" lon="4.63643">
        <ele>160.76</ele>
        <time>2021-11-14T14:02:19Z</time>
      </trkpt>
      <trkpt lat="44.04669" lon="4.63655">
        <ele>161.45</ele>
        <time>2021-11-14T14:02:37Z</time>
      </trkpt>
      <trkpt lat="44.04677" lon="4.63656">
        <ele>161.56</ele>
        <time>2021-11-14T14:02:42Z</time>
      </trkpt>
      <trkpt lat="44.04678" lon="4.63655">
        <ele>161.85</ele>
        <time>2021-11-14T14:02:43Z</time>
      </trkpt>
      <trkpt lat="44.04679" lon="4.63653">
        <ele>162.16</ele>
        <time>2021-11-14T14:02:44Z</time>
      </trkpt>
      <trkpt lat="44.0468" lon="4.63651">
        <ele>162.56</ele>
        <time>2021-11-14T14:02:45Z</time>
      </trkpt>
      <trkpt lat="44.04684" lon="4.63643">
        <ele>164.42</ele>
        <time>2021-11-14T14:02:54Z</time>
      </trkpt>
      <trkpt lat="44.04687" lon="4.63636">
        <ele>166.26</ele>
        <time>2021-11-14T14:02:59Z</time>
      </trkpt>
      <trkpt lat="44.04688" lon="4.63636">
        <ele>166.51</ele>
        <time>2021-11-14T14:03:11Z</time>
      </trkpt>
      <trkpt lat="44.0469" lon="4.63635">
        <ele>166.44</ele>
        <time>2021-11-14T14:03:12Z</time>
      </trkpt>
      <trkpt lat="44.04691" lon="4.63634">
        <ele>166.7</ele>
        <time>2021-11-14T14:03:13Z</time>
      </trkpt>
      <trkpt lat="44.04695" lon="4.63629">
        <ele>167.98</ele>
        <time>2021-11-14T14:03:17Z</time>
      </trkpt>
      <trkpt lat="44.04711" lon="4.63618">
        <ele>168.63</ele>
        <time>2021-11-14T14:03:29Z</time>
      </trkpt>
      <trkpt lat="44.04712" lon="4.63616">
        <ele>168.92</ele>
        <time>2021-11-14T14:03:30Z</time>
      </trkpt>
      <trkpt lat="44.04713" lon="4.63615">
        <ele>169.27</ele>
        <time>2021-11-14T14:03:31Z</time>
      </trkpt>
      <trkpt lat="44.04714" lon="4.63614">
        <ele>169.02</ele>
        <time>2021-11-14T14:03:32Z</time>
      </trkpt>
      <trkpt lat="44.04715" lon="4.63612">
        <ele>169.06</ele>
        <time>2021-11-14T14:03:33Z</time>
      </trkpt>
      <trkpt lat="44.04717" lon="4.63611">
        <ele>169.15</ele>
        <time>2021-11-14T14:03:34Z</time>
      </trkpt>
      <trkpt lat="44.04717" lon="4.63609">
        <ele>169.28</ele>
        <time>2021-11-14T14:03:35Z</time>
      </trkpt>
      <trkpt lat="44.04718" lon="4.63607">
        <ele>169.25</ele>
        <time>2021-11-14T14:03:36Z</time>
      </trkpt>
      <trkpt lat="44.04737" lon="4.63586">
        <ele>168.88</ele>
        <time>2021-11-14T14:03:49Z</time>
      </trkpt>
      <trkpt lat="44.04757" lon="4.63564">
        <ele>168.93</ele>
        <time>2021-11-14T14:04:03Z</time>
      </trkpt>
      <trkpt lat="44.0478" lon="4.63543">
        <ele>170.27</ele>
        <time>2021-11-14T14:04:18Z</time>
      </trkpt>
      <trkpt lat="44.048" lon="4.63525">
        <ele>172.83</ele>
        <time>2021-11-14T14:04:33Z</time>
      </trkpt>
      <trkpt lat="44.04807" lon="4.63519">
        <ele>174.47</ele>
        <time>2021-11-14T14:04:38Z</time>
      </trkpt>
      <trkpt lat="44.04826" lon="4.63495">
        <ele>174.8</ele>
        <time>2021-11-14T14:04:54Z</time>
      </trkpt>
      <trkpt lat="44.04842" lon="4.63475">
        <ele>171.56</ele>
        <time>2021-11-14T14:05:03Z</time>
      </trkpt>
      <trkpt lat="44.04847" lon="4.63469">
        <ele>167.82</ele>
        <time>2021-11-14T14:05:06Z</time>
      </trkpt>
      <trkpt lat="44.04849" lon="4.63466">
        <ele>166.59</ele>
        <time>2021-11-14T14:05:07Z</time>
      </trkpt>
      <trkpt lat="44.04852" lon="4.63441">
        <ele>169.54</ele>
        <time>2021-11-14T14:05:18Z</time>
      </trkpt>
      <trkpt lat="44.04854" lon="4.63422">
        <ele>172.92</ele>
        <time>2021-11-14T14:05:27Z</time>
      </trkpt>
      <trkpt lat="44.04862" lon="4.63399">
        <ele>170.52</ele>
        <time>2021-11-14T14:05:35Z</time>
      </trkpt>
      <trkpt lat="44.04862" lon="4.63397">
        <ele>169.82</ele>
        <time>2021-11-14T14:05:40Z</time>
      </trkpt>
      <trkpt lat="44.04864" lon="4.63391">
        <ele>170.49</ele>
        <time>2021-11-14T14:05:42Z</time>
      </trkpt>
      <trkpt lat="44.04863" lon="4.63379">
        <ele>170.97</ele>
        <time>2021-11-14T14:05:45Z</time>
      </trkpt>
      <trkpt lat="44.04861" lon="4.63377">
        <ele>171.3</ele>
        <time>2021-11-14T14:05:46Z</time>
      </trkpt>
      <trkpt lat="44.04859" lon="4.63375">
        <ele>171.5</ele>
        <time>2021-11-14T14:05:47Z</time>
      </trkpt>
      <trkpt lat="44.04858" lon="4.63374">
        <ele>171.32</ele>
        <time>2021-11-14T14:05:48Z</time>
      </trkpt>
      <trkpt lat="44.04857" lon="4.63373">
        <ele>171.29</ele>
        <time>2021-11-14T14:05:49Z</time>
      </trkpt>
      <trkpt lat="44.04855" lon="4.63371">
        <ele>171.22</ele>
        <time>2021-11-14T14:05:50Z</time>
      </trkpt>
      <trkpt lat="44.04854" lon="4.6337">
        <ele>171.2</ele>
        <time>2021-11-14T14:05:51Z</time>
      </trkpt>
      <trkpt lat="44.04852" lon="4.63368">
        <ele>171.11</ele>
        <time>2021-11-14T14:05:55Z</time>
      </trkpt>
      <trkpt lat="44.04852" lon="4.63364">
        <ele>170.84</ele>
        <time>2021-11-14T14:05:57Z</time>
      </trkpt>
      <trkpt lat="44.04853" lon="4.63362">
        <ele>170.24</ele>
        <time>2021-11-14T14:05:58Z</time>
      </trkpt>
      <trkpt lat="44.04855" lon="4.63359">
        <ele>169.62</ele>
        <time>2021-11-14T14:05:59Z</time>
      </trkpt>
      <trkpt lat="44.04856" lon="4.63357">
        <ele>168.9</ele>
        <time>2021-11-14T14:06:00Z</time>
      </trkpt>
      <trkpt lat="44.04857" lon="4.63353">
        <ele>168.73</ele>
        <time>2021-11-14T14:06:01Z</time>
      </trkpt>
      <trkpt lat="44.04859" lon="4.63341">
        <ele>165.34</ele>
        <time>2021-11-14T14:06:05Z</time>
      </trkpt>
      <trkpt lat="44.04863" lon="4.63324">
        <ele>161.78</ele>
        <time>2021-11-14T14:06:09Z</time>
      </trkpt>
      <trkpt lat="44.04866" lon="4.63309">
        <ele>160.04</ele>
        <time>2021-11-14T14:06:11Z</time>
      </trkpt>
      <trkpt lat="44.04867" lon="4.63302">
        <ele>159.73</ele>
        <time>2021-11-14T14:06:12Z</time>
      </trkpt>
      <trkpt lat="44.04865" lon="4.63296">
        <ele>159.46</ele>
        <time>2021-11-14T14:06:13Z</time>
      </trkpt>
      <trkpt lat="44.04863" lon="4.63293">
        <ele>159.02</ele>
        <time>2021-11-14T14:06:14Z</time>
      </trkpt>
      <trkpt lat="44.04861" lon="4.63292">
        <ele>158.91</ele>
        <time>2021-11-14T14:06:15Z</time>
      </trkpt>
      <trkpt lat="44.04859" lon="4.63291">
        <ele>158.75</ele>
        <time>2021-11-14T14:06:16Z</time>
      </trkpt>
      <trkpt lat="44.04858" lon="4.63291">
        <ele>158.43</ele>
        <time>2021-11-14T14:06:17Z</time>
      </trkpt>
      <trkpt lat="44.04854" lon="4.6329">
        <ele>158.18</ele>
        <time>2021-11-14T14:06:20Z</time>
      </trkpt>
      <trkpt lat="44.04853" lon="4.6329">
        <ele>158.36</ele>
        <time>2021-11-14T14:06:21Z</time>
      </trkpt>
      <trkpt lat="44.04851" lon="4.6329">
        <ele>158.53</ele>
        <time>2021-11-14T14:06:22Z</time>
      </trkpt>
      <trkpt lat="44.0485" lon="4.63289">
        <ele>158.81</ele>
        <time>2021-11-14T14:06:23Z</time>
      </trkpt>
      <trkpt lat="44.04849" lon="4.63289">
        <ele>159.07</ele>
        <time>2021-11-14T14:06:24Z</time>
      </trkpt>
      <trkpt lat="44.04848" lon="4.63289">
        <ele>159.39</ele>
        <time>2021-11-14T14:06:25Z</time>
      </trkpt>
      <trkpt lat="44.04847" lon="4.63289">
        <ele>159.44</ele>
        <time>2021-11-14T14:06:26Z</time>
      </trkpt>
      <trkpt lat="44.04845" lon="4.63289">
        <ele>159.31</ele>
        <time>2021-11-14T14:06:27Z</time>
      </trkpt>
      <trkpt lat="44.04844" lon="4.63288">
        <ele>159.44</ele>
        <time>2021-11-14T14:06:28Z</time>
      </trkpt>
      <trkpt lat="44.04843" lon="4.63288">
        <ele>159.51</ele>
        <time>2021-11-14T14:06:29Z</time>
      </trkpt>
      <trkpt lat="44.04842" lon="4.63288">
        <ele>159.83</ele>
        <time>2021-11-14T14:06:30Z</time>
      </trkpt>
      <trkpt lat="44.04841" lon="4.63288">
        <ele>160.08</ele>
        <time>2021-11-14T14:06:31Z</time>
      </trkpt>
      <trkpt lat="44.04838" lon="4.63288">
        <ele>159.23</ele>
        <time>2021-11-14T14:06:38Z</time>
      </trkpt>
      <trkpt lat="44.04837" lon="4.63288">
        <ele>159.52</ele>
        <time>2021-11-14T14:06:39Z</time>
      </trkpt>
      <trkpt lat="44.04835" lon="4.63289">
        <ele>159.49</ele>
        <time>2021-11-14T14:06:40Z</time>
      </trkpt>
      <trkpt lat="44.04834" lon="4.6329">
        <ele>159.65</ele>
        <time>2021-11-14T14:06:41Z</time>
      </trkpt>
      <trkpt lat="44.04832" lon="4.6329">
        <ele>159.6</ele>
        <time>2021-11-14T14:06:42Z</time>
      </trkpt>
      <trkpt lat="44.0483" lon="4.63291">
        <ele>159.7</ele>
        <time>2021-11-14T14:06:43Z</time>
      </trkpt>
      <trkpt lat="44.048" lon="4.63299">
        <ele>162.23</ele>
        <time>2021-11-14T14:07:00Z</time>
      </trkpt>
      <trkpt lat="44.04783" lon="4.63296">
        <ele>163.48</ele>
        <time>2021-11-14T14:07:12Z</time>
      </trkpt>
      <trkpt lat="44.04782" lon="4.63296">
        <ele>163.25</ele>
        <time>2021-11-14T14:07:13Z</time>
      </trkpt>
      <trkpt lat="44.04781" lon="4.63296">
        <ele>163.28</ele>
        <time>2021-11-14T14:07:14Z</time>
      </trkpt>
      <trkpt lat="44.04779" lon="4.63296">
        <ele>162.98</ele>
        <time>2021-11-14T14:07:15Z</time>
      </trkpt>
      <trkpt lat="44.04778" lon="4.63295">
        <ele>163.05</ele>
        <time>2021-11-14T14:07:16Z</time>
      </trkpt>
      <trkpt lat="44.04777" lon="4.63294">
        <ele>163.23</ele>
        <time>2021-11-14T14:07:17Z</time>
      </trkpt>
      <trkpt lat="44.04776" lon="4.63293">
        <ele>163.55</ele>
        <time>2021-11-14T14:07:18Z</time>
      </trkpt>
      <trkpt lat="44.04774" lon="4.63292">
        <ele>163.87</ele>
        <time>2021-11-14T14:07:19Z</time>
      </trkpt>
      <trkpt lat="44.04771" lon="4.6329">
        <ele>164.54</ele>
        <time>2021-11-14T14:07:22Z</time>
      </trkpt>
      <trkpt lat="44.04754" lon="4.63275">
        <ele>165.28</ele>
        <time>2021-11-14T14:07:37Z</time>
      </trkpt>
      <trkpt lat="44.04753" lon="4.63276">
        <ele>165.29</ele>
        <time>2021-11-14T14:07:38Z</time>
      </trkpt>
      <trkpt lat="44.0474" lon="4.63293">
        <ele>165.83</ele>
        <time>2021-11-14T14:07:51Z</time>
      </trkpt>
      <trkpt lat="44.04739" lon="4.63294">
        <ele>165.93</ele>
        <time>2021-11-14T14:07:52Z</time>
      </trkpt>
      <trkpt lat="44.04737" lon="4.63293">
        <ele>166.13</ele>
        <time>2021-11-14T14:07:54Z</time>
      </trkpt>
      <trkpt lat="44.04736" lon="4.63292">
        <ele>166.32</ele>
        <time>2021-11-14T14:07:55Z</time>
      </trkpt>
      <trkpt lat="44.04735" lon="4.63291">
        <ele>166.15</ele>
        <time>2021-11-14T14:07:56Z</time>
      </trkpt>
      <trkpt lat="44.04734" lon="4.63289">
        <ele>166.22</ele>
        <time>2021-11-14T14:07:57Z</time>
      </trkpt>
      <trkpt lat="44.04734" lon="4.63288">
        <ele>166.27</ele>
        <time>2021-11-14T14:07:58Z</time>
      </trkpt>
      <trkpt lat="44.04733" lon="4.63286">
        <ele>166.26</ele>
        <time>2021-11-14T14:07:59Z</time>
      </trkpt>
      <trkpt lat="44.04728" lon="4.6328">
        <ele>166.49</ele>
        <time>2021-11-14T14:08:14Z</time>
      </trkpt>
      <trkpt lat="44.04727" lon="4.63279">
        <ele>167</ele>
        <time>2021-11-14T14:08:15Z</time>
      </trkpt>
      <trkpt lat="44.04725" lon="4.63277">
        <ele>167.74</ele>
        <time>2021-11-14T14:08:17Z</time>
      </trkpt>
      <trkpt lat="44.04716" lon="4.6327">
        <ele>168.89</ele>
        <time>2021-11-14T14:08:24Z</time>
      </trkpt>
      <trkpt lat="44.04716" lon="4.63269">
        <ele>169.39</ele>
        <time>2021-11-14T14:08:25Z</time>
      </trkpt>
      <trkpt lat="44.04715" lon="4.63266">
        <ele>169.48</ele>
        <time>2021-11-14T14:08:26Z</time>
      </trkpt>
      <trkpt lat="44.04715" lon="4.63264">
        <ele>169.55</ele>
        <time>2021-11-14T14:08:27Z</time>
      </trkpt>
      <trkpt lat="44.04716" lon="4.63261">
        <ele>169.33</ele>
        <time>2021-11-14T14:08:28Z</time>
      </trkpt>
      <trkpt lat="44.04709" lon="4.63236">
        <ele>170.68</ele>
        <time>2021-11-14T14:08:37Z</time>
      </trkpt>
      <trkpt lat="44.04708" lon="4.63234">
        <ele>170.87</ele>
        <time>2021-11-14T14:08:38Z</time>
      </trkpt>
      <trkpt lat="44.04708" lon="4.63232">
        <ele>171.1</ele>
        <time>2021-11-14T14:08:39Z</time>
      </trkpt>
      <trkpt lat="44.04707" lon="4.6323">
        <ele>171.22</ele>
        <time>2021-11-14T14:08:40Z</time>
      </trkpt>
      <trkpt lat="44.04706" lon="4.63229">
        <ele>171.62</ele>
        <time>2021-11-14T14:08:41Z</time>
      </trkpt>
      <trkpt lat="44.047" lon="4.63219">
        <ele>175.04</ele>
        <time>2021-11-14T14:08:48Z</time>
      </trkpt>
      <trkpt lat="44.04691" lon="4.63209">
        <ele>175.4</ele>
        <time>2021-11-14T14:08:58Z</time>
      </trkpt>
      <trkpt lat="44.04691" lon="4.63207">
        <ele>175.35</ele>
        <time>2021-11-14T14:08:59Z</time>
      </trkpt>
      <trkpt lat="44.0469" lon="4.63205">
        <ele>175.49</ele>
        <time>2021-11-14T14:09:00Z</time>
      </trkpt>
      <trkpt lat="44.04689" lon="4.63203">
        <ele>175.5</ele>
        <time>2021-11-14T14:09:01Z</time>
      </trkpt>
      <trkpt lat="44.04689" lon="4.63202">
        <ele>175.67</ele>
        <time>2021-11-14T14:09:02Z</time>
      </trkpt>
      <trkpt lat="44.0468" lon="4.6318">
        <ele>177.6</ele>
        <time>2021-11-14T14:09:16Z</time>
      </trkpt>
      <trkpt lat="44.04678" lon="4.63159">
        <ele>178.33</ele>
        <time>2021-11-14T14:09:27Z</time>
      </trkpt>
      <trkpt lat="44.04679" lon="4.63158">
        <ele>178.36</ele>
        <time>2021-11-14T14:09:28Z</time>
      </trkpt>
      <trkpt lat="44.04681" lon="4.63156">
        <ele>178.39</ele>
        <time>2021-11-14T14:09:29Z</time>
      </trkpt>
      <trkpt lat="44.04683" lon="4.63154">
        <ele>177.82</ele>
        <time>2021-11-14T14:09:31Z</time>
      </trkpt>
      <trkpt lat="44.04688" lon="4.63138">
        <ele>176.7</ele>
        <time>2021-11-14T14:09:42Z</time>
      </trkpt>
      <trkpt lat="44.04688" lon="4.63136">
        <ele>177.38</ele>
        <time>2021-11-14T14:09:43Z</time>
      </trkpt>
      <trkpt lat="44.04689" lon="4.63134">
        <ele>177.65</ele>
        <time>2021-11-14T14:09:44Z</time>
      </trkpt>
      <trkpt lat="44.04691" lon="4.63118">
        <ele>179.82</ele>
        <time>2021-11-14T14:09:52Z</time>
      </trkpt>
      <trkpt lat="44.04691" lon="4.63116">
        <ele>180.14</ele>
        <time>2021-11-14T14:09:53Z</time>
      </trkpt>
      <trkpt lat="44.0469" lon="4.63115">
        <ele>180.4</ele>
        <time>2021-11-14T14:09:54Z</time>
      </trkpt>
      <trkpt lat="44.04693" lon="4.63091">
        <ele>182.29</ele>
        <time>2021-11-14T14:10:06Z</time>
      </trkpt>
      <trkpt lat="44.04695" lon="4.63068">
        <ele>184</ele>
        <time>2021-11-14T14:10:19Z</time>
      </trkpt>
      <trkpt lat="44.04691" lon="4.63053">
        <ele>185.34</ele>
        <time>2021-11-14T14:10:27Z</time>
      </trkpt>
      <trkpt lat="44.0469" lon="4.63052">
        <ele>185.76</ele>
        <time>2021-11-14T14:10:28Z</time>
      </trkpt>
      <trkpt lat="44.04684" lon="4.63052">
        <ele>186.97</ele>
        <time>2021-11-14T14:10:32Z</time>
      </trkpt>
      <trkpt lat="44.04683" lon="4.63054">
        <ele>187.37</ele>
        <time>2021-11-14T14:10:34Z</time>
      </trkpt>
      <trkpt lat="44.04683" lon="4.63056">
        <ele>187.56</ele>
        <time>2021-11-14T14:10:35Z</time>
      </trkpt>
      <trkpt lat="44.04683" lon="4.63057">
        <ele>187.45</ele>
        <time>2021-11-14T14:10:36Z</time>
      </trkpt>
      <trkpt lat="44.04682" lon="4.63058">
        <ele>187.53</ele>
        <time>2021-11-14T14:10:37Z</time>
      </trkpt>
      <trkpt lat="44.0468" lon="4.63058">
        <ele>187.65</ele>
        <time>2021-11-14T14:10:38Z</time>
      </trkpt>
      <trkpt lat="44.04679" lon="4.63058">
        <ele>187.74</ele>
        <time>2021-11-14T14:10:39Z</time>
      </trkpt>
      <trkpt lat="44.04678" lon="4.63057">
        <ele>187.8</ele>
        <time>2021-11-14T14:10:40Z</time>
      </trkpt>
      <trkpt lat="44.04676" lon="4.63056">
        <ele>187.87</ele>
        <time>2021-11-14T14:10:41Z</time>
      </trkpt>
      <trkpt lat="44.04675" lon="4.63056">
        <ele>188.04</ele>
        <time>2021-11-14T14:10:42Z</time>
      </trkpt>
      <trkpt lat="44.04673" lon="4.63053">
        <ele>187.87</ele>
        <time>2021-11-14T14:10:58Z</time>
      </trkpt>
      <trkpt lat="44.04671" lon="4.63049">
        <ele>188.4</ele>
        <time>2021-11-14T14:12:09Z</time>
      </trkpt>
      <trkpt lat="44.04671" lon="4.63047">
        <ele>187.2</ele>
        <time>2021-11-14T14:12:41Z</time>
      </trkpt>
      <trkpt lat="44.04671" lon="4.63045">
        <ele>186.89</ele>
        <time>2021-11-14T14:12:42Z</time>
      </trkpt>
      <trkpt lat="44.0467" lon="4.63042">
        <ele>186.71</ele>
        <time>2021-11-14T14:12:43Z</time>
      </trkpt>
      <trkpt lat="44.0467" lon="4.63039">
        <ele>186.64</ele>
        <time>2021-11-14T14:12:44Z</time>
      </trkpt>
      <trkpt lat="44.0467" lon="4.63036">
        <ele>186.47</ele>
        <time>2021-11-14T14:12:45Z</time>
      </trkpt>
      <trkpt lat="44.04672" lon="4.63035">
        <ele>186.45</ele>
        <time>2021-11-14T14:12:46Z</time>
      </trkpt>
      <trkpt lat="44.04674" lon="4.63034">
        <ele>186.29</ele>
        <time>2021-11-14T14:12:47Z</time>
      </trkpt>
      <trkpt lat="44.04675" lon="4.63033">
        <ele>186.22</ele>
        <time>2021-11-14T14:12:48Z</time>
      </trkpt>
      <trkpt lat="44.04676" lon="4.63031">
        <ele>186.26</ele>
        <time>2021-11-14T14:12:49Z</time>
      </trkpt>
      <trkpt lat="44.04683" lon="4.63023">
        <ele>187.28</ele>
        <time>2021-11-14T14:12:56Z</time>
      </trkpt>
      <trkpt lat="44.04684" lon="4.63022">
        <ele>187.48</ele>
        <time>2021-11-14T14:12:57Z</time>
      </trkpt>
      <trkpt lat="44.04686" lon="4.63021">
        <ele>187.89</ele>
        <time>2021-11-14T14:12:58Z</time>
      </trkpt>
      <trkpt lat="44.04687" lon="4.63021">
        <ele>188.33</ele>
        <time>2021-11-14T14:12:59Z</time>
      </trkpt>
      <trkpt lat="44.04689" lon="4.63022">
        <ele>188.49</ele>
        <time>2021-11-14T14:13:00Z</time>
      </trkpt>
      <trkpt lat="44.0469" lon="4.63023">
        <ele>188.92</ele>
        <time>2021-11-14T14:13:01Z</time>
      </trkpt>
      <trkpt lat="44.04691" lon="4.63024">
        <ele>189.45</ele>
        <time>2021-11-14T14:13:02Z</time>
      </trkpt>
      <trkpt lat="44.04693" lon="4.63024">
        <ele>189.65</ele>
        <time>2021-11-14T14:13:03Z</time>
      </trkpt>
      <trkpt lat="44.04694" lon="4.63024">
        <ele>190.01</ele>
        <time>2021-11-14T14:13:04Z</time>
      </trkpt>
      <trkpt lat="44.04696" lon="4.63025">
        <ele>190.31</ele>
        <time>2021-11-14T14:13:05Z</time>
      </trkpt>
      <trkpt lat="44.04698" lon="4.63025">
        <ele>190.69</ele>
        <time>2021-11-14T14:13:06Z</time>
      </trkpt>
      <trkpt lat="44.04699" lon="4.63026">
        <ele>190.89</ele>
        <time>2021-11-14T14:13:07Z</time>
      </trkpt>
      <trkpt lat="44.047" lon="4.63027">
        <ele>191.22</ele>
        <time>2021-11-14T14:13:08Z</time>
      </trkpt>
      <trkpt lat="44.04702" lon="4.63028">
        <ele>191.59</ele>
        <time>2021-11-14T14:13:09Z</time>
      </trkpt>
      <trkpt lat="44.04703" lon="4.63028">
        <ele>192.08</ele>
        <time>2021-11-14T14:13:10Z</time>
      </trkpt>
      <trkpt lat="44.04706" lon="4.63025">
        <ele>192.33</ele>
        <time>2021-11-14T14:13:17Z</time>
      </trkpt>
      <trkpt lat="44.04708" lon="4.63023">
        <ele>193.71</ele>
        <time>2021-11-14T14:13:20Z</time>
      </trkpt>
      <trkpt lat="44.04708" lon="4.63022">
        <ele>193.95</ele>
        <time>2021-11-14T14:13:21Z</time>
      </trkpt>
      <trkpt lat="44.04709" lon="4.6302">
        <ele>194</ele>
        <time>2021-11-14T14:13:22Z</time>
      </trkpt>
      <trkpt lat="44.04709" lon="4.63019">
        <ele>194.06</ele>
        <time>2021-11-14T14:13:23Z</time>
      </trkpt>
      <trkpt lat="44.04718" lon="4.63015">
        <ele>195.25</ele>
        <time>2021-11-14T14:13:36Z</time>
      </trkpt>
      <trkpt lat="44.04719" lon="4.63015">
        <ele>195.88</ele>
        <time>2021-11-14T14:13:50Z</time>
      </trkpt>
      <trkpt lat="44.04721" lon="4.63014">
        <ele>195.74</ele>
        <time>2021-11-14T14:13:53Z</time>
      </trkpt>
      <trkpt lat="44.04722" lon="4.63014">
        <ele>195.63</ele>
        <time>2021-11-14T14:13:54Z</time>
      </trkpt>
      <trkpt lat="44.04723" lon="4.63015">
        <ele>195.82</ele>
        <time>2021-11-14T14:13:55Z</time>
      </trkpt>
      <trkpt lat="44.04725" lon="4.63015">
        <ele>196.05</ele>
        <time>2021-11-14T14:13:57Z</time>
      </trkpt>
      <trkpt lat="44.04727" lon="4.63015">
        <ele>196.19</ele>
        <time>2021-11-14T14:13:58Z</time>
      </trkpt>
      <trkpt lat="44.04746" lon="4.63007">
        <ele>195.95</ele>
        <time>2021-11-14T14:14:10Z</time>
      </trkpt>
      <trkpt lat="44.04762" lon="4.62995">
        <ele>197.75</ele>
        <time>2021-11-14T14:14:22Z</time>
      </trkpt>
      <trkpt lat="44.04771" lon="4.62995">
        <ele>199.05</ele>
        <time>2021-11-14T14:14:28Z</time>
      </trkpt>
      <trkpt lat="44.04795" lon="4.62996">
        <ele>201.64</ele>
        <time>2021-11-14T14:14:43Z</time>
      </trkpt>
      <trkpt lat="44.04802" lon="4.62994">
        <ele>201.66</ele>
        <time>2021-11-14T14:14:47Z</time>
      </trkpt>
      <trkpt lat="44.04803" lon="4.62992">
        <ele>201.46</ele>
        <time>2021-11-14T14:14:48Z</time>
      </trkpt>
      <trkpt lat="44.04804" lon="4.6299">
        <ele>201.3</ele>
        <time>2021-11-14T14:14:49Z</time>
      </trkpt>
      <trkpt lat="44.04822" lon="4.62967">
        <ele>200.52</ele>
        <time>2021-11-14T14:14:58Z</time>
      </trkpt>
      <trkpt lat="44.04845" lon="4.62972">
        <ele>202.12</ele>
        <time>2021-11-14T14:15:11Z</time>
      </trkpt>
      <trkpt lat="44.04872" lon="4.6297">
        <ele>202.63</ele>
        <time>2021-11-14T14:15:26Z</time>
      </trkpt>
      <trkpt lat="44.04881" lon="4.62963">
        <ele>202.99</ele>
        <time>2021-11-14T14:15:31Z</time>
      </trkpt>
      <trkpt lat="44.04883" lon="4.62963">
        <ele>202.62</ele>
        <time>2021-11-14T14:15:32Z</time>
      </trkpt>
      <trkpt lat="44.04884" lon="4.62964">
        <ele>202.6</ele>
        <time>2021-11-14T14:15:33Z</time>
      </trkpt>
      <trkpt lat="44.04885" lon="4.62966">
        <ele>202.75</ele>
        <time>2021-11-14T14:15:34Z</time>
      </trkpt>
      <trkpt lat="44.04912" lon="4.6297">
        <ele>202.72</ele>
        <time>2021-11-14T14:15:46Z</time>
      </trkpt>
      <trkpt lat="44.0492" lon="4.62978">
        <ele>199.22</ele>
        <time>2021-11-14T14:15:50Z</time>
      </trkpt>
      <trkpt lat="44.0492" lon="4.62981">
        <ele>198.82</ele>
        <time>2021-11-14T14:15:51Z</time>
      </trkpt>
      <trkpt lat="44.0492" lon="4.62985">
        <ele>198.19</ele>
        <time>2021-11-14T14:15:52Z</time>
      </trkpt>
      <trkpt lat="44.04921" lon="4.62989">
        <ele>197.41</ele>
        <time>2021-11-14T14:15:53Z</time>
      </trkpt>
      <trkpt lat="44.04921" lon="4.62993">
        <ele>196.21</ele>
        <time>2021-11-14T14:15:54Z</time>
      </trkpt>
      <trkpt lat="44.04918" lon="4.63011">
        <ele>193.73</ele>
        <time>2021-11-14T14:15:58Z</time>
      </trkpt>
      <trkpt lat="44.04916" lon="4.63019">
        <ele>194.29</ele>
        <time>2021-11-14T14:16:01Z</time>
      </trkpt>
      <trkpt lat="44.04916" lon="4.63022">
        <ele>194.36</ele>
        <time>2021-11-14T14:16:02Z</time>
      </trkpt>
      <trkpt lat="44.04918" lon="4.63025">
        <ele>194.1</ele>
        <time>2021-11-14T14:16:03Z</time>
      </trkpt>
      <trkpt lat="44.04919" lon="4.63027">
        <ele>193.21</ele>
        <time>2021-11-14T14:16:04Z</time>
      </trkpt>
      <trkpt lat="44.04921" lon="4.6303">
        <ele>191.71</ele>
        <time>2021-11-14T14:16:05Z</time>
      </trkpt>
      <trkpt lat="44.04923" lon="4.63034">
        <ele>190.8</ele>
        <time>2021-11-14T14:16:06Z</time>
      </trkpt>
      <trkpt lat="44.04924" lon="4.63036">
        <ele>189.44</ele>
        <time>2021-11-14T14:16:07Z</time>
      </trkpt>
      <trkpt lat="44.04926" lon="4.63039">
        <ele>188.06</ele>
        <time>2021-11-14T14:16:12Z</time>
      </trkpt>
      <trkpt lat="44.04928" lon="4.63041">
        <ele>188.15</ele>
        <time>2021-11-14T14:16:13Z</time>
      </trkpt>
      <trkpt lat="44.04931" lon="4.63043">
        <ele>188.13</ele>
        <time>2021-11-14T14:16:14Z</time>
      </trkpt>
      <trkpt lat="44.04934" lon="4.63044">
        <ele>187.6</ele>
        <time>2021-11-14T14:16:15Z</time>
      </trkpt>
      <trkpt lat="44.04938" lon="4.63046">
        <ele>187.39</ele>
        <time>2021-11-14T14:16:16Z</time>
      </trkpt>
      <trkpt lat="44.04941" lon="4.6305">
        <ele>187.41</ele>
        <time>2021-11-14T14:16:17Z</time>
      </trkpt>
      <trkpt lat="44.04945" lon="4.63053">
        <ele>187.74</ele>
        <time>2021-11-14T14:16:18Z</time>
      </trkpt>
      <trkpt lat="44.04947" lon="4.63057">
        <ele>187.78</ele>
        <time>2021-11-14T14:16:19Z</time>
      </trkpt>
      <trkpt lat="44.0495" lon="4.6306">
        <ele>188.16</ele>
        <time>2021-11-14T14:16:20Z</time>
      </trkpt>
      <trkpt lat="44.04959" lon="4.63073">
        <ele>188.75</ele>
        <time>2021-11-14T14:16:29Z</time>
      </trkpt>
      <trkpt lat="44.0496" lon="4.63074">
        <ele>188.57</ele>
        <time>2021-11-14T14:16:30Z</time>
      </trkpt>
      <trkpt lat="44.04961" lon="4.63076">
        <ele>188.39</ele>
        <time>2021-11-14T14:16:31Z</time>
      </trkpt>
      <trkpt lat="44.04963" lon="4.63079">
        <ele>187.81</ele>
        <time>2021-11-14T14:16:32Z</time>
      </trkpt>
      <trkpt lat="44.04964" lon="4.63082">
        <ele>187.06</ele>
        <time>2021-11-14T14:16:33Z</time>
      </trkpt>
      <trkpt lat="44.04965" lon="4.63086">
        <ele>186.7</ele>
        <time>2021-11-14T14:16:34Z</time>
      </trkpt>
      <trkpt lat="44.04966" lon="4.63088">
        <ele>185.49</ele>
        <time>2021-11-14T14:16:35Z</time>
      </trkpt>
      <trkpt lat="44.04967" lon="4.63091">
        <ele>184.14</ele>
        <time>2021-11-14T14:16:36Z</time>
      </trkpt>
      <trkpt lat="44.0497" lon="4.63094">
        <ele>183.57</ele>
        <time>2021-11-14T14:16:37Z</time>
      </trkpt>
      <trkpt lat="44.04973" lon="4.63098">
        <ele>182.53</ele>
        <time>2021-11-14T14:16:38Z</time>
      </trkpt>
      <trkpt lat="44.04976" lon="4.63103">
        <ele>182.25</ele>
        <time>2021-11-14T14:16:39Z</time>
      </trkpt>
      <trkpt lat="44.04979" lon="4.63108">
        <ele>180.91</ele>
        <time>2021-11-14T14:16:40Z</time>
      </trkpt>
      <trkpt lat="44.0498" lon="4.63113">
        <ele>179.7</ele>
        <time>2021-11-14T14:16:41Z</time>
      </trkpt>
      <trkpt lat="44.0498" lon="4.63117">
        <ele>178.77</ele>
        <time>2021-11-14T14:16:42Z</time>
      </trkpt>
      <trkpt lat="44.04978" lon="4.63119">
        <ele>177.92</ele>
        <time>2021-11-14T14:16:43Z</time>
      </trkpt>
      <trkpt lat="44.04977" lon="4.63121">
        <ele>177.22</ele>
        <time>2021-11-14T14:16:44Z</time>
      </trkpt>
      <trkpt lat="44.04976" lon="4.63124">
        <ele>176.59</ele>
        <time>2021-11-14T14:16:45Z</time>
      </trkpt>
      <trkpt lat="44.04977" lon="4.63127">
        <ele>175.91</ele>
        <time>2021-11-14T14:16:46Z</time>
      </trkpt>
      <trkpt lat="44.04978" lon="4.6313">
        <ele>176.11</ele>
        <time>2021-11-14T14:16:47Z</time>
      </trkpt>
      <trkpt lat="44.04979" lon="4.63133">
        <ele>175.8</ele>
        <time>2021-11-14T14:16:48Z</time>
      </trkpt>
      <trkpt lat="44.04979" lon="4.63135">
        <ele>174.69</ele>
        <time>2021-11-14T14:16:49Z</time>
      </trkpt>
      <trkpt lat="44.04979" lon="4.63138">
        <ele>173.72</ele>
        <time>2021-11-14T14:16:50Z</time>
      </trkpt>
      <trkpt lat="44.04978" lon="4.63141">
        <ele>173.17</ele>
        <time>2021-11-14T14:16:51Z</time>
      </trkpt>
      <trkpt lat="44.04978" lon="4.63144">
        <ele>172.37</ele>
        <time>2021-11-14T14:16:52Z</time>
      </trkpt>
      <trkpt lat="44.04977" lon="4.63146">
        <ele>172.05</ele>
        <time>2021-11-14T14:16:53Z</time>
      </trkpt>
      <trkpt lat="44.04975" lon="4.63154">
        <ele>170.12</ele>
        <time>2021-11-14T14:16:55Z</time>
      </trkpt>
      <trkpt lat="44.04973" lon="4.63156">
        <ele>169.56</ele>
        <time>2021-11-14T14:16:56Z</time>
      </trkpt>
      <trkpt lat="44.04972" lon="4.63157">
        <ele>169.51</ele>
        <time>2021-11-14T14:16:57Z</time>
      </trkpt>
      <trkpt lat="44.0497" lon="4.63157">
        <ele>169.93</ele>
        <time>2021-11-14T14:16:58Z</time>
      </trkpt>
      <trkpt lat="44.04965" lon="4.63158">
        <ele>172.89</ele>
        <time>2021-11-14T14:17:03Z</time>
      </trkpt>
      <trkpt lat="44.04956" lon="4.63165">
        <ele>176.09</ele>
        <time>2021-11-14T14:17:12Z</time>
      </trkpt>
      <trkpt lat="44.04954" lon="4.63169">
        <ele>176.96</ele>
        <time>2021-11-14T14:17:15Z</time>
      </trkpt>
      <trkpt lat="44.04953" lon="4.63171">
        <ele>177.35</ele>
        <time>2021-11-14T14:17:16Z</time>
      </trkpt>
      <trkpt lat="44.04953" lon="4.63172">
        <ele>177.53</ele>
        <time>2021-11-14T14:17:17Z</time>
      </trkpt>
      <trkpt lat="44.04947" lon="4.63177">
        <ele>178.29</ele>
        <time>2021-11-14T14:17:22Z</time>
      </trkpt>
      <trkpt lat="44.04946" lon="4.63179">
        <ele>178.28</ele>
        <time>2021-11-14T14:17:23Z</time>
      </trkpt>
      <trkpt lat="44.04947" lon="4.63181">
        <ele>178.3</ele>
        <time>2021-11-14T14:17:24Z</time>
      </trkpt>
      <trkpt lat="44.04947" lon="4.63183">
        <ele>178.49</ele>
        <time>2021-11-14T14:17:25Z</time>
      </trkpt>
      <trkpt lat="44.04948" lon="4.63185">
        <ele>177.62</ele>
        <time>2021-11-14T14:17:37Z</time>
      </trkpt>
      <trkpt lat="44.04947" lon="4.63188">
        <ele>177.6</ele>
        <time>2021-11-14T14:18:38Z</time>
      </trkpt>
      <trkpt lat="44.04948" lon="4.63189">
        <ele>177.94</ele>
        <time>2021-11-14T14:18:41Z</time>
      </trkpt>
      <trkpt lat="44.0495" lon="4.63189">
        <ele>177.9</ele>
        <time>2021-11-14T14:18:42Z</time>
      </trkpt>
      <trkpt lat="44.04968" lon="4.63189">
        <ele>177.32</ele>
        <time>2021-11-14T14:18:50Z</time>
      </trkpt>
      <trkpt lat="44.04975" lon="4.6319">
        <ele>176.28</ele>
        <time>2021-11-14T14:18:52Z</time>
      </trkpt>
      <trkpt lat="44.04979" lon="4.63191">
        <ele>175.95</ele>
        <time>2021-11-14T14:18:53Z</time>
      </trkpt>
      <trkpt lat="44.04982" lon="4.63193">
        <ele>175.29</ele>
        <time>2021-11-14T14:18:54Z</time>
      </trkpt>
      <trkpt lat="44.04986" lon="4.63196">
        <ele>174.79</ele>
        <time>2021-11-14T14:18:55Z</time>
      </trkpt>
      <trkpt lat="44.0499" lon="4.63197">
        <ele>174.39</ele>
        <time>2021-11-14T14:18:56Z</time>
      </trkpt>
      <trkpt lat="44.05002" lon="4.63203">
        <ele>172.2</ele>
        <time>2021-11-14T14:18:59Z</time>
      </trkpt>
      <trkpt lat="44.05006" lon="4.63203">
        <ele>171.35</ele>
        <time>2021-11-14T14:19:00Z</time>
      </trkpt>
      <trkpt lat="44.05009" lon="4.63203">
        <ele>170.21</ele>
        <time>2021-11-14T14:19:01Z</time>
      </trkpt>
      <trkpt lat="44.05012" lon="4.63205">
        <ele>169.48</ele>
        <time>2021-11-14T14:19:02Z</time>
      </trkpt>
      <trkpt lat="44.05015" lon="4.63207">
        <ele>168.9</ele>
        <time>2021-11-14T14:19:03Z</time>
      </trkpt>
      <trkpt lat="44.05019" lon="4.63208">
        <ele>168.7</ele>
        <time>2021-11-14T14:19:04Z</time>
      </trkpt>
      <trkpt lat="44.05022" lon="4.63209">
        <ele>167.79</ele>
        <time>2021-11-14T14:19:05Z</time>
      </trkpt>
      <trkpt lat="44.05036" lon="4.63211">
        <ele>164.25</ele>
        <time>2021-11-14T14:19:09Z</time>
      </trkpt>
      <trkpt lat="44.05039" lon="4.6321">
        <ele>163.31</ele>
        <time>2021-11-14T14:19:10Z</time>
      </trkpt>
      <trkpt lat="44.05041" lon="4.63208">
        <ele>162.41</ele>
        <time>2021-11-14T14:19:11Z</time>
      </trkpt>
      <trkpt lat="44.05042" lon="4.63207">
        <ele>162.07</ele>
        <time>2021-11-14T14:19:12Z</time>
      </trkpt>
      <trkpt lat="44.05044" lon="4.63209">
        <ele>161.36</ele>
        <time>2021-11-14T14:19:14Z</time>
      </trkpt>
      <trkpt lat="44.05054" lon="4.63217">
        <ele>158.61</ele>
        <time>2021-11-14T14:19:21Z</time>
      </trkpt>
      <trkpt lat="44.05053" lon="4.63217">
        <ele>158.99</ele>
        <time>2021-11-14T14:19:22Z</time>
      </trkpt>
      <trkpt lat="44.05054" lon="4.63213">
        <ele>159.11</ele>
        <time>2021-11-14T14:19:29Z</time>
      </trkpt>
      <trkpt lat="44.05055" lon="4.6321">
        <ele>158.84</ele>
        <time>2021-11-14T14:19:30Z</time>
      </trkpt>
      <trkpt lat="44.05056" lon="4.63208">
        <ele>158.84</ele>
        <time>2021-11-14T14:19:31Z</time>
      </trkpt>
      <trkpt lat="44.05056" lon="4.63205">
        <ele>158.76</ele>
        <time>2021-11-14T14:19:32Z</time>
      </trkpt>
      <trkpt lat="44.05056" lon="4.63203">
        <ele>158.77</ele>
        <time>2021-11-14T14:19:33Z</time>
      </trkpt>
      <trkpt lat="44.05057" lon="4.63201">
        <ele>158.76</ele>
        <time>2021-11-14T14:19:34Z</time>
      </trkpt>
      <trkpt lat="44.05057" lon="4.63199">
        <ele>158.73</ele>
        <time>2021-11-14T14:19:35Z</time>
      </trkpt>
      <trkpt lat="44.05057" lon="4.63196">
        <ele>158.96</ele>
        <time>2021-11-14T14:19:36Z</time>
      </trkpt>
      <trkpt lat="44.05057" lon="4.63194">
        <ele>159.33</ele>
        <time>2021-11-14T14:19:37Z</time>
      </trkpt>
      <trkpt lat="44.05056" lon="4.63192">
        <ele>159.74</ele>
        <time>2021-11-14T14:19:38Z</time>
      </trkpt>
      <trkpt lat="44.05056" lon="4.6319">
        <ele>160.2</ele>
        <time>2021-11-14T14:19:40Z</time>
      </trkpt>
      <trkpt lat="44.05051" lon="4.63184">
        <ele>160.08</ele>
        <time>2021-11-14T14:19:44Z</time>
      </trkpt>
      <trkpt lat="44.0505" lon="4.63181">
        <ele>160.26</ele>
        <time>2021-11-14T14:19:45Z</time>
      </trkpt>
      <trkpt lat="44.0505" lon="4.63179">
        <ele>160.24</ele>
        <time>2021-11-14T14:19:46Z</time>
      </trkpt>
      <trkpt lat="44.0505" lon="4.63177">
        <ele>160.35</ele>
        <time>2021-11-14T14:19:47Z</time>
      </trkpt>
      <trkpt lat="44.05051" lon="4.63175">
        <ele>160.38</ele>
        <time>2021-11-14T14:19:48Z</time>
      </trkpt>
      <trkpt lat="44.05052" lon="4.63172">
        <ele>160.51</ele>
        <time>2021-11-14T14:19:49Z</time>
      </trkpt>
      <trkpt lat="44.05053" lon="4.6317">
        <ele>160.53</ele>
        <time>2021-11-14T14:19:50Z</time>
      </trkpt>
      <trkpt lat="44.05055" lon="4.63168">
        <ele>160.67</ele>
        <time>2021-11-14T14:19:51Z</time>
      </trkpt>
      <trkpt lat="44.05056" lon="4.63166">
        <ele>160.57</ele>
        <time>2021-11-14T14:19:52Z</time>
      </trkpt>
      <trkpt lat="44.05058" lon="4.63164">
        <ele>160.73</ele>
        <time>2021-11-14T14:19:53Z</time>
      </trkpt>
      <trkpt lat="44.05058" lon="4.63162">
        <ele>160.6</ele>
        <time>2021-11-14T14:19:54Z</time>
      </trkpt>
      <trkpt lat="44.05059" lon="4.63159">
        <ele>160.52</ele>
        <time>2021-11-14T14:19:55Z</time>
      </trkpt>
      <trkpt lat="44.05059" lon="4.63157">
        <ele>160.71</ele>
        <time>2021-11-14T14:19:56Z</time>
      </trkpt>
      <trkpt lat="44.0506" lon="4.63155">
        <ele>160.9</ele>
        <time>2021-11-14T14:19:57Z</time>
      </trkpt>
      <trkpt lat="44.05061" lon="4.63153">
        <ele>160.86</ele>
        <time>2021-11-14T14:19:58Z</time>
      </trkpt>
      <trkpt lat="44.05062" lon="4.63151">
        <ele>160.95</ele>
        <time>2021-11-14T14:19:59Z</time>
      </trkpt>
      <trkpt lat="44.05065" lon="4.63145">
        <ele>161.51</ele>
        <time>2021-11-14T14:20:02Z</time>
      </trkpt>
      <trkpt lat="44.05067" lon="4.63144">
        <ele>161.72</ele>
        <time>2021-11-14T14:20:03Z</time>
      </trkpt>
      <trkpt lat="44.05068" lon="4.63143">
        <ele>161.99</ele>
        <time>2021-11-14T14:20:04Z</time>
      </trkpt>
      <trkpt lat="44.05069" lon="4.63141">
        <ele>162.24</ele>
        <time>2021-11-14T14:20:05Z</time>
      </trkpt>
      <trkpt lat="44.0507" lon="4.6314">
        <ele>162.44</ele>
        <time>2021-11-14T14:20:06Z</time>
      </trkpt>
      <trkpt lat="44.05072" lon="4.63139">
        <ele>162.69</ele>
        <time>2021-11-14T14:20:07Z</time>
      </trkpt>
      <trkpt lat="44.05073" lon="4.63139">
        <ele>162.77</ele>
        <time>2021-11-14T14:20:08Z</time>
      </trkpt>
      <trkpt lat="44.05075" lon="4.63139">
        <ele>162.79</ele>
        <time>2021-11-14T14:20:09Z</time>
      </trkpt>
      <trkpt lat="44.05077" lon="4.63139">
        <ele>162.85</ele>
        <time>2021-11-14T14:20:10Z</time>
      </trkpt>
      <trkpt lat="44.05079" lon="4.63139">
        <ele>162.94</ele>
        <time>2021-11-14T14:20:11Z</time>
      </trkpt>
      <trkpt lat="44.05098" lon="4.63136">
        <ele>164.26</ele>
        <time>2021-11-14T14:20:24Z</time>
      </trkpt>
      <trkpt lat="44.05112" lon="4.63135">
        <ele>167.3</ele>
        <time>2021-11-14T14:20:34Z</time>
      </trkpt>
      <trkpt lat="44.05113" lon="4.63135">
        <ele>167.83</ele>
        <time>2021-11-14T14:20:35Z</time>
      </trkpt>
      <trkpt lat="44.05114" lon="4.63135">
        <ele>167.9</ele>
        <time>2021-11-14T14:20:36Z</time>
      </trkpt>
      <trkpt lat="44.05115" lon="4.63136">
        <ele>168.2</ele>
        <time>2021-11-14T14:20:37Z</time>
      </trkpt>
      <trkpt lat="44.05116" lon="4.63138">
        <ele>168.3</ele>
        <time>2021-11-14T14:20:38Z</time>
      </trkpt>
      <trkpt lat="44.05117" lon="4.63139">
        <ele>168.28</ele>
        <time>2021-11-14T14:20:39Z</time>
      </trkpt>
      <trkpt lat="44.05118" lon="4.6314">
        <ele>168.44</ele>
        <time>2021-11-14T14:20:40Z</time>
      </trkpt>
      <trkpt lat="44.05119" lon="4.63142">
        <ele>168.65</ele>
        <time>2021-11-14T14:20:41Z</time>
      </trkpt>
      <trkpt lat="44.0512" lon="4.63143">
        <ele>169.11</ele>
        <time>2021-11-14T14:20:42Z</time>
      </trkpt>
      <trkpt lat="44.05121" lon="4.63143">
        <ele>169.44</ele>
        <time>2021-11-14T14:20:43Z</time>
      </trkpt>
      <trkpt lat="44.05122" lon="4.63144">
        <ele>169.6</ele>
        <time>2021-11-14T14:20:44Z</time>
      </trkpt>
      <trkpt lat="44.05131" lon="4.63153">
        <ele>171.14</ele>
        <time>2021-11-14T14:20:53Z</time>
      </trkpt>
      <trkpt lat="44.05133" lon="4.63152">
        <ele>171.33</ele>
        <time>2021-11-14T14:20:54Z</time>
      </trkpt>
      <trkpt lat="44.05134" lon="4.63152">
        <ele>171.66</ele>
        <time>2021-11-14T14:20:55Z</time>
      </trkpt>
      <trkpt lat="44.05135" lon="4.63152">
        <ele>171.51</ele>
        <time>2021-11-14T14:20:56Z</time>
      </trkpt>
      <trkpt lat="44.05137" lon="4.63152">
        <ele>171.48</ele>
        <time>2021-11-14T14:20:57Z</time>
      </trkpt>
      <trkpt lat="44.05138" lon="4.63152">
        <ele>171.51</ele>
        <time>2021-11-14T14:20:58Z</time>
      </trkpt>
      <trkpt lat="44.05139" lon="4.63153">
        <ele>171.74</ele>
        <time>2021-11-14T14:20:59Z</time>
      </trkpt>
      <trkpt lat="44.05141" lon="4.63154">
        <ele>171.78</ele>
        <time>2021-11-14T14:21:00Z</time>
      </trkpt>
      <trkpt lat="44.05143" lon="4.63155">
        <ele>171.78</ele>
        <time>2021-11-14T14:21:01Z</time>
      </trkpt>
      <trkpt lat="44.05145" lon="4.63154">
        <ele>171.9</ele>
        <time>2021-11-14T14:21:02Z</time>
      </trkpt>
      <trkpt lat="44.05148" lon="4.63153">
        <ele>171.79</ele>
        <time>2021-11-14T14:21:03Z</time>
      </trkpt>
      <trkpt lat="44.0515" lon="4.63153">
        <ele>172.04</ele>
        <time>2021-11-14T14:21:04Z</time>
      </trkpt>
      <trkpt lat="44.05155" lon="4.63153">
        <ele>172.4</ele>
        <time>2021-11-14T14:21:07Z</time>
      </trkpt>
      <trkpt lat="44.05155" lon="4.63155">
        <ele>172.29</ele>
        <time>2021-11-14T14:21:08Z</time>
      </trkpt>
      <trkpt lat="44.05155" lon="4.63157">
        <ele>172</ele>
        <time>2021-11-14T14:21:09Z</time>
      </trkpt>
      <trkpt lat="44.05155" lon="4.6316">
        <ele>171.67</ele>
        <time>2021-11-14T14:21:10Z</time>
      </trkpt>
      <trkpt lat="44.05154" lon="4.63162">
        <ele>171.3</ele>
        <time>2021-11-14T14:21:11Z</time>
      </trkpt>
      <trkpt lat="44.05153" lon="4.63164">
        <ele>170.12</ele>
        <time>2021-11-14T14:21:25Z</time>
      </trkpt>
      <trkpt lat="44.05153" lon="4.63182">
        <ele>168.32</ele>
        <time>2021-11-14T14:22:16Z</time>
      </trkpt>
      <trkpt lat="44.05152" lon="4.63217">
        <ele>166.37</ele>
        <time>2021-11-14T14:22:24Z</time>
      </trkpt>
      <trkpt lat="44.05154" lon="4.63253">
        <ele>163.18</ele>
        <time>2021-11-14T14:22:35Z</time>
      </trkpt>
      <trkpt lat="44.05153" lon="4.63272">
        <ele>160.1</ele>
        <time>2021-11-14T14:22:39Z</time>
      </trkpt>
      <trkpt lat="44.05154" lon="4.63286">
        <ele>158.29</ele>
        <time>2021-11-14T14:22:42Z</time>
      </trkpt>
      <trkpt lat="44.05164" lon="4.63307">
        <ele>155.67</ele>
        <time>2021-11-14T14:22:47Z</time>
      </trkpt>
      <trkpt lat="44.05175" lon="4.63327">
        <ele>155.5</ele>
        <time>2021-11-14T14:22:57Z</time>
      </trkpt>
      <trkpt lat="44.05177" lon="4.63329">
        <ele>156.86</ele>
        <time>2021-11-14T14:23:04Z</time>
      </trkpt>
      <trkpt lat="44.05179" lon="4.63331">
        <ele>156.75</ele>
        <time>2021-11-14T14:23:05Z</time>
      </trkpt>
      <trkpt lat="44.05195" lon="4.63354">
        <ele>154.46</ele>
        <time>2021-11-14T14:23:12Z</time>
      </trkpt>
      <trkpt lat="44.05198" lon="4.63358">
        <ele>154</ele>
        <time>2021-11-14T14:23:13Z</time>
      </trkpt>
      <trkpt lat="44.05202" lon="4.63362">
        <ele>153.64</ele>
        <time>2021-11-14T14:23:14Z</time>
      </trkpt>
      <trkpt lat="44.05205" lon="4.63364">
        <ele>153.28</ele>
        <time>2021-11-14T14:23:15Z</time>
      </trkpt>
      <trkpt lat="44.05208" lon="4.63365">
        <ele>153.4</ele>
        <time>2021-11-14T14:23:16Z</time>
      </trkpt>
      <trkpt lat="44.05226" lon="4.63365">
        <ele>155.18</ele>
        <time>2021-11-14T14:23:24Z</time>
      </trkpt>
      <trkpt lat="44.05232" lon="4.63364">
        <ele>156.86</ele>
        <time>2021-11-14T14:23:28Z</time>
      </trkpt>
      <trkpt lat="44.0525" lon="4.63372">
        <ele>155.58</ele>
        <time>2021-11-14T14:23:35Z</time>
      </trkpt>
      <trkpt lat="44.0526" lon="4.63373">
        <ele>154.52</ele>
        <time>2021-11-14T14:23:39Z</time>
      </trkpt>
      <trkpt lat="44.05263" lon="4.63371">
        <ele>154</ele>
        <time>2021-11-14T14:23:40Z</time>
      </trkpt>
      <trkpt lat="44.05264" lon="4.63368">
        <ele>153.7</ele>
        <time>2021-11-14T14:23:41Z</time>
      </trkpt>
      <trkpt lat="44.05264" lon="4.63365">
        <ele>153.41</ele>
        <time>2021-11-14T14:23:42Z</time>
      </trkpt>
      <trkpt lat="44.05265" lon="4.63364">
        <ele>153.16</ele>
        <time>2021-11-14T14:23:43Z</time>
      </trkpt>
      <trkpt lat="44.05266" lon="4.63362">
        <ele>152.83</ele>
        <time>2021-11-14T14:23:44Z</time>
      </trkpt>
      <trkpt lat="44.05266" lon="4.6336">
        <ele>152.7</ele>
        <time>2021-11-14T14:23:45Z</time>
      </trkpt>
      <trkpt lat="44.05265" lon="4.63357">
        <ele>153</ele>
        <time>2021-11-14T14:23:47Z</time>
      </trkpt>
      <trkpt lat="44.05259" lon="4.63353">
        <ele>155.04</ele>
        <time>2021-11-14T14:23:54Z</time>
      </trkpt>
      <trkpt lat="44.05258" lon="4.63353">
        <ele>155.31</ele>
        <time>2021-11-14T14:23:55Z</time>
      </trkpt>
      <trkpt lat="44.0525" lon="4.6335">
        <ele>156.66</ele>
        <time>2021-11-14T14:24:11Z</time>
      </trkpt>
      <trkpt lat="44.05248" lon="4.6335">
        <ele>156.72</ele>
        <time>2021-11-14T14:24:20Z</time>
      </trkpt>
      <trkpt lat="44.05247" lon="4.63349">
        <ele>156.81</ele>
        <time>2021-11-14T14:24:21Z</time>
      </trkpt>
      <trkpt lat="44.05245" lon="4.63349">
        <ele>157.11</ele>
        <time>2021-11-14T14:24:22Z</time>
      </trkpt>
      <trkpt lat="44.05244" lon="4.63348">
        <ele>157.4</ele>
        <time>2021-11-14T14:24:23Z</time>
      </trkpt>
      <trkpt lat="44.05243" lon="4.63347">
        <ele>157.56</ele>
        <time>2021-11-14T14:24:24Z</time>
      </trkpt>
      <trkpt lat="44.05242" lon="4.63346">
        <ele>157.81</ele>
        <time>2021-11-14T14:24:25Z</time>
      </trkpt>
      <trkpt lat="44.05241" lon="4.63345">
        <ele>157.97</ele>
        <time>2021-11-14T14:24:26Z</time>
      </trkpt>
      <trkpt lat="44.0524" lon="4.63344">
        <ele>158.15</ele>
        <time>2021-11-14T14:24:27Z</time>
      </trkpt>
      <trkpt lat="44.05236" lon="4.63342">
        <ele>158.57</ele>
        <time>2021-11-14T14:24:30Z</time>
      </trkpt>
      <trkpt lat="44.05235" lon="4.6334">
        <ele>158.77</ele>
        <time>2021-11-14T14:24:31Z</time>
      </trkpt>
      <trkpt lat="44.05235" lon="4.63338">
        <ele>159.05</ele>
        <time>2021-11-14T14:24:32Z</time>
      </trkpt>
      <trkpt lat="44.05234" lon="4.63337">
        <ele>159.26</ele>
        <time>2021-11-14T14:24:33Z</time>
      </trkpt>
      <trkpt lat="44.05232" lon="4.63336">
        <ele>159.37</ele>
        <time>2021-11-14T14:24:34Z</time>
      </trkpt>
      <trkpt lat="44.05231" lon="4.63336">
        <ele>159.31</ele>
        <time>2021-11-14T14:24:35Z</time>
      </trkpt>
      <trkpt lat="44.0523" lon="4.63335">
        <ele>159.24</ele>
        <time>2021-11-14T14:24:36Z</time>
      </trkpt>
      <trkpt lat="44.05228" lon="4.63335">
        <ele>158.97</ele>
        <time>2021-11-14T14:24:37Z</time>
      </trkpt>
      <trkpt lat="44.05227" lon="4.63333">
        <ele>158.89</ele>
        <time>2021-11-14T14:24:38Z</time>
      </trkpt>
      <trkpt lat="44.05226" lon="4.63332">
        <ele>159.06</ele>
        <time>2021-11-14T14:24:39Z</time>
      </trkpt>
      <trkpt lat="44.05225" lon="4.6333">
        <ele>159.47</ele>
        <time>2021-11-14T14:24:40Z</time>
      </trkpt>
      <trkpt lat="44.05224" lon="4.63328">
        <ele>159.92</ele>
        <time>2021-11-14T14:24:41Z</time>
      </trkpt>
      <trkpt lat="44.05224" lon="4.63326">
        <ele>160.34</ele>
        <time>2021-11-14T14:24:42Z</time>
      </trkpt>
      <trkpt lat="44.05223" lon="4.63325">
        <ele>160.46</ele>
        <time>2021-11-14T14:24:43Z</time>
      </trkpt>
      <trkpt lat="44.05221" lon="4.63325">
        <ele>160.35</ele>
        <time>2021-11-14T14:24:44Z</time>
      </trkpt>
      <trkpt lat="44.0522" lon="4.63324">
        <ele>160.03</ele>
        <time>2021-11-14T14:24:45Z</time>
      </trkpt>
      <trkpt lat="44.05218" lon="4.63323">
        <ele>160.05</ele>
        <time>2021-11-14T14:24:46Z</time>
      </trkpt>
      <trkpt lat="44.05217" lon="4.63322">
        <ele>160.2</ele>
        <time>2021-11-14T14:24:47Z</time>
      </trkpt>
      <trkpt lat="44.05215" lon="4.63321">
        <ele>160.52</ele>
        <time>2021-11-14T14:24:48Z</time>
      </trkpt>
      <trkpt lat="44.05214" lon="4.6332">
        <ele>160.81</ele>
        <time>2021-11-14T14:24:49Z</time>
      </trkpt>
      <trkpt lat="44.05212" lon="4.6332">
        <ele>161.04</ele>
        <time>2021-11-14T14:24:50Z</time>
      </trkpt>
      <trkpt lat="44.05203" lon="4.6331">
        <ele>163.19</ele>
        <time>2021-11-14T14:24:58Z</time>
      </trkpt>
      <trkpt lat="44.05201" lon="4.6331">
        <ele>163.8</ele>
        <time>2021-11-14T14:24:59Z</time>
      </trkpt>
      <trkpt lat="44.052" lon="4.63309">
        <ele>164.64</ele>
        <time>2021-11-14T14:25:00Z</time>
      </trkpt>
      <trkpt lat="44.05199" lon="4.63308">
        <ele>165.24</ele>
        <time>2021-11-14T14:25:01Z</time>
      </trkpt>
      <trkpt lat="44.05198" lon="4.63307">
        <ele>165.7</ele>
        <time>2021-11-14T14:25:02Z</time>
      </trkpt>
      <trkpt lat="44.05197" lon="4.63305">
        <ele>166.21</ele>
        <time>2021-11-14T14:25:03Z</time>
      </trkpt>
      <trkpt lat="44.05196" lon="4.63304">
        <ele>166.44</ele>
        <time>2021-11-14T14:25:04Z</time>
      </trkpt>
      <trkpt lat="44.05195" lon="4.63302">
        <ele>166.36</ele>
        <time>2021-11-14T14:25:05Z</time>
      </trkpt>
      <trkpt lat="44.05195" lon="4.633">
        <ele>166.32</ele>
        <time>2021-11-14T14:25:06Z</time>
      </trkpt>
      <trkpt lat="44.05195" lon="4.63299">
        <ele>166.4</ele>
        <time>2021-11-14T14:25:07Z</time>
      </trkpt>
      <trkpt lat="44.05193" lon="4.63293">
        <ele>165.04</ele>
        <time>2021-11-14T14:25:12Z</time>
      </trkpt>
      <trkpt lat="44.05192" lon="4.6329">
        <ele>164.63</ele>
        <time>2021-11-14T14:25:14Z</time>
      </trkpt>
      <trkpt lat="44.05179" lon="4.63266">
        <ele>166.8</ele>
        <time>2021-11-14T14:25:30Z</time>
      </trkpt>
      <trkpt lat="44.05169" lon="4.63235">
        <ele>169.59</ele>
        <time>2021-11-14T14:25:49Z</time>
      </trkpt>
      <trkpt lat="44.05167" lon="4.63227">
        <ele>170.36</ele>
        <time>2021-11-14T14:25:54Z</time>
      </trkpt>
      <trkpt lat="44.05167" lon="4.63225">
        <ele>170.34</ele>
        <time>2021-11-14T14:25:55Z</time>
      </trkpt>
      <trkpt lat="44.05167" lon="4.63223">
        <ele>170.32</ele>
        <time>2021-11-14T14:25:56Z</time>
      </trkpt>
      <trkpt lat="44.05167" lon="4.63222">
        <ele>170.34</ele>
        <time>2021-11-14T14:25:57Z</time>
      </trkpt>
      <trkpt lat="44.05167" lon="4.6322">
        <ele>170.27</ele>
        <time>2021-11-14T14:25:58Z</time>
      </trkpt>
      <trkpt lat="44.05165" lon="4.63215">
        <ele>169.67</ele>
        <time>2021-11-14T14:26:11Z</time>
      </trkpt>
      <trkpt lat="44.05166" lon="4.63214">
        <ele>170.81</ele>
        <time>2021-11-14T14:27:16Z</time>
      </trkpt>
      <trkpt lat="44.05164" lon="4.63213">
        <ele>170.59</ele>
        <time>2021-11-14T14:27:22Z</time>
      </trkpt>
      <trkpt lat="44.05164" lon="4.6321">
        <ele>170.46</ele>
        <time>2021-11-14T14:27:23Z</time>
      </trkpt>
      <trkpt lat="44.05162" lon="4.63205">
        <ele>170.34</ele>
        <time>2021-11-14T14:27:25Z</time>
      </trkpt>
      <trkpt lat="44.05153" lon="4.63182">
        <ele>169.43</ele>
        <time>2021-11-14T14:27:33Z</time>
      </trkpt>
      <trkpt lat="44.05153" lon="4.63179">
        <ele>169.51</ele>
        <time>2021-11-14T14:27:34Z</time>
      </trkpt>
      <trkpt lat="44.05153" lon="4.63176">
        <ele>169.6</ele>
        <time>2021-11-14T14:27:35Z</time>
      </trkpt>
      <trkpt lat="44.05153" lon="4.63174">
        <ele>170.04</ele>
        <time>2021-11-14T14:27:36Z</time>
      </trkpt>
      <trkpt lat="44.05153" lon="4.63172">
        <ele>170.47</ele>
        <time>2021-11-14T14:27:37Z</time>
      </trkpt>
      <trkpt lat="44.05153" lon="4.6317">
        <ele>170.59</ele>
        <time>2021-11-14T14:27:38Z</time>
      </trkpt>
      <trkpt lat="44.05153" lon="4.63168">
        <ele>170.86</ele>
        <time>2021-11-14T14:27:39Z</time>
      </trkpt>
      <trkpt lat="44.05158" lon="4.63137">
        <ele>172.78</ele>
        <time>2021-11-14T14:27:53Z</time>
      </trkpt>
      <trkpt lat="44.05168" lon="4.63115">
        <ele>171.28</ele>
        <time>2021-11-14T14:27:59Z</time>
      </trkpt>
      <trkpt lat="44.05174" lon="4.63107">
        <ele>170.36</ele>
        <time>2021-11-14T14:28:01Z</time>
      </trkpt>
      <trkpt lat="44.05178" lon="4.63102">
        <ele>169.91</ele>
        <time>2021-11-14T14:28:02Z</time>
      </trkpt>
      <trkpt lat="44.05186" lon="4.63083">
        <ele>168.28</ele>
        <time>2021-11-14T14:28:05Z</time>
      </trkpt>
      <trkpt lat="44.05188" lon="4.63078">
        <ele>166.88</ele>
        <time>2021-11-14T14:28:06Z</time>
      </trkpt>
      <trkpt lat="44.05198" lon="4.63062">
        <ele>163.22</ele>
        <time>2021-11-14T14:28:11Z</time>
      </trkpt>
      <trkpt lat="44.05209" lon="4.63058">
        <ele>162.35</ele>
        <time>2021-11-14T14:28:21Z</time>
      </trkpt>
      <trkpt lat="44.0523" lon="4.63054">
        <ele>158.88</ele>
        <time>2021-11-14T14:28:28Z</time>
      </trkpt>
      <trkpt lat="44.05246" lon="4.63057">
        <ele>154.54</ele>
        <time>2021-11-14T14:28:32Z</time>
      </trkpt>
      <trkpt lat="44.05263" lon="4.63058">
        <ele>151.2</ele>
        <time>2021-11-14T14:28:37Z</time>
      </trkpt>
      <trkpt lat="44.05265" lon="4.63056">
        <ele>150.82</ele>
        <time>2021-11-14T14:28:38Z</time>
      </trkpt>
      <trkpt lat="44.05266" lon="4.63054">
        <ele>150.79</ele>
        <time>2021-11-14T14:28:39Z</time>
      </trkpt>
      <trkpt lat="44.05267" lon="4.63053">
        <ele>150.26</ele>
        <time>2021-11-14T14:28:40Z</time>
      </trkpt>
      <trkpt lat="44.05269" lon="4.63052">
        <ele>150</ele>
        <time>2021-11-14T14:28:41Z</time>
      </trkpt>
      <trkpt lat="44.05272" lon="4.63051">
        <ele>149.96</ele>
        <time>2021-11-14T14:28:42Z</time>
      </trkpt>
      <trkpt lat="44.05274" lon="4.63051">
        <ele>150.1</ele>
        <time>2021-11-14T14:28:43Z</time>
      </trkpt>
      <trkpt lat="44.05278" lon="4.63049">
        <ele>149.65</ele>
        <time>2021-11-14T14:28:50Z</time>
      </trkpt>
      <trkpt lat="44.05279" lon="4.63047">
        <ele>149.51</ele>
        <time>2021-11-14T14:28:51Z</time>
      </trkpt>
      <trkpt lat="44.05281" lon="4.63046">
        <ele>149.45</ele>
        <time>2021-11-14T14:28:52Z</time>
      </trkpt>
      <trkpt lat="44.05283" lon="4.63044">
        <ele>149.07</ele>
        <time>2021-11-14T14:28:53Z</time>
      </trkpt>
      <trkpt lat="44.05284" lon="4.63042">
        <ele>148.63</ele>
        <time>2021-11-14T14:28:54Z</time>
      </trkpt>
      <trkpt lat="44.05296" lon="4.63034">
        <ele>145.38</ele>
        <time>2021-11-14T14:28:58Z</time>
      </trkpt>
      <trkpt lat="44.05302" lon="4.63033">
        <ele>142.63</ele>
        <time>2021-11-14T14:29:01Z</time>
      </trkpt>
      <trkpt lat="44.05303" lon="4.63032">
        <ele>141.98</ele>
        <time>2021-11-14T14:29:02Z</time>
      </trkpt>
      <trkpt lat="44.05304" lon="4.63031">
        <ele>141.83</ele>
        <time>2021-11-14T14:29:03Z</time>
      </trkpt>
      <trkpt lat="44.05306" lon="4.6303">
        <ele>141.67</ele>
        <time>2021-11-14T14:29:04Z</time>
      </trkpt>
      <trkpt lat="44.05307" lon="4.63028">
        <ele>141.67</ele>
        <time>2021-11-14T14:29:05Z</time>
      </trkpt>
      <trkpt lat="44.0531" lon="4.63027">
        <ele>141.48</ele>
        <time>2021-11-14T14:29:06Z</time>
      </trkpt>
      <trkpt lat="44.05312" lon="4.63025">
        <ele>141.96</ele>
        <time>2021-11-14T14:29:07Z</time>
      </trkpt>
      <trkpt lat="44.05314" lon="4.63023">
        <ele>142.43</ele>
        <time>2021-11-14T14:29:08Z</time>
      </trkpt>
      <trkpt lat="44.05314" lon="4.63021">
        <ele>142.43</ele>
        <time>2021-11-14T14:29:09Z</time>
      </trkpt>
      <trkpt lat="44.05314" lon="4.63014">
        <ele>140.67</ele>
        <time>2021-11-14T14:29:16Z</time>
      </trkpt>
      <trkpt lat="44.05316" lon="4.63013">
        <ele>140.28</ele>
        <time>2021-11-14T14:29:17Z</time>
      </trkpt>
      <trkpt lat="44.05319" lon="4.63013">
        <ele>140.35</ele>
        <time>2021-11-14T14:29:18Z</time>
      </trkpt>
      <trkpt lat="44.05321" lon="4.63013">
        <ele>140.16</ele>
        <time>2021-11-14T14:29:19Z</time>
      </trkpt>
      <trkpt lat="44.05323" lon="4.63013">
        <ele>140.3</ele>
        <time>2021-11-14T14:29:20Z</time>
      </trkpt>
      <trkpt lat="44.05324" lon="4.63013">
        <ele>140.52</ele>
        <time>2021-11-14T14:29:21Z</time>
      </trkpt>
      <trkpt lat="44.05326" lon="4.63013">
        <ele>140.47</ele>
        <time>2021-11-14T14:29:22Z</time>
      </trkpt>
      <trkpt lat="44.05327" lon="4.63013">
        <ele>140.66</ele>
        <time>2021-11-14T14:29:23Z</time>
      </trkpt>
      <trkpt lat="44.05329" lon="4.63014">
        <ele>140.68</ele>
        <time>2021-11-14T14:29:24Z</time>
      </trkpt>
      <trkpt lat="44.0533" lon="4.63015">
        <ele>140.57</ele>
        <time>2021-11-14T14:29:25Z</time>
      </trkpt>
      <trkpt lat="44.05332" lon="4.63016">
        <ele>140.63</ele>
        <time>2021-11-14T14:29:26Z</time>
      </trkpt>
      <trkpt lat="44.05344" lon="4.63021">
        <ele>141.13</ele>
        <time>2021-11-14T14:29:36Z</time>
      </trkpt>
      <trkpt lat="44.05357" lon="4.63031">
        <ele>141.04</ele>
        <time>2021-11-14T14:29:47Z</time>
      </trkpt>
      <trkpt lat="44.05358" lon="4.6303">
        <ele>140.83</ele>
        <time>2021-11-14T14:30:05Z</time>
      </trkpt>
      <trkpt lat="44.05359" lon="4.63031">
        <ele>140.95</ele>
        <time>2021-11-14T14:30:06Z</time>
      </trkpt>
      <trkpt lat="44.0536" lon="4.63033">
        <ele>141.41</ele>
        <time>2021-11-14T14:30:07Z</time>
      </trkpt>
      <trkpt lat="44.05362" lon="4.63035">
        <ele>141.99</ele>
        <time>2021-11-14T14:30:08Z</time>
      </trkpt>
      <trkpt lat="44.05363" lon="4.63036">
        <ele>142</ele>
        <time>2021-11-14T14:30:09Z</time>
      </trkpt>
      <trkpt lat="44.05365" lon="4.63038">
        <ele>141.94</ele>
        <time>2021-11-14T14:30:10Z</time>
      </trkpt>
      <trkpt lat="44.05367" lon="4.6304">
        <ele>141.82</ele>
        <time>2021-11-14T14:30:11Z</time>
      </trkpt>
      <trkpt lat="44.05406" lon="4.63071">
        <ele>140.12</ele>
        <time>2021-11-14T14:30:25Z</time>
      </trkpt>
      <trkpt lat="44.05454" lon="4.63117">
        <ele>139.59</ele>
        <time>2021-11-14T14:30:41Z</time>
      </trkpt>
      <trkpt lat="44.05467" lon="4.63194">
        <ele>138.09</ele>
        <time>2021-11-14T14:30:55Z</time>
      </trkpt>
      <trkpt lat="44.05472" lon="4.63324">
        <ele>136.23</ele>
        <time>2021-11-14T14:31:17Z</time>
      </trkpt>
      <trkpt lat="44.05476" lon="4.63343">
        <ele>135.44</ele>
        <time>2021-11-14T14:31:20Z</time>
      </trkpt>
      <trkpt lat="44.05478" lon="4.63348">
        <ele>135.18</ele>
        <time>2021-11-14T14:31:21Z</time>
      </trkpt>
      <trkpt lat="44.05481" lon="4.63354">
        <ele>135.3</ele>
        <time>2021-11-14T14:31:22Z</time>
      </trkpt>
      <trkpt lat="44.05489" lon="4.63363">
        <ele>134.5</ele>
        <time>2021-11-14T14:31:24Z</time>
      </trkpt>
      <trkpt lat="44.05493" lon="4.63367">
        <ele>134.19</ele>
        <time>2021-11-14T14:31:25Z</time>
      </trkpt>
      <trkpt lat="44.05498" lon="4.6337">
        <ele>134.54</ele>
        <time>2021-11-14T14:31:26Z</time>
      </trkpt>
      <trkpt lat="44.05502" lon="4.63373">
        <ele>134.74</ele>
        <time>2021-11-14T14:31:27Z</time>
      </trkpt>
      <trkpt lat="44.05507" lon="4.63375">
        <ele>134.38</ele>
        <time>2021-11-14T14:31:28Z</time>
      </trkpt>
      <trkpt lat="44.05537" lon="4.63391">
        <ele>133.46</ele>
        <time>2021-11-14T14:31:35Z</time>
      </trkpt>
      <trkpt lat="44.05611" lon="4.63426">
        <ele>132.35</ele>
        <time>2021-11-14T14:31:53Z</time>
      </trkpt>
      <trkpt lat="44.05643" lon="4.63433">
        <ele>132.07</ele>
        <time>2021-11-14T14:32:01Z</time>
      </trkpt>
      <trkpt lat="44.05669" lon="4.63457">
        <ele>134.5</ele>
        <time>2021-11-14T14:32:09Z</time>
      </trkpt>
      <trkpt lat="44.05676" lon="4.63472">
        <ele>133.08</ele>
        <time>2021-11-14T14:32:12Z</time>
      </trkpt>
      <trkpt lat="44.05677" lon="4.63477">
        <ele>132.92</ele>
        <time>2021-11-14T14:32:13Z</time>
      </trkpt>
      <trkpt lat="44.05678" lon="4.63483">
        <ele>132.76</ele>
        <time>2021-11-14T14:32:14Z</time>
      </trkpt>
      <trkpt lat="44.05679" lon="4.635">
        <ele>132.2</ele>
        <time>2021-11-14T14:32:17Z</time>
      </trkpt>
      <trkpt lat="44.05679" lon="4.63506">
        <ele>132.26</ele>
        <time>2021-11-14T14:32:18Z</time>
      </trkpt>
      <trkpt lat="44.05679" lon="4.63512">
        <ele>132.77</ele>
        <time>2021-11-14T14:32:19Z</time>
      </trkpt>
      <trkpt lat="44.05678" lon="4.63518">
        <ele>132.39</ele>
        <time>2021-11-14T14:32:20Z</time>
      </trkpt>
      <trkpt lat="44.05676" lon="4.63524">
        <ele>132.08</ele>
        <time>2021-11-14T14:32:21Z</time>
      </trkpt>
      <trkpt lat="44.05675" lon="4.63529">
        <ele>131.75</ele>
        <time>2021-11-14T14:32:22Z</time>
      </trkpt>
      <trkpt lat="44.05658" lon="4.63586">
        <ele>132.22</ele>
        <time>2021-11-14T14:32:32Z</time>
      </trkpt>
      <trkpt lat="44.05658" lon="4.63599">
        <ele>132.51</ele>
        <time>2021-11-14T14:32:34Z</time>
      </trkpt>
      <trkpt lat="44.05658" lon="4.63604">
        <ele>131.36</ele>
        <time>2021-11-14T14:32:35Z</time>
      </trkpt>
      <trkpt lat="44.05658" lon="4.6361">
        <ele>130.65</ele>
        <time>2021-11-14T14:32:36Z</time>
      </trkpt>
      <trkpt lat="44.0566" lon="4.63616">
        <ele>130.3</ele>
        <time>2021-11-14T14:32:37Z</time>
      </trkpt>
      <trkpt lat="44.05661" lon="4.63621">
        <ele>130.31</ele>
        <time>2021-11-14T14:32:38Z</time>
      </trkpt>
      <trkpt lat="44.05663" lon="4.63627">
        <ele>130.44</ele>
        <time>2021-11-14T14:32:39Z</time>
      </trkpt>
      <trkpt lat="44.05665" lon="4.63632">
        <ele>130.23</ele>
        <time>2021-11-14T14:32:40Z</time>
      </trkpt>
      <trkpt lat="44.05668" lon="4.63637">
        <ele>129.62</ele>
        <time>2021-11-14T14:32:41Z</time>
      </trkpt>
      <trkpt lat="44.05671" lon="4.63641">
        <ele>128.86</ele>
        <time>2021-11-14T14:32:42Z</time>
      </trkpt>
      <trkpt lat="44.05675" lon="4.63645">
        <ele>128.41</ele>
        <time>2021-11-14T14:32:43Z</time>
      </trkpt>
      <trkpt lat="44.05679" lon="4.63649">
        <ele>127.95</ele>
        <time>2021-11-14T14:32:44Z</time>
      </trkpt>
      <trkpt lat="44.05684" lon="4.63652">
        <ele>127.42</ele>
        <time>2021-11-14T14:32:45Z</time>
      </trkpt>
      <trkpt lat="44.0573" lon="4.6368">
        <ele>126.13</ele>
        <time>2021-11-14T14:32:54Z</time>
      </trkpt>
      <trkpt lat="44.05734" lon="4.63685">
        <ele>125.76</ele>
        <time>2021-11-14T14:32:55Z</time>
      </trkpt>
      <trkpt lat="44.05737" lon="4.6369">
        <ele>125.08</ele>
        <time>2021-11-14T14:32:56Z</time>
      </trkpt>
      <trkpt lat="44.0574" lon="4.63697">
        <ele>124.56</ele>
        <time>2021-11-14T14:32:57Z</time>
      </trkpt>
      <trkpt lat="44.05742" lon="4.63703">
        <ele>124.27</ele>
        <time>2021-11-14T14:32:58Z</time>
      </trkpt>
      <trkpt lat="44.05745" lon="4.63706">
        <ele>124.09</ele>
        <time>2021-11-14T14:32:59Z</time>
      </trkpt>
      <trkpt lat="44.05748" lon="4.63708">
        <ele>124.03</ele>
        <time>2021-11-14T14:33:00Z</time>
      </trkpt>
      <trkpt lat="44.05752" lon="4.63709">
        <ele>124.03</ele>
        <time>2021-11-14T14:33:01Z</time>
      </trkpt>
      <trkpt lat="44.05791" lon="4.63728">
        <ele>124.65</ele>
        <time>2021-11-14T14:33:13Z</time>
      </trkpt>
      <trkpt lat="44.05829" lon="4.63735">
        <ele>125.34</ele>
        <time>2021-11-14T14:33:27Z</time>
      </trkpt>
      <trkpt lat="44.0584" lon="4.63736">
        <ele>125.64</ele>
        <time>2021-11-14T14:33:38Z</time>
      </trkpt>
      <trkpt lat="44.05861" lon="4.63739">
        <ele>126.89</ele>
        <time>2021-11-14T14:33:49Z</time>
      </trkpt>
      <trkpt lat="44.05888" lon="4.63743">
        <ele>128.64</ele>
        <time>2021-11-14T14:34:02Z</time>
      </trkpt>
      <trkpt lat="44.0589" lon="4.63744">
        <ele>128.51</ele>
        <time>2021-11-14T14:34:11Z</time>
      </trkpt>
      <trkpt lat="44.05892" lon="4.63745">
        <ele>128.25</ele>
        <time>2021-11-14T14:34:12Z</time>
      </trkpt>
      <trkpt lat="44.05893" lon="4.63745">
        <ele>127.52</ele>
        <time>2021-11-14T14:34:13Z</time>
      </trkpt>
      <trkpt lat="44.05895" lon="4.63745">
        <ele>126.49</ele>
        <time>2021-11-14T14:34:14Z</time>
      </trkpt>
      <trkpt lat="44.05896" lon="4.63746">
        <ele>126.26</ele>
        <time>2021-11-14T14:34:15Z</time>
      </trkpt>
      <trkpt lat="44.05901" lon="4.63746">
        <ele>125.97</ele>
        <time>2021-11-14T14:34:27Z</time>
      </trkpt>
      <trkpt lat="44.05925" lon="4.63744">
        <ele>127.41</ele>
        <time>2021-11-14T14:34:40Z</time>
      </trkpt>
      <trkpt lat="44.0594" lon="4.63753">
        <ele>126.58</ele>
        <time>2021-11-14T14:34:49Z</time>
      </trkpt>
      <trkpt lat="44.05939" lon="4.63755">
        <ele>126.73</ele>
        <time>2021-11-14T14:34:50Z</time>
      </trkpt>
      <trkpt lat="44.05939" lon="4.63759">
        <ele>127.17</ele>
        <time>2021-11-14T14:34:54Z</time>
      </trkpt>
      <trkpt lat="44.05939" lon="4.6376">
        <ele>127.28</ele>
        <time>2021-11-14T14:34:55Z</time>
      </trkpt>
      <trkpt lat="44.0594" lon="4.63762">
        <ele>127.45</ele>
        <time>2021-11-14T14:34:56Z</time>
      </trkpt>
      <trkpt lat="44.0594" lon="4.63769">
        <ele>130.47</ele>
        <time>2021-11-14T14:35:08Z</time>
      </trkpt>
      <trkpt lat="44.05939" lon="4.63778">
        <ele>131.93</ele>
        <time>2021-11-14T14:35:22Z</time>
      </trkpt>
      <trkpt lat="44.05938" lon="4.63781">
        <ele>131.26</ele>
        <time>2021-11-14T14:35:39Z</time>
      </trkpt>
      <trkpt lat="44.05945" lon="4.63797">
        <ele>133.56</ele>
        <time>2021-11-14T14:35:52Z</time>
      </trkpt>
      <trkpt lat="44.05945" lon="4.63799">
        <ele>133.73</ele>
        <time>2021-11-14T14:35:53Z</time>
      </trkpt>
      <trkpt lat="44.05946" lon="4.63801">
        <ele>133.76</ele>
        <time>2021-11-14T14:35:54Z</time>
      </trkpt>
      <trkpt lat="44.05963" lon="4.63826">
        <ele>136.2</ele>
        <time>2021-11-14T14:36:11Z</time>
      </trkpt>
      <trkpt lat="44.05964" lon="4.63827">
        <ele>136.4</ele>
        <time>2021-11-14T14:36:12Z</time>
      </trkpt>
      <trkpt lat="44.05965" lon="4.63828">
        <ele>136.34</ele>
        <time>2021-11-14T14:36:13Z</time>
      </trkpt>
      <trkpt lat="44.05965" lon="4.6383">
        <ele>136.54</ele>
        <time>2021-11-14T14:36:14Z</time>
      </trkpt>
      <trkpt lat="44.05966" lon="4.63832">
        <ele>136.69</ele>
        <time>2021-11-14T14:36:15Z</time>
      </trkpt>
      <trkpt lat="44.05967" lon="4.63833">
        <ele>136.94</ele>
        <time>2021-11-14T14:36:16Z</time>
      </trkpt>
      <trkpt lat="44.05967" lon="4.63835">
        <ele>137.04</ele>
        <time>2021-11-14T14:36:17Z</time>
      </trkpt>
      <trkpt lat="44.05968" lon="4.63837">
        <ele>137.04</ele>
        <time>2021-11-14T14:36:18Z</time>
      </trkpt>
      <trkpt lat="44.05968" lon="4.63838">
        <ele>136.96</ele>
        <time>2021-11-14T14:36:19Z</time>
      </trkpt>
      <trkpt lat="44.05969" lon="4.6384">
        <ele>137.11</ele>
        <time>2021-11-14T14:36:20Z</time>
      </trkpt>
      <trkpt lat="44.05969" lon="4.63842">
        <ele>136.82</ele>
        <time>2021-11-14T14:36:21Z</time>
      </trkpt>
      <trkpt lat="44.05969" lon="4.63844">
        <ele>136.63</ele>
        <time>2021-11-14T14:36:22Z</time>
      </trkpt>
      <trkpt lat="44.05969" lon="4.63846">
        <ele>136.96</ele>
        <time>2021-11-14T14:36:23Z</time>
      </trkpt>
      <trkpt lat="44.0597" lon="4.63847">
        <ele>136.75</ele>
        <time>2021-11-14T14:36:24Z</time>
      </trkpt>
      <trkpt lat="44.0597" lon="4.63849">
        <ele>136.77</ele>
        <time>2021-11-14T14:36:25Z</time>
      </trkpt>
      <trkpt lat="44.0597" lon="4.63851">
        <ele>136.97</ele>
        <time>2021-11-14T14:36:26Z</time>
      </trkpt>
      <trkpt lat="44.0597" lon="4.63853">
        <ele>137.16</ele>
        <time>2021-11-14T14:36:27Z</time>
      </trkpt>
      <trkpt lat="44.0597" lon="4.63855">
        <ele>137.35</ele>
        <time>2021-11-14T14:36:28Z</time>
      </trkpt>
      <trkpt lat="44.0597" lon="4.63857">
        <ele>137.34</ele>
        <time>2021-11-14T14:36:29Z</time>
      </trkpt>
      <trkpt lat="44.0597" lon="4.63859">
        <ele>137.53</ele>
        <time>2021-11-14T14:36:30Z</time>
      </trkpt>
      <trkpt lat="44.05971" lon="4.6386">
        <ele>137.8</ele>
        <time>2021-11-14T14:36:31Z</time>
      </trkpt>
      <trkpt lat="44.05971" lon="4.63862">
        <ele>137.95</ele>
        <time>2021-11-14T14:36:32Z</time>
      </trkpt>
      <trkpt lat="44.05974" lon="4.63883">
        <ele>138.45</ele>
        <time>2021-11-14T14:36:43Z</time>
      </trkpt>
      <trkpt lat="44.05974" lon="4.63884">
        <ele>138.99</ele>
        <time>2021-11-14T14:36:44Z</time>
      </trkpt>
      <trkpt lat="44.05975" lon="4.63886">
        <ele>139.28</ele>
        <time>2021-11-14T14:36:45Z</time>
      </trkpt>
      <trkpt lat="44.05975" lon="4.63888">
        <ele>139.66</ele>
        <time>2021-11-14T14:36:46Z</time>
      </trkpt>
      <trkpt lat="44.05975" lon="4.63889">
        <ele>139.87</ele>
        <time>2021-11-14T14:36:47Z</time>
      </trkpt>
      <trkpt lat="44.05974" lon="4.63918">
        <ele>139.54</ele>
        <time>2021-11-14T14:37:03Z</time>
      </trkpt>
      <trkpt lat="44.05978" lon="4.63953">
        <ele>140.14</ele>
        <time>2021-11-14T14:37:19Z</time>
      </trkpt>
      <trkpt lat="44.05987" lon="4.63989">
        <ele>143.38</ele>
        <time>2021-11-14T14:37:36Z</time>
      </trkpt>
      <trkpt lat="44.05989" lon="4.64012">
        <ele>142.9</ele>
        <time>2021-11-14T14:37:47Z</time>
      </trkpt>
      <trkpt lat="44.05989" lon="4.64017">
        <ele>143.32</ele>
        <time>2021-11-14T14:37:49Z</time>
      </trkpt>
      <trkpt lat="44.05989" lon="4.64019">
        <ele>143.52</ele>
        <time>2021-11-14T14:37:50Z</time>
      </trkpt>
      <trkpt lat="44.05989" lon="4.64022">
        <ele>143.7</ele>
        <time>2021-11-14T14:37:51Z</time>
      </trkpt>
      <trkpt lat="44.05989" lon="4.64024">
        <ele>143.73</ele>
        <time>2021-11-14T14:37:52Z</time>
      </trkpt>
      <trkpt lat="44.05989" lon="4.64026">
        <ele>143.87</ele>
        <time>2021-11-14T14:37:53Z</time>
      </trkpt>
      <trkpt lat="44.05987" lon="4.64068">
        <ele>144.05</ele>
        <time>2021-11-14T14:38:06Z</time>
      </trkpt>
      <trkpt lat="44.05984" lon="4.64134">
        <ele>142.83</ele>
        <time>2021-11-14T14:38:19Z</time>
      </trkpt>
      <trkpt lat="44.05975" lon="4.6419">
        <ele>141.98</ele>
        <time>2021-11-14T14:38:32Z</time>
      </trkpt>
      <trkpt lat="44.05965" lon="4.64236">
        <ele>142.46</ele>
        <time>2021-11-14T14:38:44Z</time>
      </trkpt>
      <trkpt lat="44.05968" lon="4.64281">
        <ele>142.13</ele>
        <time>2021-11-14T14:38:57Z</time>
      </trkpt>
      <trkpt lat="44.05991" lon="4.64328">
        <ele>142.25</ele>
        <time>2021-11-14T14:39:10Z</time>
      </trkpt>
      <trkpt lat="44.0603" lon="4.64387">
        <ele>140.04</ele>
        <time>2021-11-14T14:39:24Z</time>
      </trkpt>
      <trkpt lat="44.06064" lon="4.64439">
        <ele>139.51</ele>
        <time>2021-11-14T14:39:39Z</time>
      </trkpt>
      <trkpt lat="44.0607" lon="4.64471">
        <ele>139.23</ele>
        <time>2021-11-14T14:39:46Z</time>
      </trkpt>
      <trkpt lat="44.06073" lon="4.64522">
        <ele>136.66</ele>
        <time>2021-11-14T14:39:55Z</time>
      </trkpt>
      <trkpt lat="44.06073" lon="4.64529">
        <ele>136.66</ele>
        <time>2021-11-14T14:39:56Z</time>
      </trkpt>
      <trkpt lat="44.06074" lon="4.6455">
        <ele>136.19</ele>
        <time>2021-11-14T14:39:59Z</time>
      </trkpt>
      <trkpt lat="44.06075" lon="4.64558">
        <ele>135.77</ele>
        <time>2021-11-14T14:40:00Z</time>
      </trkpt>
      <trkpt lat="44.06076" lon="4.64565">
        <ele>135.63</ele>
        <time>2021-11-14T14:40:01Z</time>
      </trkpt>
      <trkpt lat="44.06077" lon="4.64622">
        <ele>133.43</ele>
        <time>2021-11-14T14:40:08Z</time>
      </trkpt>
      <trkpt lat="44.06076" lon="4.64628">
        <ele>133.01</ele>
        <time>2021-11-14T14:40:09Z</time>
      </trkpt>
      <trkpt lat="44.06069" lon="4.6471">
        <ele>130.38</ele>
        <time>2021-11-14T14:40:23Z</time>
      </trkpt>
      <trkpt lat="44.06072" lon="4.64776">
        <ele>129.71</ele>
        <time>2021-11-14T14:40:36Z</time>
      </trkpt>
      <trkpt lat="44.06077" lon="4.64793">
        <ele>128.94</ele>
        <time>2021-11-14T14:40:40Z</time>
      </trkpt>
      <trkpt lat="44.0608" lon="4.64796">
        <ele>129.12</ele>
        <time>2021-11-14T14:40:41Z</time>
      </trkpt>
      <trkpt lat="44.06083" lon="4.64799">
        <ele>129.06</ele>
        <time>2021-11-14T14:40:42Z</time>
      </trkpt>
      <trkpt lat="44.06087" lon="4.648">
        <ele>129</ele>
        <time>2021-11-14T14:40:43Z</time>
      </trkpt>
      <trkpt lat="44.0609" lon="4.64801">
        <ele>129.1</ele>
        <time>2021-11-14T14:40:44Z</time>
      </trkpt>
      <trkpt lat="44.06093" lon="4.64801">
        <ele>129.06</ele>
        <time>2021-11-14T14:40:45Z</time>
      </trkpt>
      <trkpt lat="44.06152" lon="4.648">
        <ele>127.81</ele>
        <time>2021-11-14T14:41:01Z</time>
      </trkpt>
      <trkpt lat="44.06167" lon="4.64807">
        <ele>127.49</ele>
        <time>2021-11-14T14:41:05Z</time>
      </trkpt>
      <trkpt lat="44.06208" lon="4.64821">
        <ele>125.49</ele>
        <time>2021-11-14T14:41:14Z</time>
      </trkpt>
      <trkpt lat="44.06212" lon="4.64821">
        <ele>125.1</ele>
        <time>2021-11-14T14:41:15Z</time>
      </trkpt>
      <trkpt lat="44.06216" lon="4.6482">
        <ele>124.83</ele>
        <time>2021-11-14T14:41:16Z</time>
      </trkpt>
    </trkseg>
  </trk>
</gpx>